<?xml version="1.0" encoding="UTF-8" standalone="no" ?>
<gpx xmlns="http://www.topografix.com/GPX/1/1" xmlns:xsi="http://www.w3.org/2001/XMLSchema-instance" xsi:schemaLocation="http://www.topografix.com/GPX/1/1 http://www.topografix.com/GPX/1/1/gpx.xsd" version="1.1" creator="VisuGPX - https://www.visugpx.com">
  <metadata>
    <name>sortie VTC le long de l'authion et de la Maine le 30 09 2020</name>
    <desc><![CDATA[sortie VTC le long de l'authion et de la Maine le 30 09 2020]]></desc>
  </metadata>
  <trk>
    <name><![CDATA[sortie VTC le long de l'authion et de la Maine le 30 09 2020_1]]></name>
    <trkseg>
      <trkpt lat="47.452" lon="-0.55798">
        <ele>3</ele>
        <time>2020-09-30T10:26:54Z</time>
      </trkpt>
      <trkpt lat="47.45209" lon="-0.55811">
        <ele>2.4</ele>
        <time>2020-09-30T10:26:59Z</time>
      </trkpt>
      <trkpt lat="47.45213" lon="-0.55823">
        <ele>1.6</ele>
        <time>2020-09-30T10:27:02Z</time>
      </trkpt>
      <trkpt lat="47.45221" lon="-0.55833">
        <ele>1</ele>
        <time>2020-09-30T10:27:06Z</time>
      </trkpt>
      <trkpt lat="47.45226" lon="-0.55835">
        <ele>0.60000000000002</ele>
        <time>2020-09-30T10:27:08Z</time>
      </trkpt>
      <trkpt lat="47.45233" lon="-0.55836">
        <ele>-0.39999999999998</ele>
        <time>2020-09-30T10:27:11Z</time>
      </trkpt>
      <trkpt lat="47.45237" lon="-0.55837">
        <ele>-1.2</ele>
        <time>2020-09-30T10:27:13Z</time>
      </trkpt>
      <trkpt lat="47.4524" lon="-0.55837">
        <ele>-1.4</ele>
        <time>2020-09-30T10:27:14Z</time>
      </trkpt>
      <trkpt lat="47.4525" lon="-0.55842">
        <ele>-2.6</ele>
        <time>2020-09-30T10:27:18Z</time>
      </trkpt>
      <trkpt lat="47.45253" lon="-0.55847">
        <ele>-2.8</ele>
        <time>2020-09-30T10:27:20Z</time>
      </trkpt>
      <trkpt lat="47.45261" lon="-0.55864">
        <ele>-3.6</ele>
        <time>2020-09-30T10:27:27Z</time>
      </trkpt>
      <trkpt lat="47.45261" lon="-0.55864">
        <ele>-3.8</ele>
        <time>2020-09-30T10:27:28Z</time>
      </trkpt>
      <trkpt lat="47.45264" lon="-0.55864">
        <ele>-15</ele>
        <time>2020-09-30T10:27:41Z</time>
      </trkpt>
      <trkpt lat="47.45264" lon="-0.55867">
        <ele>-14.2</ele>
        <time>2020-09-30T10:27:42Z</time>
      </trkpt>
      <trkpt lat="47.45264" lon="-0.5587">
        <ele>-13.8</ele>
        <time>2020-09-30T10:27:43Z</time>
      </trkpt>
      <trkpt lat="47.45263" lon="-0.55872">
        <ele>-13.8</ele>
        <time>2020-09-30T10:27:44Z</time>
      </trkpt>
      <trkpt lat="47.45259" lon="-0.55877">
        <ele>-13.2</ele>
        <time>2020-09-30T10:27:46Z</time>
      </trkpt>
      <trkpt lat="47.45253" lon="-0.55883">
        <ele>-12.6</ele>
        <time>2020-09-30T10:27:48Z</time>
      </trkpt>
      <trkpt lat="47.45243" lon="-0.55893">
        <ele>-12</ele>
        <time>2020-09-30T10:27:51Z</time>
      </trkpt>
      <trkpt lat="47.4524" lon="-0.55897">
        <ele>-11.8</ele>
        <time>2020-09-30T10:27:52Z</time>
      </trkpt>
      <trkpt lat="47.45238" lon="-0.55902">
        <ele>-11.6</ele>
        <time>2020-09-30T10:27:53Z</time>
      </trkpt>
      <trkpt lat="47.45238" lon="-0.55908">
        <ele>-11.6</ele>
        <time>2020-09-30T10:27:54Z</time>
      </trkpt>
      <trkpt lat="47.45244" lon="-0.55923">
        <ele>-11.4</ele>
        <time>2020-09-30T10:27:57Z</time>
      </trkpt>
      <trkpt lat="47.45246" lon="-0.55927">
        <ele>-11.2</ele>
        <time>2020-09-30T10:27:58Z</time>
      </trkpt>
      <trkpt lat="47.45248" lon="-0.55931">
        <ele>-10.2</ele>
        <time>2020-09-30T10:27:59Z</time>
      </trkpt>
      <trkpt lat="47.45257" lon="-0.55944">
        <ele>-9</ele>
        <time>2020-09-30T10:28:02Z</time>
      </trkpt>
      <trkpt lat="47.45266" lon="-0.55959">
        <ele>-8</ele>
        <time>2020-09-30T10:28:05Z</time>
      </trkpt>
      <trkpt lat="47.45269" lon="-0.55964">
        <ele>-7.8</ele>
        <time>2020-09-30T10:28:06Z</time>
      </trkpt>
      <trkpt lat="47.45283" lon="-0.55989">
        <ele>-6.8</ele>
        <time>2020-09-30T10:28:11Z</time>
      </trkpt>
      <trkpt lat="47.45288" lon="-0.55999">
        <ele>-6.6</ele>
        <time>2020-09-30T10:28:13Z</time>
      </trkpt>
      <trkpt lat="47.45297" lon="-0.56018">
        <ele>-6</ele>
        <time>2020-09-30T10:28:18Z</time>
      </trkpt>
      <trkpt lat="47.45293" lon="-0.56016">
        <ele>-6.2</ele>
        <time>2020-09-30T10:28:21Z</time>
      </trkpt>
      <trkpt lat="47.4529" lon="-0.56007">
        <ele>-6.4</ele>
        <time>2020-09-30T10:28:23Z</time>
      </trkpt>
      <trkpt lat="47.45286" lon="-0.55997">
        <ele>-6.2</ele>
        <time>2020-09-30T10:28:25Z</time>
      </trkpt>
      <trkpt lat="47.45268" lon="-0.55958">
        <ele>-5.6</ele>
        <time>2020-09-30T10:28:32Z</time>
      </trkpt>
      <trkpt lat="47.45241" lon="-0.55908">
        <ele>-5.6</ele>
        <time>2020-09-30T10:28:42Z</time>
      </trkpt>
      <trkpt lat="47.45236" lon="-0.55897">
        <ele>-5.4</ele>
        <time>2020-09-30T10:28:46Z</time>
      </trkpt>
      <trkpt lat="47.45228" lon="-0.55877">
        <ele>-6.2</ele>
        <time>2020-09-30T10:28:50Z</time>
      </trkpt>
      <trkpt lat="47.4521" lon="-0.55837">
        <ele>-5.8</ele>
        <time>2020-09-30T10:28:57Z</time>
      </trkpt>
      <trkpt lat="47.45196" lon="-0.5581">
        <ele>-6</ele>
        <time>2020-09-30T10:29:02Z</time>
      </trkpt>
      <trkpt lat="47.4519" lon="-0.55803">
        <ele>-5.8</ele>
        <time>2020-09-30T10:29:04Z</time>
      </trkpt>
      <trkpt lat="47.45184" lon="-0.55797">
        <ele>-5.8</ele>
        <time>2020-09-30T10:29:06Z</time>
      </trkpt>
      <trkpt lat="47.45179" lon="-0.55784">
        <ele>-5.6</ele>
        <time>2020-09-30T10:29:09Z</time>
      </trkpt>
      <trkpt lat="47.45172" lon="-0.55768">
        <ele>-5.8</ele>
        <time>2020-09-30T10:29:14Z</time>
      </trkpt>
      <trkpt lat="47.45181" lon="-0.55775">
        <ele>-7.4</ele>
        <time>2020-09-30T10:32:38Z</time>
      </trkpt>
      <trkpt lat="47.45183" lon="-0.55781">
        <ele>-7.2</ele>
        <time>2020-09-30T10:32:40Z</time>
      </trkpt>
      <trkpt lat="47.45185" lon="-0.55786">
        <ele>-6.4</ele>
        <time>2020-09-30T10:32:41Z</time>
      </trkpt>
      <trkpt lat="47.45189" lon="-0.55793">
        <ele>-5.4</ele>
        <time>2020-09-30T10:32:43Z</time>
      </trkpt>
      <trkpt lat="47.45191" lon="-0.55796">
        <ele>-4.6</ele>
        <time>2020-09-30T10:32:44Z</time>
      </trkpt>
      <trkpt lat="47.45194" lon="-0.55798">
        <ele>-3.8</ele>
        <time>2020-09-30T10:32:45Z</time>
      </trkpt>
      <trkpt lat="47.45197" lon="-0.558">
        <ele>-3.6</ele>
        <time>2020-09-30T10:32:46Z</time>
      </trkpt>
      <trkpt lat="47.45204" lon="-0.55804">
        <ele>-2.6</ele>
        <time>2020-09-30T10:32:48Z</time>
      </trkpt>
      <trkpt lat="47.45208" lon="-0.55808">
        <ele>-2.2</ele>
        <time>2020-09-30T10:32:49Z</time>
      </trkpt>
      <trkpt lat="47.45211" lon="-0.55812">
        <ele>-1.8</ele>
        <time>2020-09-30T10:32:50Z</time>
      </trkpt>
      <trkpt lat="47.45216" lon="-0.55823">
        <ele>-1.4</ele>
        <time>2020-09-30T10:32:52Z</time>
      </trkpt>
      <trkpt lat="47.45221" lon="-0.55834">
        <ele>-1.2</ele>
        <time>2020-09-30T10:32:54Z</time>
      </trkpt>
      <trkpt lat="47.45226" lon="-0.55845">
        <ele>-1.4</ele>
        <time>2020-09-30T10:32:56Z</time>
      </trkpt>
      <trkpt lat="47.45243" lon="-0.55883">
        <ele>-1.2</ele>
        <time>2020-09-30T10:33:04Z</time>
      </trkpt>
      <trkpt lat="47.4525" lon="-0.55902">
        <ele>-0.39999999999998</ele>
        <time>2020-09-30T10:33:09Z</time>
      </trkpt>
      <trkpt lat="47.45257" lon="-0.55918">
        <ele>30.3</ele>
        <time>2020-09-30T10:33:12Z</time>
      </trkpt>
      <trkpt lat="47.45265" lon="-0.55933">
        <ele>0.60000000000002</ele>
        <time>2020-09-30T10:33:15Z</time>
      </trkpt>
      <trkpt lat="47.45276" lon="-0.55954">
        <ele>1</ele>
        <time>2020-09-30T10:33:19Z</time>
      </trkpt>
      <trkpt lat="47.45282" lon="-0.55973">
        <ele>9.6</ele>
        <time>2020-09-30T10:33:23Z</time>
      </trkpt>
      <trkpt lat="47.45283" lon="-0.55978">
        <ele>12.6</ele>
        <time>2020-09-30T10:33:24Z</time>
      </trkpt>
      <trkpt lat="47.45284" lon="-0.55983">
        <ele>14.4</ele>
        <time>2020-09-30T10:33:25Z</time>
      </trkpt>
      <trkpt lat="47.45287" lon="-0.55988">
        <ele>15.4</ele>
        <time>2020-09-30T10:33:26Z</time>
      </trkpt>
      <trkpt lat="47.45295" lon="-0.56003">
        <ele>16.4</ele>
        <time>2020-09-30T10:33:29Z</time>
      </trkpt>
      <trkpt lat="47.45308" lon="-0.5603">
        <ele>17.8</ele>
        <time>2020-09-30T10:33:34Z</time>
      </trkpt>
      <trkpt lat="47.45313" lon="-0.5604">
        <ele>18.2</ele>
        <time>2020-09-30T10:33:36Z</time>
      </trkpt>
      <trkpt lat="47.45324" lon="-0.56061">
        <ele>18.8</ele>
        <time>2020-09-30T10:33:40Z</time>
      </trkpt>
      <trkpt lat="47.45338" lon="-0.56088">
        <ele>19.6</ele>
        <time>2020-09-30T10:33:45Z</time>
      </trkpt>
      <trkpt lat="47.45343" lon="-0.56099">
        <ele>19.8</ele>
        <time>2020-09-30T10:33:47Z</time>
      </trkpt>
      <trkpt lat="47.45354" lon="-0.56122">
        <ele>19.6</ele>
        <time>2020-09-30T10:33:51Z</time>
      </trkpt>
      <trkpt lat="47.4536" lon="-0.56133">
        <ele>19.8</ele>
        <time>2020-09-30T10:33:53Z</time>
      </trkpt>
      <trkpt lat="47.45383" lon="-0.56177">
        <ele>20.2</ele>
        <time>2020-09-30T10:34:01Z</time>
      </trkpt>
      <trkpt lat="47.45413" lon="-0.56236">
        <ele>20.4</ele>
        <time>2020-09-30T10:34:12Z</time>
      </trkpt>
      <trkpt lat="47.4543" lon="-0.56267">
        <ele>21</ele>
        <time>2020-09-30T10:34:18Z</time>
      </trkpt>
      <trkpt lat="47.45441" lon="-0.56288">
        <ele>21.4</ele>
        <time>2020-09-30T10:34:22Z</time>
      </trkpt>
      <trkpt lat="47.45455" lon="-0.56313">
        <ele>22</ele>
        <time>2020-09-30T10:34:27Z</time>
      </trkpt>
      <trkpt lat="47.45462" lon="-0.56325">
        <ele>22.4</ele>
        <time>2020-09-30T10:34:30Z</time>
      </trkpt>
      <trkpt lat="47.45468" lon="-0.56337">
        <ele>22.6</ele>
        <time>2020-09-30T10:34:35Z</time>
      </trkpt>
      <trkpt lat="47.45469" lon="-0.56342">
        <ele>23</ele>
        <time>2020-09-30T10:34:37Z</time>
      </trkpt>
      <trkpt lat="47.45469" lon="-0.56346">
        <ele>23.4</ele>
        <time>2020-09-30T10:34:38Z</time>
      </trkpt>
      <trkpt lat="47.45466" lon="-0.56348">
        <ele>23.4</ele>
        <time>2020-09-30T10:34:39Z</time>
      </trkpt>
      <trkpt lat="47.45456" lon="-0.56357">
        <ele>23.4</ele>
        <time>2020-09-30T10:34:42Z</time>
      </trkpt>
      <trkpt lat="47.45452" lon="-0.56361">
        <ele>23.4</ele>
        <time>2020-09-30T10:34:43Z</time>
      </trkpt>
      <trkpt lat="47.45419" lon="-0.56386">
        <ele>24.6</ele>
        <time>2020-09-30T10:34:51Z</time>
      </trkpt>
      <trkpt lat="47.45398" lon="-0.56406">
        <ele>25.2</ele>
        <time>2020-09-30T10:34:56Z</time>
      </trkpt>
      <trkpt lat="47.45391" lon="-0.56415">
        <ele>25.4</ele>
        <time>2020-09-30T10:34:58Z</time>
      </trkpt>
      <trkpt lat="47.45387" lon="-0.5642">
        <ele>25.6</ele>
        <time>2020-09-30T10:34:59Z</time>
      </trkpt>
      <trkpt lat="47.45367" lon="-0.5645">
        <ele>26.6</ele>
        <time>2020-09-30T10:35:05Z</time>
      </trkpt>
      <trkpt lat="47.45351" lon="-0.56476">
        <ele>27.8</ele>
        <time>2020-09-30T10:35:10Z</time>
      </trkpt>
      <trkpt lat="47.45347" lon="-0.56481">
        <ele>28.2</ele>
        <time>2020-09-30T10:35:11Z</time>
      </trkpt>
      <trkpt lat="47.45331" lon="-0.56506">
        <ele>29.4</ele>
        <time>2020-09-30T10:35:16Z</time>
      </trkpt>
      <trkpt lat="47.45321" lon="-0.56521">
        <ele>30.4</ele>
        <time>2020-09-30T10:35:19Z</time>
      </trkpt>
      <trkpt lat="47.45317" lon="-0.56526">
        <ele>30.4</ele>
        <time>2020-09-30T10:35:20Z</time>
      </trkpt>
      <trkpt lat="47.45283" lon="-0.5657">
        <ele>30.8</ele>
        <time>2020-09-30T10:35:29Z</time>
      </trkpt>
      <trkpt lat="47.45238" lon="-0.56622">
        <ele>30.8</ele>
        <time>2020-09-30T10:35:40Z</time>
      </trkpt>
      <trkpt lat="47.45204" lon="-0.56659">
        <ele>31.6</ele>
        <time>2020-09-30T10:35:48Z</time>
      </trkpt>
      <trkpt lat="47.452" lon="-0.56663">
        <ele>32</ele>
        <time>2020-09-30T10:35:49Z</time>
      </trkpt>
      <trkpt lat="47.45195" lon="-0.56667">
        <ele>32.8</ele>
        <time>2020-09-30T10:35:50Z</time>
      </trkpt>
      <trkpt lat="47.45168" lon="-0.5669">
        <ele>32.6</ele>
        <time>2020-09-30T10:35:56Z</time>
      </trkpt>
      <trkpt lat="47.45131" lon="-0.56716">
        <ele>32</ele>
        <time>2020-09-30T10:36:04Z</time>
      </trkpt>
      <trkpt lat="47.45094" lon="-0.56738">
        <ele>31.8</ele>
        <time>2020-09-30T10:36:12Z</time>
      </trkpt>
      <trkpt lat="47.45089" lon="-0.56741">
        <ele>31.8</ele>
        <time>2020-09-30T10:36:13Z</time>
      </trkpt>
      <trkpt lat="47.45051" lon="-0.56764">
        <ele>30.8</ele>
        <time>2020-09-30T10:36:22Z</time>
      </trkpt>
      <trkpt lat="47.45045" lon="-0.56772">
        <ele>31</ele>
        <time>2020-09-30T10:36:24Z</time>
      </trkpt>
      <trkpt lat="47.45045" lon="-0.56779">
        <ele>31</ele>
        <time>2020-09-30T10:36:25Z</time>
      </trkpt>
      <trkpt lat="47.45051" lon="-0.56796">
        <ele>31.6</ele>
        <time>2020-09-30T10:36:28Z</time>
      </trkpt>
      <trkpt lat="47.45054" lon="-0.56801">
        <ele>31.6</ele>
        <time>2020-09-30T10:36:29Z</time>
      </trkpt>
      <trkpt lat="47.45074" lon="-0.56839">
        <ele>31.8</ele>
        <time>2020-09-30T10:36:36Z</time>
      </trkpt>
      <trkpt lat="47.45095" lon="-0.56879">
        <ele>31.8</ele>
        <time>2020-09-30T10:36:43Z</time>
      </trkpt>
      <trkpt lat="47.45121" lon="-0.56934">
        <ele>32</ele>
        <time>2020-09-30T10:36:52Z</time>
      </trkpt>
      <trkpt lat="47.45147" lon="-0.56991">
        <ele>32</ele>
        <time>2020-09-30T10:37:01Z</time>
      </trkpt>
      <trkpt lat="47.45162" lon="-0.57023">
        <ele>32.8</ele>
        <time>2020-09-30T10:37:06Z</time>
      </trkpt>
      <trkpt lat="47.45166" lon="-0.57034">
        <ele>33.2</ele>
        <time>2020-09-30T10:37:08Z</time>
      </trkpt>
      <trkpt lat="47.45176" lon="-0.57054">
        <ele>34</ele>
        <time>2020-09-30T10:37:12Z</time>
      </trkpt>
      <trkpt lat="47.45184" lon="-0.57071">
        <ele>34.4</ele>
        <time>2020-09-30T10:37:16Z</time>
      </trkpt>
      <trkpt lat="47.45191" lon="-0.57085">
        <ele>35</ele>
        <time>2020-09-30T10:37:21Z</time>
      </trkpt>
      <trkpt lat="47.45193" lon="-0.57089">
        <ele>35.4</ele>
        <time>2020-09-30T10:37:26Z</time>
      </trkpt>
      <trkpt lat="47.45194" lon="-0.57091">
        <ele>35.6</ele>
        <time>2020-09-30T10:37:27Z</time>
      </trkpt>
      <trkpt lat="47.45197" lon="-0.5711">
        <ele>35.8</ele>
        <time>2020-09-30T10:37:31Z</time>
      </trkpt>
      <trkpt lat="47.45196" lon="-0.57116">
        <ele>35.8</ele>
        <time>2020-09-30T10:37:32Z</time>
      </trkpt>
      <trkpt lat="47.45192" lon="-0.57126">
        <ele>36.2</ele>
        <time>2020-09-30T10:37:34Z</time>
      </trkpt>
      <trkpt lat="47.45189" lon="-0.57131">
        <ele>36.2</ele>
        <time>2020-09-30T10:37:35Z</time>
      </trkpt>
      <trkpt lat="47.45177" lon="-0.57141">
        <ele>36.4</ele>
        <time>2020-09-30T10:37:38Z</time>
      </trkpt>
      <trkpt lat="47.45164" lon="-0.57151">
        <ele>36.4</ele>
        <time>2020-09-30T10:37:41Z</time>
      </trkpt>
      <trkpt lat="47.45135" lon="-0.57173">
        <ele>36.6</ele>
        <time>2020-09-30T10:37:48Z</time>
      </trkpt>
      <trkpt lat="47.45096" lon="-0.57203">
        <ele>36.8</ele>
        <time>2020-09-30T10:37:57Z</time>
      </trkpt>
      <trkpt lat="47.45071" lon="-0.57221">
        <ele>37.2</ele>
        <time>2020-09-30T10:38:03Z</time>
      </trkpt>
      <trkpt lat="47.45057" lon="-0.57231">
        <ele>37.6</ele>
        <time>2020-09-30T10:38:06Z</time>
      </trkpt>
      <trkpt lat="47.45021" lon="-0.57256">
        <ele>37.6</ele>
        <time>2020-09-30T10:38:14Z</time>
      </trkpt>
      <trkpt lat="47.45017" lon="-0.57258">
        <ele>37.6</ele>
        <time>2020-09-30T10:38:15Z</time>
      </trkpt>
      <trkpt lat="47.44983" lon="-0.5727">
        <ele>37</ele>
        <time>2020-09-30T10:38:22Z</time>
      </trkpt>
      <trkpt lat="47.44941" lon="-0.57288">
        <ele>36.4</ele>
        <time>2020-09-30T10:38:31Z</time>
      </trkpt>
      <trkpt lat="47.44932" lon="-0.57293">
        <ele>36</ele>
        <time>2020-09-30T10:38:33Z</time>
      </trkpt>
      <trkpt lat="47.44924" lon="-0.573">
        <ele>35.8</ele>
        <time>2020-09-30T10:38:35Z</time>
      </trkpt>
      <trkpt lat="47.44917" lon="-0.57308">
        <ele>35.8</ele>
        <time>2020-09-30T10:38:37Z</time>
      </trkpt>
      <trkpt lat="47.4491" lon="-0.57319">
        <ele>35.8</ele>
        <time>2020-09-30T10:38:39Z</time>
      </trkpt>
      <trkpt lat="47.44904" lon="-0.57329">
        <ele>35.8</ele>
        <time>2020-09-30T10:38:41Z</time>
      </trkpt>
      <trkpt lat="47.44894" lon="-0.57335">
        <ele>35.8</ele>
        <time>2020-09-30T10:38:43Z</time>
      </trkpt>
      <trkpt lat="47.44884" lon="-0.57336">
        <ele>35.8</ele>
        <time>2020-09-30T10:38:45Z</time>
      </trkpt>
      <trkpt lat="47.44879" lon="-0.57337">
        <ele>35.8</ele>
        <time>2020-09-30T10:38:46Z</time>
      </trkpt>
      <trkpt lat="47.44874" lon="-0.5734">
        <ele>35.8</ele>
        <time>2020-09-30T10:38:47Z</time>
      </trkpt>
      <trkpt lat="47.44842" lon="-0.57366">
        <ele>35.4</ele>
        <time>2020-09-30T10:38:54Z</time>
      </trkpt>
      <trkpt lat="47.44796" lon="-0.57403">
        <ele>35.6</ele>
        <time>2020-09-30T10:39:04Z</time>
      </trkpt>
      <trkpt lat="47.44756" lon="-0.57439">
        <ele>35.6</ele>
        <time>2020-09-30T10:39:13Z</time>
      </trkpt>
      <trkpt lat="47.44707" lon="-0.5748">
        <ele>36</ele>
        <time>2020-09-30T10:39:24Z</time>
      </trkpt>
      <trkpt lat="47.44674" lon="-0.5751">
        <ele>37.2</ele>
        <time>2020-09-30T10:39:32Z</time>
      </trkpt>
      <trkpt lat="47.44645" lon="-0.57536">
        <ele>38.2</ele>
        <time>2020-09-30T10:39:39Z</time>
      </trkpt>
      <trkpt lat="47.4464" lon="-0.57539">
        <ele>38.4</ele>
        <time>2020-09-30T10:39:40Z</time>
      </trkpt>
      <trkpt lat="47.44603" lon="-0.5757">
        <ele>39.2</ele>
        <time>2020-09-30T10:39:49Z</time>
      </trkpt>
      <trkpt lat="47.44598" lon="-0.57574">
        <ele>39.4</ele>
        <time>2020-09-30T10:39:50Z</time>
      </trkpt>
      <trkpt lat="47.44554" lon="-0.57612">
        <ele>40.4</ele>
        <time>2020-09-30T10:40:01Z</time>
      </trkpt>
      <trkpt lat="47.44522" lon="-0.57638">
        <ele>41</ele>
        <time>2020-09-30T10:40:09Z</time>
      </trkpt>
      <trkpt lat="47.44491" lon="-0.57666">
        <ele>41.4</ele>
        <time>2020-09-30T10:40:17Z</time>
      </trkpt>
      <trkpt lat="47.44484" lon="-0.57674">
        <ele>41.4</ele>
        <time>2020-09-30T10:40:19Z</time>
      </trkpt>
      <trkpt lat="47.44472" lon="-0.57686">
        <ele>41.4</ele>
        <time>2020-09-30T10:40:22Z</time>
      </trkpt>
      <trkpt lat="47.44454" lon="-0.57696">
        <ele>41.4</ele>
        <time>2020-09-30T10:40:26Z</time>
      </trkpt>
      <trkpt lat="47.4445" lon="-0.57699">
        <ele>41.2</ele>
        <time>2020-09-30T10:40:27Z</time>
      </trkpt>
      <trkpt lat="47.44417" lon="-0.57728">
        <ele>40.6</ele>
        <time>2020-09-30T10:40:35Z</time>
      </trkpt>
      <trkpt lat="47.44388" lon="-0.57752">
        <ele>40.2</ele>
        <time>2020-09-30T10:40:42Z</time>
      </trkpt>
      <trkpt lat="47.44379" lon="-0.57759">
        <ele>40</ele>
        <time>2020-09-30T10:40:44Z</time>
      </trkpt>
      <trkpt lat="47.4435" lon="-0.57785">
        <ele>39.2</ele>
        <time>2020-09-30T10:40:51Z</time>
      </trkpt>
      <trkpt lat="47.44341" lon="-0.57793">
        <ele>39</ele>
        <time>2020-09-30T10:40:53Z</time>
      </trkpt>
      <trkpt lat="47.44309" lon="-0.57822">
        <ele>38</ele>
        <time>2020-09-30T10:41:00Z</time>
      </trkpt>
      <trkpt lat="47.44299" lon="-0.5783">
        <ele>37.8</ele>
        <time>2020-09-30T10:41:02Z</time>
      </trkpt>
      <trkpt lat="47.44279" lon="-0.57847">
        <ele>37</ele>
        <time>2020-09-30T10:41:06Z</time>
      </trkpt>
      <trkpt lat="47.44255" lon="-0.57868">
        <ele>36.4</ele>
        <time>2020-09-30T10:41:11Z</time>
      </trkpt>
      <trkpt lat="47.44236" lon="-0.57884">
        <ele>36</ele>
        <time>2020-09-30T10:41:15Z</time>
      </trkpt>
      <trkpt lat="47.44208" lon="-0.57909">
        <ele>35.6</ele>
        <time>2020-09-30T10:41:21Z</time>
      </trkpt>
      <trkpt lat="47.44161" lon="-0.57949">
        <ele>35</ele>
        <time>2020-09-30T10:41:31Z</time>
      </trkpt>
      <trkpt lat="47.44156" lon="-0.57953">
        <ele>35</ele>
        <time>2020-09-30T10:41:32Z</time>
      </trkpt>
      <trkpt lat="47.44151" lon="-0.57957">
        <ele>34.8</ele>
        <time>2020-09-30T10:41:33Z</time>
      </trkpt>
      <trkpt lat="47.44106" lon="-0.57997">
        <ele>34.2</ele>
        <time>2020-09-30T10:41:43Z</time>
      </trkpt>
      <trkpt lat="47.44069" lon="-0.58029">
        <ele>34</ele>
        <time>2020-09-30T10:41:51Z</time>
      </trkpt>
      <trkpt lat="47.44055" lon="-0.58041">
        <ele>33.6</ele>
        <time>2020-09-30T10:41:54Z</time>
      </trkpt>
      <trkpt lat="47.44016" lon="-0.58074">
        <ele>32.8</ele>
        <time>2020-09-30T10:42:02Z</time>
      </trkpt>
      <trkpt lat="47.44007" lon="-0.58082">
        <ele>32.8</ele>
        <time>2020-09-30T10:42:04Z</time>
      </trkpt>
      <trkpt lat="47.43964" lon="-0.58119">
        <ele>32</ele>
        <time>2020-09-30T10:42:13Z</time>
      </trkpt>
      <trkpt lat="47.43955" lon="-0.58127">
        <ele>31.8</ele>
        <time>2020-09-30T10:42:15Z</time>
      </trkpt>
      <trkpt lat="47.4392" lon="-0.58156">
        <ele>31</ele>
        <time>2020-09-30T10:42:22Z</time>
      </trkpt>
      <trkpt lat="47.43909" lon="-0.58166">
        <ele>30.6</ele>
        <time>2020-09-30T10:42:24Z</time>
      </trkpt>
      <trkpt lat="47.43876" lon="-0.58194">
        <ele>29.6</ele>
        <time>2020-09-30T10:42:30Z</time>
      </trkpt>
      <trkpt lat="47.43831" lon="-0.58232">
        <ele>28.8</ele>
        <time>2020-09-30T10:42:38Z</time>
      </trkpt>
      <trkpt lat="47.43826" lon="-0.58237">
        <ele>28.6</ele>
        <time>2020-09-30T10:42:39Z</time>
      </trkpt>
      <trkpt lat="47.43785" lon="-0.58271">
        <ele>27.6</ele>
        <time>2020-09-30T10:42:47Z</time>
      </trkpt>
      <trkpt lat="47.4374" lon="-0.58311">
        <ele>26.8</ele>
        <time>2020-09-30T10:42:56Z</time>
      </trkpt>
      <trkpt lat="47.4372" lon="-0.58328">
        <ele>26.4</ele>
        <time>2020-09-30T10:43:00Z</time>
      </trkpt>
      <trkpt lat="47.43685" lon="-0.58358">
        <ele>25.8</ele>
        <time>2020-09-30T10:43:07Z</time>
      </trkpt>
      <trkpt lat="47.43648" lon="-0.58393">
        <ele>25.6</ele>
        <time>2020-09-30T10:43:15Z</time>
      </trkpt>
      <trkpt lat="47.43638" lon="-0.58401">
        <ele>25.4</ele>
        <time>2020-09-30T10:43:17Z</time>
      </trkpt>
      <trkpt lat="47.43601" lon="-0.58434">
        <ele>25.2</ele>
        <time>2020-09-30T10:43:25Z</time>
      </trkpt>
      <trkpt lat="47.43557" lon="-0.58473">
        <ele>25.4</ele>
        <time>2020-09-30T10:43:35Z</time>
      </trkpt>
      <trkpt lat="47.43524" lon="-0.58506">
        <ele>26.2</ele>
        <time>2020-09-30T10:43:43Z</time>
      </trkpt>
      <trkpt lat="47.43511" lon="-0.58517">
        <ele>26.4</ele>
        <time>2020-09-30T10:43:46Z</time>
      </trkpt>
      <trkpt lat="47.43482" lon="-0.58545">
        <ele>26.2</ele>
        <time>2020-09-30T10:43:53Z</time>
      </trkpt>
      <trkpt lat="47.43445" lon="-0.5858">
        <ele>25.6</ele>
        <time>2020-09-30T10:44:01Z</time>
      </trkpt>
      <trkpt lat="47.43434" lon="-0.58589">
        <ele>25.4</ele>
        <time>2020-09-30T10:44:03Z</time>
      </trkpt>
      <trkpt lat="47.43405" lon="-0.58616">
        <ele>24</ele>
        <time>2020-09-30T10:44:08Z</time>
      </trkpt>
      <trkpt lat="47.43381" lon="-0.58639">
        <ele>22.8</ele>
        <time>2020-09-30T10:44:12Z</time>
      </trkpt>
      <trkpt lat="47.43362" lon="-0.58656">
        <ele>21.8</ele>
        <time>2020-09-30T10:44:15Z</time>
      </trkpt>
      <trkpt lat="47.4335" lon="-0.58668">
        <ele>21</ele>
        <time>2020-09-30T10:44:17Z</time>
      </trkpt>
      <trkpt lat="47.43338" lon="-0.5868">
        <ele>20.6</ele>
        <time>2020-09-30T10:44:19Z</time>
      </trkpt>
      <trkpt lat="47.43306" lon="-0.58709">
        <ele>19.4</ele>
        <time>2020-09-30T10:44:24Z</time>
      </trkpt>
      <trkpt lat="47.433" lon="-0.58714">
        <ele>19.4</ele>
        <time>2020-09-30T10:44:25Z</time>
      </trkpt>
      <trkpt lat="47.43264" lon="-0.58743">
        <ele>18.4</ele>
        <time>2020-09-30T10:44:31Z</time>
      </trkpt>
      <trkpt lat="47.43252" lon="-0.58751">
        <ele>18.2</ele>
        <time>2020-09-30T10:44:33Z</time>
      </trkpt>
      <trkpt lat="47.43221" lon="-0.58771">
        <ele>18.2</ele>
        <time>2020-09-30T10:44:39Z</time>
      </trkpt>
      <trkpt lat="47.43177" lon="-0.58794">
        <ele>19</ele>
        <time>2020-09-30T10:44:48Z</time>
      </trkpt>
      <trkpt lat="47.43159" lon="-0.58804">
        <ele>19.4</ele>
        <time>2020-09-30T10:44:52Z</time>
      </trkpt>
      <trkpt lat="47.43136" lon="-0.58812">
        <ele>20.2</ele>
        <time>2020-09-30T10:44:57Z</time>
      </trkpt>
      <trkpt lat="47.43116" lon="-0.5882">
        <ele>20.6</ele>
        <time>2020-09-30T10:45:01Z</time>
      </trkpt>
      <trkpt lat="47.43097" lon="-0.58828">
        <ele>20.8</ele>
        <time>2020-09-30T10:45:05Z</time>
      </trkpt>
      <trkpt lat="47.43048" lon="-0.58853">
        <ele>21.6</ele>
        <time>2020-09-30T10:45:15Z</time>
      </trkpt>
      <trkpt lat="47.43034" lon="-0.58861">
        <ele>21.6</ele>
        <time>2020-09-30T10:45:18Z</time>
      </trkpt>
      <trkpt lat="47.42994" lon="-0.58885">
        <ele>22</ele>
        <time>2020-09-30T10:45:26Z</time>
      </trkpt>
      <trkpt lat="47.42944" lon="-0.58917">
        <ele>22</ele>
        <time>2020-09-30T10:45:36Z</time>
      </trkpt>
      <trkpt lat="47.42939" lon="-0.5892">
        <ele>22</ele>
        <time>2020-09-30T10:45:37Z</time>
      </trkpt>
      <trkpt lat="47.4289" lon="-0.58952">
        <ele>22.2</ele>
        <time>2020-09-30T10:45:47Z</time>
      </trkpt>
      <trkpt lat="47.42885" lon="-0.58955">
        <ele>22.4</ele>
        <time>2020-09-30T10:45:48Z</time>
      </trkpt>
      <trkpt lat="47.42845" lon="-0.58981">
        <ele>22</ele>
        <time>2020-09-30T10:45:56Z</time>
      </trkpt>
      <trkpt lat="47.42798" lon="-0.59004">
        <ele>22.2</ele>
        <time>2020-09-30T10:46:05Z</time>
      </trkpt>
      <trkpt lat="47.42761" lon="-0.59017">
        <ele>22</ele>
        <time>2020-09-30T10:46:12Z</time>
      </trkpt>
      <trkpt lat="47.42716" lon="-0.59037">
        <ele>21</ele>
        <time>2020-09-30T10:46:21Z</time>
      </trkpt>
      <trkpt lat="47.42676" lon="-0.59058">
        <ele>21.4</ele>
        <time>2020-09-30T10:46:29Z</time>
      </trkpt>
      <trkpt lat="47.4263" lon="-0.59082">
        <ele>22.2</ele>
        <time>2020-09-30T10:46:38Z</time>
      </trkpt>
      <trkpt lat="47.42589" lon="-0.59097">
        <ele>22.6</ele>
        <time>2020-09-30T10:46:46Z</time>
      </trkpt>
      <trkpt lat="47.42579" lon="-0.591">
        <ele>22.8</ele>
        <time>2020-09-30T10:46:48Z</time>
      </trkpt>
      <trkpt lat="47.42555" lon="-0.59115">
        <ele>23.6</ele>
        <time>2020-09-30T10:46:53Z</time>
      </trkpt>
      <trkpt lat="47.42551" lon="-0.59118">
        <ele>23.8</ele>
        <time>2020-09-30T10:46:54Z</time>
      </trkpt>
      <trkpt lat="47.42508" lon="-0.59149">
        <ele>24</ele>
        <time>2020-09-30T10:47:03Z</time>
      </trkpt>
      <trkpt lat="47.42458" lon="-0.59179">
        <ele>23.2</ele>
        <time>2020-09-30T10:47:13Z</time>
      </trkpt>
      <trkpt lat="47.42411" lon="-0.59207">
        <ele>23.8</ele>
        <time>2020-09-30T10:47:22Z</time>
      </trkpt>
      <trkpt lat="47.42371" lon="-0.59233">
        <ele>23.4</ele>
        <time>2020-09-30T10:47:30Z</time>
      </trkpt>
      <trkpt lat="47.42338" lon="-0.59266">
        <ele>22.6</ele>
        <time>2020-09-30T10:47:37Z</time>
      </trkpt>
      <trkpt lat="47.42334" lon="-0.59271">
        <ele>22.6</ele>
        <time>2020-09-30T10:47:38Z</time>
      </trkpt>
      <trkpt lat="47.42294" lon="-0.59319">
        <ele>21.6</ele>
        <time>2020-09-30T10:47:47Z</time>
      </trkpt>
      <trkpt lat="47.4229" lon="-0.59324">
        <ele>21.6</ele>
        <time>2020-09-30T10:47:48Z</time>
      </trkpt>
      <trkpt lat="47.42282" lon="-0.59334">
        <ele>21.6</ele>
        <time>2020-09-30T10:47:50Z</time>
      </trkpt>
      <trkpt lat="47.42277" lon="-0.59349">
        <ele>21.4</ele>
        <time>2020-09-30T10:47:52Z</time>
      </trkpt>
      <trkpt lat="47.42269" lon="-0.5938">
        <ele>21</ele>
        <time>2020-09-30T10:47:56Z</time>
      </trkpt>
      <trkpt lat="47.42264" lon="-0.59394">
        <ele>20.6</ele>
        <time>2020-09-30T10:47:58Z</time>
      </trkpt>
      <trkpt lat="47.42262" lon="-0.59402">
        <ele>20.4</ele>
        <time>2020-09-30T10:47:59Z</time>
      </trkpt>
      <trkpt lat="47.42257" lon="-0.59448">
        <ele>20</ele>
        <time>2020-09-30T10:48:05Z</time>
      </trkpt>
      <trkpt lat="47.42254" lon="-0.59485">
        <ele>19.4</ele>
        <time>2020-09-30T10:48:10Z</time>
      </trkpt>
      <trkpt lat="47.4225" lon="-0.59508">
        <ele>18.8</ele>
        <time>2020-09-30T10:48:13Z</time>
      </trkpt>
      <trkpt lat="47.42245" lon="-0.59531">
        <ele>18.2</ele>
        <time>2020-09-30T10:48:16Z</time>
      </trkpt>
      <trkpt lat="47.42238" lon="-0.59552">
        <ele>17.6</ele>
        <time>2020-09-30T10:48:19Z</time>
      </trkpt>
      <trkpt lat="47.42234" lon="-0.59558">
        <ele>17.4</ele>
        <time>2020-09-30T10:48:20Z</time>
      </trkpt>
      <trkpt lat="47.4223" lon="-0.59563">
        <ele>17</ele>
        <time>2020-09-30T10:48:21Z</time>
      </trkpt>
      <trkpt lat="47.42215" lon="-0.59574">
        <ele>16.4</ele>
        <time>2020-09-30T10:48:24Z</time>
      </trkpt>
      <trkpt lat="47.4221" lon="-0.59577">
        <ele>16.2</ele>
        <time>2020-09-30T10:48:25Z</time>
      </trkpt>
      <trkpt lat="47.422" lon="-0.5958">
        <ele>16.2</ele>
        <time>2020-09-30T10:48:27Z</time>
      </trkpt>
      <trkpt lat="47.42186" lon="-0.59584">
        <ele>16.4</ele>
        <time>2020-09-30T10:48:30Z</time>
      </trkpt>
      <trkpt lat="47.42163" lon="-0.59587">
        <ele>16.2</ele>
        <time>2020-09-30T10:48:36Z</time>
      </trkpt>
      <trkpt lat="47.4214" lon="-0.59587">
        <ele>16.2</ele>
        <time>2020-09-30T10:48:42Z</time>
      </trkpt>
      <trkpt lat="47.42115" lon="-0.59583">
        <ele>16.2</ele>
        <time>2020-09-30T10:48:49Z</time>
      </trkpt>
      <trkpt lat="47.42109" lon="-0.59581">
        <ele>16.4</ele>
        <time>2020-09-30T10:48:53Z</time>
      </trkpt>
      <trkpt lat="47.42104" lon="-0.5958">
        <ele>16.2</ele>
        <time>2020-09-30T10:50:07Z</time>
      </trkpt>
      <trkpt lat="47.42101" lon="-0.59579">
        <ele>16</ele>
        <time>2020-09-30T10:50:09Z</time>
      </trkpt>
      <trkpt lat="47.42099" lon="-0.59578">
        <ele>16</ele>
        <time>2020-09-30T10:50:10Z</time>
      </trkpt>
      <trkpt lat="47.42081" lon="-0.59572">
        <ele>15.6</ele>
        <time>2020-09-30T10:50:17Z</time>
      </trkpt>
      <trkpt lat="47.42061" lon="-0.59566">
        <ele>15.2</ele>
        <time>2020-09-30T10:50:23Z</time>
      </trkpt>
      <trkpt lat="47.42053" lon="-0.59563">
        <ele>15</ele>
        <time>2020-09-30T10:50:25Z</time>
      </trkpt>
      <trkpt lat="47.42036" lon="-0.59557">
        <ele>15</ele>
        <time>2020-09-30T10:50:29Z</time>
      </trkpt>
      <trkpt lat="47.42006" lon="-0.59544">
        <ele>15.2</ele>
        <time>2020-09-30T10:50:36Z</time>
      </trkpt>
      <trkpt lat="47.41992" lon="-0.59541">
        <ele>16.2</ele>
        <time>2020-09-30T10:50:40Z</time>
      </trkpt>
      <trkpt lat="47.41984" lon="-0.59544">
        <ele>16.4</ele>
        <time>2020-09-30T10:50:42Z</time>
      </trkpt>
      <trkpt lat="47.41953" lon="-0.59562">
        <ele>16.6</ele>
        <time>2020-09-30T10:50:49Z</time>
      </trkpt>
      <trkpt lat="47.41919" lon="-0.59587">
        <ele>16.8</ele>
        <time>2020-09-30T10:50:56Z</time>
      </trkpt>
      <trkpt lat="47.41901" lon="-0.59605">
        <ele>17</ele>
        <time>2020-09-30T10:51:01Z</time>
      </trkpt>
      <trkpt lat="47.41893" lon="-0.59626">
        <ele>17.2</ele>
        <time>2020-09-30T10:51:05Z</time>
      </trkpt>
      <trkpt lat="47.41885" lon="-0.59633">
        <ele>17.2</ele>
        <time>2020-09-30T10:51:07Z</time>
      </trkpt>
      <trkpt lat="47.41879" lon="-0.59635">
        <ele>17.2</ele>
        <time>2020-09-30T10:51:08Z</time>
      </trkpt>
      <trkpt lat="47.41861" lon="-0.59627">
        <ele>17.4</ele>
        <time>2020-09-30T10:51:12Z</time>
      </trkpt>
      <trkpt lat="47.4184" lon="-0.59626">
        <ele>17</ele>
        <time>2020-09-30T10:51:16Z</time>
      </trkpt>
      <trkpt lat="47.41835" lon="-0.59628">
        <ele>16.6</ele>
        <time>2020-09-30T10:51:17Z</time>
      </trkpt>
      <trkpt lat="47.41823" lon="-0.5963">
        <ele>16.2</ele>
        <time>2020-09-30T10:51:19Z</time>
      </trkpt>
      <trkpt lat="47.41816" lon="-0.59628">
        <ele>16.2</ele>
        <time>2020-09-30T10:51:20Z</time>
      </trkpt>
      <trkpt lat="47.41811" lon="-0.59623">
        <ele>16</ele>
        <time>2020-09-30T10:51:21Z</time>
      </trkpt>
      <trkpt lat="47.41805" lon="-0.59602">
        <ele>15.8</ele>
        <time>2020-09-30T10:51:24Z</time>
      </trkpt>
      <trkpt lat="47.41803" lon="-0.59585">
        <ele>15.6</ele>
        <time>2020-09-30T10:51:26Z</time>
      </trkpt>
      <trkpt lat="47.41797" lon="-0.59544">
        <ele>15.2</ele>
        <time>2020-09-30T10:51:31Z</time>
      </trkpt>
      <trkpt lat="47.4179" lon="-0.59479">
        <ele>16</ele>
        <time>2020-09-30T10:51:39Z</time>
      </trkpt>
      <trkpt lat="47.41783" lon="-0.59415">
        <ele>16.8</ele>
        <time>2020-09-30T10:51:47Z</time>
      </trkpt>
      <trkpt lat="47.41775" lon="-0.59351">
        <ele>17</ele>
        <time>2020-09-30T10:51:55Z</time>
      </trkpt>
      <trkpt lat="47.41774" lon="-0.59344">
        <ele>17.2</ele>
        <time>2020-09-30T10:51:56Z</time>
      </trkpt>
      <trkpt lat="47.41768" lon="-0.59272">
        <ele>17.8</ele>
        <time>2020-09-30T10:52:05Z</time>
      </trkpt>
      <trkpt lat="47.41764" lon="-0.5919">
        <ele>18</ele>
        <time>2020-09-30T10:52:15Z</time>
      </trkpt>
      <trkpt lat="47.4176" lon="-0.59122">
        <ele>17.8</ele>
        <time>2020-09-30T10:52:23Z</time>
      </trkpt>
      <trkpt lat="47.41756" lon="-0.59071">
        <ele>18.2</ele>
        <time>2020-09-30T10:52:29Z</time>
      </trkpt>
      <trkpt lat="47.41756" lon="-0.59063">
        <ele>18.2</ele>
        <time>2020-09-30T10:52:30Z</time>
      </trkpt>
      <trkpt lat="47.41753" lon="-0.59004">
        <ele>18.8</ele>
        <time>2020-09-30T10:52:37Z</time>
      </trkpt>
      <trkpt lat="47.41752" lon="-0.58963">
        <ele>19.2</ele>
        <time>2020-09-30T10:52:42Z</time>
      </trkpt>
      <trkpt lat="47.41751" lon="-0.58931">
        <ele>19.6</ele>
        <time>2020-09-30T10:52:46Z</time>
      </trkpt>
      <trkpt lat="47.41751" lon="-0.58884">
        <ele>20.2</ele>
        <time>2020-09-30T10:52:52Z</time>
      </trkpt>
      <trkpt lat="47.41751" lon="-0.58876">
        <ele>20.4</ele>
        <time>2020-09-30T10:52:53Z</time>
      </trkpt>
      <trkpt lat="47.41752" lon="-0.58826">
        <ele>20.6</ele>
        <time>2020-09-30T10:52:59Z</time>
      </trkpt>
      <trkpt lat="47.41753" lon="-0.58761">
        <ele>20.2</ele>
        <time>2020-09-30T10:53:07Z</time>
      </trkpt>
      <trkpt lat="47.41756" lon="-0.58703">
        <ele>19.2</ele>
        <time>2020-09-30T10:53:14Z</time>
      </trkpt>
      <trkpt lat="47.41757" lon="-0.58639">
        <ele>19.6</ele>
        <time>2020-09-30T10:53:22Z</time>
      </trkpt>
      <trkpt lat="47.41759" lon="-0.58564">
        <ele>19.4</ele>
        <time>2020-09-30T10:53:31Z</time>
      </trkpt>
      <trkpt lat="47.41762" lon="-0.58488">
        <ele>20</ele>
        <time>2020-09-30T10:53:40Z</time>
      </trkpt>
      <trkpt lat="47.41764" lon="-0.58406">
        <ele>19.6</ele>
        <time>2020-09-30T10:53:50Z</time>
      </trkpt>
      <trkpt lat="47.41765" lon="-0.58325">
        <ele>19.8</ele>
        <time>2020-09-30T10:54:00Z</time>
      </trkpt>
      <trkpt lat="47.41767" lon="-0.58294">
        <ele>19.8</ele>
        <time>2020-09-30T10:54:04Z</time>
      </trkpt>
      <trkpt lat="47.41769" lon="-0.58272">
        <ele>20.2</ele>
        <time>2020-09-30T10:54:07Z</time>
      </trkpt>
      <trkpt lat="47.41767" lon="-0.58265">
        <ele>20.4</ele>
        <time>2020-09-30T10:54:08Z</time>
      </trkpt>
      <trkpt lat="47.41764" lon="-0.58243">
        <ele>21</ele>
        <time>2020-09-30T10:54:11Z</time>
      </trkpt>
      <trkpt lat="47.41764" lon="-0.58221">
        <ele>21.4</ele>
        <time>2020-09-30T10:54:14Z</time>
      </trkpt>
      <trkpt lat="47.41762" lon="-0.5819">
        <ele>22.2</ele>
        <time>2020-09-30T10:54:18Z</time>
      </trkpt>
      <trkpt lat="47.41762" lon="-0.58175">
        <ele>22.6</ele>
        <time>2020-09-30T10:54:20Z</time>
      </trkpt>
      <trkpt lat="47.4176" lon="-0.58128">
        <ele>23.2</ele>
        <time>2020-09-30T10:54:26Z</time>
      </trkpt>
      <trkpt lat="47.41759" lon="-0.58088">
        <ele>23.8</ele>
        <time>2020-09-30T10:54:31Z</time>
      </trkpt>
      <trkpt lat="47.41761" lon="-0.5805">
        <ele>24</ele>
        <time>2020-09-30T10:54:36Z</time>
      </trkpt>
      <trkpt lat="47.4177" lon="-0.57981">
        <ele>24.2</ele>
        <time>2020-09-30T10:54:45Z</time>
      </trkpt>
      <trkpt lat="47.41775" lon="-0.57926">
        <ele>24.4</ele>
        <time>2020-09-30T10:54:52Z</time>
      </trkpt>
      <trkpt lat="47.41785" lon="-0.57864">
        <ele>24.4</ele>
        <time>2020-09-30T10:55:00Z</time>
      </trkpt>
      <trkpt lat="47.41794" lon="-0.57807">
        <ele>23.6</ele>
        <time>2020-09-30T10:55:07Z</time>
      </trkpt>
      <trkpt lat="47.41799" lon="-0.57758">
        <ele>22.6</ele>
        <time>2020-09-30T10:55:13Z</time>
      </trkpt>
      <trkpt lat="47.41801" lon="-0.57742">
        <ele>22</ele>
        <time>2020-09-30T10:55:15Z</time>
      </trkpt>
      <trkpt lat="47.41804" lon="-0.57725">
        <ele>21.4</ele>
        <time>2020-09-30T10:55:17Z</time>
      </trkpt>
      <trkpt lat="47.41812" lon="-0.57685">
        <ele>20.6</ele>
        <time>2020-09-30T10:55:22Z</time>
      </trkpt>
      <trkpt lat="47.41816" lon="-0.5767">
        <ele>20.4</ele>
        <time>2020-09-30T10:55:24Z</time>
      </trkpt>
      <trkpt lat="47.41828" lon="-0.57624">
        <ele>19.2</ele>
        <time>2020-09-30T10:55:30Z</time>
      </trkpt>
      <trkpt lat="47.41839" lon="-0.57578">
        <ele>18.2</ele>
        <time>2020-09-30T10:55:36Z</time>
      </trkpt>
      <trkpt lat="47.41841" lon="-0.5757">
        <ele>18.2</ele>
        <time>2020-09-30T10:55:37Z</time>
      </trkpt>
      <trkpt lat="47.41852" lon="-0.57529">
        <ele>17.6</ele>
        <time>2020-09-30T10:55:42Z</time>
      </trkpt>
      <trkpt lat="47.41858" lon="-0.57513">
        <ele>17.4</ele>
        <time>2020-09-30T10:55:44Z</time>
      </trkpt>
      <trkpt lat="47.41866" lon="-0.57498">
        <ele>17.4</ele>
        <time>2020-09-30T10:55:46Z</time>
      </trkpt>
      <trkpt lat="47.4187" lon="-0.57491">
        <ele>17.2</ele>
        <time>2020-09-30T10:55:47Z</time>
      </trkpt>
      <trkpt lat="47.41879" lon="-0.57477">
        <ele>17</ele>
        <time>2020-09-30T10:55:49Z</time>
      </trkpt>
      <trkpt lat="47.41917" lon="-0.57415">
        <ele>17.4</ele>
        <time>2020-09-30T10:55:58Z</time>
      </trkpt>
      <trkpt lat="47.41929" lon="-0.57397">
        <ele>17.8</ele>
        <time>2020-09-30T10:56:01Z</time>
      </trkpt>
      <trkpt lat="47.41938" lon="-0.57386">
        <ele>18</ele>
        <time>2020-09-30T10:56:03Z</time>
      </trkpt>
      <trkpt lat="47.41946" lon="-0.57375">
        <ele>18.4</ele>
        <time>2020-09-30T10:56:05Z</time>
      </trkpt>
      <trkpt lat="47.41964" lon="-0.57344">
        <ele>19.4</ele>
        <time>2020-09-30T10:56:10Z</time>
      </trkpt>
      <trkpt lat="47.41973" lon="-0.57323">
        <ele>20</ele>
        <time>2020-09-30T10:56:13Z</time>
      </trkpt>
      <trkpt lat="47.41979" lon="-0.57309">
        <ele>19.8</ele>
        <time>2020-09-30T10:56:15Z</time>
      </trkpt>
      <trkpt lat="47.41997" lon="-0.57257">
        <ele>19.2</ele>
        <time>2020-09-30T10:56:22Z</time>
      </trkpt>
      <trkpt lat="47.42015" lon="-0.57195">
        <ele>18.4</ele>
        <time>2020-09-30T10:56:30Z</time>
      </trkpt>
      <trkpt lat="47.42018" lon="-0.57188">
        <ele>18.4</ele>
        <time>2020-09-30T10:56:31Z</time>
      </trkpt>
      <trkpt lat="47.42037" lon="-0.57131">
        <ele>19.4</ele>
        <time>2020-09-30T10:56:39Z</time>
      </trkpt>
      <trkpt lat="47.42051" lon="-0.5709">
        <ele>20.4</ele>
        <time>2020-09-30T10:56:45Z</time>
      </trkpt>
      <trkpt lat="47.42053" lon="-0.57084">
        <ele>20.6</ele>
        <time>2020-09-30T10:56:46Z</time>
      </trkpt>
      <trkpt lat="47.42068" lon="-0.57052">
        <ele>21.4</ele>
        <time>2020-09-30T10:56:51Z</time>
      </trkpt>
      <trkpt lat="47.4207" lon="-0.57045">
        <ele>21.6</ele>
        <time>2020-09-30T10:56:52Z</time>
      </trkpt>
      <trkpt lat="47.42085" lon="-0.57003">
        <ele>22.8</ele>
        <time>2020-09-30T10:56:58Z</time>
      </trkpt>
      <trkpt lat="47.42094" lon="-0.56973">
        <ele>23.4</ele>
        <time>2020-09-30T10:57:02Z</time>
      </trkpt>
      <trkpt lat="47.42096" lon="-0.56958">
        <ele>23.8</ele>
        <time>2020-09-30T10:57:04Z</time>
      </trkpt>
      <trkpt lat="47.421" lon="-0.56936">
        <ele>24.6</ele>
        <time>2020-09-30T10:57:07Z</time>
      </trkpt>
      <trkpt lat="47.42107" lon="-0.56924">
        <ele>25</ele>
        <time>2020-09-30T10:57:09Z</time>
      </trkpt>
      <trkpt lat="47.42113" lon="-0.56912">
        <ele>25.6</ele>
        <time>2020-09-30T10:57:11Z</time>
      </trkpt>
      <trkpt lat="47.42117" lon="-0.56899">
        <ele>26</ele>
        <time>2020-09-30T10:57:13Z</time>
      </trkpt>
      <trkpt lat="47.42131" lon="-0.56858">
        <ele>27.2</ele>
        <time>2020-09-30T10:57:19Z</time>
      </trkpt>
      <trkpt lat="47.42152" lon="-0.56797">
        <ele>28.2</ele>
        <time>2020-09-30T10:57:28Z</time>
      </trkpt>
      <trkpt lat="47.42155" lon="-0.5679">
        <ele>28.2</ele>
        <time>2020-09-30T10:57:29Z</time>
      </trkpt>
      <trkpt lat="47.42172" lon="-0.56741">
        <ele>28.6</ele>
        <time>2020-09-30T10:57:36Z</time>
      </trkpt>
      <trkpt lat="47.42199" lon="-0.56669">
        <ele>28.6</ele>
        <time>2020-09-30T10:57:46Z</time>
      </trkpt>
      <trkpt lat="47.4222" lon="-0.56611">
        <ele>28.2</ele>
        <time>2020-09-30T10:57:54Z</time>
      </trkpt>
      <trkpt lat="47.42221" lon="-0.56603">
        <ele>28</ele>
        <time>2020-09-30T10:57:55Z</time>
      </trkpt>
      <trkpt lat="47.42224" lon="-0.56581">
        <ele>28</ele>
        <time>2020-09-30T10:57:58Z</time>
      </trkpt>
      <trkpt lat="47.42238" lon="-0.56567">
        <ele>28.2</ele>
        <time>2020-09-30T10:58:01Z</time>
      </trkpt>
      <trkpt lat="47.42241" lon="-0.56559">
        <ele>28.2</ele>
        <time>2020-09-30T10:58:02Z</time>
      </trkpt>
      <trkpt lat="47.42246" lon="-0.56544">
        <ele>28.2</ele>
        <time>2020-09-30T10:58:04Z</time>
      </trkpt>
      <trkpt lat="47.42267" lon="-0.56486">
        <ele>27.8</ele>
        <time>2020-09-30T10:58:12Z</time>
      </trkpt>
      <trkpt lat="47.42281" lon="-0.56443">
        <ele>27.2</ele>
        <time>2020-09-30T10:58:18Z</time>
      </trkpt>
      <trkpt lat="47.42286" lon="-0.56428">
        <ele>27</ele>
        <time>2020-09-30T10:58:20Z</time>
      </trkpt>
      <trkpt lat="47.42304" lon="-0.56378">
        <ele>26.6</ele>
        <time>2020-09-30T10:58:27Z</time>
      </trkpt>
      <trkpt lat="47.42319" lon="-0.56337">
        <ele>26.8</ele>
        <time>2020-09-30T10:58:33Z</time>
      </trkpt>
      <trkpt lat="47.42336" lon="-0.56291">
        <ele>28.4</ele>
        <time>2020-09-30T10:58:40Z</time>
      </trkpt>
      <trkpt lat="47.4234" lon="-0.56278">
        <ele>29</ele>
        <time>2020-09-30T10:58:42Z</time>
      </trkpt>
      <trkpt lat="47.42346" lon="-0.5626">
        <ele>29.6</ele>
        <time>2020-09-30T10:58:45Z</time>
      </trkpt>
      <trkpt lat="47.42353" lon="-0.56241">
        <ele>30.4</ele>
        <time>2020-09-30T10:58:49Z</time>
      </trkpt>
      <trkpt lat="47.42353" lon="-0.56236">
        <ele>30.6</ele>
        <time>2020-09-30T10:58:50Z</time>
      </trkpt>
      <trkpt lat="47.42357" lon="-0.56222">
        <ele>31.4</ele>
        <time>2020-09-30T10:58:53Z</time>
      </trkpt>
      <trkpt lat="47.42363" lon="-0.56214">
        <ele>31.8</ele>
        <time>2020-09-30T10:58:55Z</time>
      </trkpt>
      <trkpt lat="47.42366" lon="-0.56208">
        <ele>32</ele>
        <time>2020-09-30T10:58:56Z</time>
      </trkpt>
      <trkpt lat="47.42367" lon="-0.56201">
        <ele>32</ele>
        <time>2020-09-30T10:58:57Z</time>
      </trkpt>
      <trkpt lat="47.42386" lon="-0.56143">
        <ele>32.2</ele>
        <time>2020-09-30T10:59:05Z</time>
      </trkpt>
      <trkpt lat="47.42409" lon="-0.56071">
        <ele>32</ele>
        <time>2020-09-30T10:59:14Z</time>
      </trkpt>
      <trkpt lat="47.42426" lon="-0.56005">
        <ele>31.4</ele>
        <time>2020-09-30T10:59:22Z</time>
      </trkpt>
      <trkpt lat="47.42442" lon="-0.55958">
        <ele>30.6</ele>
        <time>2020-09-30T10:59:28Z</time>
      </trkpt>
      <trkpt lat="47.42447" lon="-0.55942">
        <ele>30.2</ele>
        <time>2020-09-30T10:59:30Z</time>
      </trkpt>
      <trkpt lat="47.4246" lon="-0.559">
        <ele>29.4</ele>
        <time>2020-09-30T10:59:35Z</time>
      </trkpt>
      <trkpt lat="47.4247" lon="-0.55864">
        <ele>29</ele>
        <time>2020-09-30T10:59:39Z</time>
      </trkpt>
      <trkpt lat="47.4248" lon="-0.55837">
        <ele>28.4</ele>
        <time>2020-09-30T10:59:42Z</time>
      </trkpt>
      <trkpt lat="47.42496" lon="-0.55783">
        <ele>27.6</ele>
        <time>2020-09-30T10:59:48Z</time>
      </trkpt>
      <trkpt lat="47.42505" lon="-0.55759">
        <ele>27.2</ele>
        <time>2020-09-30T10:59:51Z</time>
      </trkpt>
      <trkpt lat="47.42507" lon="-0.55751">
        <ele>27.2</ele>
        <time>2020-09-30T10:59:52Z</time>
      </trkpt>
      <trkpt lat="47.42509" lon="-0.55743">
        <ele>27</ele>
        <time>2020-09-30T10:59:53Z</time>
      </trkpt>
      <trkpt lat="47.42514" lon="-0.55718">
        <ele>26.8</ele>
        <time>2020-09-30T10:59:56Z</time>
      </trkpt>
      <trkpt lat="47.42516" lon="-0.55694">
        <ele>26.6</ele>
        <time>2020-09-30T10:59:59Z</time>
      </trkpt>
      <trkpt lat="47.42508" lon="-0.55671">
        <ele>26.8</ele>
        <time>2020-09-30T11:00:02Z</time>
      </trkpt>
      <trkpt lat="47.42505" lon="-0.55664">
        <ele>26.8</ele>
        <time>2020-09-30T11:00:03Z</time>
      </trkpt>
      <trkpt lat="47.42478" lon="-0.55599">
        <ele>27.2</ele>
        <time>2020-09-30T11:00:12Z</time>
      </trkpt>
      <trkpt lat="47.42452" lon="-0.55534">
        <ele>27</ele>
        <time>2020-09-30T11:00:21Z</time>
      </trkpt>
      <trkpt lat="47.42426" lon="-0.55472">
        <ele>27.4</ele>
        <time>2020-09-30T11:00:30Z</time>
      </trkpt>
      <trkpt lat="47.42402" lon="-0.55414">
        <ele>28</ele>
        <time>2020-09-30T11:00:39Z</time>
      </trkpt>
      <trkpt lat="47.42384" lon="-0.55374">
        <ele>27</ele>
        <time>2020-09-30T11:00:46Z</time>
      </trkpt>
      <trkpt lat="47.4238" lon="-0.55373">
        <ele>26.8</ele>
        <time>2020-09-30T11:00:47Z</time>
      </trkpt>
      <trkpt lat="47.42373" lon="-0.55378">
        <ele>26.6</ele>
        <time>2020-09-30T11:00:49Z</time>
      </trkpt>
      <trkpt lat="47.42367" lon="-0.55385">
        <ele>26</ele>
        <time>2020-09-30T11:00:51Z</time>
      </trkpt>
      <trkpt lat="47.42364" lon="-0.55383">
        <ele>26</ele>
        <time>2020-09-30T11:00:52Z</time>
      </trkpt>
      <trkpt lat="47.42362" lon="-0.55363">
        <ele>25.8</ele>
        <time>2020-09-30T11:00:55Z</time>
      </trkpt>
      <trkpt lat="47.42361" lon="-0.55337">
        <ele>25</ele>
        <time>2020-09-30T11:00:58Z</time>
      </trkpt>
      <trkpt lat="47.42361" lon="-0.55318">
        <ele>24.2</ele>
        <time>2020-09-30T11:01:00Z</time>
      </trkpt>
      <trkpt lat="47.4236" lon="-0.55297">
        <ele>23.6</ele>
        <time>2020-09-30T11:01:02Z</time>
      </trkpt>
      <trkpt lat="47.42358" lon="-0.55249">
        <ele>22.4</ele>
        <time>2020-09-30T11:01:06Z</time>
      </trkpt>
      <trkpt lat="47.42356" lon="-0.55224">
        <ele>21.2</ele>
        <time>2020-09-30T11:01:08Z</time>
      </trkpt>
      <trkpt lat="47.42351" lon="-0.55164">
        <ele>20.2</ele>
        <time>2020-09-30T11:01:13Z</time>
      </trkpt>
      <trkpt lat="47.42344" lon="-0.55099">
        <ele>19.4</ele>
        <time>2020-09-30T11:01:19Z</time>
      </trkpt>
      <trkpt lat="47.4234" lon="-0.5505">
        <ele>19.8</ele>
        <time>2020-09-30T11:01:24Z</time>
      </trkpt>
      <trkpt lat="47.42337" lon="-0.55041">
        <ele>20</ele>
        <time>2020-09-30T11:01:25Z</time>
      </trkpt>
      <trkpt lat="47.42321" lon="-0.55004">
        <ele>20.2</ele>
        <time>2020-09-30T11:01:30Z</time>
      </trkpt>
      <trkpt lat="47.42324" lon="-0.54983">
        <ele>20.4</ele>
        <time>2020-09-30T11:01:33Z</time>
      </trkpt>
      <trkpt lat="47.42332" lon="-0.54973">
        <ele>20.4</ele>
        <time>2020-09-30T11:01:35Z</time>
      </trkpt>
      <trkpt lat="47.42342" lon="-0.54961">
        <ele>20.2</ele>
        <time>2020-09-30T11:01:37Z</time>
      </trkpt>
      <trkpt lat="47.42385" lon="-0.54916">
        <ele>19.6</ele>
        <time>2020-09-30T11:01:45Z</time>
      </trkpt>
      <trkpt lat="47.42413" lon="-0.54885">
        <ele>19.4</ele>
        <time>2020-09-30T11:01:51Z</time>
      </trkpt>
      <trkpt lat="47.42422" lon="-0.54876">
        <ele>19</ele>
        <time>2020-09-30T11:01:53Z</time>
      </trkpt>
      <trkpt lat="47.42445" lon="-0.54853">
        <ele>18.8</ele>
        <time>2020-09-30T11:01:58Z</time>
      </trkpt>
      <trkpt lat="47.42471" lon="-0.54823">
        <ele>18.6</ele>
        <time>2020-09-30T11:02:04Z</time>
      </trkpt>
      <trkpt lat="47.42481" lon="-0.54805">
        <ele>18.4</ele>
        <time>2020-09-30T11:02:07Z</time>
      </trkpt>
      <trkpt lat="47.42487" lon="-0.54791">
        <ele>18.2</ele>
        <time>2020-09-30T11:02:09Z</time>
      </trkpt>
      <trkpt lat="47.42501" lon="-0.54748">
        <ele>18</ele>
        <time>2020-09-30T11:02:15Z</time>
      </trkpt>
      <trkpt lat="47.42505" lon="-0.54733">
        <ele>18</ele>
        <time>2020-09-30T11:02:17Z</time>
      </trkpt>
      <trkpt lat="47.42525" lon="-0.54663">
        <ele>18.2</ele>
        <time>2020-09-30T11:02:26Z</time>
      </trkpt>
      <trkpt lat="47.42543" lon="-0.54601">
        <ele>18.4</ele>
        <time>2020-09-30T11:02:34Z</time>
      </trkpt>
      <trkpt lat="47.4256" lon="-0.54539">
        <ele>17.8</ele>
        <time>2020-09-30T11:02:42Z</time>
      </trkpt>
      <trkpt lat="47.42575" lon="-0.54494">
        <ele>17</ele>
        <time>2020-09-30T11:02:48Z</time>
      </trkpt>
      <trkpt lat="47.42579" lon="-0.54479">
        <ele>16.8</ele>
        <time>2020-09-30T11:02:50Z</time>
      </trkpt>
      <trkpt lat="47.42603" lon="-0.54401">
        <ele>16.2</ele>
        <time>2020-09-30T11:03:00Z</time>
      </trkpt>
      <trkpt lat="47.42617" lon="-0.54343">
        <ele>16</ele>
        <time>2020-09-30T11:03:07Z</time>
      </trkpt>
      <trkpt lat="47.42636" lon="-0.54278">
        <ele>16.8</ele>
        <time>2020-09-30T11:03:15Z</time>
      </trkpt>
      <trkpt lat="47.4265" lon="-0.54232">
        <ele>17.4</ele>
        <time>2020-09-30T11:03:21Z</time>
      </trkpt>
      <trkpt lat="47.42668" lon="-0.54168">
        <ele>17.8</ele>
        <time>2020-09-30T11:03:29Z</time>
      </trkpt>
      <trkpt lat="47.42679" lon="-0.54129">
        <ele>18</ele>
        <time>2020-09-30T11:03:34Z</time>
      </trkpt>
      <trkpt lat="47.42688" lon="-0.54098">
        <ele>18.6</ele>
        <time>2020-09-30T11:03:38Z</time>
      </trkpt>
      <trkpt lat="47.42704" lon="-0.54043">
        <ele>18.6</ele>
        <time>2020-09-30T11:03:45Z</time>
      </trkpt>
      <trkpt lat="47.42721" lon="-0.53987">
        <ele>19</ele>
        <time>2020-09-30T11:03:52Z</time>
      </trkpt>
      <trkpt lat="47.42724" lon="-0.53979">
        <ele>19.2</ele>
        <time>2020-09-30T11:03:53Z</time>
      </trkpt>
      <trkpt lat="47.42736" lon="-0.53929">
        <ele>19.2</ele>
        <time>2020-09-30T11:03:59Z</time>
      </trkpt>
      <trkpt lat="47.42753" lon="-0.53866">
        <ele>19.2</ele>
        <time>2020-09-30T11:04:07Z</time>
      </trkpt>
      <trkpt lat="47.42772" lon="-0.53796">
        <ele>18.8</ele>
        <time>2020-09-30T11:04:16Z</time>
      </trkpt>
      <trkpt lat="47.42787" lon="-0.53742">
        <ele>18.6</ele>
        <time>2020-09-30T11:04:23Z</time>
      </trkpt>
      <trkpt lat="47.42804" lon="-0.53682">
        <ele>18.2</ele>
        <time>2020-09-30T11:04:31Z</time>
      </trkpt>
      <trkpt lat="47.42806" lon="-0.53674">
        <ele>18</ele>
        <time>2020-09-30T11:04:32Z</time>
      </trkpt>
      <trkpt lat="47.42825" lon="-0.53611">
        <ele>17</ele>
        <time>2020-09-30T11:04:40Z</time>
      </trkpt>
      <trkpt lat="47.4283" lon="-0.53595">
        <ele>17</ele>
        <time>2020-09-30T11:04:42Z</time>
      </trkpt>
      <trkpt lat="47.42842" lon="-0.53556">
        <ele>16.4</ele>
        <time>2020-09-30T11:04:47Z</time>
      </trkpt>
      <trkpt lat="47.42847" lon="-0.5354">
        <ele>16.8</ele>
        <time>2020-09-30T11:04:51Z</time>
      </trkpt>
      <trkpt lat="47.42853" lon="-0.53524">
        <ele>17</ele>
        <time>2020-09-30T11:04:57Z</time>
      </trkpt>
      <trkpt lat="47.42861" lon="-0.535">
        <ele>16.6</ele>
        <time>2020-09-30T11:05:02Z</time>
      </trkpt>
      <trkpt lat="47.42869" lon="-0.53462">
        <ele>16.2</ele>
        <time>2020-09-30T11:05:07Z</time>
      </trkpt>
      <trkpt lat="47.42875" lon="-0.53439">
        <ele>16</ele>
        <time>2020-09-30T11:05:10Z</time>
      </trkpt>
      <trkpt lat="47.42887" lon="-0.534">
        <ele>16.2</ele>
        <time>2020-09-30T11:05:15Z</time>
      </trkpt>
      <trkpt lat="47.42906" lon="-0.53337">
        <ele>15.8</ele>
        <time>2020-09-30T11:05:23Z</time>
      </trkpt>
      <trkpt lat="47.42926" lon="-0.53257">
        <ele>16</ele>
        <time>2020-09-30T11:05:33Z</time>
      </trkpt>
      <trkpt lat="47.42942" lon="-0.53202">
        <ele>16.8</ele>
        <time>2020-09-30T11:05:40Z</time>
      </trkpt>
      <trkpt lat="47.42951" lon="-0.53171">
        <ele>17</ele>
        <time>2020-09-30T11:05:44Z</time>
      </trkpt>
      <trkpt lat="47.42958" lon="-0.53148">
        <ele>17.2</ele>
        <time>2020-09-30T11:05:47Z</time>
      </trkpt>
      <trkpt lat="47.42978" lon="-0.53078">
        <ele>17</ele>
        <time>2020-09-30T11:05:56Z</time>
      </trkpt>
      <trkpt lat="47.43" lon="-0.52999">
        <ele>17.2</ele>
        <time>2020-09-30T11:06:06Z</time>
      </trkpt>
      <trkpt lat="47.43023" lon="-0.52921">
        <ele>17.4</ele>
        <time>2020-09-30T11:06:16Z</time>
      </trkpt>
      <trkpt lat="47.43025" lon="-0.52913">
        <ele>17.4</ele>
        <time>2020-09-30T11:06:17Z</time>
      </trkpt>
      <trkpt lat="47.43036" lon="-0.52863">
        <ele>17.8</ele>
        <time>2020-09-30T11:06:24Z</time>
      </trkpt>
      <trkpt lat="47.4304" lon="-0.52844">
        <ele>18</ele>
        <time>2020-09-30T11:06:27Z</time>
      </trkpt>
      <trkpt lat="47.43042" lon="-0.5283">
        <ele>18.2</ele>
        <time>2020-09-30T11:06:30Z</time>
      </trkpt>
      <trkpt lat="47.43043" lon="-0.52815">
        <ele>18.4</ele>
        <time>2020-09-30T11:06:35Z</time>
      </trkpt>
      <trkpt lat="47.43048" lon="-0.5279">
        <ele>18.6</ele>
        <time>2020-09-30T11:06:40Z</time>
      </trkpt>
      <trkpt lat="47.43056" lon="-0.52749">
        <ele>18.6</ele>
        <time>2020-09-30T11:06:46Z</time>
      </trkpt>
      <trkpt lat="47.43058" lon="-0.52698">
        <ele>17.8</ele>
        <time>2020-09-30T11:06:52Z</time>
      </trkpt>
      <trkpt lat="47.43057" lon="-0.52634">
        <ele>17</ele>
        <time>2020-09-30T11:06:59Z</time>
      </trkpt>
      <trkpt lat="47.43057" lon="-0.52578">
        <ele>16.8</ele>
        <time>2020-09-30T11:07:06Z</time>
      </trkpt>
      <trkpt lat="47.43057" lon="-0.52524">
        <ele>17.4</ele>
        <time>2020-09-30T11:07:13Z</time>
      </trkpt>
      <trkpt lat="47.43056" lon="-0.52444">
        <ele>17.6</ele>
        <time>2020-09-30T11:07:23Z</time>
      </trkpt>
      <trkpt lat="47.43056" lon="-0.52387">
        <ele>18</ele>
        <time>2020-09-30T11:07:30Z</time>
      </trkpt>
      <trkpt lat="47.43055" lon="-0.52338">
        <ele>18</ele>
        <time>2020-09-30T11:07:36Z</time>
      </trkpt>
      <trkpt lat="47.43055" lon="-0.5233">
        <ele>18.2</ele>
        <time>2020-09-30T11:07:37Z</time>
      </trkpt>
      <trkpt lat="47.43053" lon="-0.52265">
        <ele>18.4</ele>
        <time>2020-09-30T11:07:45Z</time>
      </trkpt>
      <trkpt lat="47.43052" lon="-0.52217">
        <ele>19</ele>
        <time>2020-09-30T11:07:51Z</time>
      </trkpt>
      <trkpt lat="47.43047" lon="-0.52204">
        <ele>19</ele>
        <time>2020-09-30T11:07:53Z</time>
      </trkpt>
      <trkpt lat="47.43036" lon="-0.52194">
        <ele>19.2</ele>
        <time>2020-09-30T11:07:56Z</time>
      </trkpt>
      <trkpt lat="47.43031" lon="-0.52194">
        <ele>19.2</ele>
        <time>2020-09-30T11:07:57Z</time>
      </trkpt>
      <trkpt lat="47.42992" lon="-0.522">
        <ele>20</ele>
        <time>2020-09-30T11:08:04Z</time>
      </trkpt>
      <trkpt lat="47.42986" lon="-0.522">
        <ele>20.2</ele>
        <time>2020-09-30T11:08:05Z</time>
      </trkpt>
      <trkpt lat="47.42937" lon="-0.52204">
        <ele>21.2</ele>
        <time>2020-09-30T11:08:14Z</time>
      </trkpt>
      <trkpt lat="47.42912" lon="-0.52203">
        <ele>22.4</ele>
        <time>2020-09-30T11:08:19Z</time>
      </trkpt>
      <trkpt lat="47.42897" lon="-0.52203">
        <ele>23.2</ele>
        <time>2020-09-30T11:08:22Z</time>
      </trkpt>
      <trkpt lat="47.42893" lon="-0.522">
        <ele>23.6</ele>
        <time>2020-09-30T11:08:23Z</time>
      </trkpt>
      <trkpt lat="47.42885" lon="-0.52181">
        <ele>23.6</ele>
        <time>2020-09-30T11:08:26Z</time>
      </trkpt>
      <trkpt lat="47.42882" lon="-0.52166">
        <ele>23.6</ele>
        <time>2020-09-30T11:08:28Z</time>
      </trkpt>
      <trkpt lat="47.42881" lon="-0.52142">
        <ele>23.6</ele>
        <time>2020-09-30T11:08:31Z</time>
      </trkpt>
      <trkpt lat="47.4288" lon="-0.52102">
        <ele>23.4</ele>
        <time>2020-09-30T11:08:36Z</time>
      </trkpt>
      <trkpt lat="47.42877" lon="-0.52079">
        <ele>23.4</ele>
        <time>2020-09-30T11:08:39Z</time>
      </trkpt>
      <trkpt lat="47.42873" lon="-0.52008">
        <ele>23.4</ele>
        <time>2020-09-30T11:08:48Z</time>
      </trkpt>
      <trkpt lat="47.42868" lon="-0.51945">
        <ele>22.8</ele>
        <time>2020-09-30T11:08:56Z</time>
      </trkpt>
      <trkpt lat="47.42868" lon="-0.51937">
        <ele>22.6</ele>
        <time>2020-09-30T11:08:57Z</time>
      </trkpt>
      <trkpt lat="47.42863" lon="-0.51871">
        <ele>21.4</ele>
        <time>2020-09-30T11:09:05Z</time>
      </trkpt>
      <trkpt lat="47.42862" lon="-0.51863">
        <ele>21.4</ele>
        <time>2020-09-30T11:09:06Z</time>
      </trkpt>
      <trkpt lat="47.42857" lon="-0.51779">
        <ele>20.8</ele>
        <time>2020-09-30T11:09:16Z</time>
      </trkpt>
      <trkpt lat="47.4285" lon="-0.51711">
        <ele>20.6</ele>
        <time>2020-09-30T11:09:24Z</time>
      </trkpt>
      <trkpt lat="47.42833" lon="-0.51647">
        <ele>20.4</ele>
        <time>2020-09-30T11:09:32Z</time>
      </trkpt>
      <trkpt lat="47.42811" lon="-0.516">
        <ele>20.6</ele>
        <time>2020-09-30T11:09:39Z</time>
      </trkpt>
      <trkpt lat="47.42779" lon="-0.51554">
        <ele>20.8</ele>
        <time>2020-09-30T11:09:47Z</time>
      </trkpt>
      <trkpt lat="47.42742" lon="-0.51502">
        <ele>21</ele>
        <time>2020-09-30T11:09:56Z</time>
      </trkpt>
      <trkpt lat="47.42701" lon="-0.51445">
        <ele>20.8</ele>
        <time>2020-09-30T11:10:06Z</time>
      </trkpt>
      <trkpt lat="47.42668" lon="-0.514">
        <ele>21.2</ele>
        <time>2020-09-30T11:10:14Z</time>
      </trkpt>
      <trkpt lat="47.42631" lon="-0.51348">
        <ele>21.2</ele>
        <time>2020-09-30T11:10:23Z</time>
      </trkpt>
      <trkpt lat="47.42594" lon="-0.51297">
        <ele>20.8</ele>
        <time>2020-09-30T11:10:32Z</time>
      </trkpt>
      <trkpt lat="47.42577" lon="-0.51274">
        <ele>20.4</ele>
        <time>2020-09-30T11:10:36Z</time>
      </trkpt>
      <trkpt lat="47.42558" lon="-0.51246">
        <ele>20</ele>
        <time>2020-09-30T11:10:41Z</time>
      </trkpt>
      <trkpt lat="47.42546" lon="-0.51227">
        <ele>19.8</ele>
        <time>2020-09-30T11:10:44Z</time>
      </trkpt>
      <trkpt lat="47.4253" lon="-0.51194">
        <ele>19.4</ele>
        <time>2020-09-30T11:10:49Z</time>
      </trkpt>
      <trkpt lat="47.425" lon="-0.51134">
        <ele>19.8</ele>
        <time>2020-09-30T11:10:58Z</time>
      </trkpt>
      <trkpt lat="47.42471" lon="-0.51075">
        <ele>20.2</ele>
        <time>2020-09-30T11:11:07Z</time>
      </trkpt>
      <trkpt lat="47.42451" lon="-0.51026">
        <ele>20.4</ele>
        <time>2020-09-30T11:11:14Z</time>
      </trkpt>
      <trkpt lat="47.42427" lon="-0.5095">
        <ele>20.6</ele>
        <time>2020-09-30T11:11:24Z</time>
      </trkpt>
      <trkpt lat="47.42404" lon="-0.50875">
        <ele>20.8</ele>
        <time>2020-09-30T11:11:34Z</time>
      </trkpt>
      <trkpt lat="47.42401" lon="-0.50867">
        <ele>20.8</ele>
        <time>2020-09-30T11:11:35Z</time>
      </trkpt>
      <trkpt lat="47.42381" lon="-0.50798">
        <ele>21</ele>
        <time>2020-09-30T11:11:44Z</time>
      </trkpt>
      <trkpt lat="47.42366" lon="-0.50726">
        <ele>21</ele>
        <time>2020-09-30T11:11:53Z</time>
      </trkpt>
      <trkpt lat="47.42353" lon="-0.50657">
        <ele>21.4</ele>
        <time>2020-09-30T11:12:02Z</time>
      </trkpt>
      <trkpt lat="47.42351" lon="-0.5065">
        <ele>21.6</ele>
        <time>2020-09-30T11:12:03Z</time>
      </trkpt>
      <trkpt lat="47.4234" lon="-0.50591">
        <ele>21.4</ele>
        <time>2020-09-30T11:12:11Z</time>
      </trkpt>
      <trkpt lat="47.42335" lon="-0.50557">
        <ele>20.6</ele>
        <time>2020-09-30T11:12:15Z</time>
      </trkpt>
      <trkpt lat="47.42335" lon="-0.50532">
        <ele>20.4</ele>
        <time>2020-09-30T11:12:18Z</time>
      </trkpt>
      <trkpt lat="47.42335" lon="-0.50464">
        <ele>19.6</ele>
        <time>2020-09-30T11:12:26Z</time>
      </trkpt>
      <trkpt lat="47.42335" lon="-0.50427">
        <ele>19.2</ele>
        <time>2020-09-30T11:12:30Z</time>
      </trkpt>
      <trkpt lat="47.42337" lon="-0.50407">
        <ele>18.6</ele>
        <time>2020-09-30T11:12:32Z</time>
      </trkpt>
      <trkpt lat="47.42341" lon="-0.50367">
        <ele>18</ele>
        <time>2020-09-30T11:12:36Z</time>
      </trkpt>
      <trkpt lat="47.42344" lon="-0.5034">
        <ele>17.6</ele>
        <time>2020-09-30T11:12:39Z</time>
      </trkpt>
      <trkpt lat="47.42355" lon="-0.50283">
        <ele>17.6</ele>
        <time>2020-09-30T11:12:46Z</time>
      </trkpt>
      <trkpt lat="47.42375" lon="-0.50207">
        <ele>18.2</ele>
        <time>2020-09-30T11:12:56Z</time>
      </trkpt>
      <trkpt lat="47.42394" lon="-0.50137">
        <ele>18.8</ele>
        <time>2020-09-30T11:13:05Z</time>
      </trkpt>
      <trkpt lat="47.42409" lon="-0.50065">
        <ele>18.8</ele>
        <time>2020-09-30T11:13:14Z</time>
      </trkpt>
      <trkpt lat="47.42411" lon="-0.50049">
        <ele>19.2</ele>
        <time>2020-09-30T11:13:16Z</time>
      </trkpt>
      <trkpt lat="47.42417" lon="-0.50001">
        <ele>19</ele>
        <time>2020-09-30T11:13:22Z</time>
      </trkpt>
      <trkpt lat="47.42419" lon="-0.49942">
        <ele>19</ele>
        <time>2020-09-30T11:13:29Z</time>
      </trkpt>
      <trkpt lat="47.42413" lon="-0.49859">
        <ele>19.2</ele>
        <time>2020-09-30T11:13:39Z</time>
      </trkpt>
      <trkpt lat="47.42407" lon="-0.49786">
        <ele>19.2</ele>
        <time>2020-09-30T11:13:48Z</time>
      </trkpt>
      <trkpt lat="47.42393" lon="-0.4975">
        <ele>19.4</ele>
        <time>2020-09-30T11:13:53Z</time>
      </trkpt>
      <trkpt lat="47.42365" lon="-0.49699">
        <ele>19.4</ele>
        <time>2020-09-30T11:14:01Z</time>
      </trkpt>
      <trkpt lat="47.42335" lon="-0.49662">
        <ele>19.6</ele>
        <time>2020-09-30T11:14:08Z</time>
      </trkpt>
      <trkpt lat="47.42288" lon="-0.49611">
        <ele>19</ele>
        <time>2020-09-30T11:14:19Z</time>
      </trkpt>
      <trkpt lat="47.4225" lon="-0.49568">
        <ele>18.6</ele>
        <time>2020-09-30T11:14:28Z</time>
      </trkpt>
      <trkpt lat="47.42218" lon="-0.49534">
        <ele>18.6</ele>
        <time>2020-09-30T11:14:35Z</time>
      </trkpt>
      <trkpt lat="47.42181" lon="-0.49486">
        <ele>18.6</ele>
        <time>2020-09-30T11:14:44Z</time>
      </trkpt>
      <trkpt lat="47.42164" lon="-0.49447">
        <ele>18.4</ele>
        <time>2020-09-30T11:14:50Z</time>
      </trkpt>
      <trkpt lat="47.42148" lon="-0.49399">
        <ele>18.8</ele>
        <time>2020-09-30T11:14:57Z</time>
      </trkpt>
      <trkpt lat="47.42141" lon="-0.49344">
        <ele>19.2</ele>
        <time>2020-09-30T11:15:04Z</time>
      </trkpt>
      <trkpt lat="47.42138" lon="-0.49276">
        <ele>19.8</ele>
        <time>2020-09-30T11:15:12Z</time>
      </trkpt>
      <trkpt lat="47.42133" lon="-0.49193">
        <ele>20</ele>
        <time>2020-09-30T11:15:22Z</time>
      </trkpt>
      <trkpt lat="47.42128" lon="-0.49116">
        <ele>19.8</ele>
        <time>2020-09-30T11:15:31Z</time>
      </trkpt>
      <trkpt lat="47.42126" lon="-0.49108">
        <ele>19.8</ele>
        <time>2020-09-30T11:15:32Z</time>
      </trkpt>
      <trkpt lat="47.42118" lon="-0.49085">
        <ele>20</ele>
        <time>2020-09-30T11:15:35Z</time>
      </trkpt>
      <trkpt lat="47.42111" lon="-0.49062">
        <ele>20.2</ele>
        <time>2020-09-30T11:15:38Z</time>
      </trkpt>
      <trkpt lat="47.42089" lon="-0.49002">
        <ele>20.6</ele>
        <time>2020-09-30T11:15:46Z</time>
      </trkpt>
      <trkpt lat="47.42066" lon="-0.48936">
        <ele>20.8</ele>
        <time>2020-09-30T11:15:55Z</time>
      </trkpt>
      <trkpt lat="47.42044" lon="-0.48869">
        <ele>21</ele>
        <time>2020-09-30T11:16:04Z</time>
      </trkpt>
      <trkpt lat="47.42023" lon="-0.48799">
        <ele>20.4</ele>
        <time>2020-09-30T11:16:13Z</time>
      </trkpt>
      <trkpt lat="47.42014" lon="-0.48768">
        <ele>20.6</ele>
        <time>2020-09-30T11:16:17Z</time>
      </trkpt>
      <trkpt lat="47.42009" lon="-0.48752">
        <ele>20.4</ele>
        <time>2020-09-30T11:16:19Z</time>
      </trkpt>
      <trkpt lat="47.41989" lon="-0.48682">
        <ele>20.2</ele>
        <time>2020-09-30T11:16:28Z</time>
      </trkpt>
      <trkpt lat="47.41971" lon="-0.4862">
        <ele>20.6</ele>
        <time>2020-09-30T11:16:36Z</time>
      </trkpt>
      <trkpt lat="47.41949" lon="-0.48543">
        <ele>21.2</ele>
        <time>2020-09-30T11:16:46Z</time>
      </trkpt>
      <trkpt lat="47.41938" lon="-0.48504">
        <ele>21.2</ele>
        <time>2020-09-30T11:16:51Z</time>
      </trkpt>
      <trkpt lat="47.41928" lon="-0.48465">
        <ele>21.2</ele>
        <time>2020-09-30T11:16:56Z</time>
      </trkpt>
      <trkpt lat="47.41919" lon="-0.48409">
        <ele>21.4</ele>
        <time>2020-09-30T11:17:03Z</time>
      </trkpt>
      <trkpt lat="47.41913" lon="-0.48335">
        <ele>21.6</ele>
        <time>2020-09-30T11:17:12Z</time>
      </trkpt>
      <trkpt lat="47.41906" lon="-0.48262">
        <ele>21</ele>
        <time>2020-09-30T11:17:21Z</time>
      </trkpt>
      <trkpt lat="47.41899" lon="-0.4818">
        <ele>21</ele>
        <time>2020-09-30T11:17:31Z</time>
      </trkpt>
      <trkpt lat="47.41898" lon="-0.48172">
        <ele>21</ele>
        <time>2020-09-30T11:17:32Z</time>
      </trkpt>
      <trkpt lat="47.41891" lon="-0.48098">
        <ele>21.2</ele>
        <time>2020-09-30T11:17:41Z</time>
      </trkpt>
      <trkpt lat="47.41883" lon="-0.48015">
        <ele>22</ele>
        <time>2020-09-30T11:17:51Z</time>
      </trkpt>
      <trkpt lat="47.41882" lon="-0.48007">
        <ele>22</ele>
        <time>2020-09-30T11:17:52Z</time>
      </trkpt>
      <trkpt lat="47.41878" lon="-0.47931">
        <ele>21.8</ele>
        <time>2020-09-30T11:18:01Z</time>
      </trkpt>
      <trkpt lat="47.41873" lon="-0.47847">
        <ele>21.2</ele>
        <time>2020-09-30T11:18:11Z</time>
      </trkpt>
      <trkpt lat="47.41868" lon="-0.47763">
        <ele>21.2</ele>
        <time>2020-09-30T11:18:21Z</time>
      </trkpt>
      <trkpt lat="47.41868" lon="-0.47755">
        <ele>21.2</ele>
        <time>2020-09-30T11:18:22Z</time>
      </trkpt>
      <trkpt lat="47.41863" lon="-0.47673">
        <ele>21</ele>
        <time>2020-09-30T11:18:32Z</time>
      </trkpt>
      <trkpt lat="47.41862" lon="-0.47664">
        <ele>20.8</ele>
        <time>2020-09-30T11:18:33Z</time>
      </trkpt>
      <trkpt lat="47.41857" lon="-0.47581">
        <ele>20.6</ele>
        <time>2020-09-30T11:18:43Z</time>
      </trkpt>
      <trkpt lat="47.41857" lon="-0.47573">
        <ele>20.6</ele>
        <time>2020-09-30T11:18:44Z</time>
      </trkpt>
      <trkpt lat="47.41853" lon="-0.47506">
        <ele>20.6</ele>
        <time>2020-09-30T11:18:52Z</time>
      </trkpt>
      <trkpt lat="47.4185" lon="-0.47466">
        <ele>20.2</ele>
        <time>2020-09-30T11:18:57Z</time>
      </trkpt>
      <trkpt lat="47.41847" lon="-0.47424">
        <ele>20.2</ele>
        <time>2020-09-30T11:19:02Z</time>
      </trkpt>
      <trkpt lat="47.41843" lon="-0.47349">
        <ele>20.6</ele>
        <time>2020-09-30T11:19:11Z</time>
      </trkpt>
      <trkpt lat="47.4184" lon="-0.47265">
        <ele>20.4</ele>
        <time>2020-09-30T11:19:21Z</time>
      </trkpt>
      <trkpt lat="47.41845" lon="-0.47199">
        <ele>20.4</ele>
        <time>2020-09-30T11:19:29Z</time>
      </trkpt>
      <trkpt lat="47.41851" lon="-0.47139">
        <ele>20</ele>
        <time>2020-09-30T11:19:36Z</time>
      </trkpt>
      <trkpt lat="47.41859" lon="-0.47056">
        <ele>19.6</ele>
        <time>2020-09-30T11:19:46Z</time>
      </trkpt>
      <trkpt lat="47.41865" lon="-0.46971">
        <ele>19.6</ele>
        <time>2020-09-30T11:19:56Z</time>
      </trkpt>
      <trkpt lat="47.41868" lon="-0.46904">
        <ele>19.8</ele>
        <time>2020-09-30T11:20:04Z</time>
      </trkpt>
      <trkpt lat="47.4187" lon="-0.46828">
        <ele>19.4</ele>
        <time>2020-09-30T11:20:13Z</time>
      </trkpt>
      <trkpt lat="47.41871" lon="-0.46795">
        <ele>19.2</ele>
        <time>2020-09-30T11:20:17Z</time>
      </trkpt>
      <trkpt lat="47.41875" lon="-0.46728">
        <ele>19</ele>
        <time>2020-09-30T11:20:25Z</time>
      </trkpt>
      <trkpt lat="47.41879" lon="-0.46644">
        <ele>19.4</ele>
        <time>2020-09-30T11:20:35Z</time>
      </trkpt>
      <trkpt lat="47.41882" lon="-0.46561">
        <ele>19.4</ele>
        <time>2020-09-30T11:20:45Z</time>
      </trkpt>
      <trkpt lat="47.41883" lon="-0.46554">
        <ele>19.6</ele>
        <time>2020-09-30T11:20:46Z</time>
      </trkpt>
      <trkpt lat="47.4189" lon="-0.46488">
        <ele>19.6</ele>
        <time>2020-09-30T11:20:54Z</time>
      </trkpt>
      <trkpt lat="47.41902" lon="-0.46423">
        <ele>20</ele>
        <time>2020-09-30T11:21:02Z</time>
      </trkpt>
      <trkpt lat="47.41918" lon="-0.46343">
        <ele>20</ele>
        <time>2020-09-30T11:21:12Z</time>
      </trkpt>
      <trkpt lat="47.4192" lon="-0.46335">
        <ele>20</ele>
        <time>2020-09-30T11:21:13Z</time>
      </trkpt>
      <trkpt lat="47.41933" lon="-0.46265">
        <ele>20</ele>
        <time>2020-09-30T11:21:22Z</time>
      </trkpt>
      <trkpt lat="47.41937" lon="-0.46232">
        <ele>20.2</ele>
        <time>2020-09-30T11:21:26Z</time>
      </trkpt>
      <trkpt lat="47.41939" lon="-0.46199">
        <ele>20.2</ele>
        <time>2020-09-30T11:21:30Z</time>
      </trkpt>
      <trkpt lat="47.41945" lon="-0.46125">
        <ele>20.2</ele>
        <time>2020-09-30T11:21:39Z</time>
      </trkpt>
      <trkpt lat="47.41952" lon="-0.46043">
        <ele>20.4</ele>
        <time>2020-09-30T11:21:49Z</time>
      </trkpt>
      <trkpt lat="47.4196" lon="-0.45961">
        <ele>20.2</ele>
        <time>2020-09-30T11:21:59Z</time>
      </trkpt>
      <trkpt lat="47.4196" lon="-0.45953">
        <ele>20.2</ele>
        <time>2020-09-30T11:22:00Z</time>
      </trkpt>
      <trkpt lat="47.41966" lon="-0.45879">
        <ele>20.4</ele>
        <time>2020-09-30T11:22:09Z</time>
      </trkpt>
      <trkpt lat="47.41967" lon="-0.45803">
        <ele>20.8</ele>
        <time>2020-09-30T11:22:18Z</time>
      </trkpt>
      <trkpt lat="47.41967" lon="-0.45719">
        <ele>21</ele>
        <time>2020-09-30T11:22:28Z</time>
      </trkpt>
      <trkpt lat="47.41967" lon="-0.45693">
        <ele>21</ele>
        <time>2020-09-30T11:22:31Z</time>
      </trkpt>
      <trkpt lat="47.41967" lon="-0.45677">
        <ele>21.2</ele>
        <time>2020-09-30T11:22:33Z</time>
      </trkpt>
      <trkpt lat="47.41967" lon="-0.45626">
        <ele>21.2</ele>
        <time>2020-09-30T11:22:39Z</time>
      </trkpt>
      <trkpt lat="47.41969" lon="-0.45549">
        <ele>21.2</ele>
        <time>2020-09-30T11:22:48Z</time>
      </trkpt>
      <trkpt lat="47.41973" lon="-0.45473">
        <ele>21.4</ele>
        <time>2020-09-30T11:22:57Z</time>
      </trkpt>
      <trkpt lat="47.41974" lon="-0.45389">
        <ele>21.8</ele>
        <time>2020-09-30T11:23:07Z</time>
      </trkpt>
      <trkpt lat="47.41973" lon="-0.45381">
        <ele>21.8</ele>
        <time>2020-09-30T11:23:08Z</time>
      </trkpt>
      <trkpt lat="47.41972" lon="-0.45348">
        <ele>21.8</ele>
        <time>2020-09-30T11:23:12Z</time>
      </trkpt>
      <trkpt lat="47.41972" lon="-0.4534">
        <ele>21.8</ele>
        <time>2020-09-30T11:23:13Z</time>
      </trkpt>
      <trkpt lat="47.41978" lon="-0.4529">
        <ele>21.6</ele>
        <time>2020-09-30T11:23:19Z</time>
      </trkpt>
      <trkpt lat="47.41993" lon="-0.45227">
        <ele>20.8</ele>
        <time>2020-09-30T11:23:27Z</time>
      </trkpt>
      <trkpt lat="47.42007" lon="-0.4519">
        <ele>20.2</ele>
        <time>2020-09-30T11:23:32Z</time>
      </trkpt>
      <trkpt lat="47.42016" lon="-0.45167">
        <ele>19.8</ele>
        <time>2020-09-30T11:23:35Z</time>
      </trkpt>
      <trkpt lat="47.42035" lon="-0.45116">
        <ele>19.6</ele>
        <time>2020-09-30T11:23:42Z</time>
      </trkpt>
      <trkpt lat="47.42053" lon="-0.45079">
        <ele>19.8</ele>
        <time>2020-09-30T11:23:48Z</time>
      </trkpt>
      <trkpt lat="47.42055" lon="-0.45072">
        <ele>20</ele>
        <time>2020-09-30T11:23:49Z</time>
      </trkpt>
      <trkpt lat="47.42056" lon="-0.45045">
        <ele>20.2</ele>
        <time>2020-09-30T11:23:53Z</time>
      </trkpt>
      <trkpt lat="47.42048" lon="-0.45028">
        <ele>20.4</ele>
        <time>2020-09-30T11:23:56Z</time>
      </trkpt>
      <trkpt lat="47.42045" lon="-0.45022">
        <ele>20.4</ele>
        <time>2020-09-30T11:23:57Z</time>
      </trkpt>
      <trkpt lat="47.42024" lon="-0.44975">
        <ele>20.8</ele>
        <time>2020-09-30T11:24:05Z</time>
      </trkpt>
      <trkpt lat="47.42007" lon="-0.4494">
        <ele>21</ele>
        <time>2020-09-30T11:24:12Z</time>
      </trkpt>
      <trkpt lat="47.4199" lon="-0.449">
        <ele>21</ele>
        <time>2020-09-30T11:24:20Z</time>
      </trkpt>
      <trkpt lat="47.41984" lon="-0.44888">
        <ele>21</ele>
        <time>2020-09-30T11:24:25Z</time>
      </trkpt>
      <trkpt lat="47.41984" lon="-0.44883">
        <ele>21.2</ele>
        <time>2020-09-30T11:24:29Z</time>
      </trkpt>
      <trkpt lat="47.41986" lon="-0.44879">
        <ele>21.6</ele>
        <time>2020-09-30T11:24:37Z</time>
      </trkpt>
      <trkpt lat="47.41994" lon="-0.44875">
        <ele>21.6</ele>
        <time>2020-09-30T11:24:40Z</time>
      </trkpt>
      <trkpt lat="47.42005" lon="-0.44869">
        <ele>21.6</ele>
        <time>2020-09-30T11:24:43Z</time>
      </trkpt>
      <trkpt lat="47.42008" lon="-0.44864">
        <ele>21.6</ele>
        <time>2020-09-30T11:24:44Z</time>
      </trkpt>
      <trkpt lat="47.42012" lon="-0.44843">
        <ele>21.6</ele>
        <time>2020-09-30T11:24:47Z</time>
      </trkpt>
      <trkpt lat="47.42012" lon="-0.44836">
        <ele>21.6</ele>
        <time>2020-09-30T11:24:48Z</time>
      </trkpt>
      <trkpt lat="47.42015" lon="-0.44787">
        <ele>21.2</ele>
        <time>2020-09-30T11:24:55Z</time>
      </trkpt>
      <trkpt lat="47.42018" lon="-0.44718">
        <ele>21.6</ele>
        <time>2020-09-30T11:25:04Z</time>
      </trkpt>
      <trkpt lat="47.42023" lon="-0.44641">
        <ele>22</ele>
        <time>2020-09-30T11:25:14Z</time>
      </trkpt>
      <trkpt lat="47.42024" lon="-0.44592">
        <ele>22</ele>
        <time>2020-09-30T11:25:21Z</time>
      </trkpt>
      <trkpt lat="47.42025" lon="-0.44585">
        <ele>22</ele>
        <time>2020-09-30T11:25:22Z</time>
      </trkpt>
      <trkpt lat="47.42031" lon="-0.44531">
        <ele>21.6</ele>
        <time>2020-09-30T11:25:29Z</time>
      </trkpt>
      <trkpt lat="47.4204" lon="-0.44483">
        <ele>20</ele>
        <time>2020-09-30T11:25:34Z</time>
      </trkpt>
      <trkpt lat="47.4204" lon="-0.44472">
        <ele>19.6</ele>
        <time>2020-09-30T11:25:35Z</time>
      </trkpt>
      <trkpt lat="47.42038" lon="-0.4444">
        <ele>19.2</ele>
        <time>2020-09-30T11:25:38Z</time>
      </trkpt>
      <trkpt lat="47.42037" lon="-0.4443">
        <ele>18.8</ele>
        <time>2020-09-30T11:25:39Z</time>
      </trkpt>
      <trkpt lat="47.42037" lon="-0.4441">
        <ele>18.2</ele>
        <time>2020-09-30T11:25:41Z</time>
      </trkpt>
      <trkpt lat="47.42042" lon="-0.44396">
        <ele>17.6</ele>
        <time>2020-09-30T11:25:43Z</time>
      </trkpt>
      <trkpt lat="47.42058" lon="-0.44385">
        <ele>17.4</ele>
        <time>2020-09-30T11:25:46Z</time>
      </trkpt>
      <trkpt lat="47.42064" lon="-0.44382">
        <ele>17.4</ele>
        <time>2020-09-30T11:25:47Z</time>
      </trkpt>
      <trkpt lat="47.42082" lon="-0.44376">
        <ele>17.4</ele>
        <time>2020-09-30T11:25:50Z</time>
      </trkpt>
      <trkpt lat="47.42094" lon="-0.44374">
        <ele>17.6</ele>
        <time>2020-09-30T11:25:52Z</time>
      </trkpt>
      <trkpt lat="47.4211" lon="-0.44371">
        <ele>17.6</ele>
        <time>2020-09-30T11:25:55Z</time>
      </trkpt>
      <trkpt lat="47.4212" lon="-0.44362">
        <ele>17.6</ele>
        <time>2020-09-30T11:25:57Z</time>
      </trkpt>
      <trkpt lat="47.42129" lon="-0.44333">
        <ele>18</ele>
        <time>2020-09-30T11:26:01Z</time>
      </trkpt>
      <trkpt lat="47.42142" lon="-0.44283">
        <ele>18.6</ele>
        <time>2020-09-30T11:26:08Z</time>
      </trkpt>
      <trkpt lat="47.42145" lon="-0.44277">
        <ele>18.6</ele>
        <time>2020-09-30T11:26:09Z</time>
      </trkpt>
      <trkpt lat="47.42156" lon="-0.44261">
        <ele>18.8</ele>
        <time>2020-09-30T11:26:12Z</time>
      </trkpt>
      <trkpt lat="47.4216" lon="-0.44256">
        <ele>18.8</ele>
        <time>2020-09-30T11:26:13Z</time>
      </trkpt>
      <trkpt lat="47.42169" lon="-0.44246">
        <ele>18.8</ele>
        <time>2020-09-30T11:26:15Z</time>
      </trkpt>
      <trkpt lat="47.42179" lon="-0.44229">
        <ele>19</ele>
        <time>2020-09-30T11:26:18Z</time>
      </trkpt>
      <trkpt lat="47.42185" lon="-0.44217">
        <ele>19</ele>
        <time>2020-09-30T11:26:20Z</time>
      </trkpt>
      <trkpt lat="47.4219" lon="-0.44205">
        <ele>19.2</ele>
        <time>2020-09-30T11:26:22Z</time>
      </trkpt>
      <trkpt lat="47.42193" lon="-0.442">
        <ele>19.2</ele>
        <time>2020-09-30T11:26:23Z</time>
      </trkpt>
      <trkpt lat="47.42213" lon="-0.44192">
        <ele>19</ele>
        <time>2020-09-30T11:26:27Z</time>
      </trkpt>
      <trkpt lat="47.42218" lon="-0.44192">
        <ele>19</ele>
        <time>2020-09-30T11:26:28Z</time>
      </trkpt>
      <trkpt lat="47.42268" lon="-0.44186">
        <ele>18.6</ele>
        <time>2020-09-30T11:26:37Z</time>
      </trkpt>
      <trkpt lat="47.42299" lon="-0.44172">
        <ele>18.6</ele>
        <time>2020-09-30T11:26:43Z</time>
      </trkpt>
      <trkpt lat="47.42332" lon="-0.44147">
        <ele>19</ele>
        <time>2020-09-30T11:26:50Z</time>
      </trkpt>
      <trkpt lat="47.42351" lon="-0.44131">
        <ele>19</ele>
        <time>2020-09-30T11:26:54Z</time>
      </trkpt>
      <trkpt lat="47.42358" lon="-0.44118">
        <ele>19</ele>
        <time>2020-09-30T11:26:56Z</time>
      </trkpt>
      <trkpt lat="47.42366" lon="-0.44088">
        <ele>19.2</ele>
        <time>2020-09-30T11:27:00Z</time>
      </trkpt>
      <trkpt lat="47.42383" lon="-0.44023">
        <ele>19.2</ele>
        <time>2020-09-30T11:27:09Z</time>
      </trkpt>
      <trkpt lat="47.42405" lon="-0.43969">
        <ele>19</ele>
        <time>2020-09-30T11:27:17Z</time>
      </trkpt>
      <trkpt lat="47.42408" lon="-0.43964">
        <ele>19</ele>
        <time>2020-09-30T11:27:18Z</time>
      </trkpt>
      <trkpt lat="47.42428" lon="-0.43939">
        <ele>18.8</ele>
        <time>2020-09-30T11:27:23Z</time>
      </trkpt>
      <trkpt lat="47.42434" lon="-0.43925">
        <ele>18.6</ele>
        <time>2020-09-30T11:27:25Z</time>
      </trkpt>
      <trkpt lat="47.4244" lon="-0.43902">
        <ele>18.4</ele>
        <time>2020-09-30T11:27:28Z</time>
      </trkpt>
      <trkpt lat="47.42441" lon="-0.43894">
        <ele>18.4</ele>
        <time>2020-09-30T11:27:29Z</time>
      </trkpt>
      <trkpt lat="47.42444" lon="-0.43856">
        <ele>18.6</ele>
        <time>2020-09-30T11:27:34Z</time>
      </trkpt>
      <trkpt lat="47.42453" lon="-0.43811">
        <ele>18.2</ele>
        <time>2020-09-30T11:27:40Z</time>
      </trkpt>
      <trkpt lat="47.42471" lon="-0.4377">
        <ele>18.2</ele>
        <time>2020-09-30T11:27:46Z</time>
      </trkpt>
      <trkpt lat="47.42489" lon="-0.43731">
        <ele>17.6</ele>
        <time>2020-09-30T11:27:52Z</time>
      </trkpt>
      <trkpt lat="47.42497" lon="-0.43711">
        <ele>17.4</ele>
        <time>2020-09-30T11:27:55Z</time>
      </trkpt>
      <trkpt lat="47.42513" lon="-0.43659">
        <ele>17.2</ele>
        <time>2020-09-30T11:28:02Z</time>
      </trkpt>
      <trkpt lat="47.42524" lon="-0.43617">
        <ele>17.4</ele>
        <time>2020-09-30T11:28:08Z</time>
      </trkpt>
      <trkpt lat="47.42527" lon="-0.43612">
        <ele>17.4</ele>
        <time>2020-09-30T11:28:09Z</time>
      </trkpt>
      <trkpt lat="47.42541" lon="-0.43609">
        <ele>17.6</ele>
        <time>2020-09-30T11:28:12Z</time>
      </trkpt>
      <trkpt lat="47.42552" lon="-0.43611">
        <ele>17.6</ele>
        <time>2020-09-30T11:28:14Z</time>
      </trkpt>
      <trkpt lat="47.42582" lon="-0.43614">
        <ele>17.6</ele>
        <time>2020-09-30T11:28:19Z</time>
      </trkpt>
      <trkpt lat="47.42637" lon="-0.43619">
        <ele>18</ele>
        <time>2020-09-30T11:28:28Z</time>
      </trkpt>
      <trkpt lat="47.42688" lon="-0.43623">
        <ele>18</ele>
        <time>2020-09-30T11:28:37Z</time>
      </trkpt>
      <trkpt lat="47.42733" lon="-0.43626">
        <ele>18</ele>
        <time>2020-09-30T11:28:46Z</time>
      </trkpt>
      <trkpt lat="47.42742" lon="-0.43626">
        <ele>18</ele>
        <time>2020-09-30T11:28:48Z</time>
      </trkpt>
      <trkpt lat="47.42752" lon="-0.43613">
        <ele>17.8</ele>
        <time>2020-09-30T11:28:51Z</time>
      </trkpt>
      <trkpt lat="47.4275" lon="-0.43592">
        <ele>18</ele>
        <time>2020-09-30T11:28:54Z</time>
      </trkpt>
      <trkpt lat="47.42749" lon="-0.43584">
        <ele>18</ele>
        <time>2020-09-30T11:28:55Z</time>
      </trkpt>
      <trkpt lat="47.42744" lon="-0.43537">
        <ele>18.4</ele>
        <time>2020-09-30T11:29:01Z</time>
      </trkpt>
      <trkpt lat="47.42738" lon="-0.43483">
        <ele>18.6</ele>
        <time>2020-09-30T11:29:08Z</time>
      </trkpt>
      <trkpt lat="47.42735" lon="-0.43459">
        <ele>18.6</ele>
        <time>2020-09-30T11:29:11Z</time>
      </trkpt>
      <trkpt lat="47.42727" lon="-0.43379">
        <ele>18.8</ele>
        <time>2020-09-30T11:29:21Z</time>
      </trkpt>
      <trkpt lat="47.42718" lon="-0.43294">
        <ele>18.6</ele>
        <time>2020-09-30T11:29:32Z</time>
      </trkpt>
      <trkpt lat="47.42716" lon="-0.43279">
        <ele>18.6</ele>
        <time>2020-09-30T11:29:34Z</time>
      </trkpt>
      <trkpt lat="47.42709" lon="-0.43202">
        <ele>17.6</ele>
        <time>2020-09-30T11:29:44Z</time>
      </trkpt>
      <trkpt lat="47.42703" lon="-0.43141">
        <ele>17.6</ele>
        <time>2020-09-30T11:29:52Z</time>
      </trkpt>
      <trkpt lat="47.42696" lon="-0.43063">
        <ele>17.4</ele>
        <time>2020-09-30T11:30:02Z</time>
      </trkpt>
      <trkpt lat="47.42688" lon="-0.42993">
        <ele>17.2</ele>
        <time>2020-09-30T11:30:11Z</time>
      </trkpt>
      <trkpt lat="47.4268" lon="-0.42915">
        <ele>17.2</ele>
        <time>2020-09-30T11:30:21Z</time>
      </trkpt>
      <trkpt lat="47.42674" lon="-0.42846">
        <ele>17</ele>
        <time>2020-09-30T11:30:30Z</time>
      </trkpt>
      <trkpt lat="47.4267" lon="-0.42802">
        <ele>17</ele>
        <time>2020-09-30T11:30:37Z</time>
      </trkpt>
      <trkpt lat="47.42676" lon="-0.42785">
        <ele>17</ele>
        <time>2020-09-30T11:30:42Z</time>
      </trkpt>
      <trkpt lat="47.42692" lon="-0.42787">
        <ele>16.8</ele>
        <time>2020-09-30T11:30:46Z</time>
      </trkpt>
      <trkpt lat="47.42705" lon="-0.42789">
        <ele>17</ele>
        <time>2020-09-30T11:30:49Z</time>
      </trkpt>
      <trkpt lat="47.42719" lon="-0.42791">
        <ele>17.2</ele>
        <time>2020-09-30T11:30:52Z</time>
      </trkpt>
      <trkpt lat="47.4276" lon="-0.42797">
        <ele>17.8</ele>
        <time>2020-09-30T11:31:00Z</time>
      </trkpt>
      <trkpt lat="47.42799" lon="-0.42802">
        <ele>18</ele>
        <time>2020-09-30T11:31:07Z</time>
      </trkpt>
      <trkpt lat="47.42841" lon="-0.42813">
        <ele>18.4</ele>
        <time>2020-09-30T11:31:15Z</time>
      </trkpt>
      <trkpt lat="47.42876" lon="-0.42839">
        <ele>18.4</ele>
        <time>2020-09-30T11:31:22Z</time>
      </trkpt>
      <trkpt lat="47.42927" lon="-0.42879">
        <ele>18.4</ele>
        <time>2020-09-30T11:31:33Z</time>
      </trkpt>
      <trkpt lat="47.42969" lon="-0.42911">
        <ele>18.6</ele>
        <time>2020-09-30T11:31:42Z</time>
      </trkpt>
      <trkpt lat="47.42979" lon="-0.42919">
        <ele>18.6</ele>
        <time>2020-09-30T11:31:44Z</time>
      </trkpt>
      <trkpt lat="47.43008" lon="-0.42942">
        <ele>18.6</ele>
        <time>2020-09-30T11:31:50Z</time>
      </trkpt>
      <trkpt lat="47.4306" lon="-0.42982">
        <ele>18.6</ele>
        <time>2020-09-30T11:32:01Z</time>
      </trkpt>
      <trkpt lat="47.43102" lon="-0.43015">
        <ele>18.2</ele>
        <time>2020-09-30T11:32:10Z</time>
      </trkpt>
      <trkpt lat="47.43144" lon="-0.43049">
        <ele>18.2</ele>
        <time>2020-09-30T11:32:19Z</time>
      </trkpt>
      <trkpt lat="47.43193" lon="-0.4308">
        <ele>18.4</ele>
        <time>2020-09-30T11:32:29Z</time>
      </trkpt>
      <trkpt lat="47.4322" lon="-0.43076">
        <ele>18.2</ele>
        <time>2020-09-30T11:32:34Z</time>
      </trkpt>
      <trkpt lat="47.43261" lon="-0.43069">
        <ele>18</ele>
        <time>2020-09-30T11:32:42Z</time>
      </trkpt>
      <trkpt lat="47.43291" lon="-0.43064">
        <ele>17.6</ele>
        <time>2020-09-30T11:32:48Z</time>
      </trkpt>
      <trkpt lat="47.43301" lon="-0.43063">
        <ele>17.4</ele>
        <time>2020-09-30T11:32:50Z</time>
      </trkpt>
      <trkpt lat="47.43337" lon="-0.43057">
        <ele>17</ele>
        <time>2020-09-30T11:32:57Z</time>
      </trkpt>
      <trkpt lat="47.43347" lon="-0.43055">
        <ele>16.6</ele>
        <time>2020-09-30T11:32:59Z</time>
      </trkpt>
      <trkpt lat="47.43375" lon="-0.43052">
        <ele>15.8</ele>
        <time>2020-09-30T11:33:04Z</time>
      </trkpt>
      <trkpt lat="47.43427" lon="-0.43044">
        <ele>15.6</ele>
        <time>2020-09-30T11:33:13Z</time>
      </trkpt>
      <trkpt lat="47.4345" lon="-0.43041">
        <ele>15.6</ele>
        <time>2020-09-30T11:33:17Z</time>
      </trkpt>
      <trkpt lat="47.4349" lon="-0.43035">
        <ele>15.2</ele>
        <time>2020-09-30T11:33:24Z</time>
      </trkpt>
      <trkpt lat="47.43541" lon="-0.43027">
        <ele>14.8</ele>
        <time>2020-09-30T11:33:33Z</time>
      </trkpt>
      <trkpt lat="47.43584" lon="-0.43014">
        <ele>15.2</ele>
        <time>2020-09-30T11:33:41Z</time>
      </trkpt>
      <trkpt lat="47.43639" lon="-0.42999">
        <ele>15.2</ele>
        <time>2020-09-30T11:33:50Z</time>
      </trkpt>
      <trkpt lat="47.43692" lon="-0.42985">
        <ele>15.6</ele>
        <time>2020-09-30T11:33:59Z</time>
      </trkpt>
      <trkpt lat="47.43738" lon="-0.42973">
        <ele>15.8</ele>
        <time>2020-09-30T11:34:07Z</time>
      </trkpt>
      <trkpt lat="47.4379" lon="-0.42959">
        <ele>15.8</ele>
        <time>2020-09-30T11:34:16Z</time>
      </trkpt>
      <trkpt lat="47.4383" lon="-0.42954">
        <ele>15.8</ele>
        <time>2020-09-30T11:34:23Z</time>
      </trkpt>
      <trkpt lat="47.43836" lon="-0.42954">
        <ele>15.8</ele>
        <time>2020-09-30T11:34:24Z</time>
      </trkpt>
      <trkpt lat="47.43877" lon="-0.42965">
        <ele>15.8</ele>
        <time>2020-09-30T11:34:31Z</time>
      </trkpt>
      <trkpt lat="47.43931" lon="-0.4298">
        <ele>15.8</ele>
        <time>2020-09-30T11:34:41Z</time>
      </trkpt>
      <trkpt lat="47.43974" lon="-0.42993">
        <ele>15.8</ele>
        <time>2020-09-30T11:34:49Z</time>
      </trkpt>
      <trkpt lat="47.44028" lon="-0.43007">
        <ele>15.8</ele>
        <time>2020-09-30T11:34:59Z</time>
      </trkpt>
      <trkpt lat="47.44033" lon="-0.43008">
        <ele>16</ele>
        <time>2020-09-30T11:35:00Z</time>
      </trkpt>
      <trkpt lat="47.44062" lon="-0.43017">
        <ele>16.6</ele>
        <time>2020-09-30T11:35:06Z</time>
      </trkpt>
      <trkpt lat="47.44066" lon="-0.4302">
        <ele>16.8</ele>
        <time>2020-09-30T11:35:07Z</time>
      </trkpt>
      <trkpt lat="47.44075" lon="-0.43028">
        <ele>17.2</ele>
        <time>2020-09-30T11:35:09Z</time>
      </trkpt>
      <trkpt lat="47.44085" lon="-0.43043">
        <ele>17.6</ele>
        <time>2020-09-30T11:35:12Z</time>
      </trkpt>
      <trkpt lat="47.44092" lon="-0.43055">
        <ele>17.6</ele>
        <time>2020-09-30T11:35:14Z</time>
      </trkpt>
      <trkpt lat="47.44096" lon="-0.43061">
        <ele>17.8</ele>
        <time>2020-09-30T11:35:15Z</time>
      </trkpt>
      <trkpt lat="47.44127" lon="-0.43115">
        <ele>17.2</ele>
        <time>2020-09-30T11:35:24Z</time>
      </trkpt>
      <trkpt lat="47.44135" lon="-0.43124">
        <ele>17</ele>
        <time>2020-09-30T11:35:26Z</time>
      </trkpt>
      <trkpt lat="47.44148" lon="-0.43129">
        <ele>17.4</ele>
        <time>2020-09-30T11:35:29Z</time>
      </trkpt>
      <trkpt lat="47.44156" lon="-0.43129">
        <ele>17.6</ele>
        <time>2020-09-30T11:35:31Z</time>
      </trkpt>
      <trkpt lat="47.44168" lon="-0.43127">
        <ele>17.8</ele>
        <time>2020-09-30T11:35:34Z</time>
      </trkpt>
      <trkpt lat="47.44185" lon="-0.43129">
        <ele>18</ele>
        <time>2020-09-30T11:35:38Z</time>
      </trkpt>
      <trkpt lat="47.44193" lon="-0.43132">
        <ele>18</ele>
        <time>2020-09-30T11:35:40Z</time>
      </trkpt>
      <trkpt lat="47.44211" lon="-0.43151">
        <ele>17.8</ele>
        <time>2020-09-30T11:35:44Z</time>
      </trkpt>
      <trkpt lat="47.44246" lon="-0.4319">
        <ele>17</ele>
        <time>2020-09-30T11:35:51Z</time>
      </trkpt>
      <trkpt lat="47.44265" lon="-0.43192">
        <ele>17.2</ele>
        <time>2020-09-30T11:35:54Z</time>
      </trkpt>
      <trkpt lat="47.4428" lon="-0.4318">
        <ele>17.4</ele>
        <time>2020-09-30T11:35:57Z</time>
      </trkpt>
      <trkpt lat="47.44291" lon="-0.43173">
        <ele>17.4</ele>
        <time>2020-09-30T11:35:59Z</time>
      </trkpt>
      <trkpt lat="47.44308" lon="-0.43168">
        <ele>18.2</ele>
        <time>2020-09-30T11:36:02Z</time>
      </trkpt>
      <trkpt lat="47.44328" lon="-0.43165">
        <ele>18.8</ele>
        <time>2020-09-30T11:36:06Z</time>
      </trkpt>
      <trkpt lat="47.44338" lon="-0.43163">
        <ele>19</ele>
        <time>2020-09-30T11:36:08Z</time>
      </trkpt>
      <trkpt lat="47.44358" lon="-0.4316">
        <ele>20</ele>
        <time>2020-09-30T11:36:12Z</time>
      </trkpt>
      <trkpt lat="47.4438" lon="-0.43157">
        <ele>21.2</ele>
        <time>2020-09-30T11:36:16Z</time>
      </trkpt>
      <trkpt lat="47.44415" lon="-0.43151">
        <ele>22.2</ele>
        <time>2020-09-30T11:36:23Z</time>
      </trkpt>
      <trkpt lat="47.44451" lon="-0.43144">
        <ele>23.4</ele>
        <time>2020-09-30T11:36:30Z</time>
      </trkpt>
      <trkpt lat="47.44494" lon="-0.43133">
        <ele>24</ele>
        <time>2020-09-30T11:36:38Z</time>
      </trkpt>
      <trkpt lat="47.44539" lon="-0.43122">
        <ele>24.4</ele>
        <time>2020-09-30T11:36:47Z</time>
      </trkpt>
      <trkpt lat="47.4459" lon="-0.4311">
        <ele>24.6</ele>
        <time>2020-09-30T11:36:57Z</time>
      </trkpt>
      <trkpt lat="47.4463" lon="-0.43105">
        <ele>24.8</ele>
        <time>2020-09-30T11:37:05Z</time>
      </trkpt>
      <trkpt lat="47.44652" lon="-0.43106">
        <ele>24.2</ele>
        <time>2020-09-30T11:37:10Z</time>
      </trkpt>
      <trkpt lat="47.4466" lon="-0.43107">
        <ele>24.2</ele>
        <time>2020-09-30T11:37:12Z</time>
      </trkpt>
      <trkpt lat="47.4467" lon="-0.43108">
        <ele>24.2</ele>
        <time>2020-09-30T11:37:16Z</time>
      </trkpt>
      <trkpt lat="47.44667" lon="-0.43112">
        <ele>24.6</ele>
        <time>2020-09-30T11:37:19Z</time>
      </trkpt>
      <trkpt lat="47.44665" lon="-0.43112">
        <ele>24.6</ele>
        <time>2020-09-30T11:37:20Z</time>
      </trkpt>
      <trkpt lat="47.44646" lon="-0.43111">
        <ele>25</ele>
        <time>2020-09-30T11:37:25Z</time>
      </trkpt>
      <trkpt lat="47.44623" lon="-0.4311">
        <ele>25.2</ele>
        <time>2020-09-30T11:37:30Z</time>
      </trkpt>
      <trkpt lat="47.44591" lon="-0.43115">
        <ele>24.8</ele>
        <time>2020-09-30T11:37:37Z</time>
      </trkpt>
      <trkpt lat="47.44546" lon="-0.43125">
        <ele>24</ele>
        <time>2020-09-30T11:37:46Z</time>
      </trkpt>
      <trkpt lat="47.44497" lon="-0.43137">
        <ele>23.6</ele>
        <time>2020-09-30T11:37:55Z</time>
      </trkpt>
      <trkpt lat="47.44486" lon="-0.4314">
        <ele>23.4</ele>
        <time>2020-09-30T11:37:57Z</time>
      </trkpt>
      <trkpt lat="47.44447" lon="-0.43149">
        <ele>23.2</ele>
        <time>2020-09-30T11:38:04Z</time>
      </trkpt>
      <trkpt lat="47.44396" lon="-0.43159">
        <ele>22.2</ele>
        <time>2020-09-30T11:38:13Z</time>
      </trkpt>
      <trkpt lat="47.44384" lon="-0.43162">
        <ele>22</ele>
        <time>2020-09-30T11:38:15Z</time>
      </trkpt>
      <trkpt lat="47.44354" lon="-0.43168">
        <ele>21</ele>
        <time>2020-09-30T11:38:20Z</time>
      </trkpt>
      <trkpt lat="47.4433" lon="-0.43172">
        <ele>20</ele>
        <time>2020-09-30T11:38:24Z</time>
      </trkpt>
      <trkpt lat="47.44324" lon="-0.43173">
        <ele>19.8</ele>
        <time>2020-09-30T11:38:25Z</time>
      </trkpt>
      <trkpt lat="47.44297" lon="-0.43178">
        <ele>18.8</ele>
        <time>2020-09-30T11:38:29Z</time>
      </trkpt>
      <trkpt lat="47.44275" lon="-0.43186">
        <ele>18</ele>
        <time>2020-09-30T11:38:32Z</time>
      </trkpt>
      <trkpt lat="47.44261" lon="-0.43193">
        <ele>17.8</ele>
        <time>2020-09-30T11:38:34Z</time>
      </trkpt>
      <trkpt lat="47.44247" lon="-0.43197">
        <ele>17.4</ele>
        <time>2020-09-30T11:38:36Z</time>
      </trkpt>
      <trkpt lat="47.4424" lon="-0.43194">
        <ele>17.4</ele>
        <time>2020-09-30T11:38:37Z</time>
      </trkpt>
      <trkpt lat="47.44223" lon="-0.43175">
        <ele>17.6</ele>
        <time>2020-09-30T11:38:40Z</time>
      </trkpt>
      <trkpt lat="47.44195" lon="-0.4314">
        <ele>17</ele>
        <time>2020-09-30T11:38:46Z</time>
      </trkpt>
      <trkpt lat="47.4419" lon="-0.43136">
        <ele>17</ele>
        <time>2020-09-30T11:38:47Z</time>
      </trkpt>
      <trkpt lat="47.44176" lon="-0.43131">
        <ele>17</ele>
        <time>2020-09-30T11:38:50Z</time>
      </trkpt>
      <trkpt lat="47.44161" lon="-0.43132">
        <ele>17</ele>
        <time>2020-09-30T11:38:53Z</time>
      </trkpt>
      <trkpt lat="47.44152" lon="-0.43133">
        <ele>16.8</ele>
        <time>2020-09-30T11:38:55Z</time>
      </trkpt>
      <trkpt lat="47.44142" lon="-0.43134">
        <ele>16.8</ele>
        <time>2020-09-30T11:38:57Z</time>
      </trkpt>
      <trkpt lat="47.44125" lon="-0.43123">
        <ele>16.4</ele>
        <time>2020-09-30T11:39:00Z</time>
      </trkpt>
      <trkpt lat="47.44113" lon="-0.43102">
        <ele>15.8</ele>
        <time>2020-09-30T11:39:03Z</time>
      </trkpt>
      <trkpt lat="47.44109" lon="-0.43095">
        <ele>15.8</ele>
        <time>2020-09-30T11:39:04Z</time>
      </trkpt>
      <trkpt lat="47.44106" lon="-0.43088">
        <ele>15.6</ele>
        <time>2020-09-30T11:39:05Z</time>
      </trkpt>
      <trkpt lat="47.44085" lon="-0.43053">
        <ele>14.6</ele>
        <time>2020-09-30T11:39:11Z</time>
      </trkpt>
      <trkpt lat="47.44082" lon="-0.43048">
        <ele>14.6</ele>
        <time>2020-09-30T11:39:12Z</time>
      </trkpt>
      <trkpt lat="47.44061" lon="-0.43025">
        <ele>14.8</ele>
        <time>2020-09-30T11:39:17Z</time>
      </trkpt>
      <trkpt lat="47.44056" lon="-0.43022">
        <ele>14.8</ele>
        <time>2020-09-30T11:39:18Z</time>
      </trkpt>
      <trkpt lat="47.44026" lon="-0.43015">
        <ele>14.8</ele>
        <time>2020-09-30T11:39:23Z</time>
      </trkpt>
      <trkpt lat="47.43972" lon="-0.43">
        <ele>14.6</ele>
        <time>2020-09-30T11:39:32Z</time>
      </trkpt>
      <trkpt lat="47.43966" lon="-0.42998">
        <ele>14.6</ele>
        <time>2020-09-30T11:39:33Z</time>
      </trkpt>
      <trkpt lat="47.43909" lon="-0.4298">
        <ele>14.8</ele>
        <time>2020-09-30T11:39:43Z</time>
      </trkpt>
      <trkpt lat="47.43904" lon="-0.42979">
        <ele>14.8</ele>
        <time>2020-09-30T11:39:44Z</time>
      </trkpt>
      <trkpt lat="47.43855" lon="-0.42965">
        <ele>15</ele>
        <time>2020-09-30T11:39:53Z</time>
      </trkpt>
      <trkpt lat="47.43823" lon="-0.42958">
        <ele>14.6</ele>
        <time>2020-09-30T11:39:59Z</time>
      </trkpt>
      <trkpt lat="47.43793" lon="-0.42962">
        <ele>14.6</ele>
        <time>2020-09-30T11:40:05Z</time>
      </trkpt>
      <trkpt lat="47.43736" lon="-0.42977">
        <ele>15.2</ele>
        <time>2020-09-30T11:40:16Z</time>
      </trkpt>
      <trkpt lat="47.43691" lon="-0.42989">
        <ele>15.2</ele>
        <time>2020-09-30T11:40:25Z</time>
      </trkpt>
      <trkpt lat="47.43637" lon="-0.43004">
        <ele>15.2</ele>
        <time>2020-09-30T11:40:36Z</time>
      </trkpt>
      <trkpt lat="47.43632" lon="-0.43005">
        <ele>15.4</ele>
        <time>2020-09-30T11:40:37Z</time>
      </trkpt>
      <trkpt lat="47.43591" lon="-0.43017">
        <ele>15.6</ele>
        <time>2020-09-30T11:40:45Z</time>
      </trkpt>
      <trkpt lat="47.43545" lon="-0.43032">
        <ele>16.2</ele>
        <time>2020-09-30T11:40:54Z</time>
      </trkpt>
      <trkpt lat="47.43503" lon="-0.4304">
        <ele>16.4</ele>
        <time>2020-09-30T11:41:02Z</time>
      </trkpt>
      <trkpt lat="47.43466" lon="-0.43047">
        <ele>16.2</ele>
        <time>2020-09-30T11:41:09Z</time>
      </trkpt>
      <trkpt lat="47.43412" lon="-0.43055">
        <ele>14.8</ele>
        <time>2020-09-30T11:41:19Z</time>
      </trkpt>
      <trkpt lat="47.43402" lon="-0.43057">
        <ele>14.4</ele>
        <time>2020-09-30T11:41:21Z</time>
      </trkpt>
      <trkpt lat="47.4337" lon="-0.43064">
        <ele>13.2</ele>
        <time>2020-09-30T11:41:27Z</time>
      </trkpt>
      <trkpt lat="47.43354" lon="-0.43066">
        <ele>12.6</ele>
        <time>2020-09-30T11:41:30Z</time>
      </trkpt>
      <trkpt lat="47.43344" lon="-0.43068">
        <ele>12.2</ele>
        <time>2020-09-30T11:41:32Z</time>
      </trkpt>
      <trkpt lat="47.43297" lon="-0.43074">
        <ele>11.4</ele>
        <time>2020-09-30T11:41:41Z</time>
      </trkpt>
      <trkpt lat="47.43291" lon="-0.43075">
        <ele>11.2</ele>
        <time>2020-09-30T11:41:42Z</time>
      </trkpt>
      <trkpt lat="47.43248" lon="-0.43082">
        <ele>10.4</ele>
        <time>2020-09-30T11:41:50Z</time>
      </trkpt>
      <trkpt lat="47.43217" lon="-0.43088">
        <ele>10.8</ele>
        <time>2020-09-30T11:41:56Z</time>
      </trkpt>
      <trkpt lat="47.43186" lon="-0.43086">
        <ele>12</ele>
        <time>2020-09-30T11:42:02Z</time>
      </trkpt>
      <trkpt lat="47.43181" lon="-0.43084">
        <ele>12.2</ele>
        <time>2020-09-30T11:42:03Z</time>
      </trkpt>
      <trkpt lat="47.43176" lon="-0.43081">
        <ele>12.6</ele>
        <time>2020-09-30T11:42:04Z</time>
      </trkpt>
      <trkpt lat="47.43167" lon="-0.43075">
        <ele>13</ele>
        <time>2020-09-30T11:42:06Z</time>
      </trkpt>
      <trkpt lat="47.43154" lon="-0.43064">
        <ele>13.6</ele>
        <time>2020-09-30T11:42:09Z</time>
      </trkpt>
      <trkpt lat="47.43104" lon="-0.43023">
        <ele>14.2</ele>
        <time>2020-09-30T11:42:20Z</time>
      </trkpt>
      <trkpt lat="47.43057" lon="-0.42986">
        <ele>13.6</ele>
        <time>2020-09-30T11:42:30Z</time>
      </trkpt>
      <trkpt lat="47.43015" lon="-0.42953">
        <ele>13.2</ele>
        <time>2020-09-30T11:42:39Z</time>
      </trkpt>
      <trkpt lat="47.42977" lon="-0.42922">
        <ele>12.6</ele>
        <time>2020-09-30T11:42:47Z</time>
      </trkpt>
      <trkpt lat="47.42972" lon="-0.42918">
        <ele>12.6</ele>
        <time>2020-09-30T11:42:48Z</time>
      </trkpt>
      <trkpt lat="47.42931" lon="-0.42886">
        <ele>12.4</ele>
        <time>2020-09-30T11:42:57Z</time>
      </trkpt>
      <trkpt lat="47.42889" lon="-0.42852">
        <ele>11.8</ele>
        <time>2020-09-30T11:43:06Z</time>
      </trkpt>
      <trkpt lat="47.42857" lon="-0.42828">
        <ele>11.6</ele>
        <time>2020-09-30T11:43:13Z</time>
      </trkpt>
      <trkpt lat="47.42852" lon="-0.42824">
        <ele>11.4</ele>
        <time>2020-09-30T11:43:14Z</time>
      </trkpt>
      <trkpt lat="47.42823" lon="-0.42808">
        <ele>11.6</ele>
        <time>2020-09-30T11:43:20Z</time>
      </trkpt>
      <trkpt lat="47.42818" lon="-0.42808">
        <ele>11.8</ele>
        <time>2020-09-30T11:43:21Z</time>
      </trkpt>
      <trkpt lat="47.42769" lon="-0.42802">
        <ele>12</ele>
        <time>2020-09-30T11:43:30Z</time>
      </trkpt>
      <trkpt lat="47.42722" lon="-0.42797">
        <ele>12.4</ele>
        <time>2020-09-30T11:43:39Z</time>
      </trkpt>
      <trkpt lat="47.42712" lon="-0.42795">
        <ele>12.6</ele>
        <time>2020-09-30T11:43:41Z</time>
      </trkpt>
      <trkpt lat="47.42688" lon="-0.42792">
        <ele>13.6</ele>
        <time>2020-09-30T11:43:46Z</time>
      </trkpt>
      <trkpt lat="47.42683" lon="-0.42793">
        <ele>13.6</ele>
        <time>2020-09-30T11:43:47Z</time>
      </trkpt>
      <trkpt lat="47.42679" lon="-0.42794">
        <ele>13.6</ele>
        <time>2020-09-30T11:43:48Z</time>
      </trkpt>
      <trkpt lat="47.42673" lon="-0.42806">
        <ele>13.8</ele>
        <time>2020-09-30T11:43:50Z</time>
      </trkpt>
      <trkpt lat="47.42675" lon="-0.42837">
        <ele>14.2</ele>
        <time>2020-09-30T11:43:54Z</time>
      </trkpt>
      <trkpt lat="47.42678" lon="-0.42869">
        <ele>14.8</ele>
        <time>2020-09-30T11:43:58Z</time>
      </trkpt>
      <trkpt lat="47.42683" lon="-0.42907">
        <ele>15.2</ele>
        <time>2020-09-30T11:44:03Z</time>
      </trkpt>
      <trkpt lat="47.4269" lon="-0.42984">
        <ele>14.8</ele>
        <time>2020-09-30T11:44:13Z</time>
      </trkpt>
      <trkpt lat="47.42697" lon="-0.43055">
        <ele>15.2</ele>
        <time>2020-09-30T11:44:22Z</time>
      </trkpt>
      <trkpt lat="47.42704" lon="-0.43116">
        <ele>15.6</ele>
        <time>2020-09-30T11:44:30Z</time>
      </trkpt>
      <trkpt lat="47.42711" lon="-0.43193">
        <ele>15.8</ele>
        <time>2020-09-30T11:44:40Z</time>
      </trkpt>
      <trkpt lat="47.42714" lon="-0.43224">
        <ele>15.8</ele>
        <time>2020-09-30T11:44:44Z</time>
      </trkpt>
      <trkpt lat="47.42717" lon="-0.43255">
        <ele>15.8</ele>
        <time>2020-09-30T11:44:48Z</time>
      </trkpt>
      <trkpt lat="47.42724" lon="-0.43326">
        <ele>15.6</ele>
        <time>2020-09-30T11:44:57Z</time>
      </trkpt>
      <trkpt lat="47.42733" lon="-0.43411">
        <ele>15.6</ele>
        <time>2020-09-30T11:45:08Z</time>
      </trkpt>
      <trkpt lat="47.42734" lon="-0.43427">
        <ele>15.6</ele>
        <time>2020-09-30T11:45:10Z</time>
      </trkpt>
      <trkpt lat="47.42741" lon="-0.43488">
        <ele>16</ele>
        <time>2020-09-30T11:45:18Z</time>
      </trkpt>
      <trkpt lat="47.42749" lon="-0.43571">
        <ele>16.4</ele>
        <time>2020-09-30T11:45:29Z</time>
      </trkpt>
      <trkpt lat="47.42752" lon="-0.43605">
        <ele>16.8</ele>
        <time>2020-09-30T11:45:34Z</time>
      </trkpt>
      <trkpt lat="47.42751" lon="-0.43618">
        <ele>16.8</ele>
        <time>2020-09-30T11:45:36Z</time>
      </trkpt>
      <trkpt lat="47.42742" lon="-0.43629">
        <ele>16.8</ele>
        <time>2020-09-30T11:45:39Z</time>
      </trkpt>
      <trkpt lat="47.42722" lon="-0.43628">
        <ele>16.8</ele>
        <time>2020-09-30T11:45:43Z</time>
      </trkpt>
      <trkpt lat="47.42717" lon="-0.43628">
        <ele>17</ele>
        <time>2020-09-30T11:45:44Z</time>
      </trkpt>
      <trkpt lat="47.42667" lon="-0.43623">
        <ele>16.2</ele>
        <time>2020-09-30T11:45:54Z</time>
      </trkpt>
      <trkpt lat="47.42625" lon="-0.4362">
        <ele>16</ele>
        <time>2020-09-30T11:46:02Z</time>
      </trkpt>
      <trkpt lat="47.42576" lon="-0.43617">
        <ele>16</ele>
        <time>2020-09-30T11:46:12Z</time>
      </trkpt>
      <trkpt lat="47.42571" lon="-0.43616">
        <ele>15.8</ele>
        <time>2020-09-30T11:46:13Z</time>
      </trkpt>
      <trkpt lat="47.42537" lon="-0.43614">
        <ele>17</ele>
        <time>2020-09-30T11:46:20Z</time>
      </trkpt>
      <trkpt lat="47.42524" lon="-0.43621">
        <ele>17.2</ele>
        <time>2020-09-30T11:46:23Z</time>
      </trkpt>
      <trkpt lat="47.42519" lon="-0.43641">
        <ele>17</ele>
        <time>2020-09-30T11:46:26Z</time>
      </trkpt>
      <trkpt lat="47.42505" lon="-0.43695">
        <ele>16.8</ele>
        <time>2020-09-30T11:46:34Z</time>
      </trkpt>
      <trkpt lat="47.42485" lon="-0.43746">
        <ele>16.8</ele>
        <time>2020-09-30T11:46:42Z</time>
      </trkpt>
      <trkpt lat="47.42463" lon="-0.43793">
        <ele>16.4</ele>
        <time>2020-09-30T11:46:50Z</time>
      </trkpt>
      <trkpt lat="47.42448" lon="-0.43837">
        <ele>16.2</ele>
        <time>2020-09-30T11:46:57Z</time>
      </trkpt>
      <trkpt lat="47.42445" lon="-0.43851">
        <ele>16.2</ele>
        <time>2020-09-30T11:46:59Z</time>
      </trkpt>
      <trkpt lat="47.42443" lon="-0.43879">
        <ele>16.2</ele>
        <time>2020-09-30T11:47:03Z</time>
      </trkpt>
      <trkpt lat="47.42436" lon="-0.43929">
        <ele>16</ele>
        <time>2020-09-30T11:47:10Z</time>
      </trkpt>
      <trkpt lat="47.42423" lon="-0.4395">
        <ele>16.2</ele>
        <time>2020-09-30T11:47:14Z</time>
      </trkpt>
      <trkpt lat="47.42419" lon="-0.43954">
        <ele>16.2</ele>
        <time>2020-09-30T11:47:15Z</time>
      </trkpt>
      <trkpt lat="47.42402" lon="-0.43978">
        <ele>16</ele>
        <time>2020-09-30T11:47:20Z</time>
      </trkpt>
      <trkpt lat="47.42398" lon="-0.43984">
        <ele>16</ele>
        <time>2020-09-30T11:47:21Z</time>
      </trkpt>
      <trkpt lat="47.42396" lon="-0.43989">
        <ele>15.8</ele>
        <time>2020-09-30T11:47:22Z</time>
      </trkpt>
      <trkpt lat="47.42387" lon="-0.44015">
        <ele>15.8</ele>
        <time>2020-09-30T11:47:26Z</time>
      </trkpt>
      <trkpt lat="47.42375" lon="-0.44054">
        <ele>16</ele>
        <time>2020-09-30T11:47:32Z</time>
      </trkpt>
      <trkpt lat="47.42361" lon="-0.4411">
        <ele>15.8</ele>
        <time>2020-09-30T11:47:40Z</time>
      </trkpt>
      <trkpt lat="47.42357" lon="-0.44123">
        <ele>15.6</ele>
        <time>2020-09-30T11:47:42Z</time>
      </trkpt>
      <trkpt lat="47.42347" lon="-0.44138">
        <ele>15.6</ele>
        <time>2020-09-30T11:47:45Z</time>
      </trkpt>
      <trkpt lat="47.4233" lon="-0.44151">
        <ele>15.4</ele>
        <time>2020-09-30T11:47:49Z</time>
      </trkpt>
      <trkpt lat="47.42322" lon="-0.44157">
        <ele>15.2</ele>
        <time>2020-09-30T11:47:51Z</time>
      </trkpt>
      <trkpt lat="47.42286" lon="-0.44182">
        <ele>15</ele>
        <time>2020-09-30T11:48:00Z</time>
      </trkpt>
      <trkpt lat="47.42249" lon="-0.44193">
        <ele>15.2</ele>
        <time>2020-09-30T11:48:08Z</time>
      </trkpt>
      <trkpt lat="47.42207" lon="-0.44198">
        <ele>15.8</ele>
        <time>2020-09-30T11:48:17Z</time>
      </trkpt>
      <trkpt lat="47.42198" lon="-0.44201">
        <ele>15.8</ele>
        <time>2020-09-30T11:48:19Z</time>
      </trkpt>
      <trkpt lat="47.42191" lon="-0.44209">
        <ele>15.8</ele>
        <time>2020-09-30T11:48:21Z</time>
      </trkpt>
      <trkpt lat="47.42185" lon="-0.4422">
        <ele>15.8</ele>
        <time>2020-09-30T11:48:23Z</time>
      </trkpt>
      <trkpt lat="47.42174" lon="-0.44241">
        <ele>15.6</ele>
        <time>2020-09-30T11:48:27Z</time>
      </trkpt>
      <trkpt lat="47.42171" lon="-0.44246">
        <ele>15.6</ele>
        <time>2020-09-30T11:48:28Z</time>
      </trkpt>
      <trkpt lat="47.42153" lon="-0.44269">
        <ele>15.4</ele>
        <time>2020-09-30T11:48:33Z</time>
      </trkpt>
      <trkpt lat="47.42143" lon="-0.44282">
        <ele>15.4</ele>
        <time>2020-09-30T11:48:36Z</time>
      </trkpt>
      <trkpt lat="47.42135" lon="-0.443">
        <ele>15.2</ele>
        <time>2020-09-30T11:48:39Z</time>
      </trkpt>
      <trkpt lat="47.42124" lon="-0.44346">
        <ele>15.2</ele>
        <time>2020-09-30T11:48:46Z</time>
      </trkpt>
      <trkpt lat="47.4212" lon="-0.44365">
        <ele>15.2</ele>
        <time>2020-09-30T11:48:49Z</time>
      </trkpt>
      <trkpt lat="47.42113" lon="-0.44373">
        <ele>15.2</ele>
        <time>2020-09-30T11:48:51Z</time>
      </trkpt>
      <trkpt lat="47.42094" lon="-0.44378">
        <ele>15.6</ele>
        <time>2020-09-30T11:48:55Z</time>
      </trkpt>
      <trkpt lat="47.42062" lon="-0.44389">
        <ele>16.8</ele>
        <time>2020-09-30T11:49:02Z</time>
      </trkpt>
      <trkpt lat="47.42052" lon="-0.44394">
        <ele>17.2</ele>
        <time>2020-09-30T11:49:04Z</time>
      </trkpt>
      <trkpt lat="47.42048" lon="-0.44397">
        <ele>17.4</ele>
        <time>2020-09-30T11:49:05Z</time>
      </trkpt>
      <trkpt lat="47.42041" lon="-0.44407">
        <ele>17.2</ele>
        <time>2020-09-30T11:49:07Z</time>
      </trkpt>
      <trkpt lat="47.42037" lon="-0.4443">
        <ele>17.2</ele>
        <time>2020-09-30T11:49:10Z</time>
      </trkpt>
      <trkpt lat="47.42038" lon="-0.44437">
        <ele>17.2</ele>
        <time>2020-09-30T11:49:11Z</time>
      </trkpt>
      <trkpt lat="47.42041" lon="-0.44479">
        <ele>17.2</ele>
        <time>2020-09-30T11:49:17Z</time>
      </trkpt>
      <trkpt lat="47.42036" lon="-0.44516">
        <ele>17.6</ele>
        <time>2020-09-30T11:49:23Z</time>
      </trkpt>
      <trkpt lat="47.42031" lon="-0.44539">
        <ele>18.2</ele>
        <time>2020-09-30T11:49:28Z</time>
      </trkpt>
      <trkpt lat="47.42031" lon="-0.44544">
        <ele>18.4</ele>
        <time>2020-09-30T11:49:29Z</time>
      </trkpt>
      <trkpt lat="47.42028" lon="-0.44572">
        <ele>19.2</ele>
        <time>2020-09-30T11:49:35Z</time>
      </trkpt>
      <trkpt lat="47.42027" lon="-0.44575">
        <ele>19.4</ele>
        <time>2020-09-30T11:49:36Z</time>
      </trkpt>
      <trkpt lat="47.42025" lon="-0.44587">
        <ele>19.2</ele>
        <time>2020-09-30T11:49:39Z</time>
      </trkpt>
      <trkpt lat="47.42026" lon="-0.44598">
        <ele>19.2</ele>
        <time>2020-09-30T11:49:41Z</time>
      </trkpt>
      <trkpt lat="47.42026" lon="-0.44631">
        <ele>19.2</ele>
        <time>2020-09-30T11:49:46Z</time>
      </trkpt>
      <trkpt lat="47.42024" lon="-0.44692">
        <ele>19.4</ele>
        <time>2020-09-30T11:49:55Z</time>
      </trkpt>
      <trkpt lat="47.4202" lon="-0.44764">
        <ele>19.4</ele>
        <time>2020-09-30T11:50:05Z</time>
      </trkpt>
      <trkpt lat="47.42016" lon="-0.44836">
        <ele>19.6</ele>
        <time>2020-09-30T11:50:15Z</time>
      </trkpt>
      <trkpt lat="47.42016" lon="-0.44843">
        <ele>19.4</ele>
        <time>2020-09-30T11:50:16Z</time>
      </trkpt>
      <trkpt lat="47.42013" lon="-0.44873">
        <ele>19.6</ele>
        <time>2020-09-30T11:50:21Z</time>
      </trkpt>
      <trkpt lat="47.42016" lon="-0.44901">
        <ele>19.4</ele>
        <time>2020-09-30T11:50:26Z</time>
      </trkpt>
      <trkpt lat="47.42009" lon="-0.4492">
        <ele>19.4</ele>
        <time>2020-09-30T11:50:30Z</time>
      </trkpt>
      <trkpt lat="47.42002" lon="-0.44933">
        <ele>19.4</ele>
        <time>2020-09-30T11:50:34Z</time>
      </trkpt>
      <trkpt lat="47.42003" lon="-0.44936">
        <ele>19.6</ele>
        <time>2020-09-30T11:50:35Z</time>
      </trkpt>
      <trkpt lat="47.42011" lon="-0.44953">
        <ele>19.4</ele>
        <time>2020-09-30T11:50:40Z</time>
      </trkpt>
      <trkpt lat="47.42028" lon="-0.44986">
        <ele>20</ele>
        <time>2020-09-30T11:50:47Z</time>
      </trkpt>
      <trkpt lat="47.42044" lon="-0.45023">
        <ele>20.2</ele>
        <time>2020-09-30T11:50:54Z</time>
      </trkpt>
      <trkpt lat="47.42057" lon="-0.45059">
        <ele>20.2</ele>
        <time>2020-09-30T11:51:01Z</time>
      </trkpt>
      <trkpt lat="47.42053" lon="-0.45073">
        <ele>20.4</ele>
        <time>2020-09-30T11:51:04Z</time>
      </trkpt>
      <trkpt lat="47.42052" lon="-0.45077">
        <ele>20.6</ele>
        <time>2020-09-30T11:51:05Z</time>
      </trkpt>
      <trkpt lat="47.42046" lon="-0.45098">
        <ele>21</ele>
        <time>2020-09-30T11:51:10Z</time>
      </trkpt>
      <trkpt lat="47.42036" lon="-0.45129">
        <ele>21.2</ele>
        <time>2020-09-30T11:51:15Z</time>
      </trkpt>
      <trkpt lat="47.42016" lon="-0.4518">
        <ele>21.4</ele>
        <time>2020-09-30T11:51:23Z</time>
      </trkpt>
      <trkpt lat="47.42" lon="-0.45227">
        <ele>21.4</ele>
        <time>2020-09-30T11:51:30Z</time>
      </trkpt>
      <trkpt lat="47.41998" lon="-0.45234">
        <ele>21.4</ele>
        <time>2020-09-30T11:51:31Z</time>
      </trkpt>
      <trkpt lat="47.41984" lon="-0.45283">
        <ele>21.6</ele>
        <time>2020-09-30T11:51:38Z</time>
      </trkpt>
      <trkpt lat="47.41977" lon="-0.45335">
        <ele>21.8</ele>
        <time>2020-09-30T11:51:45Z</time>
      </trkpt>
      <trkpt lat="47.41973" lon="-0.45366">
        <ele>22.2</ele>
        <time>2020-09-30T11:51:49Z</time>
      </trkpt>
      <trkpt lat="47.41975" lon="-0.45381">
        <ele>22</ele>
        <time>2020-09-30T11:51:51Z</time>
      </trkpt>
      <trkpt lat="47.41978" lon="-0.45445">
        <ele>22</ele>
        <time>2020-09-30T11:51:59Z</time>
      </trkpt>
      <trkpt lat="47.41976" lon="-0.45516">
        <ele>22.2</ele>
        <time>2020-09-30T11:52:08Z</time>
      </trkpt>
      <trkpt lat="47.41972" lon="-0.45593">
        <ele>22.4</ele>
        <time>2020-09-30T11:52:18Z</time>
      </trkpt>
      <trkpt lat="47.41971" lon="-0.45672">
        <ele>22.2</ele>
        <time>2020-09-30T11:52:28Z</time>
      </trkpt>
      <trkpt lat="47.41971" lon="-0.45735">
        <ele>22.4</ele>
        <time>2020-09-30T11:52:36Z</time>
      </trkpt>
      <trkpt lat="47.41971" lon="-0.45805">
        <ele>22.4</ele>
        <time>2020-09-30T11:52:45Z</time>
      </trkpt>
      <trkpt lat="47.41971" lon="-0.45828">
        <ele>22.4</ele>
        <time>2020-09-30T11:52:48Z</time>
      </trkpt>
      <trkpt lat="47.4197" lon="-0.45881">
        <ele>22.4</ele>
        <time>2020-09-30T11:52:55Z</time>
      </trkpt>
      <trkpt lat="47.41966" lon="-0.4594">
        <ele>22.4</ele>
        <time>2020-09-30T11:53:03Z</time>
      </trkpt>
      <trkpt lat="47.4196" lon="-0.46007">
        <ele>22.4</ele>
        <time>2020-09-30T11:53:12Z</time>
      </trkpt>
      <trkpt lat="47.41953" lon="-0.46082">
        <ele>22.4</ele>
        <time>2020-09-30T11:53:22Z</time>
      </trkpt>
      <trkpt lat="47.41947" lon="-0.4615">
        <ele>21.8</ele>
        <time>2020-09-30T11:53:31Z</time>
      </trkpt>
      <trkpt lat="47.41943" lon="-0.46197">
        <ele>21.4</ele>
        <time>2020-09-30T11:53:37Z</time>
      </trkpt>
      <trkpt lat="47.41942" lon="-0.46212">
        <ele>21.2</ele>
        <time>2020-09-30T11:53:39Z</time>
      </trkpt>
      <trkpt lat="47.41934" lon="-0.46286">
        <ele>21</ele>
        <time>2020-09-30T11:53:49Z</time>
      </trkpt>
      <trkpt lat="47.41924" lon="-0.46338">
        <ele>21.4</ele>
        <time>2020-09-30T11:53:56Z</time>
      </trkpt>
      <trkpt lat="47.4191" lon="-0.46411">
        <ele>21.6</ele>
        <time>2020-09-30T11:54:06Z</time>
      </trkpt>
      <trkpt lat="47.41897" lon="-0.46485">
        <ele>21.6</ele>
        <time>2020-09-30T11:54:16Z</time>
      </trkpt>
      <trkpt lat="47.41888" lon="-0.4656">
        <ele>21.6</ele>
        <time>2020-09-30T11:54:26Z</time>
      </trkpt>
      <trkpt lat="47.41885" lon="-0.46622">
        <ele>21.8</ele>
        <time>2020-09-30T11:54:34Z</time>
      </trkpt>
      <trkpt lat="47.41882" lon="-0.46681">
        <ele>21.8</ele>
        <time>2020-09-30T11:54:42Z</time>
      </trkpt>
      <trkpt lat="47.41879" lon="-0.46757">
        <ele>21.6</ele>
        <time>2020-09-30T11:54:52Z</time>
      </trkpt>
      <trkpt lat="47.41877" lon="-0.4681">
        <ele>22.2</ele>
        <time>2020-09-30T11:54:59Z</time>
      </trkpt>
      <trkpt lat="47.41875" lon="-0.46854">
        <ele>22.4</ele>
        <time>2020-09-30T11:55:05Z</time>
      </trkpt>
      <trkpt lat="47.41874" lon="-0.46884">
        <ele>22.8</ele>
        <time>2020-09-30T11:55:09Z</time>
      </trkpt>
      <trkpt lat="47.41872" lon="-0.46943">
        <ele>23</ele>
        <time>2020-09-30T11:55:17Z</time>
      </trkpt>
      <trkpt lat="47.41871" lon="-0.46974">
        <ele>23.6</ele>
        <time>2020-09-30T11:55:21Z</time>
      </trkpt>
      <trkpt lat="47.4187" lon="-0.47005">
        <ele>23.6</ele>
        <time>2020-09-30T11:55:25Z</time>
      </trkpt>
      <trkpt lat="47.41864" lon="-0.47073">
        <ele>23</ele>
        <time>2020-09-30T11:55:34Z</time>
      </trkpt>
      <trkpt lat="47.41855" lon="-0.47148">
        <ele>22.8</ele>
        <time>2020-09-30T11:55:44Z</time>
      </trkpt>
      <trkpt lat="47.41848" lon="-0.47209">
        <ele>23.2</ele>
        <time>2020-09-30T11:55:52Z</time>
      </trkpt>
      <trkpt lat="47.41843" lon="-0.47279">
        <ele>23.6</ele>
        <time>2020-09-30T11:56:01Z</time>
      </trkpt>
      <trkpt lat="47.41847" lon="-0.47358">
        <ele>23.6</ele>
        <time>2020-09-30T11:56:11Z</time>
      </trkpt>
      <trkpt lat="47.41851" lon="-0.47421">
        <ele>23.4</ele>
        <time>2020-09-30T11:56:19Z</time>
      </trkpt>
      <trkpt lat="47.41855" lon="-0.47483">
        <ele>23.4</ele>
        <time>2020-09-30T11:56:27Z</time>
      </trkpt>
      <trkpt lat="47.41858" lon="-0.47552">
        <ele>23.2</ele>
        <time>2020-09-30T11:56:36Z</time>
      </trkpt>
      <trkpt lat="47.41863" lon="-0.47631">
        <ele>23</ele>
        <time>2020-09-30T11:56:46Z</time>
      </trkpt>
      <trkpt lat="47.41867" lon="-0.477">
        <ele>22.6</ele>
        <time>2020-09-30T11:56:55Z</time>
      </trkpt>
      <trkpt lat="47.41871" lon="-0.47777">
        <ele>22.6</ele>
        <time>2020-09-30T11:57:05Z</time>
      </trkpt>
      <trkpt lat="47.41872" lon="-0.47792">
        <ele>22.4</ele>
        <time>2020-09-30T11:57:07Z</time>
      </trkpt>
      <trkpt lat="47.41876" lon="-0.47847">
        <ele>22.4</ele>
        <time>2020-09-30T11:57:14Z</time>
      </trkpt>
      <trkpt lat="47.4188" lon="-0.47924">
        <ele>23</ele>
        <time>2020-09-30T11:57:24Z</time>
      </trkpt>
      <trkpt lat="47.41885" lon="-0.48003">
        <ele>23</ele>
        <time>2020-09-30T11:57:34Z</time>
      </trkpt>
      <trkpt lat="47.41891" lon="-0.48068">
        <ele>22.8</ele>
        <time>2020-09-30T11:57:42Z</time>
      </trkpt>
      <trkpt lat="47.41897" lon="-0.48131">
        <ele>22.6</ele>
        <time>2020-09-30T11:57:50Z</time>
      </trkpt>
      <trkpt lat="47.41903" lon="-0.48194">
        <ele>22.2</ele>
        <time>2020-09-30T11:57:58Z</time>
      </trkpt>
      <trkpt lat="47.41908" lon="-0.48257">
        <ele>22.4</ele>
        <time>2020-09-30T11:58:06Z</time>
      </trkpt>
      <trkpt lat="47.41916" lon="-0.48342">
        <ele>22.4</ele>
        <time>2020-09-30T11:58:17Z</time>
      </trkpt>
      <trkpt lat="47.41923" lon="-0.48411">
        <ele>22.2</ele>
        <time>2020-09-30T11:58:26Z</time>
      </trkpt>
      <trkpt lat="47.41932" lon="-0.48473">
        <ele>22.2</ele>
        <time>2020-09-30T11:58:34Z</time>
      </trkpt>
      <trkpt lat="47.41948" lon="-0.48533">
        <ele>22.2</ele>
        <time>2020-09-30T11:58:42Z</time>
      </trkpt>
      <trkpt lat="47.41966" lon="-0.48592">
        <ele>22.2</ele>
        <time>2020-09-30T11:58:50Z</time>
      </trkpt>
      <trkpt lat="47.41984" lon="-0.48655">
        <ele>22</ele>
        <time>2020-09-30T11:58:59Z</time>
      </trkpt>
      <trkpt lat="47.42001" lon="-0.48718">
        <ele>21.8</ele>
        <time>2020-09-30T11:59:08Z</time>
      </trkpt>
      <trkpt lat="47.42004" lon="-0.48725">
        <ele>21.8</ele>
        <time>2020-09-30T11:59:09Z</time>
      </trkpt>
      <trkpt lat="47.42013" lon="-0.48752">
        <ele>21.4</ele>
        <time>2020-09-30T11:59:13Z</time>
      </trkpt>
      <trkpt lat="47.42021" lon="-0.48781">
        <ele>21.2</ele>
        <time>2020-09-30T11:59:17Z</time>
      </trkpt>
      <trkpt lat="47.42023" lon="-0.48788">
        <ele>21.2</ele>
        <time>2020-09-30T11:59:18Z</time>
      </trkpt>
      <trkpt lat="47.42041" lon="-0.48852">
        <ele>20.6</ele>
        <time>2020-09-30T11:59:27Z</time>
      </trkpt>
      <trkpt lat="47.42061" lon="-0.48915">
        <ele>20.4</ele>
        <time>2020-09-30T11:59:36Z</time>
      </trkpt>
      <trkpt lat="47.42083" lon="-0.48977">
        <ele>20.2</ele>
        <time>2020-09-30T11:59:45Z</time>
      </trkpt>
      <trkpt lat="47.42103" lon="-0.49034">
        <ele>20.2</ele>
        <time>2020-09-30T11:59:53Z</time>
      </trkpt>
      <trkpt lat="47.42127" lon="-0.49103">
        <ele>20.4</ele>
        <time>2020-09-30T12:00:03Z</time>
      </trkpt>
      <trkpt lat="47.42129" lon="-0.4911">
        <ele>20.4</ele>
        <time>2020-09-30T12:00:04Z</time>
      </trkpt>
      <trkpt lat="47.42132" lon="-0.49132">
        <ele>20.4</ele>
        <time>2020-09-30T12:00:07Z</time>
      </trkpt>
      <trkpt lat="47.42133" lon="-0.49139">
        <ele>20.6</ele>
        <time>2020-09-30T12:00:08Z</time>
      </trkpt>
      <trkpt lat="47.42136" lon="-0.49199">
        <ele>20.6</ele>
        <time>2020-09-30T12:00:16Z</time>
      </trkpt>
      <trkpt lat="47.42139" lon="-0.49259">
        <ele>20.8</ele>
        <time>2020-09-30T12:00:25Z</time>
      </trkpt>
      <trkpt lat="47.42143" lon="-0.49335">
        <ele>21</ele>
        <time>2020-09-30T12:00:35Z</time>
      </trkpt>
      <trkpt lat="47.42148" lon="-0.49387">
        <ele>21.4</ele>
        <time>2020-09-30T12:00:42Z</time>
      </trkpt>
      <trkpt lat="47.42151" lon="-0.49402">
        <ele>21.6</ele>
        <time>2020-09-30T12:00:44Z</time>
      </trkpt>
      <trkpt lat="47.42164" lon="-0.49445">
        <ele>22.6</ele>
        <time>2020-09-30T12:00:50Z</time>
      </trkpt>
      <trkpt lat="47.42167" lon="-0.49452">
        <ele>22.6</ele>
        <time>2020-09-30T12:00:51Z</time>
      </trkpt>
      <trkpt lat="47.42193" lon="-0.49501">
        <ele>23.4</ele>
        <time>2020-09-30T12:00:59Z</time>
      </trkpt>
      <trkpt lat="47.42204" lon="-0.49516">
        <ele>23.6</ele>
        <time>2020-09-30T12:01:02Z</time>
      </trkpt>
      <trkpt lat="47.42225" lon="-0.49539">
        <ele>23.8</ele>
        <time>2020-09-30T12:01:07Z</time>
      </trkpt>
      <trkpt lat="47.42252" lon="-0.49567">
        <ele>24.6</ele>
        <time>2020-09-30T12:01:13Z</time>
      </trkpt>
      <trkpt lat="47.42265" lon="-0.49581">
        <ele>25</ele>
        <time>2020-09-30T12:01:16Z</time>
      </trkpt>
      <trkpt lat="47.42289" lon="-0.4961">
        <ele>25.6</ele>
        <time>2020-09-30T12:01:22Z</time>
      </trkpt>
      <trkpt lat="47.4232" lon="-0.49641">
        <ele>25.4</ele>
        <time>2020-09-30T12:01:29Z</time>
      </trkpt>
      <trkpt lat="47.42336" lon="-0.49659">
        <ele>25.8</ele>
        <time>2020-09-30T12:01:33Z</time>
      </trkpt>
      <trkpt lat="47.42364" lon="-0.49693">
        <ele>25.2</ele>
        <time>2020-09-30T12:01:40Z</time>
      </trkpt>
      <trkpt lat="47.42393" lon="-0.49745">
        <ele>25.8</ele>
        <time>2020-09-30T12:01:49Z</time>
      </trkpt>
      <trkpt lat="47.42409" lon="-0.49783">
        <ele>26</ele>
        <time>2020-09-30T12:01:55Z</time>
      </trkpt>
      <trkpt lat="47.4241" lon="-0.4979">
        <ele>26</ele>
        <time>2020-09-30T12:01:56Z</time>
      </trkpt>
      <trkpt lat="47.42415" lon="-0.49836">
        <ele>25.4</ele>
        <time>2020-09-30T12:02:02Z</time>
      </trkpt>
      <trkpt lat="47.42419" lon="-0.49899">
        <ele>24.8</ele>
        <time>2020-09-30T12:02:10Z</time>
      </trkpt>
      <trkpt lat="47.42421" lon="-0.49961">
        <ele>24</ele>
        <time>2020-09-30T12:02:18Z</time>
      </trkpt>
      <trkpt lat="47.42416" lon="-0.50024">
        <ele>23.8</ele>
        <time>2020-09-30T12:02:26Z</time>
      </trkpt>
      <trkpt lat="47.42411" lon="-0.5007">
        <ele>24</ele>
        <time>2020-09-30T12:02:32Z</time>
      </trkpt>
      <trkpt lat="47.42399" lon="-0.50129">
        <ele>23.8</ele>
        <time>2020-09-30T12:02:40Z</time>
      </trkpt>
      <trkpt lat="47.42387" lon="-0.50177">
        <ele>23.8</ele>
        <time>2020-09-30T12:02:47Z</time>
      </trkpt>
      <trkpt lat="47.42379" lon="-0.50205">
        <ele>23.6</ele>
        <time>2020-09-30T12:02:51Z</time>
      </trkpt>
      <trkpt lat="47.4237" lon="-0.50241">
        <ele>23.8</ele>
        <time>2020-09-30T12:02:56Z</time>
      </trkpt>
      <trkpt lat="47.42357" lon="-0.50298">
        <ele>23.6</ele>
        <time>2020-09-30T12:03:04Z</time>
      </trkpt>
      <trkpt lat="47.42345" lon="-0.50369">
        <ele>22.8</ele>
        <time>2020-09-30T12:03:13Z</time>
      </trkpt>
      <trkpt lat="47.42344" lon="-0.50377">
        <ele>22.6</ele>
        <time>2020-09-30T12:03:14Z</time>
      </trkpt>
      <trkpt lat="47.42339" lon="-0.50435">
        <ele>22.2</ele>
        <time>2020-09-30T12:03:21Z</time>
      </trkpt>
      <trkpt lat="47.42337" lon="-0.50483">
        <ele>22.8</ele>
        <time>2020-09-30T12:03:28Z</time>
      </trkpt>
      <trkpt lat="47.42338" lon="-0.50538">
        <ele>23</ele>
        <time>2020-09-30T12:03:36Z</time>
      </trkpt>
      <trkpt lat="47.42343" lon="-0.50596">
        <ele>23.4</ele>
        <time>2020-09-30T12:03:44Z</time>
      </trkpt>
      <trkpt lat="47.42352" lon="-0.5064">
        <ele>23.4</ele>
        <time>2020-09-30T12:03:51Z</time>
      </trkpt>
      <trkpt lat="47.42356" lon="-0.5066">
        <ele>23.8</ele>
        <time>2020-09-30T12:03:54Z</time>
      </trkpt>
      <trkpt lat="47.42362" lon="-0.50691">
        <ele>24</ele>
        <time>2020-09-30T12:03:58Z</time>
      </trkpt>
      <trkpt lat="47.42372" lon="-0.50741">
        <ele>23.8</ele>
        <time>2020-09-30T12:04:04Z</time>
      </trkpt>
      <trkpt lat="47.42379" lon="-0.50779">
        <ele>23.8</ele>
        <time>2020-09-30T12:04:09Z</time>
      </trkpt>
      <trkpt lat="47.42382" lon="-0.50794">
        <ele>23.6</ele>
        <time>2020-09-30T12:04:11Z</time>
      </trkpt>
      <trkpt lat="47.42397" lon="-0.50844">
        <ele>23.4</ele>
        <time>2020-09-30T12:04:18Z</time>
      </trkpt>
      <trkpt lat="47.42417" lon="-0.50905">
        <ele>23.2</ele>
        <time>2020-09-30T12:04:27Z</time>
      </trkpt>
      <trkpt lat="47.42436" lon="-0.50969">
        <ele>23.2</ele>
        <time>2020-09-30T12:04:36Z</time>
      </trkpt>
      <trkpt lat="47.42457" lon="-0.51035">
        <ele>23.2</ele>
        <time>2020-09-30T12:04:45Z</time>
      </trkpt>
      <trkpt lat="47.4248" lon="-0.51089">
        <ele>22.8</ele>
        <time>2020-09-30T12:04:53Z</time>
      </trkpt>
      <trkpt lat="47.42483" lon="-0.51095">
        <ele>22.6</ele>
        <time>2020-09-30T12:04:54Z</time>
      </trkpt>
      <trkpt lat="47.42508" lon="-0.51145">
        <ele>22.2</ele>
        <time>2020-09-30T12:05:02Z</time>
      </trkpt>
      <trkpt lat="47.42532" lon="-0.51195">
        <ele>21.8</ele>
        <time>2020-09-30T12:05:10Z</time>
      </trkpt>
      <trkpt lat="47.42539" lon="-0.51208">
        <ele>21.6</ele>
        <time>2020-09-30T12:05:12Z</time>
      </trkpt>
      <trkpt lat="47.42557" lon="-0.51244">
        <ele>21</ele>
        <time>2020-09-30T12:05:18Z</time>
      </trkpt>
      <trkpt lat="47.42567" lon="-0.51259">
        <ele>20.6</ele>
        <time>2020-09-30T12:05:21Z</time>
      </trkpt>
      <trkpt lat="47.42577" lon="-0.51273">
        <ele>20</ele>
        <time>2020-09-30T12:05:24Z</time>
      </trkpt>
      <trkpt lat="47.42584" lon="-0.51283">
        <ele>19.6</ele>
        <time>2020-09-30T12:05:26Z</time>
      </trkpt>
      <trkpt lat="47.42599" lon="-0.51303">
        <ele>18.6</ele>
        <time>2020-09-30T12:05:30Z</time>
      </trkpt>
      <trkpt lat="47.42603" lon="-0.51307">
        <ele>18.2</ele>
        <time>2020-09-30T12:05:31Z</time>
      </trkpt>
      <trkpt lat="47.42614" lon="-0.51324">
        <ele>17.4</ele>
        <time>2020-09-30T12:05:34Z</time>
      </trkpt>
      <trkpt lat="47.42629" lon="-0.51346">
        <ele>16.2</ele>
        <time>2020-09-30T12:05:38Z</time>
      </trkpt>
      <trkpt lat="47.42637" lon="-0.51358">
        <ele>15.8</ele>
        <time>2020-09-30T12:05:40Z</time>
      </trkpt>
      <trkpt lat="47.42645" lon="-0.51368">
        <ele>15.2</ele>
        <time>2020-09-30T12:05:42Z</time>
      </trkpt>
      <trkpt lat="47.42664" lon="-0.51396">
        <ele>14.2</ele>
        <time>2020-09-30T12:05:47Z</time>
      </trkpt>
      <trkpt lat="47.42677" lon="-0.51413">
        <ele>13.8</ele>
        <time>2020-09-30T12:05:50Z</time>
      </trkpt>
      <trkpt lat="47.42708" lon="-0.51457">
        <ele>13</ele>
        <time>2020-09-30T12:05:58Z</time>
      </trkpt>
      <trkpt lat="47.4272" lon="-0.51474">
        <ele>13.2</ele>
        <time>2020-09-30T12:06:01Z</time>
      </trkpt>
      <trkpt lat="47.42757" lon="-0.51523">
        <ele>13.2</ele>
        <time>2020-09-30T12:06:10Z</time>
      </trkpt>
      <trkpt lat="47.42788" lon="-0.51566">
        <ele>13.8</ele>
        <time>2020-09-30T12:06:18Z</time>
      </trkpt>
      <trkpt lat="47.42812" lon="-0.516">
        <ele>14.2</ele>
        <time>2020-09-30T12:06:24Z</time>
      </trkpt>
      <trkpt lat="47.42822" lon="-0.51618">
        <ele>14.4</ele>
        <time>2020-09-30T12:06:27Z</time>
      </trkpt>
      <trkpt lat="47.42842" lon="-0.51667">
        <ele>15</ele>
        <time>2020-09-30T12:06:34Z</time>
      </trkpt>
      <trkpt lat="47.42848" lon="-0.5169">
        <ele>15.2</ele>
        <time>2020-09-30T12:06:37Z</time>
      </trkpt>
      <trkpt lat="47.42854" lon="-0.5172">
        <ele>15.4</ele>
        <time>2020-09-30T12:06:41Z</time>
      </trkpt>
      <trkpt lat="47.42859" lon="-0.51773">
        <ele>15.6</ele>
        <time>2020-09-30T12:06:48Z</time>
      </trkpt>
      <trkpt lat="47.42863" lon="-0.51843">
        <ele>15.6</ele>
        <time>2020-09-30T12:06:57Z</time>
      </trkpt>
      <trkpt lat="47.42868" lon="-0.51927">
        <ele>15.6</ele>
        <time>2020-09-30T12:07:08Z</time>
      </trkpt>
      <trkpt lat="47.42869" lon="-0.51935">
        <ele>15.6</ele>
        <time>2020-09-30T12:07:09Z</time>
      </trkpt>
      <trkpt lat="47.4287" lon="-0.51964">
        <ele>16.2</ele>
        <time>2020-09-30T12:07:13Z</time>
      </trkpt>
      <trkpt lat="47.42872" lon="-0.51989">
        <ele>16.6</ele>
        <time>2020-09-30T12:07:17Z</time>
      </trkpt>
      <trkpt lat="47.42875" lon="-0.52027">
        <ele>17.2</ele>
        <time>2020-09-30T12:07:23Z</time>
      </trkpt>
      <trkpt lat="47.42876" lon="-0.52041">
        <ele>17.2</ele>
        <time>2020-09-30T12:07:25Z</time>
      </trkpt>
      <trkpt lat="47.4288" lon="-0.52099">
        <ele>17.2</ele>
        <time>2020-09-30T12:07:33Z</time>
      </trkpt>
      <trkpt lat="47.42882" lon="-0.52142">
        <ele>17.4</ele>
        <time>2020-09-30T12:07:39Z</time>
      </trkpt>
      <trkpt lat="47.42887" lon="-0.52198">
        <ele>17.4</ele>
        <time>2020-09-30T12:07:47Z</time>
      </trkpt>
      <trkpt lat="47.4289" lon="-0.52203">
        <ele>17.2</ele>
        <time>2020-09-30T12:07:48Z</time>
      </trkpt>
      <trkpt lat="47.42904" lon="-0.52206">
        <ele>17</ele>
        <time>2020-09-30T12:07:51Z</time>
      </trkpt>
      <trkpt lat="47.42909" lon="-0.52206">
        <ele>17</ele>
        <time>2020-09-30T12:07:52Z</time>
      </trkpt>
      <trkpt lat="47.42951" lon="-0.52202">
        <ele>17</ele>
        <time>2020-09-30T12:08:00Z</time>
      </trkpt>
      <trkpt lat="47.42987" lon="-0.52201">
        <ele>17</ele>
        <time>2020-09-30T12:08:07Z</time>
      </trkpt>
      <trkpt lat="47.43039" lon="-0.52197">
        <ele>16.8</ele>
        <time>2020-09-30T12:08:17Z</time>
      </trkpt>
      <trkpt lat="47.43044" lon="-0.52199">
        <ele>16.6</ele>
        <time>2020-09-30T12:08:18Z</time>
      </trkpt>
      <trkpt lat="47.43052" lon="-0.52209">
        <ele>16.4</ele>
        <time>2020-09-30T12:08:20Z</time>
      </trkpt>
      <trkpt lat="47.43055" lon="-0.52231">
        <ele>16.2</ele>
        <time>2020-09-30T12:08:23Z</time>
      </trkpt>
      <trkpt lat="47.43055" lon="-0.52239">
        <ele>16.2</ele>
        <time>2020-09-30T12:08:24Z</time>
      </trkpt>
      <trkpt lat="47.43057" lon="-0.52294">
        <ele>15.6</ele>
        <time>2020-09-30T12:08:31Z</time>
      </trkpt>
      <trkpt lat="47.43057" lon="-0.52326">
        <ele>15.2</ele>
        <time>2020-09-30T12:08:35Z</time>
      </trkpt>
      <trkpt lat="47.43058" lon="-0.52366">
        <ele>15</ele>
        <time>2020-09-30T12:08:40Z</time>
      </trkpt>
      <trkpt lat="47.43059" lon="-0.52428">
        <ele>15.2</ele>
        <time>2020-09-30T12:08:48Z</time>
      </trkpt>
      <trkpt lat="47.4306" lon="-0.52489">
        <ele>15.4</ele>
        <time>2020-09-30T12:08:56Z</time>
      </trkpt>
      <trkpt lat="47.4306" lon="-0.52548">
        <ele>15.8</ele>
        <time>2020-09-30T12:09:04Z</time>
      </trkpt>
      <trkpt lat="47.43061" lon="-0.52607">
        <ele>16</ele>
        <time>2020-09-30T12:09:12Z</time>
      </trkpt>
      <trkpt lat="47.43061" lon="-0.52637">
        <ele>16.2</ele>
        <time>2020-09-30T12:09:16Z</time>
      </trkpt>
      <trkpt lat="47.43061" lon="-0.52659">
        <ele>16.4</ele>
        <time>2020-09-30T12:09:19Z</time>
      </trkpt>
      <trkpt lat="47.43061" lon="-0.52724">
        <ele>16.6</ele>
        <time>2020-09-30T12:09:28Z</time>
      </trkpt>
      <trkpt lat="47.43056" lon="-0.52766">
        <ele>17.2</ele>
        <time>2020-09-30T12:09:35Z</time>
      </trkpt>
      <trkpt lat="47.43052" lon="-0.52793">
        <ele>17.6</ele>
        <time>2020-09-30T12:09:41Z</time>
      </trkpt>
      <trkpt lat="47.4305" lon="-0.52803">
        <ele>18.2</ele>
        <time>2020-09-30T12:09:44Z</time>
      </trkpt>
      <trkpt lat="47.43049" lon="-0.52811">
        <ele>18.4</ele>
        <time>2020-09-30T12:09:47Z</time>
      </trkpt>
      <trkpt lat="47.43049" lon="-0.52816">
        <ele>18.8</ele>
        <time>2020-09-30T12:09:55Z</time>
      </trkpt>
      <trkpt lat="47.43048" lon="-0.52818">
        <ele>19</ele>
        <time>2020-09-30T12:09:56Z</time>
      </trkpt>
      <trkpt lat="47.43045" lon="-0.52832">
        <ele>19.4</ele>
        <time>2020-09-30T12:09:59Z</time>
      </trkpt>
      <trkpt lat="47.43044" lon="-0.52837">
        <ele>19.4</ele>
        <time>2020-09-30T12:10:00Z</time>
      </trkpt>
      <trkpt lat="47.43036" lon="-0.52887">
        <ele>18.8</ele>
        <time>2020-09-30T12:10:09Z</time>
      </trkpt>
      <trkpt lat="47.43031" lon="-0.52909">
        <ele>18.4</ele>
        <time>2020-09-30T12:10:15Z</time>
      </trkpt>
      <trkpt lat="47.43035" lon="-0.52915">
        <ele>18.6</ele>
        <time>2020-09-30T12:10:19Z</time>
      </trkpt>
      <trkpt lat="47.43037" lon="-0.52915">
        <ele>18.6</ele>
        <time>2020-09-30T12:10:20Z</time>
      </trkpt>
      <trkpt lat="47.43052" lon="-0.52919">
        <ele>19</ele>
        <time>2020-09-30T12:10:25Z</time>
      </trkpt>
      <trkpt lat="47.43066" lon="-0.52923">
        <ele>19.4</ele>
        <time>2020-09-30T12:10:31Z</time>
      </trkpt>
      <trkpt lat="47.4307" lon="-0.52923">
        <ele>19.4</ele>
        <time>2020-09-30T12:10:33Z</time>
      </trkpt>
      <trkpt lat="47.43072" lon="-0.52917">
        <ele>19.4</ele>
        <time>2020-09-30T12:10:36Z</time>
      </trkpt>
      <trkpt lat="47.43072" lon="-0.52912">
        <ele>19.2</ele>
        <time>2020-09-30T12:10:38Z</time>
      </trkpt>
      <trkpt lat="47.43072" lon="-0.52898">
        <ele>19.6</ele>
        <time>2020-09-30T12:10:43Z</time>
      </trkpt>
      <trkpt lat="47.43073" lon="-0.5288">
        <ele>19.6</ele>
        <time>2020-09-30T12:10:51Z</time>
      </trkpt>
      <trkpt lat="47.43078" lon="-0.5286">
        <ele>19.6</ele>
        <time>2020-09-30T12:10:56Z</time>
      </trkpt>
      <trkpt lat="47.4308" lon="-0.5284">
        <ele>19.6</ele>
        <time>2020-09-30T12:11:02Z</time>
      </trkpt>
      <trkpt lat="47.4308" lon="-0.52847">
        <ele>20</ele>
        <time>2020-09-30T12:11:13Z</time>
      </trkpt>
      <trkpt lat="47.4308" lon="-0.52849">
        <ele>20</ele>
        <time>2020-09-30T12:11:14Z</time>
      </trkpt>
      <trkpt lat="47.43077" lon="-0.52868">
        <ele>19.8</ele>
        <time>2020-09-30T12:11:20Z</time>
      </trkpt>
      <trkpt lat="47.43074" lon="-0.52892">
        <ele>19.2</ele>
        <time>2020-09-30T12:11:26Z</time>
      </trkpt>
      <trkpt lat="47.43072" lon="-0.52923">
        <ele>19</ele>
        <time>2020-09-30T12:11:32Z</time>
      </trkpt>
      <trkpt lat="47.43072" lon="-0.52961">
        <ele>18.2</ele>
        <time>2020-09-30T12:11:39Z</time>
      </trkpt>
      <trkpt lat="47.43071" lon="-0.52966">
        <ele>18</ele>
        <time>2020-09-30T12:11:40Z</time>
      </trkpt>
      <trkpt lat="47.43067" lon="-0.53009">
        <ele>17.4</ele>
        <time>2020-09-30T12:11:47Z</time>
      </trkpt>
      <trkpt lat="47.43068" lon="-0.53016">
        <ele>17</ele>
        <time>2020-09-30T12:11:48Z</time>
      </trkpt>
      <trkpt lat="47.43067" lon="-0.5305">
        <ele>16.6</ele>
        <time>2020-09-30T12:11:53Z</time>
      </trkpt>
      <trkpt lat="47.43057" lon="-0.53089">
        <ele>16.4</ele>
        <time>2020-09-30T12:11:59Z</time>
      </trkpt>
      <trkpt lat="47.4305" lon="-0.53114">
        <ele>16</ele>
        <time>2020-09-30T12:12:03Z</time>
      </trkpt>
      <trkpt lat="47.43043" lon="-0.53137">
        <ele>15</ele>
        <time>2020-09-30T12:12:07Z</time>
      </trkpt>
      <trkpt lat="47.4304" lon="-0.53143">
        <ele>15</ele>
        <time>2020-09-30T12:12:08Z</time>
      </trkpt>
      <trkpt lat="47.4303" lon="-0.53175">
        <ele>14.4</ele>
        <time>2020-09-30T12:12:13Z</time>
      </trkpt>
      <trkpt lat="47.43026" lon="-0.53189">
        <ele>14.2</ele>
        <time>2020-09-30T12:12:15Z</time>
      </trkpt>
      <trkpt lat="47.43015" lon="-0.5323">
        <ele>13.8</ele>
        <time>2020-09-30T12:12:21Z</time>
      </trkpt>
      <trkpt lat="47.43" lon="-0.53283">
        <ele>13.4</ele>
        <time>2020-09-30T12:12:29Z</time>
      </trkpt>
      <trkpt lat="47.42982" lon="-0.53342">
        <ele>13</ele>
        <time>2020-09-30T12:12:38Z</time>
      </trkpt>
      <trkpt lat="47.42965" lon="-0.53402">
        <ele>13.4</ele>
        <time>2020-09-30T12:12:47Z</time>
      </trkpt>
      <trkpt lat="47.42946" lon="-0.5347">
        <ele>14.6</ele>
        <time>2020-09-30T12:12:57Z</time>
      </trkpt>
      <trkpt lat="47.42942" lon="-0.53483">
        <ele>15</ele>
        <time>2020-09-30T12:12:59Z</time>
      </trkpt>
      <trkpt lat="47.4293" lon="-0.53523">
        <ele>15</ele>
        <time>2020-09-30T12:13:05Z</time>
      </trkpt>
      <trkpt lat="47.42914" lon="-0.53582">
        <ele>15.2</ele>
        <time>2020-09-30T12:13:14Z</time>
      </trkpt>
      <trkpt lat="47.42898" lon="-0.53636">
        <ele>15.2</ele>
        <time>2020-09-30T12:13:22Z</time>
      </trkpt>
      <trkpt lat="47.42883" lon="-0.53682">
        <ele>16</ele>
        <time>2020-09-30T12:13:30Z</time>
      </trkpt>
      <trkpt lat="47.42881" lon="-0.53685">
        <ele>16</ele>
        <time>2020-09-30T12:13:31Z</time>
      </trkpt>
      <trkpt lat="47.42871" lon="-0.53698">
        <ele>16.2</ele>
        <time>2020-09-30T12:13:35Z</time>
      </trkpt>
      <trkpt lat="47.42864" lon="-0.53721">
        <ele>16.4</ele>
        <time>2020-09-30T12:13:40Z</time>
      </trkpt>
      <trkpt lat="47.42855" lon="-0.53754">
        <ele>16.4</ele>
        <time>2020-09-30T12:13:48Z</time>
      </trkpt>
      <trkpt lat="47.42847" lon="-0.5378">
        <ele>16</ele>
        <time>2020-09-30T12:13:56Z</time>
      </trkpt>
      <trkpt lat="47.42843" lon="-0.53801">
        <ele>16</ele>
        <time>2020-09-30T12:14:00Z</time>
      </trkpt>
      <trkpt lat="47.42828" lon="-0.5385">
        <ele>16</ele>
        <time>2020-09-30T12:14:08Z</time>
      </trkpt>
      <trkpt lat="47.42809" lon="-0.53916">
        <ele>16</ele>
        <time>2020-09-30T12:14:18Z</time>
      </trkpt>
      <trkpt lat="47.42788" lon="-0.53991">
        <ele>16</ele>
        <time>2020-09-30T12:14:29Z</time>
      </trkpt>
      <trkpt lat="47.42765" lon="-0.54069">
        <ele>16</ele>
        <time>2020-09-30T12:14:40Z</time>
      </trkpt>
      <trkpt lat="47.42749" lon="-0.54126">
        <ele>15.8</ele>
        <time>2020-09-30T12:14:48Z</time>
      </trkpt>
      <trkpt lat="47.42729" lon="-0.54195">
        <ele>15.6</ele>
        <time>2020-09-30T12:14:58Z</time>
      </trkpt>
      <trkpt lat="47.42713" lon="-0.5425">
        <ele>15.4</ele>
        <time>2020-09-30T12:15:06Z</time>
      </trkpt>
      <trkpt lat="47.42696" lon="-0.54311">
        <ele>15.4</ele>
        <time>2020-09-30T12:15:15Z</time>
      </trkpt>
      <trkpt lat="47.42681" lon="-0.54364">
        <ele>16.2</ele>
        <time>2020-09-30T12:15:23Z</time>
      </trkpt>
      <trkpt lat="47.42666" lon="-0.54417">
        <ele>17</ele>
        <time>2020-09-30T12:15:31Z</time>
      </trkpt>
      <trkpt lat="47.42644" lon="-0.54497">
        <ele>16.6</ele>
        <time>2020-09-30T12:15:43Z</time>
      </trkpt>
      <trkpt lat="47.42631" lon="-0.54544">
        <ele>15.6</ele>
        <time>2020-09-30T12:15:50Z</time>
      </trkpt>
      <trkpt lat="47.42623" lon="-0.5457">
        <ele>15</ele>
        <time>2020-09-30T12:15:54Z</time>
      </trkpt>
      <trkpt lat="47.42613" lon="-0.54604">
        <ele>13.8</ele>
        <time>2020-09-30T12:15:59Z</time>
      </trkpt>
      <trkpt lat="47.42611" lon="-0.54611">
        <ele>13.6</ele>
        <time>2020-09-30T12:16:00Z</time>
      </trkpt>
      <trkpt lat="47.42602" lon="-0.54637">
        <ele>12.8</ele>
        <time>2020-09-30T12:16:04Z</time>
      </trkpt>
      <trkpt lat="47.42591" lon="-0.54677">
        <ele>11.8</ele>
        <time>2020-09-30T12:16:10Z</time>
      </trkpt>
      <trkpt lat="47.42589" lon="-0.54684">
        <ele>11.6</ele>
        <time>2020-09-30T12:16:11Z</time>
      </trkpt>
      <trkpt lat="47.42572" lon="-0.54743">
        <ele>11</ele>
        <time>2020-09-30T12:16:20Z</time>
      </trkpt>
      <trkpt lat="47.42564" lon="-0.54771">
        <ele>10.6</ele>
        <time>2020-09-30T12:16:24Z</time>
      </trkpt>
      <trkpt lat="47.42552" lon="-0.54811">
        <ele>11</ele>
        <time>2020-09-30T12:16:30Z</time>
      </trkpt>
      <trkpt lat="47.42534" lon="-0.54865">
        <ele>11.2</ele>
        <time>2020-09-30T12:16:38Z</time>
      </trkpt>
      <trkpt lat="47.42525" lon="-0.54882">
        <ele>11.6</ele>
        <time>2020-09-30T12:16:41Z</time>
      </trkpt>
      <trkpt lat="47.42511" lon="-0.54902">
        <ele>12</ele>
        <time>2020-09-30T12:16:45Z</time>
      </trkpt>
      <trkpt lat="47.42474" lon="-0.5494">
        <ele>12.4</ele>
        <time>2020-09-30T12:16:54Z</time>
      </trkpt>
      <trkpt lat="47.42434" lon="-0.54981">
        <ele>12.6</ele>
        <time>2020-09-30T12:17:04Z</time>
      </trkpt>
      <trkpt lat="47.42431" lon="-0.54985">
        <ele>12.8</ele>
        <time>2020-09-30T12:17:05Z</time>
      </trkpt>
      <trkpt lat="47.424" lon="-0.55017">
        <ele>12.8</ele>
        <time>2020-09-30T12:17:13Z</time>
      </trkpt>
      <trkpt lat="47.42382" lon="-0.55038">
        <ele>13.4</ele>
        <time>2020-09-30T12:17:19Z</time>
      </trkpt>
      <trkpt lat="47.42372" lon="-0.55049">
        <ele>13.8</ele>
        <time>2020-09-30T12:17:23Z</time>
      </trkpt>
      <trkpt lat="47.42367" lon="-0.55054">
        <ele>14</ele>
        <time>2020-09-30T12:17:25Z</time>
      </trkpt>
      <trkpt lat="47.42361" lon="-0.55068">
        <ele>14.4</ele>
        <time>2020-09-30T12:17:30Z</time>
      </trkpt>
      <trkpt lat="47.4235" lon="-0.55084">
        <ele>14.4</ele>
        <time>2020-09-30T12:17:35Z</time>
      </trkpt>
      <trkpt lat="47.42349" lon="-0.55106">
        <ele>14.2</ele>
        <time>2020-09-30T12:17:39Z</time>
      </trkpt>
      <trkpt lat="47.4235" lon="-0.55112">
        <ele>14.2</ele>
        <time>2020-09-30T12:17:40Z</time>
      </trkpt>
      <trkpt lat="47.42354" lon="-0.55146">
        <ele>13.8</ele>
        <time>2020-09-30T12:17:45Z</time>
      </trkpt>
      <trkpt lat="47.42357" lon="-0.55179">
        <ele>12.8</ele>
        <time>2020-09-30T12:17:50Z</time>
      </trkpt>
      <trkpt lat="47.42358" lon="-0.55191">
        <ele>12.4</ele>
        <time>2020-09-30T12:17:52Z</time>
      </trkpt>
      <trkpt lat="47.42359" lon="-0.55216">
        <ele>11.8</ele>
        <time>2020-09-30T12:17:57Z</time>
      </trkpt>
      <trkpt lat="47.42359" lon="-0.5522">
        <ele>11.8</ele>
        <time>2020-09-30T12:17:58Z</time>
      </trkpt>
      <trkpt lat="47.42363" lon="-0.55238">
        <ele>11</ele>
        <time>2020-09-30T12:18:03Z</time>
      </trkpt>
      <trkpt lat="47.42363" lon="-0.5524">
        <ele>11</ele>
        <time>2020-09-30T12:18:04Z</time>
      </trkpt>
      <trkpt lat="47.42358" lon="-0.55239">
        <ele>12.6</ele>
        <time>2020-09-30T12:18:17Z</time>
      </trkpt>
      <trkpt lat="47.42357" lon="-0.55233">
        <ele>13</ele>
        <time>2020-09-30T12:18:19Z</time>
      </trkpt>
      <trkpt lat="47.42356" lon="-0.55226">
        <ele>13.6</ele>
        <time>2020-09-30T12:18:21Z</time>
      </trkpt>
      <trkpt lat="47.42356" lon="-0.55222">
        <ele>14</ele>
        <time>2020-09-30T12:18:22Z</time>
      </trkpt>
      <trkpt lat="47.42356" lon="-0.55213">
        <ele>14.2</ele>
        <time>2020-09-30T12:18:24Z</time>
      </trkpt>
      <trkpt lat="47.42355" lon="-0.55193">
        <ele>14.6</ele>
        <time>2020-09-30T12:18:28Z</time>
      </trkpt>
      <trkpt lat="47.42354" lon="-0.55184">
        <ele>15.2</ele>
        <time>2020-09-30T12:18:30Z</time>
      </trkpt>
      <trkpt lat="47.42354" lon="-0.55166">
        <ele>16.6</ele>
        <time>2020-09-30T12:18:34Z</time>
      </trkpt>
      <trkpt lat="47.42353" lon="-0.55158">
        <ele>17.4</ele>
        <time>2020-09-30T12:18:36Z</time>
      </trkpt>
      <trkpt lat="47.42349" lon="-0.5514">
        <ele>17.8</ele>
        <time>2020-09-30T12:18:41Z</time>
      </trkpt>
      <trkpt lat="47.42348" lon="-0.55125">
        <ele>18</ele>
        <time>2020-09-30T12:18:46Z</time>
      </trkpt>
      <trkpt lat="47.42347" lon="-0.55108">
        <ele>18</ele>
        <time>2020-09-30T12:18:52Z</time>
      </trkpt>
      <trkpt lat="47.42347" lon="-0.55097">
        <ele>19</ele>
        <time>2020-09-30T12:18:56Z</time>
      </trkpt>
      <trkpt lat="47.42347" lon="-0.5509">
        <ele>19.4</ele>
        <time>2020-09-30T12:18:58Z</time>
      </trkpt>
      <trkpt lat="47.42346" lon="-0.55072">
        <ele>20</ele>
        <time>2020-09-30T12:19:06Z</time>
      </trkpt>
      <trkpt lat="47.42348" lon="-0.55068">
        <ele>20</ele>
        <time>2020-09-30T12:19:08Z</time>
      </trkpt>
      <trkpt lat="47.42352" lon="-0.55066">
        <ele>20.6</ele>
        <time>2020-09-30T12:19:11Z</time>
      </trkpt>
      <trkpt lat="47.42361" lon="-0.55058">
        <ele>20</ele>
        <time>2020-09-30T12:19:17Z</time>
      </trkpt>
      <trkpt lat="47.42374" lon="-0.55044">
        <ele>20</ele>
        <time>2020-09-30T12:19:22Z</time>
      </trkpt>
      <trkpt lat="47.42396" lon="-0.55021">
        <ele>19.8</ele>
        <time>2020-09-30T12:19:29Z</time>
      </trkpt>
      <trkpt lat="47.4243" lon="-0.54988">
        <ele>19.4</ele>
        <time>2020-09-30T12:19:38Z</time>
      </trkpt>
      <trkpt lat="47.42466" lon="-0.54949">
        <ele>19.6</ele>
        <time>2020-09-30T12:19:47Z</time>
      </trkpt>
      <trkpt lat="47.42505" lon="-0.54908">
        <ele>19.2</ele>
        <time>2020-09-30T12:19:56Z</time>
      </trkpt>
      <trkpt lat="47.42522" lon="-0.5489">
        <ele>19</ele>
        <time>2020-09-30T12:20:00Z</time>
      </trkpt>
      <trkpt lat="47.42533" lon="-0.54872">
        <ele>18.6</ele>
        <time>2020-09-30T12:20:03Z</time>
      </trkpt>
      <trkpt lat="47.42549" lon="-0.54828">
        <ele>19</ele>
        <time>2020-09-30T12:20:09Z</time>
      </trkpt>
      <trkpt lat="47.42572" lon="-0.54752">
        <ele>19.4</ele>
        <time>2020-09-30T12:20:19Z</time>
      </trkpt>
      <trkpt lat="47.42583" lon="-0.54713">
        <ele>20</ele>
        <time>2020-09-30T12:20:24Z</time>
      </trkpt>
      <trkpt lat="47.42595" lon="-0.54673">
        <ele>20.2</ele>
        <time>2020-09-30T12:20:29Z</time>
      </trkpt>
      <trkpt lat="47.42616" lon="-0.546">
        <ele>20.4</ele>
        <time>2020-09-30T12:20:38Z</time>
      </trkpt>
      <trkpt lat="47.42618" lon="-0.54592">
        <ele>20.4</ele>
        <time>2020-09-30T12:20:39Z</time>
      </trkpt>
      <trkpt lat="47.42635" lon="-0.54532">
        <ele>20.8</ele>
        <time>2020-09-30T12:20:47Z</time>
      </trkpt>
      <trkpt lat="47.42638" lon="-0.54518">
        <ele>21</ele>
        <time>2020-09-30T12:20:49Z</time>
      </trkpt>
      <trkpt lat="47.42652" lon="-0.54467">
        <ele>21.4</ele>
        <time>2020-09-30T12:20:56Z</time>
      </trkpt>
      <trkpt lat="47.42666" lon="-0.54416">
        <ele>21.2</ele>
        <time>2020-09-30T12:21:03Z</time>
      </trkpt>
      <trkpt lat="47.42684" lon="-0.54358">
        <ele>21</ele>
        <time>2020-09-30T12:21:11Z</time>
      </trkpt>
      <trkpt lat="47.42704" lon="-0.54287">
        <ele>21.6</ele>
        <time>2020-09-30T12:21:21Z</time>
      </trkpt>
      <trkpt lat="47.42721" lon="-0.5423">
        <ele>21.4</ele>
        <time>2020-09-30T12:21:29Z</time>
      </trkpt>
      <trkpt lat="47.42739" lon="-0.54163">
        <ele>21.6</ele>
        <time>2020-09-30T12:21:38Z</time>
      </trkpt>
      <trkpt lat="47.42758" lon="-0.54098">
        <ele>22</ele>
        <time>2020-09-30T12:21:47Z</time>
      </trkpt>
      <trkpt lat="47.4276" lon="-0.54091">
        <ele>22</ele>
        <time>2020-09-30T12:21:48Z</time>
      </trkpt>
      <trkpt lat="47.42777" lon="-0.54035">
        <ele>22</ele>
        <time>2020-09-30T12:21:56Z</time>
      </trkpt>
      <trkpt lat="47.42795" lon="-0.53971">
        <ele>22</ele>
        <time>2020-09-30T12:22:05Z</time>
      </trkpt>
      <trkpt lat="47.42807" lon="-0.53925">
        <ele>22</ele>
        <time>2020-09-30T12:22:12Z</time>
      </trkpt>
      <trkpt lat="47.4282" lon="-0.5388">
        <ele>22</ele>
        <time>2020-09-30T12:22:19Z</time>
      </trkpt>
      <trkpt lat="47.42831" lon="-0.53839">
        <ele>21.4</ele>
        <time>2020-09-30T12:22:25Z</time>
      </trkpt>
      <trkpt lat="47.42833" lon="-0.53832">
        <ele>21.4</ele>
        <time>2020-09-30T12:22:26Z</time>
      </trkpt>
      <trkpt lat="47.42846" lon="-0.53786">
        <ele>21.6</ele>
        <time>2020-09-30T12:22:33Z</time>
      </trkpt>
      <trkpt lat="47.4286" lon="-0.53739">
        <ele>22.2</ele>
        <time>2020-09-30T12:22:41Z</time>
      </trkpt>
      <trkpt lat="47.42873" lon="-0.53695">
        <ele>22.4</ele>
        <time>2020-09-30T12:22:49Z</time>
      </trkpt>
      <trkpt lat="47.42886" lon="-0.53675">
        <ele>23</ele>
        <time>2020-09-30T12:22:54Z</time>
      </trkpt>
      <trkpt lat="47.42891" lon="-0.53659">
        <ele>23.2</ele>
        <time>2020-09-30T12:22:57Z</time>
      </trkpt>
      <trkpt lat="47.42896" lon="-0.53642">
        <ele>23.6</ele>
        <time>2020-09-30T12:23:00Z</time>
      </trkpt>
      <trkpt lat="47.42909" lon="-0.53594">
        <ele>23.8</ele>
        <time>2020-09-30T12:23:08Z</time>
      </trkpt>
      <trkpt lat="47.42921" lon="-0.53552">
        <ele>24</ele>
        <time>2020-09-30T12:23:15Z</time>
      </trkpt>
      <trkpt lat="47.42938" lon="-0.53493">
        <ele>23</ele>
        <time>2020-09-30T12:23:24Z</time>
      </trkpt>
      <trkpt lat="47.42954" lon="-0.53442">
        <ele>22.4</ele>
        <time>2020-09-30T12:23:32Z</time>
      </trkpt>
      <trkpt lat="47.42958" lon="-0.53429">
        <ele>21.8</ele>
        <time>2020-09-30T12:23:34Z</time>
      </trkpt>
      <trkpt lat="47.4297" lon="-0.53385">
        <ele>21.4</ele>
        <time>2020-09-30T12:23:41Z</time>
      </trkpt>
      <trkpt lat="47.42974" lon="-0.53373">
        <ele>20.8</ele>
        <time>2020-09-30T12:23:43Z</time>
      </trkpt>
      <trkpt lat="47.42986" lon="-0.5333">
        <ele>19.8</ele>
        <time>2020-09-30T12:23:50Z</time>
      </trkpt>
      <trkpt lat="47.42991" lon="-0.53312">
        <ele>19.6</ele>
        <time>2020-09-30T12:23:53Z</time>
      </trkpt>
      <trkpt lat="47.42998" lon="-0.53286">
        <ele>19.2</ele>
        <time>2020-09-30T12:23:57Z</time>
      </trkpt>
      <trkpt lat="47.43006" lon="-0.5326">
        <ele>19.2</ele>
        <time>2020-09-30T12:24:01Z</time>
      </trkpt>
      <trkpt lat="47.43011" lon="-0.5324">
        <ele>19.2</ele>
        <time>2020-09-30T12:24:04Z</time>
      </trkpt>
      <trkpt lat="47.43027" lon="-0.53184">
        <ele>19.6</ele>
        <time>2020-09-30T12:24:13Z</time>
      </trkpt>
      <trkpt lat="47.43041" lon="-0.53138">
        <ele>20.2</ele>
        <time>2020-09-30T12:24:21Z</time>
      </trkpt>
      <trkpt lat="47.43048" lon="-0.53114">
        <ele>20.6</ele>
        <time>2020-09-30T12:24:25Z</time>
      </trkpt>
      <trkpt lat="47.43051" lon="-0.53103">
        <ele>20.8</ele>
        <time>2020-09-30T12:24:27Z</time>
      </trkpt>
      <trkpt lat="47.43059" lon="-0.53079">
        <ele>21.4</ele>
        <time>2020-09-30T12:24:31Z</time>
      </trkpt>
      <trkpt lat="47.43064" lon="-0.53061">
        <ele>21.2</ele>
        <time>2020-09-30T12:24:34Z</time>
      </trkpt>
      <trkpt lat="47.4307" lon="-0.53021">
        <ele>21</ele>
        <time>2020-09-30T12:24:41Z</time>
      </trkpt>
      <trkpt lat="47.43068" lon="-0.52999">
        <ele>20.8</ele>
        <time>2020-09-30T12:24:46Z</time>
      </trkpt>
      <trkpt lat="47.43071" lon="-0.5297">
        <ele>21</ele>
        <time>2020-09-30T12:24:52Z</time>
      </trkpt>
      <trkpt lat="47.43072" lon="-0.52939">
        <ele>20.4</ele>
        <time>2020-09-30T12:24:59Z</time>
      </trkpt>
      <trkpt lat="47.43072" lon="-0.52899">
        <ele>19.8</ele>
        <time>2020-09-30T12:25:07Z</time>
      </trkpt>
      <trkpt lat="47.43078" lon="-0.52857">
        <ele>19.8</ele>
        <time>2020-09-30T12:25:16Z</time>
      </trkpt>
      <trkpt lat="47.43081" lon="-0.52837">
        <ele>20.6</ele>
        <time>2020-09-30T12:25:22Z</time>
      </trkpt>
      <trkpt lat="47.43082" lon="-0.52834">
        <ele>20.8</ele>
        <time>2020-09-30T12:25:32Z</time>
      </trkpt>
      <trkpt lat="47.43083" lon="-0.52832">
        <ele>20.8</ele>
        <time>2020-09-30T12:25:33Z</time>
      </trkpt>
      <trkpt lat="47.43084" lon="-0.5283">
        <ele>20.8</ele>
        <time>2020-09-30T12:25:34Z</time>
      </trkpt>
      <trkpt lat="47.43087" lon="-0.52814">
        <ele>20.8</ele>
        <time>2020-09-30T12:25:38Z</time>
      </trkpt>
      <trkpt lat="47.43091" lon="-0.52781">
        <ele>21</ele>
        <time>2020-09-30T12:25:45Z</time>
      </trkpt>
      <trkpt lat="47.43092" lon="-0.52744">
        <ele>20</ele>
        <time>2020-09-30T12:25:51Z</time>
      </trkpt>
      <trkpt lat="47.43092" lon="-0.52722">
        <ele>19.6</ele>
        <time>2020-09-30T12:25:54Z</time>
      </trkpt>
      <trkpt lat="47.43091" lon="-0.52683">
        <ele>18.8</ele>
        <time>2020-09-30T12:25:59Z</time>
      </trkpt>
      <trkpt lat="47.43091" lon="-0.52667">
        <ele>18.6</ele>
        <time>2020-09-30T12:26:01Z</time>
      </trkpt>
      <trkpt lat="47.43091" lon="-0.52618">
        <ele>18.2</ele>
        <time>2020-09-30T12:26:07Z</time>
      </trkpt>
      <trkpt lat="47.4309" lon="-0.52568">
        <ele>18.2</ele>
        <time>2020-09-30T12:26:14Z</time>
      </trkpt>
      <trkpt lat="47.43094" lon="-0.52536">
        <ele>17.8</ele>
        <time>2020-09-30T12:26:20Z</time>
      </trkpt>
      <trkpt lat="47.43103" lon="-0.52517">
        <ele>17.8</ele>
        <time>2020-09-30T12:26:26Z</time>
      </trkpt>
      <trkpt lat="47.4311" lon="-0.52501">
        <ele>18.4</ele>
        <time>2020-09-30T12:26:32Z</time>
      </trkpt>
      <trkpt lat="47.43114" lon="-0.52478">
        <ele>18.6</ele>
        <time>2020-09-30T12:26:38Z</time>
      </trkpt>
      <trkpt lat="47.43116" lon="-0.52442">
        <ele>19</ele>
        <time>2020-09-30T12:26:45Z</time>
      </trkpt>
      <trkpt lat="47.43115" lon="-0.52416">
        <ele>19.6</ele>
        <time>2020-09-30T12:26:51Z</time>
      </trkpt>
      <trkpt lat="47.43114" lon="-0.52412">
        <ele>19.6</ele>
        <time>2020-09-30T12:26:52Z</time>
      </trkpt>
      <trkpt lat="47.43112" lon="-0.52385">
        <ele>19.8</ele>
        <time>2020-09-30T12:26:57Z</time>
      </trkpt>
      <trkpt lat="47.43113" lon="-0.52343">
        <ele>19.2</ele>
        <time>2020-09-30T12:27:04Z</time>
      </trkpt>
      <trkpt lat="47.43114" lon="-0.52319">
        <ele>19</ele>
        <time>2020-09-30T12:27:09Z</time>
      </trkpt>
      <trkpt lat="47.43113" lon="-0.52278">
        <ele>19</ele>
        <time>2020-09-30T12:27:17Z</time>
      </trkpt>
      <trkpt lat="47.43112" lon="-0.52243">
        <ele>19</ele>
        <time>2020-09-30T12:27:24Z</time>
      </trkpt>
      <trkpt lat="47.43114" lon="-0.52206">
        <ele>19.6</ele>
        <time>2020-09-30T12:27:31Z</time>
      </trkpt>
      <trkpt lat="47.43116" lon="-0.52174">
        <ele>19.8</ele>
        <time>2020-09-30T12:27:38Z</time>
      </trkpt>
      <trkpt lat="47.43114" lon="-0.52133">
        <ele>19.6</ele>
        <time>2020-09-30T12:27:46Z</time>
      </trkpt>
      <trkpt lat="47.43116" lon="-0.52101">
        <ele>20.4</ele>
        <time>2020-09-30T12:27:53Z</time>
      </trkpt>
      <trkpt lat="47.43116" lon="-0.52091">
        <ele>20.6</ele>
        <time>2020-09-30T12:27:55Z</time>
      </trkpt>
      <trkpt lat="47.43113" lon="-0.52058">
        <ele>21.8</ele>
        <time>2020-09-30T12:28:02Z</time>
      </trkpt>
      <trkpt lat="47.4311" lon="-0.52019">
        <ele>22.2</ele>
        <time>2020-09-30T12:28:09Z</time>
      </trkpt>
      <trkpt lat="47.43111" lon="-0.51981">
        <ele>21.6</ele>
        <time>2020-09-30T12:28:16Z</time>
      </trkpt>
      <trkpt lat="47.4311" lon="-0.51943">
        <ele>21</ele>
        <time>2020-09-30T12:28:23Z</time>
      </trkpt>
      <trkpt lat="47.4311" lon="-0.51892">
        <ele>21</ele>
        <time>2020-09-30T12:28:32Z</time>
      </trkpt>
      <trkpt lat="47.4311" lon="-0.51848">
        <ele>21.4</ele>
        <time>2020-09-30T12:28:40Z</time>
      </trkpt>
      <trkpt lat="47.4311" lon="-0.5181">
        <ele>21.8</ele>
        <time>2020-09-30T12:28:47Z</time>
      </trkpt>
      <trkpt lat="47.4311" lon="-0.51775">
        <ele>22.2</ele>
        <time>2020-09-30T12:28:54Z</time>
      </trkpt>
      <trkpt lat="47.43109" lon="-0.51734">
        <ele>22.2</ele>
        <time>2020-09-30T12:29:02Z</time>
      </trkpt>
      <trkpt lat="47.43109" lon="-0.51697">
        <ele>22</ele>
        <time>2020-09-30T12:29:09Z</time>
      </trkpt>
      <trkpt lat="47.43107" lon="-0.51645">
        <ele>21.8</ele>
        <time>2020-09-30T12:29:18Z</time>
      </trkpt>
      <trkpt lat="47.43106" lon="-0.51576">
        <ele>21.8</ele>
        <time>2020-09-30T12:29:29Z</time>
      </trkpt>
      <trkpt lat="47.43105" lon="-0.51526">
        <ele>22</ele>
        <time>2020-09-30T12:29:37Z</time>
      </trkpt>
      <trkpt lat="47.43104" lon="-0.51472">
        <ele>22.6</ele>
        <time>2020-09-30T12:29:46Z</time>
      </trkpt>
      <trkpt lat="47.43105" lon="-0.51466">
        <ele>22.6</ele>
        <time>2020-09-30T12:29:47Z</time>
      </trkpt>
      <trkpt lat="47.43105" lon="-0.5146">
        <ele>22.8</ele>
        <time>2020-09-30T12:29:48Z</time>
      </trkpt>
      <trkpt lat="47.43104" lon="-0.51417">
        <ele>22.6</ele>
        <time>2020-09-30T12:29:55Z</time>
      </trkpt>
      <trkpt lat="47.43104" lon="-0.51371">
        <ele>23</ele>
        <time>2020-09-30T12:30:03Z</time>
      </trkpt>
      <trkpt lat="47.43104" lon="-0.5133">
        <ele>23.2</ele>
        <time>2020-09-30T12:30:10Z</time>
      </trkpt>
      <trkpt lat="47.43102" lon="-0.51286">
        <ele>23.4</ele>
        <time>2020-09-30T12:30:18Z</time>
      </trkpt>
      <trkpt lat="47.43102" lon="-0.51257">
        <ele>23.8</ele>
        <time>2020-09-30T12:30:23Z</time>
      </trkpt>
      <trkpt lat="47.43102" lon="-0.51222">
        <ele>23.8</ele>
        <time>2020-09-30T12:30:29Z</time>
      </trkpt>
      <trkpt lat="47.43105" lon="-0.51163">
        <ele>23.4</ele>
        <time>2020-09-30T12:30:39Z</time>
      </trkpt>
      <trkpt lat="47.43104" lon="-0.51106">
        <ele>24</ele>
        <time>2020-09-30T12:30:48Z</time>
      </trkpt>
      <trkpt lat="47.43105" lon="-0.51044">
        <ele>24.2</ele>
        <time>2020-09-30T12:30:58Z</time>
      </trkpt>
      <trkpt lat="47.43105" lon="-0.51021">
        <ele>23.2</ele>
        <time>2020-09-30T12:31:03Z</time>
      </trkpt>
      <trkpt lat="47.43105" lon="-0.51008">
        <ele>22.8</ele>
        <time>2020-09-30T12:31:05Z</time>
      </trkpt>
      <trkpt lat="47.43104" lon="-0.50977">
        <ele>23.2</ele>
        <time>2020-09-30T12:31:10Z</time>
      </trkpt>
      <trkpt lat="47.43101" lon="-0.50922">
        <ele>22.8</ele>
        <time>2020-09-30T12:31:18Z</time>
      </trkpt>
      <trkpt lat="47.43101" lon="-0.50869">
        <ele>23.2</ele>
        <time>2020-09-30T12:31:26Z</time>
      </trkpt>
      <trkpt lat="47.43101" lon="-0.50823">
        <ele>23.4</ele>
        <time>2020-09-30T12:31:33Z</time>
      </trkpt>
      <trkpt lat="47.43103" lon="-0.50786">
        <ele>23.4</ele>
        <time>2020-09-30T12:31:40Z</time>
      </trkpt>
      <trkpt lat="47.43106" lon="-0.50758">
        <ele>22.8</ele>
        <time>2020-09-30T12:31:46Z</time>
      </trkpt>
      <trkpt lat="47.43105" lon="-0.50738">
        <ele>21.2</ele>
        <time>2020-09-30T12:31:49Z</time>
      </trkpt>
      <trkpt lat="47.43103" lon="-0.50729">
        <ele>20.8</ele>
        <time>2020-09-30T12:31:50Z</time>
      </trkpt>
      <trkpt lat="47.43099" lon="-0.50709">
        <ele>20</ele>
        <time>2020-09-30T12:31:52Z</time>
      </trkpt>
      <trkpt lat="47.43092" lon="-0.50689">
        <ele>19.6</ele>
        <time>2020-09-30T12:31:54Z</time>
      </trkpt>
      <trkpt lat="47.43087" lon="-0.50669">
        <ele>19</ele>
        <time>2020-09-30T12:31:56Z</time>
      </trkpt>
      <trkpt lat="47.43081" lon="-0.50631">
        <ele>17.8</ele>
        <time>2020-09-30T12:32:00Z</time>
      </trkpt>
      <trkpt lat="47.43078" lon="-0.50602">
        <ele>17.2</ele>
        <time>2020-09-30T12:32:03Z</time>
      </trkpt>
      <trkpt lat="47.43078" lon="-0.50593">
        <ele>16.8</ele>
        <time>2020-09-30T12:32:04Z</time>
      </trkpt>
      <trkpt lat="47.43078" lon="-0.50585">
        <ele>16.8</ele>
        <time>2020-09-30T12:32:05Z</time>
      </trkpt>
      <trkpt lat="47.4308" lon="-0.50577">
        <ele>16.6</ele>
        <time>2020-09-30T12:32:06Z</time>
      </trkpt>
      <trkpt lat="47.43089" lon="-0.5052">
        <ele>16.4</ele>
        <time>2020-09-30T12:32:14Z</time>
      </trkpt>
      <trkpt lat="47.43098" lon="-0.5047">
        <ele>17.6</ele>
        <time>2020-09-30T12:32:22Z</time>
      </trkpt>
      <trkpt lat="47.43099" lon="-0.50464">
        <ele>18</ele>
        <time>2020-09-30T12:32:23Z</time>
      </trkpt>
      <trkpt lat="47.431" lon="-0.50457">
        <ele>18.2</ele>
        <time>2020-09-30T12:32:24Z</time>
      </trkpt>
      <trkpt lat="47.43099" lon="-0.50433">
        <ele>19.2</ele>
        <time>2020-09-30T12:32:28Z</time>
      </trkpt>
      <trkpt lat="47.43098" lon="-0.50401">
        <ele>19.8</ele>
        <time>2020-09-30T12:32:34Z</time>
      </trkpt>
      <trkpt lat="47.43098" lon="-0.5035">
        <ele>20</ele>
        <time>2020-09-30T12:32:42Z</time>
      </trkpt>
      <trkpt lat="47.43098" lon="-0.50315">
        <ele>19.8</ele>
        <time>2020-09-30T12:32:48Z</time>
      </trkpt>
      <trkpt lat="47.43099" lon="-0.50286">
        <ele>19.4</ele>
        <time>2020-09-30T12:32:53Z</time>
      </trkpt>
      <trkpt lat="47.43099" lon="-0.5028">
        <ele>19.4</ele>
        <time>2020-09-30T12:32:54Z</time>
      </trkpt>
      <trkpt lat="47.43098" lon="-0.50231">
        <ele>18.8</ele>
        <time>2020-09-30T12:33:03Z</time>
      </trkpt>
      <trkpt lat="47.43097" lon="-0.50166">
        <ele>18.8</ele>
        <time>2020-09-30T12:33:14Z</time>
      </trkpt>
      <trkpt lat="47.43096" lon="-0.5012">
        <ele>18.6</ele>
        <time>2020-09-30T12:33:22Z</time>
      </trkpt>
      <trkpt lat="47.43097" lon="-0.50079">
        <ele>18.6</ele>
        <time>2020-09-30T12:33:29Z</time>
      </trkpt>
      <trkpt lat="47.43098" lon="-0.50013">
        <ele>18.6</ele>
        <time>2020-09-30T12:33:40Z</time>
      </trkpt>
      <trkpt lat="47.43096" lon="-0.49976">
        <ele>18.6</ele>
        <time>2020-09-30T12:33:47Z</time>
      </trkpt>
      <trkpt lat="47.43093" lon="-0.4995">
        <ele>19</ele>
        <time>2020-09-30T12:33:54Z</time>
      </trkpt>
      <trkpt lat="47.43092" lon="-0.49918">
        <ele>18.8</ele>
        <time>2020-09-30T12:34:00Z</time>
      </trkpt>
      <trkpt lat="47.43092" lon="-0.49881">
        <ele>18</ele>
        <time>2020-09-30T12:34:06Z</time>
      </trkpt>
      <trkpt lat="47.43092" lon="-0.49875">
        <ele>18</ele>
        <time>2020-09-30T12:34:07Z</time>
      </trkpt>
      <trkpt lat="47.4309" lon="-0.49804">
        <ele>17.6</ele>
        <time>2020-09-30T12:34:18Z</time>
      </trkpt>
      <trkpt lat="47.43088" lon="-0.49749">
        <ele>17.2</ele>
        <time>2020-09-30T12:34:26Z</time>
      </trkpt>
      <trkpt lat="47.43087" lon="-0.49735">
        <ele>17</ele>
        <time>2020-09-30T12:34:28Z</time>
      </trkpt>
      <trkpt lat="47.43086" lon="-0.49692">
        <ele>17.4</ele>
        <time>2020-09-30T12:34:35Z</time>
      </trkpt>
      <trkpt lat="47.43085" lon="-0.4968">
        <ele>18.2</ele>
        <time>2020-09-30T12:34:37Z</time>
      </trkpt>
      <trkpt lat="47.43083" lon="-0.4965">
        <ele>18.2</ele>
        <time>2020-09-30T12:34:42Z</time>
      </trkpt>
      <trkpt lat="47.43078" lon="-0.49601">
        <ele>18.4</ele>
        <time>2020-09-30T12:34:50Z</time>
      </trkpt>
      <trkpt lat="47.43075" lon="-0.49555">
        <ele>19.2</ele>
        <time>2020-09-30T12:34:58Z</time>
      </trkpt>
      <trkpt lat="47.43075" lon="-0.49549">
        <ele>19.4</ele>
        <time>2020-09-30T12:34:59Z</time>
      </trkpt>
      <trkpt lat="47.43071" lon="-0.49492">
        <ele>19.6</ele>
        <time>2020-09-30T12:35:08Z</time>
      </trkpt>
      <trkpt lat="47.4307" lon="-0.49438">
        <ele>19.4</ele>
        <time>2020-09-30T12:35:16Z</time>
      </trkpt>
      <trkpt lat="47.43068" lon="-0.49385">
        <ele>19.2</ele>
        <time>2020-09-30T12:35:25Z</time>
      </trkpt>
      <trkpt lat="47.43066" lon="-0.4935">
        <ele>19.4</ele>
        <time>2020-09-30T12:35:31Z</time>
      </trkpt>
      <trkpt lat="47.43064" lon="-0.4931">
        <ele>19.4</ele>
        <time>2020-09-30T12:35:38Z</time>
      </trkpt>
      <trkpt lat="47.43062" lon="-0.49264">
        <ele>19</ele>
        <time>2020-09-30T12:35:47Z</time>
      </trkpt>
      <trkpt lat="47.43059" lon="-0.49225">
        <ele>18.8</ele>
        <time>2020-09-30T12:35:55Z</time>
      </trkpt>
      <trkpt lat="47.43058" lon="-0.49183">
        <ele>19</ele>
        <time>2020-09-30T12:36:03Z</time>
      </trkpt>
      <trkpt lat="47.43055" lon="-0.49132">
        <ele>19</ele>
        <time>2020-09-30T12:36:12Z</time>
      </trkpt>
      <trkpt lat="47.43052" lon="-0.49081">
        <ele>19</ele>
        <time>2020-09-30T12:36:21Z</time>
      </trkpt>
      <trkpt lat="47.43051" lon="-0.49039">
        <ele>19</ele>
        <time>2020-09-30T12:36:29Z</time>
      </trkpt>
      <trkpt lat="47.43047" lon="-0.48984">
        <ele>18.4</ele>
        <time>2020-09-30T12:36:39Z</time>
      </trkpt>
      <trkpt lat="47.43045" lon="-0.48934">
        <ele>18.4</ele>
        <time>2020-09-30T12:36:48Z</time>
      </trkpt>
      <trkpt lat="47.43042" lon="-0.48879">
        <ele>18.2</ele>
        <time>2020-09-30T12:36:58Z</time>
      </trkpt>
      <trkpt lat="47.43041" lon="-0.48873">
        <ele>18.2</ele>
        <time>2020-09-30T12:36:59Z</time>
      </trkpt>
      <trkpt lat="47.4304" lon="-0.48841">
        <ele>17.6</ele>
        <time>2020-09-30T12:37:05Z</time>
      </trkpt>
      <trkpt lat="47.43037" lon="-0.488">
        <ele>17</ele>
        <time>2020-09-30T12:37:12Z</time>
      </trkpt>
      <trkpt lat="47.43034" lon="-0.48758">
        <ele>17</ele>
        <time>2020-09-30T12:37:19Z</time>
      </trkpt>
      <trkpt lat="47.43032" lon="-0.48705">
        <ele>16.6</ele>
        <time>2020-09-30T12:37:28Z</time>
      </trkpt>
      <trkpt lat="47.4303" lon="-0.48655">
        <ele>16.2</ele>
        <time>2020-09-30T12:37:36Z</time>
      </trkpt>
      <trkpt lat="47.43029" lon="-0.48617">
        <ele>16</ele>
        <time>2020-09-30T12:37:42Z</time>
      </trkpt>
      <trkpt lat="47.43028" lon="-0.48604">
        <ele>15.8</ele>
        <time>2020-09-30T12:37:44Z</time>
      </trkpt>
      <trkpt lat="47.43026" lon="-0.48573">
        <ele>16</ele>
        <time>2020-09-30T12:37:49Z</time>
      </trkpt>
      <trkpt lat="47.43025" lon="-0.48562">
        <ele>16.2</ele>
        <time>2020-09-30T12:37:51Z</time>
      </trkpt>
      <trkpt lat="47.43023" lon="-0.48527">
        <ele>15.6</ele>
        <time>2020-09-30T12:37:58Z</time>
      </trkpt>
      <trkpt lat="47.43023" lon="-0.48497">
        <ele>15.2</ele>
        <time>2020-09-30T12:38:04Z</time>
      </trkpt>
      <trkpt lat="47.43021" lon="-0.48481">
        <ele>15</ele>
        <time>2020-09-30T12:38:07Z</time>
      </trkpt>
      <trkpt lat="47.43019" lon="-0.48454">
        <ele>14.6</ele>
        <time>2020-09-30T12:38:13Z</time>
      </trkpt>
      <trkpt lat="47.43021" lon="-0.48429">
        <ele>14.4</ele>
        <time>2020-09-30T12:38:19Z</time>
      </trkpt>
      <trkpt lat="47.43017" lon="-0.48392">
        <ele>14.6</ele>
        <time>2020-09-30T12:38:26Z</time>
      </trkpt>
      <trkpt lat="47.43015" lon="-0.48348">
        <ele>14.6</ele>
        <time>2020-09-30T12:38:33Z</time>
      </trkpt>
      <trkpt lat="47.43014" lon="-0.48329">
        <ele>15</ele>
        <time>2020-09-30T12:38:36Z</time>
      </trkpt>
      <trkpt lat="47.43011" lon="-0.48305">
        <ele>15.4</ele>
        <time>2020-09-30T12:38:40Z</time>
      </trkpt>
      <trkpt lat="47.43011" lon="-0.48271">
        <ele>16</ele>
        <time>2020-09-30T12:38:46Z</time>
      </trkpt>
      <trkpt lat="47.43011" lon="-0.48265">
        <ele>16.2</ele>
        <time>2020-09-30T12:38:47Z</time>
      </trkpt>
      <trkpt lat="47.4301" lon="-0.48241">
        <ele>16.4</ele>
        <time>2020-09-30T12:38:51Z</time>
      </trkpt>
      <trkpt lat="47.4301" lon="-0.48215">
        <ele>16.8</ele>
        <time>2020-09-30T12:38:55Z</time>
      </trkpt>
      <trkpt lat="47.43007" lon="-0.48177">
        <ele>17</ele>
        <time>2020-09-30T12:39:01Z</time>
      </trkpt>
      <trkpt lat="47.43006" lon="-0.48171">
        <ele>17</ele>
        <time>2020-09-30T12:39:02Z</time>
      </trkpt>
      <trkpt lat="47.43002" lon="-0.48122">
        <ele>16.8</ele>
        <time>2020-09-30T12:39:10Z</time>
      </trkpt>
      <trkpt lat="47.42998" lon="-0.48075">
        <ele>16.8</ele>
        <time>2020-09-30T12:39:18Z</time>
      </trkpt>
      <trkpt lat="47.42996" lon="-0.48045">
        <ele>16.6</ele>
        <time>2020-09-30T12:39:24Z</time>
      </trkpt>
      <trkpt lat="47.42995" lon="-0.48024">
        <ele>16.4</ele>
        <time>2020-09-30T12:39:30Z</time>
      </trkpt>
      <trkpt lat="47.42995" lon="-0.48008">
        <ele>16.2</ele>
        <time>2020-09-30T12:39:35Z</time>
      </trkpt>
      <trkpt lat="47.42996" lon="-0.47983">
        <ele>16</ele>
        <time>2020-09-30T12:39:41Z</time>
      </trkpt>
      <trkpt lat="47.42992" lon="-0.47949">
        <ele>15.6</ele>
        <time>2020-09-30T12:39:49Z</time>
      </trkpt>
      <trkpt lat="47.42988" lon="-0.47917">
        <ele>15</ele>
        <time>2020-09-30T12:39:55Z</time>
      </trkpt>
      <trkpt lat="47.42987" lon="-0.47907">
        <ele>15</ele>
        <time>2020-09-30T12:39:57Z</time>
      </trkpt>
      <trkpt lat="47.42985" lon="-0.47857">
        <ele>15.6</ele>
        <time>2020-09-30T12:40:06Z</time>
      </trkpt>
      <trkpt lat="47.42986" lon="-0.47839">
        <ele>16.2</ele>
        <time>2020-09-30T12:40:09Z</time>
      </trkpt>
      <trkpt lat="47.42985" lon="-0.47817">
        <ele>16.6</ele>
        <time>2020-09-30T12:40:13Z</time>
      </trkpt>
      <trkpt lat="47.4298" lon="-0.47775">
        <ele>16.8</ele>
        <time>2020-09-30T12:40:21Z</time>
      </trkpt>
      <trkpt lat="47.42974" lon="-0.47741">
        <ele>17.2</ele>
        <time>2020-09-30T12:40:28Z</time>
      </trkpt>
      <trkpt lat="47.42973" lon="-0.47696">
        <ele>17.8</ele>
        <time>2020-09-30T12:40:36Z</time>
      </trkpt>
      <trkpt lat="47.42974" lon="-0.47671">
        <ele>18.2</ele>
        <time>2020-09-30T12:40:40Z</time>
      </trkpt>
      <trkpt lat="47.42972" lon="-0.47647">
        <ele>18.4</ele>
        <time>2020-09-30T12:40:44Z</time>
      </trkpt>
      <trkpt lat="47.42971" lon="-0.47596">
        <ele>18.2</ele>
        <time>2020-09-30T12:40:53Z</time>
      </trkpt>
      <trkpt lat="47.42967" lon="-0.47554">
        <ele>18.2</ele>
        <time>2020-09-30T12:41:01Z</time>
      </trkpt>
      <trkpt lat="47.42965" lon="-0.47518">
        <ele>18.8</ele>
        <time>2020-09-30T12:41:08Z</time>
      </trkpt>
      <trkpt lat="47.42966" lon="-0.47498">
        <ele>19.4</ele>
        <time>2020-09-30T12:41:13Z</time>
      </trkpt>
      <trkpt lat="47.42966" lon="-0.47495">
        <ele>19.6</ele>
        <time>2020-09-30T12:41:14Z</time>
      </trkpt>
      <trkpt lat="47.4297" lon="-0.47467">
        <ele>20.4</ele>
        <time>2020-09-30T12:41:20Z</time>
      </trkpt>
      <trkpt lat="47.42971" lon="-0.47457">
        <ele>20.6</ele>
        <time>2020-09-30T12:41:22Z</time>
      </trkpt>
      <trkpt lat="47.42978" lon="-0.47426">
        <ele>21.2</ele>
        <time>2020-09-30T12:41:29Z</time>
      </trkpt>
      <trkpt lat="47.4298" lon="-0.4742">
        <ele>21.6</ele>
        <time>2020-09-30T12:41:30Z</time>
      </trkpt>
      <trkpt lat="47.42984" lon="-0.47404">
        <ele>22.6</ele>
        <time>2020-09-30T12:41:33Z</time>
      </trkpt>
      <trkpt lat="47.42987" lon="-0.47393">
        <ele>22.8</ele>
        <time>2020-09-30T12:41:35Z</time>
      </trkpt>
      <trkpt lat="47.43003" lon="-0.47358">
        <ele>23</ele>
        <time>2020-09-30T12:41:41Z</time>
      </trkpt>
      <trkpt lat="47.43015" lon="-0.47322">
        <ele>22.6</ele>
        <time>2020-09-30T12:41:48Z</time>
      </trkpt>
      <trkpt lat="47.43023" lon="-0.47297">
        <ele>22.6</ele>
        <time>2020-09-30T12:41:54Z</time>
      </trkpt>
      <trkpt lat="47.43033" lon="-0.47262">
        <ele>23.2</ele>
        <time>2020-09-30T12:42:02Z</time>
      </trkpt>
      <trkpt lat="47.43036" lon="-0.47254">
        <ele>23.8</ele>
        <time>2020-09-30T12:42:05Z</time>
      </trkpt>
      <trkpt lat="47.43031" lon="-0.47242">
        <ele>24.2</ele>
        <time>2020-09-30T12:42:16Z</time>
      </trkpt>
      <trkpt lat="47.43022" lon="-0.47237">
        <ele>24</ele>
        <time>2020-09-30T12:42:20Z</time>
      </trkpt>
      <trkpt lat="47.43001" lon="-0.47223">
        <ele>24</ele>
        <time>2020-09-30T12:42:25Z</time>
      </trkpt>
      <trkpt lat="47.42975" lon="-0.47205">
        <ele>23.8</ele>
        <time>2020-09-30T12:42:31Z</time>
      </trkpt>
      <trkpt lat="47.42972" lon="-0.47204">
        <ele>23.2</ele>
        <time>2020-09-30T12:42:33Z</time>
      </trkpt>
      <trkpt lat="47.4297" lon="-0.47205">
        <ele>23</ele>
        <time>2020-09-30T12:42:34Z</time>
      </trkpt>
      <trkpt lat="47.42968" lon="-0.47206">
        <ele>22.6</ele>
        <time>2020-09-30T12:42:35Z</time>
      </trkpt>
      <trkpt lat="47.42965" lon="-0.47215">
        <ele>21.4</ele>
        <time>2020-09-30T12:42:39Z</time>
      </trkpt>
      <trkpt lat="47.42964" lon="-0.47219">
        <ele>21.2</ele>
        <time>2020-09-30T12:42:40Z</time>
      </trkpt>
      <trkpt lat="47.42962" lon="-0.47231">
        <ele>20.4</ele>
        <time>2020-09-30T12:42:43Z</time>
      </trkpt>
      <trkpt lat="47.4296" lon="-0.4724">
        <ele>19.6</ele>
        <time>2020-09-30T12:42:45Z</time>
      </trkpt>
      <trkpt lat="47.42958" lon="-0.47244">
        <ele>19.4</ele>
        <time>2020-09-30T12:42:46Z</time>
      </trkpt>
      <trkpt lat="47.42954" lon="-0.47262">
        <ele>18</ele>
        <time>2020-09-30T12:42:50Z</time>
      </trkpt>
      <trkpt lat="47.42953" lon="-0.47265">
        <ele>17.8</ele>
        <time>2020-09-30T12:42:51Z</time>
      </trkpt>
      <trkpt lat="47.42951" lon="-0.47282">
        <ele>17</ele>
        <time>2020-09-30T12:42:55Z</time>
      </trkpt>
      <trkpt lat="47.42943" lon="-0.47315">
        <ele>16</ele>
        <time>2020-09-30T12:43:01Z</time>
      </trkpt>
      <trkpt lat="47.42942" lon="-0.47321">
        <ele>15.8</ele>
        <time>2020-09-30T12:43:02Z</time>
      </trkpt>
      <trkpt lat="47.42936" lon="-0.47344">
        <ele>15</ele>
        <time>2020-09-30T12:43:06Z</time>
      </trkpt>
      <trkpt lat="47.42934" lon="-0.47355">
        <ele>14.6</ele>
        <time>2020-09-30T12:43:08Z</time>
      </trkpt>
      <trkpt lat="47.42928" lon="-0.47381">
        <ele>14.2</ele>
        <time>2020-09-30T12:43:13Z</time>
      </trkpt>
      <trkpt lat="47.42925" lon="-0.47395">
        <ele>13.6</ele>
        <time>2020-09-30T12:43:16Z</time>
      </trkpt>
      <trkpt lat="47.42918" lon="-0.47422">
        <ele>12.6</ele>
        <time>2020-09-30T12:43:22Z</time>
      </trkpt>
      <trkpt lat="47.42917" lon="-0.47428">
        <ele>12.4</ele>
        <time>2020-09-30T12:43:23Z</time>
      </trkpt>
      <trkpt lat="47.42915" lon="-0.47451">
        <ele>12</ele>
        <time>2020-09-30T12:43:27Z</time>
      </trkpt>
      <trkpt lat="47.42915" lon="-0.47499">
        <ele>12.6</ele>
        <time>2020-09-30T12:43:35Z</time>
      </trkpt>
      <trkpt lat="47.42916" lon="-0.47526">
        <ele>13.6</ele>
        <time>2020-09-30T12:43:40Z</time>
      </trkpt>
      <trkpt lat="47.42917" lon="-0.47531">
        <ele>13.8</ele>
        <time>2020-09-30T12:43:41Z</time>
      </trkpt>
      <trkpt lat="47.42918" lon="-0.4756">
        <ele>14</ele>
        <time>2020-09-30T12:43:46Z</time>
      </trkpt>
      <trkpt lat="47.4292" lon="-0.47605">
        <ele>14.4</ele>
        <time>2020-09-30T12:43:54Z</time>
      </trkpt>
      <trkpt lat="47.42921" lon="-0.47626">
        <ele>14.8</ele>
        <time>2020-09-30T12:43:58Z</time>
      </trkpt>
      <trkpt lat="47.42921" lon="-0.4764">
        <ele>15.4</ele>
        <time>2020-09-30T12:44:01Z</time>
      </trkpt>
      <trkpt lat="47.42922" lon="-0.4765">
        <ele>15.8</ele>
        <time>2020-09-30T12:44:03Z</time>
      </trkpt>
      <trkpt lat="47.42923" lon="-0.47669">
        <ele>17</ele>
        <time>2020-09-30T12:44:07Z</time>
      </trkpt>
      <trkpt lat="47.42924" lon="-0.47684">
        <ele>18.2</ele>
        <time>2020-09-30T12:44:10Z</time>
      </trkpt>
      <trkpt lat="47.42925" lon="-0.47701">
        <ele>19.6</ele>
        <time>2020-09-30T12:44:13Z</time>
      </trkpt>
      <trkpt lat="47.42926" lon="-0.47706">
        <ele>19.8</ele>
        <time>2020-09-30T12:44:14Z</time>
      </trkpt>
      <trkpt lat="47.42927" lon="-0.47728">
        <ele>20.6</ele>
        <time>2020-09-30T12:44:18Z</time>
      </trkpt>
      <trkpt lat="47.42928" lon="-0.4774">
        <ele>21</ele>
        <time>2020-09-30T12:44:21Z</time>
      </trkpt>
      <trkpt lat="47.42929" lon="-0.47774">
        <ele>21.6</ele>
        <time>2020-09-30T12:44:28Z</time>
      </trkpt>
      <trkpt lat="47.42929" lon="-0.47779">
        <ele>21.6</ele>
        <time>2020-09-30T12:44:29Z</time>
      </trkpt>
      <trkpt lat="47.42933" lon="-0.47818">
        <ele>22.4</ele>
        <time>2020-09-30T12:44:36Z</time>
      </trkpt>
      <trkpt lat="47.42935" lon="-0.47851">
        <ele>22.6</ele>
        <time>2020-09-30T12:44:42Z</time>
      </trkpt>
      <trkpt lat="47.42935" lon="-0.47862">
        <ele>22.6</ele>
        <time>2020-09-30T12:44:44Z</time>
      </trkpt>
      <trkpt lat="47.42938" lon="-0.47916">
        <ele>23.4</ele>
        <time>2020-09-30T12:44:53Z</time>
      </trkpt>
      <trkpt lat="47.42938" lon="-0.47928">
        <ele>23.8</ele>
        <time>2020-09-30T12:44:55Z</time>
      </trkpt>
      <trkpt lat="47.42941" lon="-0.47981">
        <ele>24.4</ele>
        <time>2020-09-30T12:45:04Z</time>
      </trkpt>
      <trkpt lat="47.42944" lon="-0.4803">
        <ele>23.4</ele>
        <time>2020-09-30T12:45:12Z</time>
      </trkpt>
      <trkpt lat="47.42947" lon="-0.48073">
        <ele>22.6</ele>
        <time>2020-09-30T12:45:19Z</time>
      </trkpt>
      <trkpt lat="47.42948" lon="-0.48091">
        <ele>22.2</ele>
        <time>2020-09-30T12:45:22Z</time>
      </trkpt>
      <trkpt lat="47.4295" lon="-0.48121">
        <ele>22.2</ele>
        <time>2020-09-30T12:45:27Z</time>
      </trkpt>
      <trkpt lat="47.42951" lon="-0.48139">
        <ele>22.6</ele>
        <time>2020-09-30T12:45:30Z</time>
      </trkpt>
      <trkpt lat="47.42953" lon="-0.4819">
        <ele>22.8</ele>
        <time>2020-09-30T12:45:38Z</time>
      </trkpt>
      <trkpt lat="47.42956" lon="-0.48238">
        <ele>22.6</ele>
        <time>2020-09-30T12:45:46Z</time>
      </trkpt>
      <trkpt lat="47.42957" lon="-0.48284">
        <ele>22.2</ele>
        <time>2020-09-30T12:45:54Z</time>
      </trkpt>
      <trkpt lat="47.42959" lon="-0.48311">
        <ele>21.4</ele>
        <time>2020-09-30T12:45:58Z</time>
      </trkpt>
      <trkpt lat="47.4296" lon="-0.4833">
        <ele>21.2</ele>
        <time>2020-09-30T12:46:01Z</time>
      </trkpt>
      <trkpt lat="47.42962" lon="-0.4839">
        <ele>20.4</ele>
        <time>2020-09-30T12:46:10Z</time>
      </trkpt>
      <trkpt lat="47.42964" lon="-0.48414">
        <ele>19.6</ele>
        <time>2020-09-30T12:46:15Z</time>
      </trkpt>
      <trkpt lat="47.42967" lon="-0.4844">
        <ele>19.2</ele>
        <time>2020-09-30T12:46:20Z</time>
      </trkpt>
      <trkpt lat="47.42967" lon="-0.48453">
        <ele>19</ele>
        <time>2020-09-30T12:46:22Z</time>
      </trkpt>
      <trkpt lat="47.42969" lon="-0.48488">
        <ele>19.2</ele>
        <time>2020-09-30T12:46:28Z</time>
      </trkpt>
      <trkpt lat="47.42971" lon="-0.48533">
        <ele>19.8</ele>
        <time>2020-09-30T12:46:35Z</time>
      </trkpt>
      <trkpt lat="47.42972" lon="-0.48574">
        <ele>20.2</ele>
        <time>2020-09-30T12:46:42Z</time>
      </trkpt>
      <trkpt lat="47.42973" lon="-0.48585">
        <ele>20.4</ele>
        <time>2020-09-30T12:46:44Z</time>
      </trkpt>
      <trkpt lat="47.42976" lon="-0.48622">
        <ele>20.4</ele>
        <time>2020-09-30T12:46:50Z</time>
      </trkpt>
      <trkpt lat="47.42978" lon="-0.48677">
        <ele>20.4</ele>
        <time>2020-09-30T12:46:58Z</time>
      </trkpt>
      <trkpt lat="47.42981" lon="-0.48729">
        <ele>20</ele>
        <time>2020-09-30T12:47:06Z</time>
      </trkpt>
      <trkpt lat="47.42983" lon="-0.48782">
        <ele>20</ele>
        <time>2020-09-30T12:47:14Z</time>
      </trkpt>
      <trkpt lat="47.42986" lon="-0.48829">
        <ele>20.2</ele>
        <time>2020-09-30T12:47:22Z</time>
      </trkpt>
      <trkpt lat="47.42989" lon="-0.48867">
        <ele>20.2</ele>
        <time>2020-09-30T12:47:29Z</time>
      </trkpt>
      <trkpt lat="47.4299" lon="-0.48912">
        <ele>20.6</ele>
        <time>2020-09-30T12:47:37Z</time>
      </trkpt>
      <trkpt lat="47.42992" lon="-0.48961">
        <ele>20.2</ele>
        <time>2020-09-30T12:47:46Z</time>
      </trkpt>
      <trkpt lat="47.42995" lon="-0.48994">
        <ele>21</ele>
        <time>2020-09-30T12:47:52Z</time>
      </trkpt>
      <trkpt lat="47.42998" lon="-0.49036">
        <ele>21.6</ele>
        <time>2020-09-30T12:47:59Z</time>
      </trkpt>
      <trkpt lat="47.42999" lon="-0.49094">
        <ele>21.8</ele>
        <time>2020-09-30T12:48:08Z</time>
      </trkpt>
      <trkpt lat="47.43004" lon="-0.49143">
        <ele>22.4</ele>
        <time>2020-09-30T12:48:16Z</time>
      </trkpt>
      <trkpt lat="47.43005" lon="-0.49189">
        <ele>21.6</ele>
        <time>2020-09-30T12:48:24Z</time>
      </trkpt>
      <trkpt lat="47.43007" lon="-0.49227">
        <ele>20.6</ele>
        <time>2020-09-30T12:48:32Z</time>
      </trkpt>
      <trkpt lat="47.43008" lon="-0.49232">
        <ele>20.6</ele>
        <time>2020-09-30T12:48:33Z</time>
      </trkpt>
      <trkpt lat="47.43008" lon="-0.49264">
        <ele>20.2</ele>
        <time>2020-09-30T12:48:39Z</time>
      </trkpt>
      <trkpt lat="47.43009" lon="-0.49278">
        <ele>19.6</ele>
        <time>2020-09-30T12:48:42Z</time>
      </trkpt>
      <trkpt lat="47.4301" lon="-0.49294">
        <ele>18.8</ele>
        <time>2020-09-30T12:48:46Z</time>
      </trkpt>
      <trkpt lat="47.4301" lon="-0.49305">
        <ele>18.4</ele>
        <time>2020-09-30T12:48:48Z</time>
      </trkpt>
      <trkpt lat="47.43011" lon="-0.49328">
        <ele>18</ele>
        <time>2020-09-30T12:48:52Z</time>
      </trkpt>
      <trkpt lat="47.43014" lon="-0.49376">
        <ele>17.8</ele>
        <time>2020-09-30T12:49:00Z</time>
      </trkpt>
      <trkpt lat="47.43015" lon="-0.49382">
        <ele>17.8</ele>
        <time>2020-09-30T12:49:01Z</time>
      </trkpt>
      <trkpt lat="47.43018" lon="-0.49425">
        <ele>18</ele>
        <time>2020-09-30T12:49:08Z</time>
      </trkpt>
      <trkpt lat="47.43021" lon="-0.49464">
        <ele>19.6</ele>
        <time>2020-09-30T12:49:15Z</time>
      </trkpt>
      <trkpt lat="47.43021" lon="-0.49469">
        <ele>19.8</ele>
        <time>2020-09-30T12:49:16Z</time>
      </trkpt>
      <trkpt lat="47.43022" lon="-0.49485">
        <ele>21</ele>
        <time>2020-09-30T12:49:19Z</time>
      </trkpt>
      <trkpt lat="47.43024" lon="-0.49504">
        <ele>21.6</ele>
        <time>2020-09-30T12:49:22Z</time>
      </trkpt>
      <trkpt lat="47.43024" lon="-0.49516">
        <ele>22</ele>
        <time>2020-09-30T12:49:24Z</time>
      </trkpt>
      <trkpt lat="47.43025" lon="-0.49548">
        <ele>23.2</ele>
        <time>2020-09-30T12:49:29Z</time>
      </trkpt>
      <trkpt lat="47.43026" lon="-0.496">
        <ele>22.8</ele>
        <time>2020-09-30T12:49:37Z</time>
      </trkpt>
      <trkpt lat="47.43027" lon="-0.49654">
        <ele>22.4</ele>
        <time>2020-09-30T12:49:45Z</time>
      </trkpt>
      <trkpt lat="47.43028" lon="-0.49661">
        <ele>22</ele>
        <time>2020-09-30T12:49:46Z</time>
      </trkpt>
      <trkpt lat="47.43029" lon="-0.49687">
        <ele>21</ele>
        <time>2020-09-30T12:49:50Z</time>
      </trkpt>
      <trkpt lat="47.4303" lon="-0.49699">
        <ele>21</ele>
        <time>2020-09-30T12:49:52Z</time>
      </trkpt>
      <trkpt lat="47.43032" lon="-0.4974">
        <ele>20.4</ele>
        <time>2020-09-30T12:49:59Z</time>
      </trkpt>
      <trkpt lat="47.43034" lon="-0.49758">
        <ele>19.8</ele>
        <time>2020-09-30T12:50:02Z</time>
      </trkpt>
      <trkpt lat="47.43036" lon="-0.4978">
        <ele>19.8</ele>
        <time>2020-09-30T12:50:06Z</time>
      </trkpt>
      <trkpt lat="47.43038" lon="-0.49813">
        <ele>19.6</ele>
        <time>2020-09-30T12:50:12Z</time>
      </trkpt>
      <trkpt lat="47.43039" lon="-0.49868">
        <ele>20.2</ele>
        <time>2020-09-30T12:50:21Z</time>
      </trkpt>
      <trkpt lat="47.43038" lon="-0.49912">
        <ele>20.6</ele>
        <time>2020-09-30T12:50:30Z</time>
      </trkpt>
      <trkpt lat="47.43039" lon="-0.49935">
        <ele>21</ele>
        <time>2020-09-30T12:50:35Z</time>
      </trkpt>
      <trkpt lat="47.4304" lon="-0.49946">
        <ele>21.2</ele>
        <time>2020-09-30T12:50:37Z</time>
      </trkpt>
      <trkpt lat="47.43039" lon="-0.4999">
        <ele>20.6</ele>
        <time>2020-09-30T12:50:45Z</time>
      </trkpt>
      <trkpt lat="47.4304" lon="-0.5001">
        <ele>20.8</ele>
        <time>2020-09-30T12:50:49Z</time>
      </trkpt>
      <trkpt lat="47.4304" lon="-0.50049">
        <ele>20.2</ele>
        <time>2020-09-30T12:50:56Z</time>
      </trkpt>
      <trkpt lat="47.43039" lon="-0.50061">
        <ele>19.8</ele>
        <time>2020-09-30T12:50:58Z</time>
      </trkpt>
      <trkpt lat="47.43039" lon="-0.50089">
        <ele>19.4</ele>
        <time>2020-09-30T12:51:03Z</time>
      </trkpt>
      <trkpt lat="47.43041" lon="-0.50136">
        <ele>20.2</ele>
        <time>2020-09-30T12:51:11Z</time>
      </trkpt>
      <trkpt lat="47.43042" lon="-0.50182">
        <ele>20</ele>
        <time>2020-09-30T12:51:18Z</time>
      </trkpt>
      <trkpt lat="47.43043" lon="-0.50229">
        <ele>20</ele>
        <time>2020-09-30T12:51:25Z</time>
      </trkpt>
      <trkpt lat="47.4304" lon="-0.50272">
        <ele>20.4</ele>
        <time>2020-09-30T12:51:32Z</time>
      </trkpt>
      <trkpt lat="47.4304" lon="-0.50283">
        <ele>20.8</ele>
        <time>2020-09-30T12:51:34Z</time>
      </trkpt>
      <trkpt lat="47.43038" lon="-0.50316">
        <ele>21.2</ele>
        <time>2020-09-30T12:51:40Z</time>
      </trkpt>
      <trkpt lat="47.43041" lon="-0.50358">
        <ele>20.6</ele>
        <time>2020-09-30T12:51:47Z</time>
      </trkpt>
      <trkpt lat="47.43045" lon="-0.50411">
        <ele>20.2</ele>
        <time>2020-09-30T12:51:54Z</time>
      </trkpt>
      <trkpt lat="47.43046" lon="-0.50462">
        <ele>20.8</ele>
        <time>2020-09-30T12:52:01Z</time>
      </trkpt>
      <trkpt lat="47.43047" lon="-0.50511">
        <ele>21.4</ele>
        <time>2020-09-30T12:52:09Z</time>
      </trkpt>
      <trkpt lat="47.43046" lon="-0.50549">
        <ele>22</ele>
        <time>2020-09-30T12:52:15Z</time>
      </trkpt>
      <trkpt lat="47.43047" lon="-0.50555">
        <ele>22.2</ele>
        <time>2020-09-30T12:52:16Z</time>
      </trkpt>
      <trkpt lat="47.43046" lon="-0.50562">
        <ele>22.2</ele>
        <time>2020-09-30T12:52:17Z</time>
      </trkpt>
      <trkpt lat="47.43047" lon="-0.50583">
        <ele>22.8</ele>
        <time>2020-09-30T12:52:21Z</time>
      </trkpt>
      <trkpt lat="47.43047" lon="-0.50593">
        <ele>23.2</ele>
        <time>2020-09-30T12:52:23Z</time>
      </trkpt>
      <trkpt lat="47.43046" lon="-0.50644">
        <ele>23.4</ele>
        <time>2020-09-30T12:52:31Z</time>
      </trkpt>
      <trkpt lat="47.43046" lon="-0.50693">
        <ele>22.8</ele>
        <time>2020-09-30T12:52:39Z</time>
      </trkpt>
      <trkpt lat="47.43047" lon="-0.50725">
        <ele>22</ele>
        <time>2020-09-30T12:52:44Z</time>
      </trkpt>
      <trkpt lat="47.43047" lon="-0.50745">
        <ele>21.8</ele>
        <time>2020-09-30T12:52:47Z</time>
      </trkpt>
      <trkpt lat="47.43046" lon="-0.508">
        <ele>21</ele>
        <time>2020-09-30T12:52:56Z</time>
      </trkpt>
      <trkpt lat="47.43046" lon="-0.50825">
        <ele>19.8</ele>
        <time>2020-09-30T12:53:00Z</time>
      </trkpt>
      <trkpt lat="47.43046" lon="-0.5085">
        <ele>19.4</ele>
        <time>2020-09-30T12:53:04Z</time>
      </trkpt>
      <trkpt lat="47.43045" lon="-0.50868">
        <ele>18.6</ele>
        <time>2020-09-30T12:53:07Z</time>
      </trkpt>
      <trkpt lat="47.43045" lon="-0.50893">
        <ele>18</ele>
        <time>2020-09-30T12:53:11Z</time>
      </trkpt>
      <trkpt lat="47.43046" lon="-0.50917">
        <ele>17.6</ele>
        <time>2020-09-30T12:53:15Z</time>
      </trkpt>
      <trkpt lat="47.43046" lon="-0.50934">
        <ele>17.2</ele>
        <time>2020-09-30T12:53:18Z</time>
      </trkpt>
      <trkpt lat="47.43046" lon="-0.50953">
        <ele>16.4</ele>
        <time>2020-09-30T12:53:21Z</time>
      </trkpt>
      <trkpt lat="47.43046" lon="-0.50972">
        <ele>15.8</ele>
        <time>2020-09-30T12:53:24Z</time>
      </trkpt>
      <trkpt lat="47.43046" lon="-0.51025">
        <ele>15.6</ele>
        <time>2020-09-30T12:53:33Z</time>
      </trkpt>
      <trkpt lat="47.43047" lon="-0.5109">
        <ele>16.6</ele>
        <time>2020-09-30T12:53:44Z</time>
      </trkpt>
      <trkpt lat="47.43047" lon="-0.51145">
        <ele>16.4</ele>
        <time>2020-09-30T12:53:53Z</time>
      </trkpt>
      <trkpt lat="47.43048" lon="-0.51214">
        <ele>16.2</ele>
        <time>2020-09-30T12:54:04Z</time>
      </trkpt>
      <trkpt lat="47.43047" lon="-0.51268">
        <ele>15.6</ele>
        <time>2020-09-30T12:54:13Z</time>
      </trkpt>
      <trkpt lat="47.4305" lon="-0.51317">
        <ele>16.2</ele>
        <time>2020-09-30T12:54:21Z</time>
      </trkpt>
      <trkpt lat="47.43053" lon="-0.51373">
        <ele>17</ele>
        <time>2020-09-30T12:54:30Z</time>
      </trkpt>
      <trkpt lat="47.43052" lon="-0.51391">
        <ele>17.6</ele>
        <time>2020-09-30T12:54:33Z</time>
      </trkpt>
      <trkpt lat="47.43053" lon="-0.51424">
        <ele>18.2</ele>
        <time>2020-09-30T12:54:38Z</time>
      </trkpt>
      <trkpt lat="47.43053" lon="-0.51441">
        <ele>18.6</ele>
        <time>2020-09-30T12:54:41Z</time>
      </trkpt>
      <trkpt lat="47.43052" lon="-0.51471">
        <ele>18.6</ele>
        <time>2020-09-30T12:54:46Z</time>
      </trkpt>
      <trkpt lat="47.43053" lon="-0.51522">
        <ele>18.6</ele>
        <time>2020-09-30T12:54:54Z</time>
      </trkpt>
      <trkpt lat="47.43053" lon="-0.51572">
        <ele>18.6</ele>
        <time>2020-09-30T12:55:02Z</time>
      </trkpt>
      <trkpt lat="47.43052" lon="-0.51635">
        <ele>18</ele>
        <time>2020-09-30T12:55:12Z</time>
      </trkpt>
      <trkpt lat="47.43052" lon="-0.51666">
        <ele>17.6</ele>
        <time>2020-09-30T12:55:17Z</time>
      </trkpt>
      <trkpt lat="47.43053" lon="-0.51697">
        <ele>16.8</ele>
        <time>2020-09-30T12:55:22Z</time>
      </trkpt>
      <trkpt lat="47.43054" lon="-0.51743">
        <ele>17.2</ele>
        <time>2020-09-30T12:55:29Z</time>
      </trkpt>
      <trkpt lat="47.43055" lon="-0.51803">
        <ele>17.6</ele>
        <time>2020-09-30T12:55:38Z</time>
      </trkpt>
      <trkpt lat="47.43056" lon="-0.51862">
        <ele>17.4</ele>
        <time>2020-09-30T12:55:47Z</time>
      </trkpt>
      <trkpt lat="47.43053" lon="-0.5192">
        <ele>16.6</ele>
        <time>2020-09-30T12:55:56Z</time>
      </trkpt>
      <trkpt lat="47.43041" lon="-0.5194">
        <ele>16</ele>
        <time>2020-09-30T12:56:00Z</time>
      </trkpt>
      <trkpt lat="47.43029" lon="-0.51945">
        <ele>15.6</ele>
        <time>2020-09-30T12:56:03Z</time>
      </trkpt>
      <trkpt lat="47.43025" lon="-0.51945">
        <ele>15.4</ele>
        <time>2020-09-30T12:56:04Z</time>
      </trkpt>
      <trkpt lat="47.43016" lon="-0.51945">
        <ele>15</ele>
        <time>2020-09-30T12:56:06Z</time>
      </trkpt>
      <trkpt lat="47.42994" lon="-0.51946">
        <ele>15</ele>
        <time>2020-09-30T12:56:11Z</time>
      </trkpt>
      <trkpt lat="47.42955" lon="-0.51945">
        <ele>16</ele>
        <time>2020-09-30T12:56:20Z</time>
      </trkpt>
      <trkpt lat="47.42931" lon="-0.51942">
        <ele>16.6</ele>
        <time>2020-09-30T12:56:26Z</time>
      </trkpt>
      <trkpt lat="47.42926" lon="-0.51942">
        <ele>16.6</ele>
        <time>2020-09-30T12:56:27Z</time>
      </trkpt>
      <trkpt lat="47.42893" lon="-0.51944">
        <ele>17</ele>
        <time>2020-09-30T12:56:35Z</time>
      </trkpt>
      <trkpt lat="47.42886" lon="-0.51944">
        <ele>17.6</ele>
        <time>2020-09-30T12:56:37Z</time>
      </trkpt>
      <trkpt lat="47.42876" lon="-0.51944">
        <ele>18.6</ele>
        <time>2020-09-30T12:56:41Z</time>
      </trkpt>
      <trkpt lat="47.42874" lon="-0.51945">
        <ele>18.8</ele>
        <time>2020-09-30T12:56:42Z</time>
      </trkpt>
      <trkpt lat="47.42869" lon="-0.51955">
        <ele>19.4</ele>
        <time>2020-09-30T12:56:46Z</time>
      </trkpt>
      <trkpt lat="47.4287" lon="-0.51972">
        <ele>20.2</ele>
        <time>2020-09-30T12:56:50Z</time>
      </trkpt>
      <trkpt lat="47.42871" lon="-0.51978">
        <ele>20.4</ele>
        <time>2020-09-30T12:56:51Z</time>
      </trkpt>
      <trkpt lat="47.42872" lon="-0.52">
        <ele>20.8</ele>
        <time>2020-09-30T12:56:57Z</time>
      </trkpt>
      <trkpt lat="47.42873" lon="-0.52012">
        <ele>21.2</ele>
        <time>2020-09-30T12:57:01Z</time>
      </trkpt>
      <trkpt lat="47.42874" lon="-0.52021">
        <ele>21.4</ele>
        <time>2020-09-30T12:57:03Z</time>
      </trkpt>
      <trkpt lat="47.42874" lon="-0.52034">
        <ele>21.6</ele>
        <time>2020-09-30T12:57:07Z</time>
      </trkpt>
      <trkpt lat="47.42873" lon="-0.52035">
        <ele>21.6</ele>
        <time>2020-09-30T12:57:08Z</time>
      </trkpt>
      <trkpt lat="47.42872" lon="-0.52043">
        <ele>21</ele>
        <time>2020-09-30T12:57:44Z</time>
      </trkpt>
      <trkpt lat="47.42874" lon="-0.52045">
        <ele>20.8</ele>
        <time>2020-09-30T12:57:45Z</time>
      </trkpt>
      <trkpt lat="47.42877" lon="-0.52057">
        <ele>20</ele>
        <time>2020-09-30T12:57:48Z</time>
      </trkpt>
      <trkpt lat="47.42878" lon="-0.52066">
        <ele>19.6</ele>
        <time>2020-09-30T12:57:50Z</time>
      </trkpt>
      <trkpt lat="47.42881" lon="-0.52099">
        <ele>19</ele>
        <time>2020-09-30T12:57:56Z</time>
      </trkpt>
      <trkpt lat="47.42882" lon="-0.52105">
        <ele>18.8</ele>
        <time>2020-09-30T12:57:57Z</time>
      </trkpt>
      <trkpt lat="47.42883" lon="-0.5213">
        <ele>18.2</ele>
        <time>2020-09-30T12:58:02Z</time>
      </trkpt>
      <trkpt lat="47.42884" lon="-0.52169">
        <ele>18.6</ele>
        <time>2020-09-30T12:58:09Z</time>
      </trkpt>
      <trkpt lat="47.42886" lon="-0.52195">
        <ele>20</ele>
        <time>2020-09-30T12:58:14Z</time>
      </trkpt>
      <trkpt lat="47.4289" lon="-0.52203">
        <ele>20</ele>
        <time>2020-09-30T12:58:16Z</time>
      </trkpt>
      <trkpt lat="47.42903" lon="-0.52205">
        <ele>20.4</ele>
        <time>2020-09-30T12:58:20Z</time>
      </trkpt>
      <trkpt lat="47.42906" lon="-0.52205">
        <ele>20.6</ele>
        <time>2020-09-30T12:58:21Z</time>
      </trkpt>
      <trkpt lat="47.42924" lon="-0.52204">
        <ele>21</ele>
        <time>2020-09-30T12:58:26Z</time>
      </trkpt>
      <trkpt lat="47.42934" lon="-0.52204">
        <ele>21</ele>
        <time>2020-09-30T12:58:28Z</time>
      </trkpt>
      <trkpt lat="47.42946" lon="-0.52203">
        <ele>22</ele>
        <time>2020-09-30T12:58:31Z</time>
      </trkpt>
      <trkpt lat="47.4297" lon="-0.52202">
        <ele>22.4</ele>
        <time>2020-09-30T12:58:36Z</time>
      </trkpt>
      <trkpt lat="47.43007" lon="-0.522">
        <ele>22.8</ele>
        <time>2020-09-30T12:58:44Z</time>
      </trkpt>
      <trkpt lat="47.43016" lon="-0.52199">
        <ele>23</ele>
        <time>2020-09-30T12:58:46Z</time>
      </trkpt>
      <trkpt lat="47.4304" lon="-0.52197">
        <ele>23</ele>
        <time>2020-09-30T12:58:52Z</time>
      </trkpt>
      <trkpt lat="47.43044" lon="-0.52198">
        <ele>22.8</ele>
        <time>2020-09-30T12:58:53Z</time>
      </trkpt>
      <trkpt lat="47.43054" lon="-0.52212">
        <ele>22.6</ele>
        <time>2020-09-30T12:58:56Z</time>
      </trkpt>
      <trkpt lat="47.43055" lon="-0.52239">
        <ele>22.6</ele>
        <time>2020-09-30T12:59:00Z</time>
      </trkpt>
      <trkpt lat="47.43056" lon="-0.52279">
        <ele>22</ele>
        <time>2020-09-30T12:59:06Z</time>
      </trkpt>
      <trkpt lat="47.43057" lon="-0.52307">
        <ele>21</ele>
        <time>2020-09-30T12:59:10Z</time>
      </trkpt>
      <trkpt lat="47.43057" lon="-0.52321">
        <ele>20.8</ele>
        <time>2020-09-30T12:59:12Z</time>
      </trkpt>
      <trkpt lat="47.43058" lon="-0.52381">
        <ele>20</ele>
        <time>2020-09-30T12:59:20Z</time>
      </trkpt>
      <trkpt lat="47.43058" lon="-0.52433">
        <ele>19.8</ele>
        <time>2020-09-30T12:59:27Z</time>
      </trkpt>
      <trkpt lat="47.43058" lon="-0.52462">
        <ele>19.6</ele>
        <time>2020-09-30T12:59:31Z</time>
      </trkpt>
      <trkpt lat="47.43059" lon="-0.52543">
        <ele>19.6</ele>
        <time>2020-09-30T12:59:42Z</time>
      </trkpt>
      <trkpt lat="47.4306" lon="-0.52596">
        <ele>20</ele>
        <time>2020-09-30T12:59:50Z</time>
      </trkpt>
      <trkpt lat="47.4306" lon="-0.52635">
        <ele>20</ele>
        <time>2020-09-30T12:59:57Z</time>
      </trkpt>
      <trkpt lat="47.43061" lon="-0.52676">
        <ele>20.2</ele>
        <time>2020-09-30T13:00:04Z</time>
      </trkpt>
      <trkpt lat="47.43062" lon="-0.52728">
        <ele>20.2</ele>
        <time>2020-09-30T13:00:13Z</time>
      </trkpt>
      <trkpt lat="47.43061" lon="-0.5275">
        <ele>20.8</ele>
        <time>2020-09-30T13:00:17Z</time>
      </trkpt>
      <trkpt lat="47.43057" lon="-0.52769">
        <ele>21.2</ele>
        <time>2020-09-30T13:00:21Z</time>
      </trkpt>
      <trkpt lat="47.4305" lon="-0.528">
        <ele>21.6</ele>
        <time>2020-09-30T13:00:29Z</time>
      </trkpt>
      <trkpt lat="47.43048" lon="-0.52814">
        <ele>21.6</ele>
        <time>2020-09-30T13:00:42Z</time>
      </trkpt>
      <trkpt lat="47.43044" lon="-0.52834">
        <ele>21.4</ele>
        <time>2020-09-30T13:00:46Z</time>
      </trkpt>
      <trkpt lat="47.43038" lon="-0.52875">
        <ele>21</ele>
        <time>2020-09-30T13:00:53Z</time>
      </trkpt>
      <trkpt lat="47.43029" lon="-0.52908">
        <ele>20.2</ele>
        <time>2020-09-30T13:01:00Z</time>
      </trkpt>
      <trkpt lat="47.43031" lon="-0.52914">
        <ele>20</ele>
        <time>2020-09-30T13:01:02Z</time>
      </trkpt>
      <trkpt lat="47.43034" lon="-0.52916">
        <ele>19.6</ele>
        <time>2020-09-30T13:01:03Z</time>
      </trkpt>
      <trkpt lat="47.43036" lon="-0.52917">
        <ele>19.6</ele>
        <time>2020-09-30T13:01:04Z</time>
      </trkpt>
      <trkpt lat="47.43049" lon="-0.52919">
        <ele>19.2</ele>
        <time>2020-09-30T13:01:08Z</time>
      </trkpt>
      <trkpt lat="47.43059" lon="-0.52923">
        <ele>19.4</ele>
        <time>2020-09-30T13:01:11Z</time>
      </trkpt>
      <trkpt lat="47.43066" lon="-0.52926">
        <ele>18.8</ele>
        <time>2020-09-30T13:01:14Z</time>
      </trkpt>
      <trkpt lat="47.43069" lon="-0.52933">
        <ele>18.6</ele>
        <time>2020-09-30T13:01:16Z</time>
      </trkpt>
      <trkpt lat="47.4307" lon="-0.5294">
        <ele>18.4</ele>
        <time>2020-09-30T13:01:18Z</time>
      </trkpt>
      <trkpt lat="47.43068" lon="-0.52965">
        <ele>18.4</ele>
        <time>2020-09-30T13:01:24Z</time>
      </trkpt>
      <trkpt lat="47.43067" lon="-0.52993">
        <ele>18.8</ele>
        <time>2020-09-30T13:01:30Z</time>
      </trkpt>
      <trkpt lat="47.43066" lon="-0.53021">
        <ele>19.6</ele>
        <time>2020-09-30T13:01:36Z</time>
      </trkpt>
      <trkpt lat="47.43066" lon="-0.53027">
        <ele>19.6</ele>
        <time>2020-09-30T13:01:37Z</time>
      </trkpt>
      <trkpt lat="47.43063" lon="-0.53063">
        <ele>19.8</ele>
        <time>2020-09-30T13:01:44Z</time>
      </trkpt>
      <trkpt lat="47.43051" lon="-0.531">
        <ele>19.6</ele>
        <time>2020-09-30T13:01:51Z</time>
      </trkpt>
      <trkpt lat="47.4304" lon="-0.53139">
        <ele>20.2</ele>
        <time>2020-09-30T13:01:58Z</time>
      </trkpt>
      <trkpt lat="47.43038" lon="-0.53145">
        <ele>20</ele>
        <time>2020-09-30T13:01:59Z</time>
      </trkpt>
      <trkpt lat="47.4303" lon="-0.53167">
        <ele>19.8</ele>
        <time>2020-09-30T13:02:03Z</time>
      </trkpt>
      <trkpt lat="47.43016" lon="-0.53217">
        <ele>18.4</ele>
        <time>2020-09-30T13:02:12Z</time>
      </trkpt>
      <trkpt lat="47.43" lon="-0.53276">
        <ele>18.2</ele>
        <time>2020-09-30T13:02:22Z</time>
      </trkpt>
      <trkpt lat="47.42984" lon="-0.53336">
        <ele>18.6</ele>
        <time>2020-09-30T13:02:32Z</time>
      </trkpt>
      <trkpt lat="47.42966" lon="-0.53396">
        <ele>18.4</ele>
        <time>2020-09-30T13:02:42Z</time>
      </trkpt>
      <trkpt lat="47.42945" lon="-0.53468">
        <ele>18.2</ele>
        <time>2020-09-30T13:02:54Z</time>
      </trkpt>
      <trkpt lat="47.42931" lon="-0.53513">
        <ele>19</ele>
        <time>2020-09-30T13:03:02Z</time>
      </trkpt>
      <trkpt lat="47.4292" lon="-0.53549">
        <ele>19</ele>
        <time>2020-09-30T13:03:08Z</time>
      </trkpt>
      <trkpt lat="47.42916" lon="-0.5356">
        <ele>19</ele>
        <time>2020-09-30T13:03:10Z</time>
      </trkpt>
      <trkpt lat="47.42903" lon="-0.53609">
        <ele>18.6</ele>
        <time>2020-09-30T13:03:18Z</time>
      </trkpt>
      <trkpt lat="47.4289" lon="-0.53654">
        <ele>18.2</ele>
        <time>2020-09-30T13:03:26Z</time>
      </trkpt>
      <trkpt lat="47.42873" lon="-0.53695">
        <ele>18.6</ele>
        <time>2020-09-30T13:03:35Z</time>
      </trkpt>
      <trkpt lat="47.42866" lon="-0.53709">
        <ele>18.6</ele>
        <time>2020-09-30T13:03:38Z</time>
      </trkpt>
      <trkpt lat="47.42863" lon="-0.5372">
        <ele>18.4</ele>
        <time>2020-09-30T13:03:40Z</time>
      </trkpt>
      <trkpt lat="47.4285" lon="-0.53772">
        <ele>18.6</ele>
        <time>2020-09-30T13:03:49Z</time>
      </trkpt>
      <trkpt lat="47.42837" lon="-0.53819">
        <ele>18</ele>
        <time>2020-09-30T13:03:57Z</time>
      </trkpt>
      <trkpt lat="47.42819" lon="-0.53877">
        <ele>17.6</ele>
        <time>2020-09-30T13:04:07Z</time>
      </trkpt>
      <trkpt lat="47.42802" lon="-0.53935">
        <ele>17.6</ele>
        <time>2020-09-30T13:04:17Z</time>
      </trkpt>
      <trkpt lat="47.4279" lon="-0.53976">
        <ele>18.2</ele>
        <time>2020-09-30T13:04:25Z</time>
      </trkpt>
      <trkpt lat="47.42778" lon="-0.54021">
        <ele>18.6</ele>
        <time>2020-09-30T13:04:33Z</time>
      </trkpt>
      <trkpt lat="47.42763" lon="-0.54074">
        <ele>19</ele>
        <time>2020-09-30T13:04:42Z</time>
      </trkpt>
      <trkpt lat="47.42758" lon="-0.54092">
        <ele>19</ele>
        <time>2020-09-30T13:04:45Z</time>
      </trkpt>
      <trkpt lat="47.42752" lon="-0.54115">
        <ele>19.2</ele>
        <time>2020-09-30T13:04:49Z</time>
      </trkpt>
      <trkpt lat="47.42734" lon="-0.54177">
        <ele>19</ele>
        <time>2020-09-30T13:05:00Z</time>
      </trkpt>
      <trkpt lat="47.42721" lon="-0.54223">
        <ele>18.2</ele>
        <time>2020-09-30T13:05:08Z</time>
      </trkpt>
      <trkpt lat="47.42707" lon="-0.54273">
        <ele>18.6</ele>
        <time>2020-09-30T13:05:17Z</time>
      </trkpt>
      <trkpt lat="47.42697" lon="-0.54307">
        <ele>18.2</ele>
        <time>2020-09-30T13:05:23Z</time>
      </trkpt>
      <trkpt lat="47.42694" lon="-0.54318">
        <ele>18.6</ele>
        <time>2020-09-30T13:05:25Z</time>
      </trkpt>
      <trkpt lat="47.42678" lon="-0.54374">
        <ele>19.4</ele>
        <time>2020-09-30T13:05:35Z</time>
      </trkpt>
      <trkpt lat="47.42675" lon="-0.54385">
        <ele>19.6</ele>
        <time>2020-09-30T13:05:37Z</time>
      </trkpt>
      <trkpt lat="47.42665" lon="-0.5442">
        <ele>19.6</ele>
        <time>2020-09-30T13:05:43Z</time>
      </trkpt>
      <trkpt lat="47.42652" lon="-0.54467">
        <ele>19.2</ele>
        <time>2020-09-30T13:05:51Z</time>
      </trkpt>
      <trkpt lat="47.42641" lon="-0.54504">
        <ele>19</ele>
        <time>2020-09-30T13:05:58Z</time>
      </trkpt>
      <trkpt lat="47.42624" lon="-0.5456">
        <ele>18.6</ele>
        <time>2020-09-30T13:06:08Z</time>
      </trkpt>
      <trkpt lat="47.42622" lon="-0.54566">
        <ele>18.4</ele>
        <time>2020-09-30T13:06:09Z</time>
      </trkpt>
      <trkpt lat="47.42611" lon="-0.54607">
        <ele>18.2</ele>
        <time>2020-09-30T13:06:16Z</time>
      </trkpt>
      <trkpt lat="47.42597" lon="-0.54654">
        <ele>17.4</ele>
        <time>2020-09-30T13:06:24Z</time>
      </trkpt>
      <trkpt lat="47.42584" lon="-0.547">
        <ele>18.4</ele>
        <time>2020-09-30T13:06:32Z</time>
      </trkpt>
      <trkpt lat="47.42571" lon="-0.54747">
        <ele>17.6</ele>
        <time>2020-09-30T13:06:40Z</time>
      </trkpt>
      <trkpt lat="47.42561" lon="-0.54783">
        <ele>17.2</ele>
        <time>2020-09-30T13:06:46Z</time>
      </trkpt>
      <trkpt lat="47.42552" lon="-0.54812">
        <ele>16.8</ele>
        <time>2020-09-30T13:06:51Z</time>
      </trkpt>
      <trkpt lat="47.42537" lon="-0.54858">
        <ele>17.6</ele>
        <time>2020-09-30T13:06:59Z</time>
      </trkpt>
      <trkpt lat="47.42519" lon="-0.54891">
        <ele>18.2</ele>
        <time>2020-09-30T13:07:06Z</time>
      </trkpt>
      <trkpt lat="47.42503" lon="-0.54908">
        <ele>18.4</ele>
        <time>2020-09-30T13:07:11Z</time>
      </trkpt>
      <trkpt lat="47.42489" lon="-0.54922">
        <ele>18.6</ele>
        <time>2020-09-30T13:07:15Z</time>
      </trkpt>
      <trkpt lat="47.42458" lon="-0.54954">
        <ele>19.4</ele>
        <time>2020-09-30T13:07:24Z</time>
      </trkpt>
      <trkpt lat="47.42454" lon="-0.54957">
        <ele>19.4</ele>
        <time>2020-09-30T13:07:25Z</time>
      </trkpt>
      <trkpt lat="47.4243" lon="-0.54984">
        <ele>20</ele>
        <time>2020-09-30T13:07:33Z</time>
      </trkpt>
      <trkpt lat="47.42401" lon="-0.55013">
        <ele>19.2</ele>
        <time>2020-09-30T13:07:43Z</time>
      </trkpt>
      <trkpt lat="47.42388" lon="-0.55026">
        <ele>19</ele>
        <time>2020-09-30T13:07:49Z</time>
      </trkpt>
      <trkpt lat="47.42375" lon="-0.55042">
        <ele>19</ele>
        <time>2020-09-30T13:07:55Z</time>
      </trkpt>
      <trkpt lat="47.42364" lon="-0.55063">
        <ele>18.6</ele>
        <time>2020-09-30T13:08:01Z</time>
      </trkpt>
      <trkpt lat="47.42359" lon="-0.55068">
        <ele>18.4</ele>
        <time>2020-09-30T13:08:03Z</time>
      </trkpt>
      <trkpt lat="47.42351" lon="-0.55078">
        <ele>18</ele>
        <time>2020-09-30T13:08:07Z</time>
      </trkpt>
      <trkpt lat="47.42347" lon="-0.55103">
        <ele>17.8</ele>
        <time>2020-09-30T13:08:12Z</time>
      </trkpt>
      <trkpt lat="47.42349" lon="-0.55119">
        <ele>17.4</ele>
        <time>2020-09-30T13:08:15Z</time>
      </trkpt>
      <trkpt lat="47.42351" lon="-0.55134">
        <ele>17.4</ele>
        <time>2020-09-30T13:08:18Z</time>
      </trkpt>
      <trkpt lat="47.42358" lon="-0.55148">
        <ele>18</ele>
        <time>2020-09-30T13:08:23Z</time>
      </trkpt>
      <trkpt lat="47.42359" lon="-0.55148">
        <ele>18.4</ele>
        <time>2020-09-30T13:09:19Z</time>
      </trkpt>
      <trkpt lat="47.42358" lon="-0.55148">
        <ele>18.6</ele>
        <time>2020-09-30T13:09:20Z</time>
      </trkpt>
      <trkpt lat="47.42356" lon="-0.55148">
        <ele>19</ele>
        <time>2020-09-30T13:09:22Z</time>
      </trkpt>
      <trkpt lat="47.42353" lon="-0.55149">
        <ele>19.8</ele>
        <time>2020-09-30T13:09:24Z</time>
      </trkpt>
      <trkpt lat="47.42345" lon="-0.55147">
        <ele>20.4</ele>
        <time>2020-09-30T13:09:29Z</time>
      </trkpt>
      <trkpt lat="47.42341" lon="-0.55147">
        <ele>20.8</ele>
        <time>2020-09-30T13:09:31Z</time>
      </trkpt>
      <trkpt lat="47.42326" lon="-0.55147">
        <ele>21.2</ele>
        <time>2020-09-30T13:09:36Z</time>
      </trkpt>
      <trkpt lat="47.42308" lon="-0.55143">
        <ele>20.8</ele>
        <time>2020-09-30T13:09:41Z</time>
      </trkpt>
      <trkpt lat="47.42286" lon="-0.55135">
        <ele>20.8</ele>
        <time>2020-09-30T13:09:48Z</time>
      </trkpt>
      <trkpt lat="47.42278" lon="-0.55142">
        <ele>20.8</ele>
        <time>2020-09-30T13:09:52Z</time>
      </trkpt>
      <trkpt lat="47.42269" lon="-0.55167">
        <ele>20.2</ele>
        <time>2020-09-30T13:09:57Z</time>
      </trkpt>
      <trkpt lat="47.42256" lon="-0.5519">
        <ele>19.8</ele>
        <time>2020-09-30T13:10:02Z</time>
      </trkpt>
      <trkpt lat="47.42244" lon="-0.55209">
        <ele>19</ele>
        <time>2020-09-30T13:10:06Z</time>
      </trkpt>
      <trkpt lat="47.42234" lon="-0.55228">
        <ele>18.8</ele>
        <time>2020-09-30T13:10:10Z</time>
      </trkpt>
      <trkpt lat="47.42231" lon="-0.55234">
        <ele>18.8</ele>
        <time>2020-09-30T13:10:11Z</time>
      </trkpt>
      <trkpt lat="47.42227" lon="-0.55245">
        <ele>18.8</ele>
        <time>2020-09-30T13:10:13Z</time>
      </trkpt>
      <trkpt lat="47.42214" lon="-0.55294">
        <ele>17.8</ele>
        <time>2020-09-30T13:10:21Z</time>
      </trkpt>
      <trkpt lat="47.42199" lon="-0.55347">
        <ele>17.8</ele>
        <time>2020-09-30T13:10:30Z</time>
      </trkpt>
      <trkpt lat="47.42185" lon="-0.55393">
        <ele>17.8</ele>
        <time>2020-09-30T13:10:38Z</time>
      </trkpt>
      <trkpt lat="47.42172" lon="-0.55432">
        <ele>16.6</ele>
        <time>2020-09-30T13:10:45Z</time>
      </trkpt>
      <trkpt lat="47.42168" lon="-0.55441">
        <ele>16.4</ele>
        <time>2020-09-30T13:10:47Z</time>
      </trkpt>
      <trkpt lat="47.42156" lon="-0.55475">
        <ele>16.4</ele>
        <time>2020-09-30T13:10:54Z</time>
      </trkpt>
      <trkpt lat="47.42145" lon="-0.55505">
        <ele>16.4</ele>
        <time>2020-09-30T13:11:01Z</time>
      </trkpt>
      <trkpt lat="47.42133" lon="-0.55531">
        <ele>17.6</ele>
        <time>2020-09-30T13:11:08Z</time>
      </trkpt>
      <trkpt lat="47.42122" lon="-0.55551">
        <ele>17.2</ele>
        <time>2020-09-30T13:11:13Z</time>
      </trkpt>
      <trkpt lat="47.42105" lon="-0.55584">
        <ele>17.6</ele>
        <time>2020-09-30T13:11:20Z</time>
      </trkpt>
      <trkpt lat="47.42091" lon="-0.55623">
        <ele>17</ele>
        <time>2020-09-30T13:11:27Z</time>
      </trkpt>
      <trkpt lat="47.42081" lon="-0.55644">
        <ele>16.8</ele>
        <time>2020-09-30T13:11:32Z</time>
      </trkpt>
      <trkpt lat="47.4208" lon="-0.55647">
        <ele>16.6</ele>
        <time>2020-09-30T13:11:33Z</time>
      </trkpt>
      <trkpt lat="47.42073" lon="-0.55666">
        <ele>15.6</ele>
        <time>2020-09-30T13:11:38Z</time>
      </trkpt>
      <trkpt lat="47.42072" lon="-0.55669">
        <ele>15.4</ele>
        <time>2020-09-30T13:11:39Z</time>
      </trkpt>
      <trkpt lat="47.42062" lon="-0.55687">
        <ele>15</ele>
        <time>2020-09-30T13:11:44Z</time>
      </trkpt>
      <trkpt lat="47.42058" lon="-0.55691">
        <ele>14.8</ele>
        <time>2020-09-30T13:11:46Z</time>
      </trkpt>
      <trkpt lat="47.42053" lon="-0.55692">
        <ele>14.6</ele>
        <time>2020-09-30T13:11:48Z</time>
      </trkpt>
      <trkpt lat="47.42044" lon="-0.55699">
        <ele>14.4</ele>
        <time>2020-09-30T13:11:51Z</time>
      </trkpt>
      <trkpt lat="47.4204" lon="-0.55702">
        <ele>14.4</ele>
        <time>2020-09-30T13:11:52Z</time>
      </trkpt>
      <trkpt lat="47.42023" lon="-0.55727">
        <ele>14.2</ele>
        <time>2020-09-30T13:11:58Z</time>
      </trkpt>
      <trkpt lat="47.42008" lon="-0.55758">
        <ele>14</ele>
        <time>2020-09-30T13:12:05Z</time>
      </trkpt>
      <trkpt lat="47.41996" lon="-0.55789">
        <ele>13.8</ele>
        <time>2020-09-30T13:12:12Z</time>
      </trkpt>
      <trkpt lat="47.41985" lon="-0.55822">
        <ele>13.8</ele>
        <time>2020-09-30T13:12:19Z</time>
      </trkpt>
      <trkpt lat="47.41982" lon="-0.55848">
        <ele>13.4</ele>
        <time>2020-09-30T13:12:24Z</time>
      </trkpt>
      <trkpt lat="47.4198" lon="-0.55858">
        <ele>13.4</ele>
        <time>2020-09-30T13:12:26Z</time>
      </trkpt>
      <trkpt lat="47.41976" lon="-0.55877">
        <ele>13.2</ele>
        <time>2020-09-30T13:12:56Z</time>
      </trkpt>
      <trkpt lat="47.41974" lon="-0.55885">
        <ele>13</ele>
        <time>2020-09-30T13:12:59Z</time>
      </trkpt>
      <trkpt lat="47.41971" lon="-0.55904">
        <ele>13</ele>
        <time>2020-09-30T13:13:06Z</time>
      </trkpt>
      <trkpt lat="47.41969" lon="-0.55921">
        <ele>12.8</ele>
        <time>2020-09-30T13:13:12Z</time>
      </trkpt>
      <trkpt lat="47.41968" lon="-0.55941">
        <ele>13.2</ele>
        <time>2020-09-30T13:13:19Z</time>
      </trkpt>
      <trkpt lat="47.41968" lon="-0.55955">
        <ele>13.6</ele>
        <time>2020-09-30T13:13:25Z</time>
      </trkpt>
      <trkpt lat="47.41972" lon="-0.55964">
        <ele>13.8</ele>
        <time>2020-09-30T13:13:29Z</time>
      </trkpt>
      <trkpt lat="47.41975" lon="-0.55967">
        <ele>14</ele>
        <time>2020-09-30T13:13:31Z</time>
      </trkpt>
      <trkpt lat="47.41976" lon="-0.55972">
        <ele>14.4</ele>
        <time>2020-09-30T13:13:33Z</time>
      </trkpt>
      <trkpt lat="47.41974" lon="-0.55994">
        <ele>14.8</ele>
        <time>2020-09-30T13:13:38Z</time>
      </trkpt>
      <trkpt lat="47.41972" lon="-0.56023">
        <ele>15.4</ele>
        <time>2020-09-30T13:13:44Z</time>
      </trkpt>
      <trkpt lat="47.4197" lon="-0.56072">
        <ele>15.8</ele>
        <time>2020-09-30T13:13:53Z</time>
      </trkpt>
      <trkpt lat="47.41969" lon="-0.56131">
        <ele>15.4</ele>
        <time>2020-09-30T13:14:03Z</time>
      </trkpt>
      <trkpt lat="47.41969" lon="-0.56137">
        <ele>15.2</ele>
        <time>2020-09-30T13:14:04Z</time>
      </trkpt>
      <trkpt lat="47.41966" lon="-0.56167">
        <ele>14.8</ele>
        <time>2020-09-30T13:14:09Z</time>
      </trkpt>
      <trkpt lat="47.41964" lon="-0.56198">
        <ele>14.8</ele>
        <time>2020-09-30T13:14:14Z</time>
      </trkpt>
      <trkpt lat="47.41964" lon="-0.56217">
        <ele>14.6</ele>
        <time>2020-09-30T13:14:17Z</time>
      </trkpt>
      <trkpt lat="47.4196" lon="-0.56279">
        <ele>15.2</ele>
        <time>2020-09-30T13:14:27Z</time>
      </trkpt>
      <trkpt lat="47.41955" lon="-0.56334">
        <ele>14.4</ele>
        <time>2020-09-30T13:14:36Z</time>
      </trkpt>
      <trkpt lat="47.41954" lon="-0.5634">
        <ele>14.2</ele>
        <time>2020-09-30T13:14:37Z</time>
      </trkpt>
      <trkpt lat="47.4195" lon="-0.56387">
        <ele>13.8</ele>
        <time>2020-09-30T13:14:45Z</time>
      </trkpt>
      <trkpt lat="47.41944" lon="-0.56445">
        <ele>13.6</ele>
        <time>2020-09-30T13:14:55Z</time>
      </trkpt>
      <trkpt lat="47.41937" lon="-0.565">
        <ele>15.2</ele>
        <time>2020-09-30T13:15:04Z</time>
      </trkpt>
      <trkpt lat="47.41936" lon="-0.5652">
        <ele>15.4</ele>
        <time>2020-09-30T13:15:07Z</time>
      </trkpt>
      <trkpt lat="47.41933" lon="-0.56561">
        <ele>15.4</ele>
        <time>2020-09-30T13:15:13Z</time>
      </trkpt>
      <trkpt lat="47.41932" lon="-0.56567">
        <ele>15.6</ele>
        <time>2020-09-30T13:15:14Z</time>
      </trkpt>
      <trkpt lat="47.4193" lon="-0.56603">
        <ele>15.4</ele>
        <time>2020-09-30T13:15:20Z</time>
      </trkpt>
      <trkpt lat="47.41924" lon="-0.56663">
        <ele>15.2</ele>
        <time>2020-09-30T13:15:30Z</time>
      </trkpt>
      <trkpt lat="47.4192" lon="-0.56707">
        <ele>15.2</ele>
        <time>2020-09-30T13:15:37Z</time>
      </trkpt>
      <trkpt lat="47.41914" lon="-0.56756">
        <ele>15.2</ele>
        <time>2020-09-30T13:15:45Z</time>
      </trkpt>
      <trkpt lat="47.41911" lon="-0.56796">
        <ele>15.6</ele>
        <time>2020-09-30T13:15:52Z</time>
      </trkpt>
      <trkpt lat="47.41906" lon="-0.56842">
        <ele>15.2</ele>
        <time>2020-09-30T13:16:00Z</time>
      </trkpt>
      <trkpt lat="47.41904" lon="-0.56872">
        <ele>15.2</ele>
        <time>2020-09-30T13:16:06Z</time>
      </trkpt>
      <trkpt lat="47.41905" lon="-0.56901">
        <ele>15</ele>
        <time>2020-09-30T13:16:12Z</time>
      </trkpt>
      <trkpt lat="47.41915" lon="-0.56909">
        <ele>15.2</ele>
        <time>2020-09-30T13:16:16Z</time>
      </trkpt>
      <trkpt lat="47.4192" lon="-0.56917">
        <ele>15.4</ele>
        <time>2020-09-30T13:16:19Z</time>
      </trkpt>
      <trkpt lat="47.4192" lon="-0.56922">
        <ele>15.2</ele>
        <time>2020-09-30T13:16:20Z</time>
      </trkpt>
      <trkpt lat="47.41919" lon="-0.56963">
        <ele>15.2</ele>
        <time>2020-09-30T13:16:26Z</time>
      </trkpt>
      <trkpt lat="47.41914" lon="-0.57006">
        <ele>15.8</ele>
        <time>2020-09-30T13:16:33Z</time>
      </trkpt>
      <trkpt lat="47.41909" lon="-0.57052">
        <ele>15.8</ele>
        <time>2020-09-30T13:16:41Z</time>
      </trkpt>
      <trkpt lat="47.41906" lon="-0.57096">
        <ele>15</ele>
        <time>2020-09-30T13:16:49Z</time>
      </trkpt>
      <trkpt lat="47.41899" lon="-0.5714">
        <ele>14.8</ele>
        <time>2020-09-30T13:16:56Z</time>
      </trkpt>
      <trkpt lat="47.41896" lon="-0.57163">
        <ele>14.4</ele>
        <time>2020-09-30T13:17:00Z</time>
      </trkpt>
      <trkpt lat="47.41894" lon="-0.5718">
        <ele>14.2</ele>
        <time>2020-09-30T13:17:03Z</time>
      </trkpt>
      <trkpt lat="47.41889" lon="-0.57234">
        <ele>13.6</ele>
        <time>2020-09-30T13:17:12Z</time>
      </trkpt>
      <trkpt lat="47.41885" lon="-0.57258">
        <ele>13.2</ele>
        <time>2020-09-30T13:17:16Z</time>
      </trkpt>
      <trkpt lat="47.41882" lon="-0.57284">
        <ele>13.4</ele>
        <time>2020-09-30T13:17:21Z</time>
      </trkpt>
      <trkpt lat="47.4188" lon="-0.57316">
        <ele>13.2</ele>
        <time>2020-09-30T13:17:28Z</time>
      </trkpt>
      <trkpt lat="47.4188" lon="-0.57344">
        <ele>13.4</ele>
        <time>2020-09-30T13:17:34Z</time>
      </trkpt>
      <trkpt lat="47.41885" lon="-0.57365">
        <ele>13.6</ele>
        <time>2020-09-30T13:17:39Z</time>
      </trkpt>
      <trkpt lat="47.41895" lon="-0.57378">
        <ele>14.2</ele>
        <time>2020-09-30T13:17:44Z</time>
      </trkpt>
      <trkpt lat="47.41895" lon="-0.57381">
        <ele>14.4</ele>
        <time>2020-09-30T13:17:45Z</time>
      </trkpt>
      <trkpt lat="47.41888" lon="-0.57383">
        <ele>15.4</ele>
        <time>2020-09-30T13:17:54Z</time>
      </trkpt>
      <trkpt lat="47.41887" lon="-0.57384">
        <ele>15.6</ele>
        <time>2020-09-30T13:17:55Z</time>
      </trkpt>
      <trkpt lat="47.41875" lon="-0.57394">
        <ele>16.2</ele>
        <time>2020-09-30T13:18:00Z</time>
      </trkpt>
      <trkpt lat="47.41866" lon="-0.57414">
        <ele>16.2</ele>
        <time>2020-09-30T13:18:04Z</time>
      </trkpt>
      <trkpt lat="47.41861" lon="-0.57425">
        <ele>16.2</ele>
        <time>2020-09-30T13:18:06Z</time>
      </trkpt>
      <trkpt lat="47.41855" lon="-0.57438">
        <ele>16.2</ele>
        <time>2020-09-30T13:18:08Z</time>
      </trkpt>
      <trkpt lat="47.4185" lon="-0.57457">
        <ele>16</ele>
        <time>2020-09-30T13:18:11Z</time>
      </trkpt>
      <trkpt lat="47.41847" lon="-0.57471">
        <ele>15.8</ele>
        <time>2020-09-30T13:18:15Z</time>
      </trkpt>
      <trkpt lat="47.41845" lon="-0.5748">
        <ele>15.6</ele>
        <time>2020-09-30T13:18:27Z</time>
      </trkpt>
      <trkpt lat="47.41842" lon="-0.57488">
        <ele>15.6</ele>
        <time>2020-09-30T13:18:30Z</time>
      </trkpt>
      <trkpt lat="47.41837" lon="-0.57507">
        <ele>15.8</ele>
        <time>2020-09-30T13:18:36Z</time>
      </trkpt>
      <trkpt lat="47.41834" lon="-0.57518">
        <ele>14.8</ele>
        <time>2020-09-30T13:18:55Z</time>
      </trkpt>
      <trkpt lat="47.41827" lon="-0.57531">
        <ele>14.6</ele>
        <time>2020-09-30T13:19:00Z</time>
      </trkpt>
      <trkpt lat="47.41825" lon="-0.57535">
        <ele>14.4</ele>
        <time>2020-09-30T13:19:01Z</time>
      </trkpt>
      <trkpt lat="47.41816" lon="-0.57561">
        <ele>14.4</ele>
        <time>2020-09-30T13:19:07Z</time>
      </trkpt>
      <trkpt lat="47.418" lon="-0.57609">
        <ele>14.2</ele>
        <time>2020-09-30T13:19:17Z</time>
      </trkpt>
      <trkpt lat="47.41794" lon="-0.57633">
        <ele>14.6</ele>
        <time>2020-09-30T13:20:36Z</time>
      </trkpt>
      <trkpt lat="47.41794" lon="-0.57636">
        <ele>14.6</ele>
        <time>2020-09-30T13:20:37Z</time>
      </trkpt>
      <trkpt lat="47.41794" lon="-0.5764">
        <ele>14</ele>
        <time>2020-09-30T13:20:39Z</time>
      </trkpt>
      <trkpt lat="47.41794" lon="-0.57642">
        <ele>13.4</ele>
        <time>2020-09-30T13:20:40Z</time>
      </trkpt>
      <trkpt lat="47.41793" lon="-0.57648">
        <ele>11.4</ele>
        <time>2020-09-30T13:20:46Z</time>
      </trkpt>
      <trkpt lat="47.41793" lon="-0.57651">
        <ele>10.8</ele>
        <time>2020-09-30T13:20:47Z</time>
      </trkpt>
      <trkpt lat="47.41792" lon="-0.57657">
        <ele>10</ele>
        <time>2020-09-30T13:20:49Z</time>
      </trkpt>
      <trkpt lat="47.41791" lon="-0.57667">
        <ele>8.8</ele>
        <time>2020-09-30T13:20:52Z</time>
      </trkpt>
      <trkpt lat="47.41791" lon="-0.5767">
        <ele>8.4</ele>
        <time>2020-09-30T13:20:53Z</time>
      </trkpt>
      <trkpt lat="47.4179" lon="-0.57677">
        <ele>7.6</ele>
        <time>2020-09-30T13:20:55Z</time>
      </trkpt>
      <trkpt lat="47.41788" lon="-0.57688">
        <ele>6.6</ele>
        <time>2020-09-30T13:20:58Z</time>
      </trkpt>
      <trkpt lat="47.41786" lon="-0.57701">
        <ele>6.2</ele>
        <time>2020-09-30T13:21:01Z</time>
      </trkpt>
      <trkpt lat="47.4178" lon="-0.57725">
        <ele>7.2</ele>
        <time>2020-09-30T13:21:20Z</time>
      </trkpt>
      <trkpt lat="47.41778" lon="-0.57731">
        <ele>7.8</ele>
        <time>2020-09-30T13:21:22Z</time>
      </trkpt>
      <trkpt lat="47.41776" lon="-0.57738">
        <ele>8.2</ele>
        <time>2020-09-30T13:21:24Z</time>
      </trkpt>
      <trkpt lat="47.41773" lon="-0.57755">
        <ele>9.6</ele>
        <time>2020-09-30T13:21:28Z</time>
      </trkpt>
      <trkpt lat="47.41771" lon="-0.57759">
        <ele>9.6</ele>
        <time>2020-09-30T13:21:29Z</time>
      </trkpt>
      <trkpt lat="47.41765" lon="-0.57789">
        <ele>10.6</ele>
        <time>2020-09-30T13:21:35Z</time>
      </trkpt>
      <trkpt lat="47.41758" lon="-0.57832">
        <ele>11.8</ele>
        <time>2020-09-30T13:21:43Z</time>
      </trkpt>
      <trkpt lat="47.41758" lon="-0.57837">
        <ele>11.8</ele>
        <time>2020-09-30T13:21:44Z</time>
      </trkpt>
      <trkpt lat="47.41757" lon="-0.57855">
        <ele>11.6</ele>
        <time>2020-09-30T13:21:48Z</time>
      </trkpt>
      <trkpt lat="47.41752" lon="-0.57885">
        <ele>12.2</ele>
        <time>2020-09-30T13:21:54Z</time>
      </trkpt>
      <trkpt lat="47.41749" lon="-0.57917">
        <ele>12.8</ele>
        <time>2020-09-30T13:22:00Z</time>
      </trkpt>
      <trkpt lat="47.41748" lon="-0.57928">
        <ele>13.2</ele>
        <time>2020-09-30T13:22:02Z</time>
      </trkpt>
      <trkpt lat="47.41743" lon="-0.5797">
        <ele>13.2</ele>
        <time>2020-09-30T13:22:10Z</time>
      </trkpt>
      <trkpt lat="47.41739" lon="-0.58013">
        <ele>13.8</ele>
        <time>2020-09-30T13:22:18Z</time>
      </trkpt>
      <trkpt lat="47.41738" lon="-0.58018">
        <ele>13.8</ele>
        <time>2020-09-30T13:22:19Z</time>
      </trkpt>
      <trkpt lat="47.41733" lon="-0.58061">
        <ele>13.8</ele>
        <time>2020-09-30T13:22:27Z</time>
      </trkpt>
      <trkpt lat="47.41729" lon="-0.58093">
        <ele>14</ele>
        <time>2020-09-30T13:22:35Z</time>
      </trkpt>
      <trkpt lat="47.41733" lon="-0.58089">
        <ele>15.6</ele>
        <time>2020-09-30T13:23:22Z</time>
      </trkpt>
      <trkpt lat="47.41734" lon="-0.58075">
        <ele>15.2</ele>
        <time>2020-09-30T13:23:27Z</time>
      </trkpt>
      <trkpt lat="47.41735" lon="-0.5807">
        <ele>15.4</ele>
        <time>2020-09-30T13:23:29Z</time>
      </trkpt>
      <trkpt lat="47.41734" lon="-0.5808">
        <ele>15.8</ele>
        <time>2020-09-30T13:29:34Z</time>
      </trkpt>
      <trkpt lat="47.41732" lon="-0.58093">
        <ele>17</ele>
        <time>2020-09-30T13:29:43Z</time>
      </trkpt>
      <trkpt lat="47.4173" lon="-0.58101">
        <ele>16.4</ele>
        <time>2020-09-30T13:30:41Z</time>
      </trkpt>
      <trkpt lat="47.41731" lon="-0.5811">
        <ele>16.2</ele>
        <time>2020-09-30T13:30:44Z</time>
      </trkpt>
      <trkpt lat="47.41731" lon="-0.58116">
        <ele>16</ele>
        <time>2020-09-30T13:30:46Z</time>
      </trkpt>
      <trkpt lat="47.4173" lon="-0.58132">
        <ele>15.8</ele>
        <time>2020-09-30T13:30:51Z</time>
      </trkpt>
      <trkpt lat="47.41731" lon="-0.58157">
        <ele>16.4</ele>
        <time>2020-09-30T13:30:57Z</time>
      </trkpt>
      <trkpt lat="47.41734" lon="-0.58198">
        <ele>15.8</ele>
        <time>2020-09-30T13:31:05Z</time>
      </trkpt>
      <trkpt lat="47.41742" lon="-0.58232">
        <ele>15.8</ele>
        <time>2020-09-30T13:31:11Z</time>
      </trkpt>
      <trkpt lat="47.41754" lon="-0.58283">
        <ele>15.6</ele>
        <time>2020-09-30T13:31:20Z</time>
      </trkpt>
      <trkpt lat="47.41754" lon="-0.58299">
        <ele>16</ele>
        <time>2020-09-30T13:31:25Z</time>
      </trkpt>
      <trkpt lat="47.41752" lon="-0.58299">
        <ele>16.2</ele>
        <time>2020-09-30T13:31:26Z</time>
      </trkpt>
      <trkpt lat="47.41746" lon="-0.58302">
        <ele>16</ele>
        <time>2020-09-30T13:31:29Z</time>
      </trkpt>
      <trkpt lat="47.41737" lon="-0.58309">
        <ele>16.4</ele>
        <time>2020-09-30T13:31:33Z</time>
      </trkpt>
      <trkpt lat="47.41737" lon="-0.58313">
        <ele>16.4</ele>
        <time>2020-09-30T13:31:34Z</time>
      </trkpt>
      <trkpt lat="47.41736" lon="-0.58329">
        <ele>16.2</ele>
        <time>2020-09-30T13:31:37Z</time>
      </trkpt>
      <trkpt lat="47.41737" lon="-0.58336">
        <ele>16.2</ele>
        <time>2020-09-30T13:31:38Z</time>
      </trkpt>
      <trkpt lat="47.41739" lon="-0.5837">
        <ele>16.6</ele>
        <time>2020-09-30T13:31:44Z</time>
      </trkpt>
      <trkpt lat="47.41744" lon="-0.58396">
        <ele>16.6</ele>
        <time>2020-09-30T13:31:49Z</time>
      </trkpt>
      <trkpt lat="47.41745" lon="-0.58425">
        <ele>16.2</ele>
        <time>2020-09-30T13:31:54Z</time>
      </trkpt>
      <trkpt lat="47.41745" lon="-0.58431">
        <ele>16.2</ele>
        <time>2020-09-30T13:31:55Z</time>
      </trkpt>
      <trkpt lat="47.41742" lon="-0.58473">
        <ele>16.2</ele>
        <time>2020-09-30T13:32:02Z</time>
      </trkpt>
      <trkpt lat="47.41738" lon="-0.58519">
        <ele>16.6</ele>
        <time>2020-09-30T13:32:10Z</time>
      </trkpt>
      <trkpt lat="47.41735" lon="-0.5856">
        <ele>16.8</ele>
        <time>2020-09-30T13:32:17Z</time>
      </trkpt>
      <trkpt lat="47.41735" lon="-0.58572">
        <ele>17</ele>
        <time>2020-09-30T13:32:19Z</time>
      </trkpt>
      <trkpt lat="47.41733" lon="-0.58596">
        <ele>17.6</ele>
        <time>2020-09-30T13:32:23Z</time>
      </trkpt>
      <trkpt lat="47.41728" lon="-0.5862">
        <ele>18</ele>
        <time>2020-09-30T13:32:27Z</time>
      </trkpt>
      <trkpt lat="47.41727" lon="-0.58626">
        <ele>18</ele>
        <time>2020-09-30T13:32:28Z</time>
      </trkpt>
      <trkpt lat="47.41726" lon="-0.58632">
        <ele>18.2</ele>
        <time>2020-09-30T13:32:29Z</time>
      </trkpt>
      <trkpt lat="47.41725" lon="-0.58644">
        <ele>18.2</ele>
        <time>2020-09-30T13:32:31Z</time>
      </trkpt>
      <trkpt lat="47.41724" lon="-0.58662">
        <ele>18.4</ele>
        <time>2020-09-30T13:32:34Z</time>
      </trkpt>
      <trkpt lat="47.41717" lon="-0.58686">
        <ele>18.6</ele>
        <time>2020-09-30T13:32:39Z</time>
      </trkpt>
      <trkpt lat="47.41709" lon="-0.58712">
        <ele>17.8</ele>
        <time>2020-09-30T13:32:44Z</time>
      </trkpt>
      <trkpt lat="47.41708" lon="-0.58724">
        <ele>17.8</ele>
        <time>2020-09-30T13:32:46Z</time>
      </trkpt>
      <trkpt lat="47.41709" lon="-0.58759">
        <ele>18.2</ele>
        <time>2020-09-30T13:32:52Z</time>
      </trkpt>
      <trkpt lat="47.41708" lon="-0.58798">
        <ele>18.8</ele>
        <time>2020-09-30T13:32:58Z</time>
      </trkpt>
      <trkpt lat="47.41706" lon="-0.58843">
        <ele>18.4</ele>
        <time>2020-09-30T13:33:05Z</time>
      </trkpt>
      <trkpt lat="47.41703" lon="-0.58876">
        <ele>16.8</ele>
        <time>2020-09-30T13:33:10Z</time>
      </trkpt>
      <trkpt lat="47.41702" lon="-0.58882">
        <ele>16.8</ele>
        <time>2020-09-30T13:33:11Z</time>
      </trkpt>
      <trkpt lat="47.41701" lon="-0.58919">
        <ele>16.6</ele>
        <time>2020-09-30T13:33:17Z</time>
      </trkpt>
      <trkpt lat="47.41699" lon="-0.58954">
        <ele>16.4</ele>
        <time>2020-09-30T13:33:23Z</time>
      </trkpt>
      <trkpt lat="47.41698" lon="-0.58975">
        <ele>15.8</ele>
        <time>2020-09-30T13:33:27Z</time>
      </trkpt>
      <trkpt lat="47.417" lon="-0.58986">
        <ele>15.6</ele>
        <time>2020-09-30T13:33:29Z</time>
      </trkpt>
      <trkpt lat="47.41702" lon="-0.59006">
        <ele>15.2</ele>
        <time>2020-09-30T13:33:32Z</time>
      </trkpt>
      <trkpt lat="47.417" lon="-0.59017">
        <ele>15.2</ele>
        <time>2020-09-30T13:33:34Z</time>
      </trkpt>
      <trkpt lat="47.41695" lon="-0.59048">
        <ele>15.6</ele>
        <time>2020-09-30T13:33:40Z</time>
      </trkpt>
      <trkpt lat="47.41695" lon="-0.59073">
        <ele>15.4</ele>
        <time>2020-09-30T13:33:45Z</time>
      </trkpt>
      <trkpt lat="47.41692" lon="-0.59103">
        <ele>14.6</ele>
        <time>2020-09-30T13:33:51Z</time>
      </trkpt>
      <trkpt lat="47.41691" lon="-0.59143">
        <ele>13.8</ele>
        <time>2020-09-30T13:33:58Z</time>
      </trkpt>
      <trkpt lat="47.41687" lon="-0.59189">
        <ele>13.8</ele>
        <time>2020-09-30T13:34:05Z</time>
      </trkpt>
      <trkpt lat="47.41684" lon="-0.59232">
        <ele>15.6</ele>
        <time>2020-09-30T13:34:12Z</time>
      </trkpt>
      <trkpt lat="47.41683" lon="-0.59237">
        <ele>16</ele>
        <time>2020-09-30T13:34:13Z</time>
      </trkpt>
      <trkpt lat="47.41682" lon="-0.59252">
        <ele>17</ele>
        <time>2020-09-30T13:34:16Z</time>
      </trkpt>
      <trkpt lat="47.4168" lon="-0.59274">
        <ele>17.4</ele>
        <time>2020-09-30T13:34:20Z</time>
      </trkpt>
      <trkpt lat="47.41676" lon="-0.59304">
        <ele>18.4</ele>
        <time>2020-09-30T13:34:25Z</time>
      </trkpt>
      <trkpt lat="47.41675" lon="-0.59315">
        <ele>18.6</ele>
        <time>2020-09-30T13:34:27Z</time>
      </trkpt>
      <trkpt lat="47.41674" lon="-0.59322">
        <ele>18.4</ele>
        <time>2020-09-30T13:34:28Z</time>
      </trkpt>
      <trkpt lat="47.41673" lon="-0.59345">
        <ele>17.8</ele>
        <time>2020-09-30T13:34:31Z</time>
      </trkpt>
      <trkpt lat="47.4167" lon="-0.59374">
        <ele>17.8</ele>
        <time>2020-09-30T13:34:36Z</time>
      </trkpt>
      <trkpt lat="47.41665" lon="-0.59379">
        <ele>17.8</ele>
        <time>2020-09-30T13:34:39Z</time>
      </trkpt>
      <trkpt lat="47.41662" lon="-0.59387">
        <ele>17.2</ele>
        <time>2020-09-30T13:34:42Z</time>
      </trkpt>
      <trkpt lat="47.4166" lon="-0.59394">
        <ele>17</ele>
        <time>2020-09-30T13:34:44Z</time>
      </trkpt>
      <trkpt lat="47.41659" lon="-0.59406">
        <ele>17</ele>
        <time>2020-09-30T13:34:58Z</time>
      </trkpt>
      <trkpt lat="47.41656" lon="-0.59425">
        <ele>17.2</ele>
        <time>2020-09-30T13:35:04Z</time>
      </trkpt>
      <trkpt lat="47.41654" lon="-0.59433">
        <ele>16.8</ele>
        <time>2020-09-30T13:35:29Z</time>
      </trkpt>
      <trkpt lat="47.41654" lon="-0.59443">
        <ele>16.8</ele>
        <time>2020-09-30T13:35:31Z</time>
      </trkpt>
      <trkpt lat="47.41655" lon="-0.59473">
        <ele>16.6</ele>
        <time>2020-09-30T13:35:38Z</time>
      </trkpt>
      <trkpt lat="47.41653" lon="-0.59502">
        <ele>18.2</ele>
        <time>2020-09-30T13:35:45Z</time>
      </trkpt>
      <trkpt lat="47.41654" lon="-0.59536">
        <ele>19.2</ele>
        <time>2020-09-30T13:35:52Z</time>
      </trkpt>
      <trkpt lat="47.41654" lon="-0.59541">
        <ele>19.4</ele>
        <time>2020-09-30T13:35:53Z</time>
      </trkpt>
      <trkpt lat="47.41651" lon="-0.59586">
        <ele>19</ele>
        <time>2020-09-30T13:36:01Z</time>
      </trkpt>
      <trkpt lat="47.41651" lon="-0.59615">
        <ele>18.2</ele>
        <time>2020-09-30T13:36:06Z</time>
      </trkpt>
      <trkpt lat="47.41649" lon="-0.59635">
        <ele>17.2</ele>
        <time>2020-09-30T13:36:09Z</time>
      </trkpt>
      <trkpt lat="47.41645" lon="-0.59649">
        <ele>16.8</ele>
        <time>2020-09-30T13:36:11Z</time>
      </trkpt>
      <trkpt lat="47.41646" lon="-0.59666">
        <ele>16</ele>
        <time>2020-09-30T13:36:14Z</time>
      </trkpt>
      <trkpt lat="47.41649" lon="-0.5967">
        <ele>16.2</ele>
        <time>2020-09-30T13:36:16Z</time>
      </trkpt>
      <trkpt lat="47.41655" lon="-0.59672">
        <ele>16.4</ele>
        <time>2020-09-30T13:36:18Z</time>
      </trkpt>
      <trkpt lat="47.41668" lon="-0.59664">
        <ele>16.2</ele>
        <time>2020-09-30T13:36:22Z</time>
      </trkpt>
      <trkpt lat="47.41679" lon="-0.59662">
        <ele>16</ele>
        <time>2020-09-30T13:36:25Z</time>
      </trkpt>
      <trkpt lat="47.41683" lon="-0.59661">
        <ele>16.4</ele>
        <time>2020-09-30T13:36:27Z</time>
      </trkpt>
      <trkpt lat="47.41684" lon="-0.59663">
        <ele>16.6</ele>
        <time>2020-09-30T13:36:28Z</time>
      </trkpt>
      <trkpt lat="47.41681" lon="-0.59668">
        <ele>17.4</ele>
        <time>2020-09-30T13:36:31Z</time>
      </trkpt>
      <trkpt lat="47.41675" lon="-0.5967">
        <ele>18</ele>
        <time>2020-09-30T13:36:33Z</time>
      </trkpt>
      <trkpt lat="47.41664" lon="-0.5968">
        <ele>18.6</ele>
        <time>2020-09-30T13:36:36Z</time>
      </trkpt>
      <trkpt lat="47.41653" lon="-0.59702">
        <ele>18.6</ele>
        <time>2020-09-30T13:36:41Z</time>
      </trkpt>
      <trkpt lat="47.4165" lon="-0.59729">
        <ele>17.6</ele>
        <time>2020-09-30T13:36:46Z</time>
      </trkpt>
      <trkpt lat="47.41651" lon="-0.59763">
        <ele>17.4</ele>
        <time>2020-09-30T13:36:52Z</time>
      </trkpt>
      <trkpt lat="47.41654" lon="-0.59811">
        <ele>17.4</ele>
        <time>2020-09-30T13:37:01Z</time>
      </trkpt>
      <trkpt lat="47.41657" lon="-0.59839">
        <ele>17.4</ele>
        <time>2020-09-30T13:37:07Z</time>
      </trkpt>
      <trkpt lat="47.41657" lon="-0.59858">
        <ele>17.2</ele>
        <time>2020-09-30T13:37:12Z</time>
      </trkpt>
      <trkpt lat="47.41658" lon="-0.59862">
        <ele>17</ele>
        <time>2020-09-30T13:37:13Z</time>
      </trkpt>
      <trkpt lat="47.4166" lon="-0.59888">
        <ele>17</ele>
        <time>2020-09-30T13:37:19Z</time>
      </trkpt>
      <trkpt lat="47.41663" lon="-0.59921">
        <ele>17</ele>
        <time>2020-09-30T13:37:27Z</time>
      </trkpt>
      <trkpt lat="47.41666" lon="-0.59955">
        <ele>16.6</ele>
        <time>2020-09-30T13:37:35Z</time>
      </trkpt>
      <trkpt lat="47.41667" lon="-0.6">
        <ele>16.2</ele>
        <time>2020-09-30T13:37:45Z</time>
      </trkpt>
      <trkpt lat="47.41663" lon="-0.60031">
        <ele>16.4</ele>
        <time>2020-09-30T13:37:52Z</time>
      </trkpt>
      <trkpt lat="47.41652" lon="-0.60059">
        <ele>16.4</ele>
        <time>2020-09-30T13:37:58Z</time>
      </trkpt>
      <trkpt lat="47.4164" lon="-0.60085">
        <ele>17.2</ele>
        <time>2020-09-30T13:38:05Z</time>
      </trkpt>
      <trkpt lat="47.41636" lon="-0.60107">
        <ele>18</ele>
        <time>2020-09-30T13:38:10Z</time>
      </trkpt>
      <trkpt lat="47.41634" lon="-0.60117">
        <ele>18.4</ele>
        <time>2020-09-30T13:38:12Z</time>
      </trkpt>
      <trkpt lat="47.41631" lon="-0.60135">
        <ele>19.2</ele>
        <time>2020-09-30T13:38:16Z</time>
      </trkpt>
      <trkpt lat="47.4163" lon="-0.60151">
        <ele>20</ele>
        <time>2020-09-30T13:38:19Z</time>
      </trkpt>
      <trkpt lat="47.41631" lon="-0.60165">
        <ele>20.2</ele>
        <time>2020-09-30T13:38:22Z</time>
      </trkpt>
      <trkpt lat="47.4163" lon="-0.60185">
        <ele>20.2</ele>
        <time>2020-09-30T13:38:26Z</time>
      </trkpt>
      <trkpt lat="47.41632" lon="-0.60219">
        <ele>19.6</ele>
        <time>2020-09-30T13:38:33Z</time>
      </trkpt>
      <trkpt lat="47.41631" lon="-0.60231">
        <ele>19.2</ele>
        <time>2020-09-30T13:38:37Z</time>
      </trkpt>
      <trkpt lat="47.41632" lon="-0.6024">
        <ele>19</ele>
        <time>2020-09-30T13:38:39Z</time>
      </trkpt>
      <trkpt lat="47.41633" lon="-0.60277">
        <ele>18.4</ele>
        <time>2020-09-30T13:38:46Z</time>
      </trkpt>
      <trkpt lat="47.41631" lon="-0.60325">
        <ele>18.6</ele>
        <time>2020-09-30T13:38:54Z</time>
      </trkpt>
      <trkpt lat="47.4163" lon="-0.60345">
        <ele>18.2</ele>
        <time>2020-09-30T13:38:57Z</time>
      </trkpt>
      <trkpt lat="47.41629" lon="-0.60369">
        <ele>17.2</ele>
        <time>2020-09-30T13:39:01Z</time>
      </trkpt>
      <trkpt lat="47.41629" lon="-0.60374">
        <ele>17</ele>
        <time>2020-09-30T13:39:02Z</time>
      </trkpt>
      <trkpt lat="47.41626" lon="-0.60409">
        <ele>17</ele>
        <time>2020-09-30T13:39:08Z</time>
      </trkpt>
      <trkpt lat="47.41617" lon="-0.60435">
        <ele>16.4</ele>
        <time>2020-09-30T13:39:14Z</time>
      </trkpt>
      <trkpt lat="47.41607" lon="-0.60439">
        <ele>17</ele>
        <time>2020-09-30T13:39:18Z</time>
      </trkpt>
      <trkpt lat="47.41591" lon="-0.60438">
        <ele>16</ele>
        <time>2020-09-30T13:39:24Z</time>
      </trkpt>
      <trkpt lat="47.41586" lon="-0.60437">
        <ele>15.6</ele>
        <time>2020-09-30T13:39:26Z</time>
      </trkpt>
      <trkpt lat="47.41582" lon="-0.60436">
        <ele>15</ele>
        <time>2020-09-30T13:39:29Z</time>
      </trkpt>
      <trkpt lat="47.41577" lon="-0.60447">
        <ele>16.6</ele>
        <time>2020-09-30T13:39:53Z</time>
      </trkpt>
      <trkpt lat="47.41579" lon="-0.60456">
        <ele>18.2</ele>
        <time>2020-09-30T13:39:55Z</time>
      </trkpt>
      <trkpt lat="47.41578" lon="-0.60468">
        <ele>19</ele>
        <time>2020-09-30T13:39:57Z</time>
      </trkpt>
      <trkpt lat="47.41577" lon="-0.60479">
        <ele>19.4</ele>
        <time>2020-09-30T13:39:59Z</time>
      </trkpt>
      <trkpt lat="47.41577" lon="-0.60493">
        <ele>20.2</ele>
        <time>2020-09-30T13:40:02Z</time>
      </trkpt>
      <trkpt lat="47.41577" lon="-0.60498">
        <ele>20.6</ele>
        <time>2020-09-30T13:40:03Z</time>
      </trkpt>
      <trkpt lat="47.41576" lon="-0.60512">
        <ele>21.8</ele>
        <time>2020-09-30T13:40:07Z</time>
      </trkpt>
      <trkpt lat="47.41575" lon="-0.60516">
        <ele>22.2</ele>
        <time>2020-09-30T13:40:08Z</time>
      </trkpt>
      <trkpt lat="47.41571" lon="-0.6054">
        <ele>22.8</ele>
        <time>2020-09-30T13:40:14Z</time>
      </trkpt>
      <trkpt lat="47.4157" lon="-0.60551">
        <ele>23</ele>
        <time>2020-09-30T13:40:16Z</time>
      </trkpt>
      <trkpt lat="47.41568" lon="-0.60571">
        <ele>24</ele>
        <time>2020-09-30T13:40:20Z</time>
      </trkpt>
      <trkpt lat="47.41568" lon="-0.60575">
        <ele>24.2</ele>
        <time>2020-09-30T13:40:21Z</time>
      </trkpt>
      <trkpt lat="47.41572" lon="-0.60593">
        <ele>24.4</ele>
        <time>2020-09-30T13:40:26Z</time>
      </trkpt>
      <trkpt lat="47.41569" lon="-0.60613">
        <ele>24.8</ele>
        <time>2020-09-30T13:40:31Z</time>
      </trkpt>
      <trkpt lat="47.41567" lon="-0.60621">
        <ele>25.2</ele>
        <time>2020-09-30T13:40:33Z</time>
      </trkpt>
      <trkpt lat="47.41568" lon="-0.60632">
        <ele>25.2</ele>
        <time>2020-09-30T13:40:35Z</time>
      </trkpt>
      <trkpt lat="47.41568" lon="-0.60635">
        <ele>25.2</ele>
        <time>2020-09-30T13:40:36Z</time>
      </trkpt>
      <trkpt lat="47.41565" lon="-0.60652">
        <ele>24.8</ele>
        <time>2020-09-30T13:40:41Z</time>
      </trkpt>
      <trkpt lat="47.41552" lon="-0.6068">
        <ele>25.6</ele>
        <time>2020-09-30T13:40:48Z</time>
      </trkpt>
      <trkpt lat="47.41543" lon="-0.60707">
        <ele>25.8</ele>
        <time>2020-09-30T13:40:54Z</time>
      </trkpt>
      <trkpt lat="47.41536" lon="-0.60729">
        <ele>26.2</ele>
        <time>2020-09-30T13:40:59Z</time>
      </trkpt>
      <trkpt lat="47.41534" lon="-0.60733">
        <ele>26.2</ele>
        <time>2020-09-30T13:41:00Z</time>
      </trkpt>
      <trkpt lat="47.4153" lon="-0.60739">
        <ele>25.6</ele>
        <time>2020-09-30T13:41:04Z</time>
      </trkpt>
      <trkpt lat="47.41528" lon="-0.6074">
        <ele>25.2</ele>
        <time>2020-09-30T13:41:05Z</time>
      </trkpt>
      <trkpt lat="47.41519" lon="-0.60753">
        <ele>24.6</ele>
        <time>2020-09-30T13:41:09Z</time>
      </trkpt>
      <trkpt lat="47.41517" lon="-0.60757">
        <ele>24.2</ele>
        <time>2020-09-30T13:41:10Z</time>
      </trkpt>
      <trkpt lat="47.41512" lon="-0.60772">
        <ele>22.8</ele>
        <time>2020-09-30T13:41:13Z</time>
      </trkpt>
      <trkpt lat="47.41507" lon="-0.60786">
        <ele>21.8</ele>
        <time>2020-09-30T13:41:16Z</time>
      </trkpt>
      <trkpt lat="47.41504" lon="-0.60789">
        <ele>21.4</ele>
        <time>2020-09-30T13:41:17Z</time>
      </trkpt>
      <trkpt lat="47.41497" lon="-0.60807">
        <ele>21</ele>
        <time>2020-09-30T13:41:21Z</time>
      </trkpt>
      <trkpt lat="47.41491" lon="-0.60826">
        <ele>20.4</ele>
        <time>2020-09-30T13:41:25Z</time>
      </trkpt>
      <trkpt lat="47.41486" lon="-0.60833">
        <ele>19.8</ele>
        <time>2020-09-30T13:41:27Z</time>
      </trkpt>
      <trkpt lat="47.41475" lon="-0.60856">
        <ele>19.2</ele>
        <time>2020-09-30T13:41:33Z</time>
      </trkpt>
      <trkpt lat="47.41465" lon="-0.60878">
        <ele>18.2</ele>
        <time>2020-09-30T13:41:38Z</time>
      </trkpt>
      <trkpt lat="47.41461" lon="-0.60884">
        <ele>18.2</ele>
        <time>2020-09-30T13:41:40Z</time>
      </trkpt>
      <trkpt lat="47.41452" lon="-0.60897">
        <ele>17.4</ele>
        <time>2020-09-30T13:41:44Z</time>
      </trkpt>
      <trkpt lat="47.41441" lon="-0.60916">
        <ele>15.8</ele>
        <time>2020-09-30T13:42:48Z</time>
      </trkpt>
      <trkpt lat="47.41439" lon="-0.60925">
        <ele>15.6</ele>
        <time>2020-09-30T13:42:51Z</time>
      </trkpt>
      <trkpt lat="47.41438" lon="-0.60939">
        <ele>16</ele>
        <time>2020-09-30T13:42:57Z</time>
      </trkpt>
      <trkpt lat="47.41434" lon="-0.60945">
        <ele>16.6</ele>
        <time>2020-09-30T13:43:00Z</time>
      </trkpt>
      <trkpt lat="47.41434" lon="-0.60946">
        <ele>17</ele>
        <time>2020-09-30T13:43:01Z</time>
      </trkpt>
      <trkpt lat="47.41427" lon="-0.60956">
        <ele>18.4</ele>
        <time>2020-09-30T13:43:09Z</time>
      </trkpt>
      <trkpt lat="47.41415" lon="-0.60973">
        <ele>18.6</ele>
        <time>2020-09-30T13:43:14Z</time>
      </trkpt>
      <trkpt lat="47.41403" lon="-0.60999">
        <ele>18</ele>
        <time>2020-09-30T13:43:22Z</time>
      </trkpt>
      <trkpt lat="47.41396" lon="-0.61022">
        <ele>17.2</ele>
        <time>2020-09-30T13:43:27Z</time>
      </trkpt>
      <trkpt lat="47.41381" lon="-0.61054">
        <ele>16.4</ele>
        <time>2020-09-30T13:43:34Z</time>
      </trkpt>
      <trkpt lat="47.41375" lon="-0.61068">
        <ele>16.2</ele>
        <time>2020-09-30T13:43:37Z</time>
      </trkpt>
      <trkpt lat="47.41362" lon="-0.61093">
        <ele>15</ele>
        <time>2020-09-30T13:43:42Z</time>
      </trkpt>
      <trkpt lat="47.41346" lon="-0.61127">
        <ele>14</ele>
        <time>2020-09-30T13:43:49Z</time>
      </trkpt>
      <trkpt lat="47.41343" lon="-0.61133">
        <ele>14</ele>
        <time>2020-09-30T13:43:50Z</time>
      </trkpt>
      <trkpt lat="47.41325" lon="-0.61167">
        <ele>14.6</ele>
        <time>2020-09-30T13:43:57Z</time>
      </trkpt>
      <trkpt lat="47.4132" lon="-0.61177">
        <ele>15.4</ele>
        <time>2020-09-30T13:43:59Z</time>
      </trkpt>
      <trkpt lat="47.41301" lon="-0.61209">
        <ele>16.2</ele>
        <time>2020-09-30T13:44:06Z</time>
      </trkpt>
      <trkpt lat="47.41295" lon="-0.61217">
        <ele>16.4</ele>
        <time>2020-09-30T13:44:08Z</time>
      </trkpt>
      <trkpt lat="47.41282" lon="-0.61238">
        <ele>17.6</ele>
        <time>2020-09-30T13:44:13Z</time>
      </trkpt>
      <trkpt lat="47.4128" lon="-0.61243">
        <ele>17.6</ele>
        <time>2020-09-30T13:44:14Z</time>
      </trkpt>
      <trkpt lat="47.41266" lon="-0.61266">
        <ele>18.6</ele>
        <time>2020-09-30T13:44:20Z</time>
      </trkpt>
      <trkpt lat="47.41265" lon="-0.61269">
        <ele>18.6</ele>
        <time>2020-09-30T13:44:21Z</time>
      </trkpt>
      <trkpt lat="47.41255" lon="-0.61285">
        <ele>19.6</ele>
        <time>2020-09-30T13:44:27Z</time>
      </trkpt>
      <trkpt lat="47.41251" lon="-0.61291">
        <ele>20</ele>
        <time>2020-09-30T13:44:29Z</time>
      </trkpt>
      <trkpt lat="47.41237" lon="-0.61311">
        <ele>19.8</ele>
        <time>2020-09-30T13:44:35Z</time>
      </trkpt>
      <trkpt lat="47.41224" lon="-0.61329">
        <ele>18.6</ele>
        <time>2020-09-30T13:44:41Z</time>
      </trkpt>
      <trkpt lat="47.41218" lon="-0.61337">
        <ele>18</ele>
        <time>2020-09-30T13:44:44Z</time>
      </trkpt>
      <trkpt lat="47.4121" lon="-0.61349">
        <ele>18.8</ele>
        <time>2020-09-30T13:44:50Z</time>
      </trkpt>
      <trkpt lat="47.41197" lon="-0.6136">
        <ele>17.8</ele>
        <time>2020-09-30T13:44:55Z</time>
      </trkpt>
      <trkpt lat="47.41195" lon="-0.61362">
        <ele>17.6</ele>
        <time>2020-09-30T13:44:56Z</time>
      </trkpt>
      <trkpt lat="47.41189" lon="-0.61368">
        <ele>17</ele>
        <time>2020-09-30T13:45:01Z</time>
      </trkpt>
      <trkpt lat="47.41192" lon="-0.61364">
        <ele>17</ele>
        <time>2020-09-30T13:48:15Z</time>
      </trkpt>
      <trkpt lat="47.41195" lon="-0.61361">
        <ele>17</ele>
        <time>2020-09-30T13:48:17Z</time>
      </trkpt>
      <trkpt lat="47.41205" lon="-0.61358">
        <ele>16.6</ele>
        <time>2020-09-30T13:48:21Z</time>
      </trkpt>
      <trkpt lat="47.41209" lon="-0.61357">
        <ele>16.6</ele>
        <time>2020-09-30T13:48:22Z</time>
      </trkpt>
      <trkpt lat="47.41229" lon="-0.61347">
        <ele>16.6</ele>
        <time>2020-09-30T13:48:28Z</time>
      </trkpt>
      <trkpt lat="47.41236" lon="-0.61343">
        <ele>16.4</ele>
        <time>2020-09-30T13:48:30Z</time>
      </trkpt>
      <trkpt lat="47.41261" lon="-0.61329">
        <ele>15.6</ele>
        <time>2020-09-30T13:48:37Z</time>
      </trkpt>
      <trkpt lat="47.41265" lon="-0.61328">
        <ele>15.4</ele>
        <time>2020-09-30T13:48:38Z</time>
      </trkpt>
      <trkpt lat="47.41288" lon="-0.61324">
        <ele>15</ele>
        <time>2020-09-30T13:48:43Z</time>
      </trkpt>
      <trkpt lat="47.41314" lon="-0.61313">
        <ele>14.8</ele>
        <time>2020-09-30T13:48:49Z</time>
      </trkpt>
      <trkpt lat="47.41342" lon="-0.61301">
        <ele>16.6</ele>
        <time>2020-09-30T13:48:56Z</time>
      </trkpt>
      <trkpt lat="47.4135" lon="-0.61299">
        <ele>16.2</ele>
        <time>2020-09-30T13:48:58Z</time>
      </trkpt>
      <trkpt lat="47.4138" lon="-0.6129">
        <ele>16.8</ele>
        <time>2020-09-30T13:49:06Z</time>
      </trkpt>
      <trkpt lat="47.41406" lon="-0.61279">
        <ele>17</ele>
        <time>2020-09-30T13:49:13Z</time>
      </trkpt>
      <trkpt lat="47.41438" lon="-0.61259">
        <ele>17</ele>
        <time>2020-09-30T13:49:22Z</time>
      </trkpt>
      <trkpt lat="47.41456" lon="-0.61249">
        <ele>16.6</ele>
        <time>2020-09-30T13:49:28Z</time>
      </trkpt>
      <trkpt lat="47.41475" lon="-0.61234">
        <ele>16.6</ele>
        <time>2020-09-30T13:49:34Z</time>
      </trkpt>
      <trkpt lat="47.41498" lon="-0.61213">
        <ele>16.2</ele>
        <time>2020-09-30T13:49:42Z</time>
      </trkpt>
      <trkpt lat="47.41525" lon="-0.61192">
        <ele>16.6</ele>
        <time>2020-09-30T13:49:49Z</time>
      </trkpt>
      <trkpt lat="47.41547" lon="-0.61173">
        <ele>16.2</ele>
        <time>2020-09-30T13:49:56Z</time>
      </trkpt>
      <trkpt lat="47.41572" lon="-0.61158">
        <ele>15.6</ele>
        <time>2020-09-30T13:50:03Z</time>
      </trkpt>
      <trkpt lat="47.41576" lon="-0.61155">
        <ele>15.4</ele>
        <time>2020-09-30T13:50:04Z</time>
      </trkpt>
      <trkpt lat="47.41592" lon="-0.61138">
        <ele>14.6</ele>
        <time>2020-09-30T13:50:09Z</time>
      </trkpt>
      <trkpt lat="47.41599" lon="-0.61131">
        <ele>14.4</ele>
        <time>2020-09-30T13:50:11Z</time>
      </trkpt>
      <trkpt lat="47.41611" lon="-0.61113">
        <ele>13.4</ele>
        <time>2020-09-30T13:50:15Z</time>
      </trkpt>
      <trkpt lat="47.41618" lon="-0.61107">
        <ele>13.2</ele>
        <time>2020-09-30T13:50:17Z</time>
      </trkpt>
      <trkpt lat="47.41637" lon="-0.61088">
        <ele>12.4</ele>
        <time>2020-09-30T13:50:23Z</time>
      </trkpt>
      <trkpt lat="47.41657" lon="-0.61062">
        <ele>12.8</ele>
        <time>2020-09-30T13:50:30Z</time>
      </trkpt>
      <trkpt lat="47.41676" lon="-0.61036">
        <ele>12.8</ele>
        <time>2020-09-30T13:50:37Z</time>
      </trkpt>
      <trkpt lat="47.41694" lon="-0.61019">
        <ele>12.8</ele>
        <time>2020-09-30T13:50:43Z</time>
      </trkpt>
      <trkpt lat="47.41714" lon="-0.60998">
        <ele>12.2</ele>
        <time>2020-09-30T13:50:50Z</time>
      </trkpt>
      <trkpt lat="47.4172" lon="-0.60991">
        <ele>12</ele>
        <time>2020-09-30T13:50:52Z</time>
      </trkpt>
      <trkpt lat="47.41736" lon="-0.60975">
        <ele>10.8</ele>
        <time>2020-09-30T13:50:57Z</time>
      </trkpt>
      <trkpt lat="47.41756" lon="-0.60957">
        <ele>9.8</ele>
        <time>2020-09-30T13:51:04Z</time>
      </trkpt>
      <trkpt lat="47.41759" lon="-0.60954">
        <ele>9.6</ele>
        <time>2020-09-30T13:51:05Z</time>
      </trkpt>
      <trkpt lat="47.41777" lon="-0.60936">
        <ele>9</ele>
        <time>2020-09-30T13:51:10Z</time>
      </trkpt>
      <trkpt lat="47.41804" lon="-0.6091">
        <ele>10.4</ele>
        <time>2020-09-30T13:51:18Z</time>
      </trkpt>
      <trkpt lat="47.41808" lon="-0.60906">
        <ele>10.4</ele>
        <time>2020-09-30T13:51:19Z</time>
      </trkpt>
      <trkpt lat="47.41819" lon="-0.60894">
        <ele>10.6</ele>
        <time>2020-09-30T13:51:22Z</time>
      </trkpt>
      <trkpt lat="47.41826" lon="-0.60887">
        <ele>11.2</ele>
        <time>2020-09-30T13:51:24Z</time>
      </trkpt>
      <trkpt lat="47.41833" lon="-0.60881">
        <ele>11.8</ele>
        <time>2020-09-30T13:51:26Z</time>
      </trkpt>
      <trkpt lat="47.41843" lon="-0.60874">
        <ele>12.8</ele>
        <time>2020-09-30T13:51:29Z</time>
      </trkpt>
      <trkpt lat="47.4185" lon="-0.6087">
        <ele>13</ele>
        <time>2020-09-30T13:51:31Z</time>
      </trkpt>
      <trkpt lat="47.41868" lon="-0.60853">
        <ele>13</ele>
        <time>2020-09-30T13:51:37Z</time>
      </trkpt>
      <trkpt lat="47.41892" lon="-0.60833">
        <ele>13.2</ele>
        <time>2020-09-30T13:51:45Z</time>
      </trkpt>
      <trkpt lat="47.4191" lon="-0.60819">
        <ele>13</ele>
        <time>2020-09-30T13:51:52Z</time>
      </trkpt>
      <trkpt lat="47.41924" lon="-0.60804">
        <ele>13</ele>
        <time>2020-09-30T13:51:57Z</time>
      </trkpt>
      <trkpt lat="47.41941" lon="-0.60783">
        <ele>13.6</ele>
        <time>2020-09-30T13:52:03Z</time>
      </trkpt>
      <trkpt lat="47.41946" lon="-0.60777">
        <ele>13.8</ele>
        <time>2020-09-30T13:52:05Z</time>
      </trkpt>
      <trkpt lat="47.41961" lon="-0.60755">
        <ele>14.8</ele>
        <time>2020-09-30T13:52:11Z</time>
      </trkpt>
      <trkpt lat="47.41963" lon="-0.60751">
        <ele>15</ele>
        <time>2020-09-30T13:52:12Z</time>
      </trkpt>
      <trkpt lat="47.41971" lon="-0.6073">
        <ele>15.8</ele>
        <time>2020-09-30T13:52:18Z</time>
      </trkpt>
      <trkpt lat="47.41969" lon="-0.60702">
        <ele>15.4</ele>
        <time>2020-09-30T13:52:25Z</time>
      </trkpt>
      <trkpt lat="47.41964" lon="-0.60683">
        <ele>16</ele>
        <time>2020-09-30T13:52:30Z</time>
      </trkpt>
      <trkpt lat="47.41962" lon="-0.60676">
        <ele>16</ele>
        <time>2020-09-30T13:52:32Z</time>
      </trkpt>
      <trkpt lat="47.41954" lon="-0.60652">
        <ele>17</ele>
        <time>2020-09-30T13:52:39Z</time>
      </trkpt>
      <trkpt lat="47.41952" lon="-0.60644">
        <ele>17.8</ele>
        <time>2020-09-30T13:52:43Z</time>
      </trkpt>
      <trkpt lat="47.41952" lon="-0.60641">
        <ele>17.6</ele>
        <time>2020-09-30T13:52:45Z</time>
      </trkpt>
      <trkpt lat="47.41956" lon="-0.60629">
        <ele>18</ele>
        <time>2020-09-30T13:52:50Z</time>
      </trkpt>
      <trkpt lat="47.41957" lon="-0.60627">
        <ele>18.2</ele>
        <time>2020-09-30T13:52:51Z</time>
      </trkpt>
      <trkpt lat="47.41965" lon="-0.60627">
        <ele>18.8</ele>
        <time>2020-09-30T13:52:54Z</time>
      </trkpt>
      <trkpt lat="47.41974" lon="-0.60648">
        <ele>18.4</ele>
        <time>2020-09-30T13:52:59Z</time>
      </trkpt>
      <trkpt lat="47.41975" lon="-0.60652">
        <ele>18.4</ele>
        <time>2020-09-30T13:53:00Z</time>
      </trkpt>
      <trkpt lat="47.41983" lon="-0.60677">
        <ele>18.4</ele>
        <time>2020-09-30T13:53:05Z</time>
      </trkpt>
      <trkpt lat="47.41996" lon="-0.60705">
        <ele>17.4</ele>
        <time>2020-09-30T13:53:11Z</time>
      </trkpt>
      <trkpt lat="47.42002" lon="-0.60707">
        <ele>17</ele>
        <time>2020-09-30T13:53:13Z</time>
      </trkpt>
      <trkpt lat="47.42007" lon="-0.60705">
        <ele>16.4</ele>
        <time>2020-09-30T13:53:15Z</time>
      </trkpt>
      <trkpt lat="47.42014" lon="-0.60697">
        <ele>15.8</ele>
        <time>2020-09-30T13:53:18Z</time>
      </trkpt>
      <trkpt lat="47.4202" lon="-0.60689">
        <ele>15.2</ele>
        <time>2020-09-30T13:53:21Z</time>
      </trkpt>
      <trkpt lat="47.42022" lon="-0.60686">
        <ele>14.8</ele>
        <time>2020-09-30T13:53:22Z</time>
      </trkpt>
      <trkpt lat="47.4203" lon="-0.60679">
        <ele>13.2</ele>
        <time>2020-09-30T13:53:49Z</time>
      </trkpt>
      <trkpt lat="47.42033" lon="-0.60673">
        <ele>12.2</ele>
        <time>2020-09-30T13:53:52Z</time>
      </trkpt>
      <trkpt lat="47.42041" lon="-0.60658">
        <ele>11</ele>
        <time>2020-09-30T13:53:58Z</time>
      </trkpt>
      <trkpt lat="47.42054" lon="-0.60641">
        <ele>10.2</ele>
        <time>2020-09-30T13:54:05Z</time>
      </trkpt>
      <trkpt lat="47.42067" lon="-0.60621">
        <ele>10.2</ele>
        <time>2020-09-30T13:54:12Z</time>
      </trkpt>
      <trkpt lat="47.42078" lon="-0.606">
        <ele>10.4</ele>
        <time>2020-09-30T13:54:18Z</time>
      </trkpt>
      <trkpt lat="47.42083" lon="-0.60574">
        <ele>10.2</ele>
        <time>2020-09-30T13:54:24Z</time>
      </trkpt>
      <trkpt lat="47.42092" lon="-0.6054">
        <ele>10.4</ele>
        <time>2020-09-30T13:54:31Z</time>
      </trkpt>
      <trkpt lat="47.42104" lon="-0.60505">
        <ele>10.6</ele>
        <time>2020-09-30T13:54:39Z</time>
      </trkpt>
      <trkpt lat="47.42118" lon="-0.60471">
        <ele>10.6</ele>
        <time>2020-09-30T13:54:47Z</time>
      </trkpt>
      <trkpt lat="47.42132" lon="-0.60438">
        <ele>10.4</ele>
        <time>2020-09-30T13:54:55Z</time>
      </trkpt>
      <trkpt lat="47.42145" lon="-0.60423">
        <ele>10.2</ele>
        <time>2020-09-30T13:55:00Z</time>
      </trkpt>
      <trkpt lat="47.42154" lon="-0.60413">
        <ele>10</ele>
        <time>2020-09-30T13:55:03Z</time>
      </trkpt>
      <trkpt lat="47.42169" lon="-0.60394">
        <ele>10.2</ele>
        <time>2020-09-30T13:55:08Z</time>
      </trkpt>
      <trkpt lat="47.42192" lon="-0.60366">
        <ele>10.8</ele>
        <time>2020-09-30T13:55:16Z</time>
      </trkpt>
      <trkpt lat="47.42195" lon="-0.60363">
        <ele>11</ele>
        <time>2020-09-30T13:55:17Z</time>
      </trkpt>
      <trkpt lat="47.42212" lon="-0.60346">
        <ele>10.8</ele>
        <time>2020-09-30T13:55:23Z</time>
      </trkpt>
      <trkpt lat="47.42235" lon="-0.60327">
        <ele>11.4</ele>
        <time>2020-09-30T13:55:31Z</time>
      </trkpt>
      <trkpt lat="47.42266" lon="-0.60309">
        <ele>11</ele>
        <time>2020-09-30T13:55:40Z</time>
      </trkpt>
      <trkpt lat="47.42294" lon="-0.60298">
        <ele>11.6</ele>
        <time>2020-09-30T13:55:48Z</time>
      </trkpt>
      <trkpt lat="47.42324" lon="-0.60286">
        <ele>11.8</ele>
        <time>2020-09-30T13:55:56Z</time>
      </trkpt>
      <trkpt lat="47.42344" lon="-0.60278">
        <ele>11.8</ele>
        <time>2020-09-30T13:56:01Z</time>
      </trkpt>
      <trkpt lat="47.42347" lon="-0.60275">
        <ele>11.8</ele>
        <time>2020-09-30T13:56:02Z</time>
      </trkpt>
      <trkpt lat="47.42354" lon="-0.60269">
        <ele>12</ele>
        <time>2020-09-30T13:56:04Z</time>
      </trkpt>
      <trkpt lat="47.42371" lon="-0.60259">
        <ele>12.6</ele>
        <time>2020-09-30T13:56:09Z</time>
      </trkpt>
      <trkpt lat="47.42388" lon="-0.6025">
        <ele>12.8</ele>
        <time>2020-09-30T13:56:15Z</time>
      </trkpt>
      <trkpt lat="47.42409" lon="-0.60248">
        <ele>12.8</ele>
        <time>2020-09-30T13:56:21Z</time>
      </trkpt>
      <trkpt lat="47.42435" lon="-0.60251">
        <ele>12.8</ele>
        <time>2020-09-30T13:56:28Z</time>
      </trkpt>
      <trkpt lat="47.4247" lon="-0.60254">
        <ele>12.4</ele>
        <time>2020-09-30T13:56:37Z</time>
      </trkpt>
      <trkpt lat="47.425" lon="-0.60256">
        <ele>12.4</ele>
        <time>2020-09-30T13:56:45Z</time>
      </trkpt>
      <trkpt lat="47.42526" lon="-0.60256">
        <ele>12</ele>
        <time>2020-09-30T13:56:52Z</time>
      </trkpt>
      <trkpt lat="47.42543" lon="-0.60255">
        <ele>11.6</ele>
        <time>2020-09-30T13:56:57Z</time>
      </trkpt>
      <trkpt lat="47.42555" lon="-0.60267">
        <ele>11.2</ele>
        <time>2020-09-30T13:57:02Z</time>
      </trkpt>
      <trkpt lat="47.42559" lon="-0.60278">
        <ele>11</ele>
        <time>2020-09-30T13:57:05Z</time>
      </trkpt>
      <trkpt lat="47.42565" lon="-0.60286">
        <ele>10.6</ele>
        <time>2020-09-30T13:57:08Z</time>
      </trkpt>
      <trkpt lat="47.42575" lon="-0.60292">
        <ele>10.2</ele>
        <time>2020-09-30T13:57:13Z</time>
      </trkpt>
      <trkpt lat="47.42588" lon="-0.60291">
        <ele>10.2</ele>
        <time>2020-09-30T13:57:20Z</time>
      </trkpt>
      <trkpt lat="47.42598" lon="-0.6028">
        <ele>10.2</ele>
        <time>2020-09-30T13:57:25Z</time>
      </trkpt>
      <trkpt lat="47.42601" lon="-0.60269">
        <ele>10.6</ele>
        <time>2020-09-30T13:57:29Z</time>
      </trkpt>
      <trkpt lat="47.42607" lon="-0.60245">
        <ele>11</ele>
        <time>2020-09-30T13:57:36Z</time>
      </trkpt>
      <trkpt lat="47.42608" lon="-0.60244">
        <ele>11.2</ele>
        <time>2020-09-30T13:57:37Z</time>
      </trkpt>
      <trkpt lat="47.42616" lon="-0.60245">
        <ele>11.8</ele>
        <time>2020-09-30T13:58:09Z</time>
      </trkpt>
      <trkpt lat="47.42627" lon="-0.60247">
        <ele>11.4</ele>
        <time>2020-09-30T13:58:14Z</time>
      </trkpt>
      <trkpt lat="47.42648" lon="-0.60251">
        <ele>10.8</ele>
        <time>2020-09-30T13:58:22Z</time>
      </trkpt>
      <trkpt lat="47.42669" lon="-0.60253">
        <ele>11</ele>
        <time>2020-09-30T13:58:28Z</time>
      </trkpt>
      <trkpt lat="47.4269" lon="-0.60252">
        <ele>11.4</ele>
        <time>2020-09-30T13:58:34Z</time>
      </trkpt>
      <trkpt lat="47.42711" lon="-0.6025">
        <ele>12.2</ele>
        <time>2020-09-30T13:58:40Z</time>
      </trkpt>
      <trkpt lat="47.42719" lon="-0.6025">
        <ele>12</ele>
        <time>2020-09-30T13:58:42Z</time>
      </trkpt>
      <trkpt lat="47.4273" lon="-0.6025">
        <ele>12.2</ele>
        <time>2020-09-30T13:58:45Z</time>
      </trkpt>
      <trkpt lat="47.42761" lon="-0.60248">
        <ele>12.4</ele>
        <time>2020-09-30T13:58:53Z</time>
      </trkpt>
      <trkpt lat="47.42783" lon="-0.6025">
        <ele>12</ele>
        <time>2020-09-30T13:58:59Z</time>
      </trkpt>
      <trkpt lat="47.42815" lon="-0.60251">
        <ele>12.4</ele>
        <time>2020-09-30T13:59:08Z</time>
      </trkpt>
      <trkpt lat="47.42846" lon="-0.60252">
        <ele>12.2</ele>
        <time>2020-09-30T13:59:16Z</time>
      </trkpt>
      <trkpt lat="47.42872" lon="-0.60257">
        <ele>12.4</ele>
        <time>2020-09-30T13:59:23Z</time>
      </trkpt>
      <trkpt lat="47.42903" lon="-0.60265">
        <ele>12.2</ele>
        <time>2020-09-30T13:59:31Z</time>
      </trkpt>
      <trkpt lat="47.42942" lon="-0.60277">
        <ele>12.6</ele>
        <time>2020-09-30T13:59:41Z</time>
      </trkpt>
      <trkpt lat="47.42977" lon="-0.60292">
        <ele>13</ele>
        <time>2020-09-30T13:59:50Z</time>
      </trkpt>
      <trkpt lat="47.42985" lon="-0.60297">
        <ele>13.2</ele>
        <time>2020-09-30T13:59:52Z</time>
      </trkpt>
      <trkpt lat="47.43008" lon="-0.60309">
        <ele>13.4</ele>
        <time>2020-09-30T13:59:58Z</time>
      </trkpt>
      <trkpt lat="47.43039" lon="-0.60317">
        <ele>13.6</ele>
        <time>2020-09-30T14:00:06Z</time>
      </trkpt>
      <trkpt lat="47.43071" lon="-0.60317">
        <ele>13.4</ele>
        <time>2020-09-30T14:00:14Z</time>
      </trkpt>
      <trkpt lat="47.43092" lon="-0.60318">
        <ele>13.4</ele>
        <time>2020-09-30T14:00:19Z</time>
      </trkpt>
      <trkpt lat="47.4313" lon="-0.60318">
        <ele>13.6</ele>
        <time>2020-09-30T14:00:27Z</time>
      </trkpt>
      <trkpt lat="47.4317" lon="-0.60318">
        <ele>13.2</ele>
        <time>2020-09-30T14:00:36Z</time>
      </trkpt>
      <trkpt lat="47.432" lon="-0.60317">
        <ele>13.4</ele>
        <time>2020-09-30T14:00:43Z</time>
      </trkpt>
      <trkpt lat="47.43233" lon="-0.60315">
        <ele>13.4</ele>
        <time>2020-09-30T14:00:50Z</time>
      </trkpt>
      <trkpt lat="47.43276" lon="-0.60306">
        <ele>13.4</ele>
        <time>2020-09-30T14:00:59Z</time>
      </trkpt>
      <trkpt lat="47.43306" lon="-0.603">
        <ele>13.4</ele>
        <time>2020-09-30T14:01:06Z</time>
      </trkpt>
      <trkpt lat="47.43341" lon="-0.60286">
        <ele>13.4</ele>
        <time>2020-09-30T14:01:15Z</time>
      </trkpt>
      <trkpt lat="47.43368" lon="-0.60274">
        <ele>13.6</ele>
        <time>2020-09-30T14:01:22Z</time>
      </trkpt>
      <trkpt lat="47.43404" lon="-0.60259">
        <ele>13.6</ele>
        <time>2020-09-30T14:01:31Z</time>
      </trkpt>
      <trkpt lat="47.43441" lon="-0.60242">
        <ele>13.6</ele>
        <time>2020-09-30T14:01:40Z</time>
      </trkpt>
      <trkpt lat="47.43464" lon="-0.60231">
        <ele>14</ele>
        <time>2020-09-30T14:01:47Z</time>
      </trkpt>
      <trkpt lat="47.43479" lon="-0.60223">
        <ele>13.6</ele>
        <time>2020-09-30T14:01:53Z</time>
      </trkpt>
      <trkpt lat="47.43499" lon="-0.60213">
        <ele>13.6</ele>
        <time>2020-09-30T14:01:59Z</time>
      </trkpt>
      <trkpt lat="47.43513" lon="-0.60202">
        <ele>13.6</ele>
        <time>2020-09-30T14:02:05Z</time>
      </trkpt>
      <trkpt lat="47.43538" lon="-0.60186">
        <ele>13.6</ele>
        <time>2020-09-30T14:02:14Z</time>
      </trkpt>
      <trkpt lat="47.4356" lon="-0.60175">
        <ele>13.4</ele>
        <time>2020-09-30T14:02:22Z</time>
      </trkpt>
      <trkpt lat="47.43585" lon="-0.60162">
        <ele>13</ele>
        <time>2020-09-30T14:02:30Z</time>
      </trkpt>
      <trkpt lat="47.43599" lon="-0.60154">
        <ele>12.8</ele>
        <time>2020-09-30T14:02:36Z</time>
      </trkpt>
      <trkpt lat="47.43602" lon="-0.60151">
        <ele>12.8</ele>
        <time>2020-09-30T14:03:05Z</time>
      </trkpt>
      <trkpt lat="47.43605" lon="-0.60149">
        <ele>12.6</ele>
        <time>2020-09-30T14:03:07Z</time>
      </trkpt>
      <trkpt lat="47.43606" lon="-0.60148">
        <ele>12.6</ele>
        <time>2020-09-30T14:03:08Z</time>
      </trkpt>
      <trkpt lat="47.43614" lon="-0.60144">
        <ele>12.8</ele>
        <time>2020-09-30T14:03:12Z</time>
      </trkpt>
      <trkpt lat="47.43632" lon="-0.60133">
        <ele>12.8</ele>
        <time>2020-09-30T14:03:19Z</time>
      </trkpt>
      <trkpt lat="47.43659" lon="-0.60115">
        <ele>12.8</ele>
        <time>2020-09-30T14:03:28Z</time>
      </trkpt>
      <trkpt lat="47.4369" lon="-0.60096">
        <ele>12.6</ele>
        <time>2020-09-30T14:03:37Z</time>
      </trkpt>
      <trkpt lat="47.43735" lon="-0.60066">
        <ele>12.6</ele>
        <time>2020-09-30T14:03:49Z</time>
      </trkpt>
      <trkpt lat="47.43775" lon="-0.60039">
        <ele>13</ele>
        <time>2020-09-30T14:04:00Z</time>
      </trkpt>
      <trkpt lat="47.43809" lon="-0.60015">
        <ele>13.4</ele>
        <time>2020-09-30T14:04:11Z</time>
      </trkpt>
      <trkpt lat="47.43835" lon="-0.59992">
        <ele>13.2</ele>
        <time>2020-09-30T14:04:19Z</time>
      </trkpt>
      <trkpt lat="47.43864" lon="-0.59964">
        <ele>13.6</ele>
        <time>2020-09-30T14:04:28Z</time>
      </trkpt>
      <trkpt lat="47.439" lon="-0.59929">
        <ele>13.2</ele>
        <time>2020-09-30T14:04:39Z</time>
      </trkpt>
      <trkpt lat="47.43928" lon="-0.599">
        <ele>13</ele>
        <time>2020-09-30T14:04:48Z</time>
      </trkpt>
      <trkpt lat="47.43954" lon="-0.59875">
        <ele>13</ele>
        <time>2020-09-30T14:04:57Z</time>
      </trkpt>
      <trkpt lat="47.43982" lon="-0.59847">
        <ele>12.6</ele>
        <time>2020-09-30T14:05:06Z</time>
      </trkpt>
      <trkpt lat="47.4401" lon="-0.59813">
        <ele>12.4</ele>
        <time>2020-09-30T14:05:15Z</time>
      </trkpt>
      <trkpt lat="47.44044" lon="-0.59777">
        <ele>12.4</ele>
        <time>2020-09-30T14:05:25Z</time>
      </trkpt>
      <trkpt lat="47.4406" lon="-0.59758">
        <ele>12.2</ele>
        <time>2020-09-30T14:05:30Z</time>
      </trkpt>
      <trkpt lat="47.44073" lon="-0.59744">
        <ele>12</ele>
        <time>2020-09-30T14:05:34Z</time>
      </trkpt>
      <trkpt lat="47.44104" lon="-0.59718">
        <ele>11.8</ele>
        <time>2020-09-30T14:05:43Z</time>
      </trkpt>
      <trkpt lat="47.44136" lon="-0.5969">
        <ele>12</ele>
        <time>2020-09-30T14:05:53Z</time>
      </trkpt>
      <trkpt lat="47.44164" lon="-0.59661">
        <ele>12</ele>
        <time>2020-09-30T14:06:02Z</time>
      </trkpt>
      <trkpt lat="47.44181" lon="-0.59652">
        <ele>12</ele>
        <time>2020-09-30T14:06:08Z</time>
      </trkpt>
      <trkpt lat="47.44202" lon="-0.59645">
        <ele>12</ele>
        <time>2020-09-30T14:06:17Z</time>
      </trkpt>
      <trkpt lat="47.44216" lon="-0.59637">
        <ele>12</ele>
        <time>2020-09-30T14:06:23Z</time>
      </trkpt>
      <trkpt lat="47.44237" lon="-0.5962">
        <ele>12.2</ele>
        <time>2020-09-30T14:06:31Z</time>
      </trkpt>
      <trkpt lat="47.44257" lon="-0.59603">
        <ele>11.6</ele>
        <time>2020-09-30T14:06:38Z</time>
      </trkpt>
      <trkpt lat="47.4428" lon="-0.59578">
        <ele>12.2</ele>
        <time>2020-09-30T14:06:47Z</time>
      </trkpt>
      <trkpt lat="47.44302" lon="-0.59555">
        <ele>12.2</ele>
        <time>2020-09-30T14:06:56Z</time>
      </trkpt>
      <trkpt lat="47.44325" lon="-0.5954">
        <ele>12</ele>
        <time>2020-09-30T14:07:04Z</time>
      </trkpt>
      <trkpt lat="47.4434" lon="-0.59522">
        <ele>11.6</ele>
        <time>2020-09-30T14:07:11Z</time>
      </trkpt>
      <trkpt lat="47.44353" lon="-0.59511">
        <ele>11.2</ele>
        <time>2020-09-30T14:07:17Z</time>
      </trkpt>
      <trkpt lat="47.44356" lon="-0.59511">
        <ele>11.2</ele>
        <time>2020-09-30T14:07:18Z</time>
      </trkpt>
      <trkpt lat="47.44366" lon="-0.59515">
        <ele>11.2</ele>
        <time>2020-09-30T14:07:21Z</time>
      </trkpt>
      <trkpt lat="47.44379" lon="-0.59528">
        <ele>11.6</ele>
        <time>2020-09-30T14:07:26Z</time>
      </trkpt>
      <trkpt lat="47.44389" lon="-0.5954">
        <ele>11.4</ele>
        <time>2020-09-30T14:07:31Z</time>
      </trkpt>
      <trkpt lat="47.444" lon="-0.59538">
        <ele>11.2</ele>
        <time>2020-09-30T14:07:36Z</time>
      </trkpt>
      <trkpt lat="47.44403" lon="-0.59536">
        <ele>11</ele>
        <time>2020-09-30T14:07:37Z</time>
      </trkpt>
      <trkpt lat="47.4441" lon="-0.59525">
        <ele>10.2</ele>
        <time>2020-09-30T14:07:41Z</time>
      </trkpt>
      <trkpt lat="47.44413" lon="-0.59504">
        <ele>10.2</ele>
        <time>2020-09-30T14:07:46Z</time>
      </trkpt>
      <trkpt lat="47.44413" lon="-0.59491">
        <ele>9.8</ele>
        <time>2020-09-30T14:07:49Z</time>
      </trkpt>
      <trkpt lat="47.44416" lon="-0.59479">
        <ele>9.2</ele>
        <time>2020-09-30T14:07:53Z</time>
      </trkpt>
      <trkpt lat="47.44417" lon="-0.59477">
        <ele>9</ele>
        <time>2020-09-30T14:07:55Z</time>
      </trkpt>
      <trkpt lat="47.44419" lon="-0.59476">
        <ele>8.8</ele>
        <time>2020-09-30T14:07:56Z</time>
      </trkpt>
      <trkpt lat="47.44421" lon="-0.59473">
        <ele>8.6</ele>
        <time>2020-09-30T14:07:58Z</time>
      </trkpt>
      <trkpt lat="47.44425" lon="-0.59462">
        <ele>8.6</ele>
        <time>2020-09-30T14:08:24Z</time>
      </trkpt>
      <trkpt lat="47.44427" lon="-0.59455">
        <ele>9</ele>
        <time>2020-09-30T14:08:26Z</time>
      </trkpt>
      <trkpt lat="47.4444" lon="-0.59442">
        <ele>9.4</ele>
        <time>2020-09-30T14:08:32Z</time>
      </trkpt>
      <trkpt lat="47.44447" lon="-0.59438">
        <ele>10.2</ele>
        <time>2020-09-30T14:08:34Z</time>
      </trkpt>
      <trkpt lat="47.44462" lon="-0.59427">
        <ele>10.8</ele>
        <time>2020-09-30T14:08:39Z</time>
      </trkpt>
      <trkpt lat="47.44469" lon="-0.59423">
        <ele>11.4</ele>
        <time>2020-09-30T14:08:41Z</time>
      </trkpt>
      <trkpt lat="47.44487" lon="-0.59412">
        <ele>11.8</ele>
        <time>2020-09-30T14:08:46Z</time>
      </trkpt>
      <trkpt lat="47.44518" lon="-0.59392">
        <ele>11.6</ele>
        <time>2020-09-30T14:08:54Z</time>
      </trkpt>
      <trkpt lat="47.44542" lon="-0.59371">
        <ele>11.6</ele>
        <time>2020-09-30T14:09:01Z</time>
      </trkpt>
      <trkpt lat="47.44586" lon="-0.59337">
        <ele>11.8</ele>
        <time>2020-09-30T14:09:13Z</time>
      </trkpt>
      <trkpt lat="47.44611" lon="-0.59333">
        <ele>11.6</ele>
        <time>2020-09-30T14:09:20Z</time>
      </trkpt>
      <trkpt lat="47.44624" lon="-0.59326">
        <ele>11.8</ele>
        <time>2020-09-30T14:09:25Z</time>
      </trkpt>
      <trkpt lat="47.44624" lon="-0.59307">
        <ele>10.8</ele>
        <time>2020-09-30T14:09:29Z</time>
      </trkpt>
      <trkpt lat="47.44624" lon="-0.59302">
        <ele>10.6</ele>
        <time>2020-09-30T14:09:30Z</time>
      </trkpt>
      <trkpt lat="47.44623" lon="-0.5929">
        <ele>10.4</ele>
        <time>2020-09-30T14:09:32Z</time>
      </trkpt>
      <trkpt lat="47.44622" lon="-0.59275">
        <ele>10</ele>
        <time>2020-09-30T14:09:35Z</time>
      </trkpt>
      <trkpt lat="47.44617" lon="-0.59238">
        <ele>10</ele>
        <time>2020-09-30T14:09:42Z</time>
      </trkpt>
      <trkpt lat="47.44612" lon="-0.59187">
        <ele>10.4</ele>
        <time>2020-09-30T14:09:51Z</time>
      </trkpt>
      <trkpt lat="47.44605" lon="-0.59138">
        <ele>10.8</ele>
        <time>2020-09-30T14:09:59Z</time>
      </trkpt>
      <trkpt lat="47.44599" lon="-0.59086">
        <ele>11</ele>
        <time>2020-09-30T14:10:07Z</time>
      </trkpt>
      <trkpt lat="47.44594" lon="-0.5903">
        <ele>11.2</ele>
        <time>2020-09-30T14:10:16Z</time>
      </trkpt>
      <trkpt lat="47.44592" lon="-0.59006">
        <ele>11.4</ele>
        <time>2020-09-30T14:10:20Z</time>
      </trkpt>
      <trkpt lat="47.44589" lon="-0.58978">
        <ele>11.6</ele>
        <time>2020-09-30T14:10:25Z</time>
      </trkpt>
      <trkpt lat="47.44587" lon="-0.58943">
        <ele>11.8</ele>
        <time>2020-09-30T14:10:32Z</time>
      </trkpt>
      <trkpt lat="47.4459" lon="-0.58938">
        <ele>12.2</ele>
        <time>2020-09-30T14:10:34Z</time>
      </trkpt>
      <trkpt lat="47.44593" lon="-0.58935">
        <ele>12.2</ele>
        <time>2020-09-30T14:10:36Z</time>
      </trkpt>
      <trkpt lat="47.44599" lon="-0.58935">
        <ele>12.4</ele>
        <time>2020-09-30T14:10:38Z</time>
      </trkpt>
      <trkpt lat="47.44605" lon="-0.58934">
        <ele>12.6</ele>
        <time>2020-09-30T14:10:40Z</time>
      </trkpt>
      <trkpt lat="47.44608" lon="-0.58934">
        <ele>12.6</ele>
        <time>2020-09-30T14:10:41Z</time>
      </trkpt>
      <trkpt lat="47.44624" lon="-0.58931">
        <ele>13.2</ele>
        <time>2020-09-30T14:10:46Z</time>
      </trkpt>
      <trkpt lat="47.44635" lon="-0.58929">
        <ele>13.4</ele>
        <time>2020-09-30T14:10:49Z</time>
      </trkpt>
      <trkpt lat="47.44655" lon="-0.58927">
        <ele>13.6</ele>
        <time>2020-09-30T14:10:54Z</time>
      </trkpt>
      <trkpt lat="47.44695" lon="-0.58924">
        <ele>14</ele>
        <time>2020-09-30T14:11:03Z</time>
      </trkpt>
      <trkpt lat="47.44721" lon="-0.5892">
        <ele>14.6</ele>
        <time>2020-09-30T14:11:09Z</time>
      </trkpt>
      <trkpt lat="47.44733" lon="-0.58917">
        <ele>14.6</ele>
        <time>2020-09-30T14:11:12Z</time>
      </trkpt>
      <trkpt lat="47.44772" lon="-0.58911">
        <ele>14.2</ele>
        <time>2020-09-30T14:11:21Z</time>
      </trkpt>
      <trkpt lat="47.44806" lon="-0.58905">
        <ele>14</ele>
        <time>2020-09-30T14:11:29Z</time>
      </trkpt>
      <trkpt lat="47.44832" lon="-0.58899">
        <ele>14.6</ele>
        <time>2020-09-30T14:11:36Z</time>
      </trkpt>
      <trkpt lat="47.44838" lon="-0.58891">
        <ele>14.6</ele>
        <time>2020-09-30T14:11:40Z</time>
      </trkpt>
      <trkpt lat="47.44844" lon="-0.5888">
        <ele>15.6</ele>
        <time>2020-09-30T14:11:46Z</time>
      </trkpt>
      <trkpt lat="47.44845" lon="-0.58879">
        <ele>15.8</ele>
        <time>2020-09-30T14:11:47Z</time>
      </trkpt>
      <trkpt lat="47.44849" lon="-0.58878">
        <ele>16.4</ele>
        <time>2020-09-30T14:11:58Z</time>
      </trkpt>
      <trkpt lat="47.44852" lon="-0.58877">
        <ele>16.8</ele>
        <time>2020-09-30T14:12:00Z</time>
      </trkpt>
      <trkpt lat="47.44864" lon="-0.58876">
        <ele>18</ele>
        <time>2020-09-30T14:12:05Z</time>
      </trkpt>
      <trkpt lat="47.44867" lon="-0.58876">
        <ele>18.2</ele>
        <time>2020-09-30T14:12:06Z</time>
      </trkpt>
      <trkpt lat="47.44883" lon="-0.58876">
        <ele>19</ele>
        <time>2020-09-30T14:12:10Z</time>
      </trkpt>
      <trkpt lat="47.4489" lon="-0.58875">
        <ele>18.8</ele>
        <time>2020-09-30T14:12:12Z</time>
      </trkpt>
      <trkpt lat="47.4492" lon="-0.58877">
        <ele>18.2</ele>
        <time>2020-09-30T14:12:20Z</time>
      </trkpt>
      <trkpt lat="47.4493" lon="-0.58878">
        <ele>18</ele>
        <time>2020-09-30T14:12:23Z</time>
      </trkpt>
      <trkpt lat="47.44939" lon="-0.58881">
        <ele>18</ele>
        <time>2020-09-30T14:12:26Z</time>
      </trkpt>
      <trkpt lat="47.44963" lon="-0.58884">
        <ele>17.8</ele>
        <time>2020-09-30T14:12:33Z</time>
      </trkpt>
      <trkpt lat="47.4499" lon="-0.58877">
        <ele>18</ele>
        <time>2020-09-30T14:12:40Z</time>
      </trkpt>
      <trkpt lat="47.4502" lon="-0.58872">
        <ele>18.8</ele>
        <time>2020-09-30T14:12:47Z</time>
      </trkpt>
      <trkpt lat="47.45039" lon="-0.58869">
        <ele>18.8</ele>
        <time>2020-09-30T14:12:52Z</time>
      </trkpt>
      <trkpt lat="47.45052" lon="-0.58865">
        <ele>18.8</ele>
        <time>2020-09-30T14:12:58Z</time>
      </trkpt>
      <trkpt lat="47.45056" lon="-0.58865">
        <ele>19</ele>
        <time>2020-09-30T14:13:01Z</time>
      </trkpt>
      <trkpt lat="47.45058" lon="-0.58864">
        <ele>19</ele>
        <time>2020-09-30T14:13:02Z</time>
      </trkpt>
      <trkpt lat="47.45059" lon="-0.58864">
        <ele>19</ele>
        <time>2020-09-30T14:13:03Z</time>
      </trkpt>
      <trkpt lat="47.45067" lon="-0.58858">
        <ele>19</ele>
        <time>2020-09-30T14:13:08Z</time>
      </trkpt>
      <trkpt lat="47.45072" lon="-0.58852">
        <ele>18</ele>
        <time>2020-09-30T14:13:14Z</time>
      </trkpt>
      <trkpt lat="47.45061" lon="-0.58853">
        <ele>17.6</ele>
        <time>2020-09-30T14:22:55Z</time>
      </trkpt>
      <trkpt lat="47.45059" lon="-0.58854">
        <ele>17.4</ele>
        <time>2020-09-30T14:22:57Z</time>
      </trkpt>
      <trkpt lat="47.45056" lon="-0.58859">
        <ele>17.4</ele>
        <time>2020-09-30T14:23:03Z</time>
      </trkpt>
      <trkpt lat="47.45052" lon="-0.58862">
        <ele>17.8</ele>
        <time>2020-09-30T14:23:05Z</time>
      </trkpt>
      <trkpt lat="47.4504" lon="-0.58867">
        <ele>18.2</ele>
        <time>2020-09-30T14:23:11Z</time>
      </trkpt>
      <trkpt lat="47.45034" lon="-0.58867">
        <ele>18</ele>
        <time>2020-09-30T14:23:25Z</time>
      </trkpt>
      <trkpt lat="47.45024" lon="-0.5887">
        <ele>16.8</ele>
        <time>2020-09-30T14:23:30Z</time>
      </trkpt>
      <trkpt lat="47.45022" lon="-0.5887">
        <ele>16.8</ele>
        <time>2020-09-30T14:23:31Z</time>
      </trkpt>
      <trkpt lat="47.45005" lon="-0.58871">
        <ele>16.6</ele>
        <time>2020-09-30T14:23:38Z</time>
      </trkpt>
      <trkpt lat="47.44984" lon="-0.5888">
        <ele>17.2</ele>
        <time>2020-09-30T14:23:46Z</time>
      </trkpt>
      <trkpt lat="47.44971" lon="-0.58887">
        <ele>18</ele>
        <time>2020-09-30T14:23:51Z</time>
      </trkpt>
      <trkpt lat="47.44964" lon="-0.58888">
        <ele>18</ele>
        <time>2020-09-30T14:23:53Z</time>
      </trkpt>
      <trkpt lat="47.44944" lon="-0.58885">
        <ele>17.6</ele>
        <time>2020-09-30T14:23:59Z</time>
      </trkpt>
      <trkpt lat="47.44933" lon="-0.58883">
        <ele>16.8</ele>
        <time>2020-09-30T14:24:02Z</time>
      </trkpt>
      <trkpt lat="47.44917" lon="-0.58881">
        <ele>15.8</ele>
        <time>2020-09-30T14:24:06Z</time>
      </trkpt>
      <trkpt lat="47.44913" lon="-0.5888">
        <ele>15.6</ele>
        <time>2020-09-30T14:24:07Z</time>
      </trkpt>
      <trkpt lat="47.44895" lon="-0.58878">
        <ele>15</ele>
        <time>2020-09-30T14:24:12Z</time>
      </trkpt>
      <trkpt lat="47.44881" lon="-0.58877">
        <ele>14.4</ele>
        <time>2020-09-30T14:24:16Z</time>
      </trkpt>
      <trkpt lat="47.44865" lon="-0.58877">
        <ele>14.2</ele>
        <time>2020-09-30T14:24:21Z</time>
      </trkpt>
      <trkpt lat="47.44846" lon="-0.58877">
        <ele>14.6</ele>
        <time>2020-09-30T14:24:28Z</time>
      </trkpt>
      <trkpt lat="47.44834" lon="-0.58872">
        <ele>15</ele>
        <time>2020-09-30T14:27:26Z</time>
      </trkpt>
      <trkpt lat="47.44829" lon="-0.58847">
        <ele>14.6</ele>
        <time>2020-09-30T14:27:34Z</time>
      </trkpt>
      <trkpt lat="47.44821" lon="-0.5882">
        <ele>13.4</ele>
        <time>2020-09-30T14:27:40Z</time>
      </trkpt>
      <trkpt lat="47.4482" lon="-0.58815">
        <ele>13.2</ele>
        <time>2020-09-30T14:27:41Z</time>
      </trkpt>
      <trkpt lat="47.44812" lon="-0.58779">
        <ele>12.4</ele>
        <time>2020-09-30T14:27:48Z</time>
      </trkpt>
      <trkpt lat="47.4481" lon="-0.58768">
        <ele>12.6</ele>
        <time>2020-09-30T14:27:50Z</time>
      </trkpt>
      <trkpt lat="47.44809" lon="-0.58756">
        <ele>13.4</ele>
        <time>2020-09-30T14:27:52Z</time>
      </trkpt>
      <trkpt lat="47.44806" lon="-0.58739">
        <ele>15</ele>
        <time>2020-09-30T14:27:55Z</time>
      </trkpt>
      <trkpt lat="47.44806" lon="-0.58722">
        <ele>16.2</ele>
        <time>2020-09-30T14:27:58Z</time>
      </trkpt>
      <trkpt lat="47.44806" lon="-0.58712">
        <ele>17.2</ele>
        <time>2020-09-30T14:28:00Z</time>
      </trkpt>
      <trkpt lat="47.44807" lon="-0.58707">
        <ele>17.6</ele>
        <time>2020-09-30T14:28:01Z</time>
      </trkpt>
      <trkpt lat="47.4481" lon="-0.58693">
        <ele>18.8</ele>
        <time>2020-09-30T14:28:04Z</time>
      </trkpt>
      <trkpt lat="47.44813" lon="-0.58682">
        <ele>19.8</ele>
        <time>2020-09-30T14:28:06Z</time>
      </trkpt>
      <trkpt lat="47.44815" lon="-0.58676">
        <ele>20.4</ele>
        <time>2020-09-30T14:28:07Z</time>
      </trkpt>
      <trkpt lat="47.44819" lon="-0.5866">
        <ele>21.6</ele>
        <time>2020-09-30T14:28:10Z</time>
      </trkpt>
      <trkpt lat="47.44825" lon="-0.58644">
        <ele>22.6</ele>
        <time>2020-09-30T14:28:13Z</time>
      </trkpt>
      <trkpt lat="47.44829" lon="-0.5863">
        <ele>23.6</ele>
        <time>2020-09-30T14:28:16Z</time>
      </trkpt>
      <trkpt lat="47.4483" lon="-0.58626">
        <ele>23.6</ele>
        <time>2020-09-30T14:28:17Z</time>
      </trkpt>
      <trkpt lat="47.4484" lon="-0.58601">
        <ele>24.8</ele>
        <time>2020-09-30T14:28:23Z</time>
      </trkpt>
      <trkpt lat="47.44851" lon="-0.58571">
        <ele>25</ele>
        <time>2020-09-30T14:28:30Z</time>
      </trkpt>
      <trkpt lat="47.44868" lon="-0.58537">
        <ele>25.2</ele>
        <time>2020-09-30T14:28:38Z</time>
      </trkpt>
      <trkpt lat="47.44878" lon="-0.58512">
        <ele>26.8</ele>
        <time>2020-09-30T14:28:43Z</time>
      </trkpt>
      <trkpt lat="47.44877" lon="-0.58506">
        <ele>27.2</ele>
        <time>2020-09-30T14:28:44Z</time>
      </trkpt>
      <trkpt lat="47.44872" lon="-0.58497">
        <ele>28</ele>
        <time>2020-09-30T14:28:46Z</time>
      </trkpt>
      <trkpt lat="47.44868" lon="-0.58488">
        <ele>28.2</ele>
        <time>2020-09-30T14:28:48Z</time>
      </trkpt>
      <trkpt lat="47.44863" lon="-0.58479">
        <ele>28.4</ele>
        <time>2020-09-30T14:28:50Z</time>
      </trkpt>
      <trkpt lat="47.44848" lon="-0.58452">
        <ele>29.2</ele>
        <time>2020-09-30T14:28:56Z</time>
      </trkpt>
      <trkpt lat="47.4484" lon="-0.58439">
        <ele>29.6</ele>
        <time>2020-09-30T14:28:59Z</time>
      </trkpt>
      <trkpt lat="47.4483" lon="-0.58422">
        <ele>30.4</ele>
        <time>2020-09-30T14:29:03Z</time>
      </trkpt>
      <trkpt lat="47.44821" lon="-0.58409">
        <ele>31.2</ele>
        <time>2020-09-30T14:29:06Z</time>
      </trkpt>
      <trkpt lat="47.44819" lon="-0.58405">
        <ele>31.4</ele>
        <time>2020-09-30T14:29:07Z</time>
      </trkpt>
      <trkpt lat="47.44799" lon="-0.5837">
        <ele>32.2</ele>
        <time>2020-09-30T14:29:14Z</time>
      </trkpt>
      <trkpt lat="47.44775" lon="-0.58333">
        <ele>32.4</ele>
        <time>2020-09-30T14:29:22Z</time>
      </trkpt>
      <trkpt lat="47.44772" lon="-0.58328">
        <ele>32.2</ele>
        <time>2020-09-30T14:29:23Z</time>
      </trkpt>
      <trkpt lat="47.44745" lon="-0.58287">
        <ele>31.8</ele>
        <time>2020-09-30T14:29:32Z</time>
      </trkpt>
      <trkpt lat="47.44712" lon="-0.58237">
        <ele>32.6</ele>
        <time>2020-09-30T14:29:43Z</time>
      </trkpt>
      <trkpt lat="47.447" lon="-0.58219">
        <ele>33.6</ele>
        <time>2020-09-30T14:29:47Z</time>
      </trkpt>
      <trkpt lat="47.44688" lon="-0.58198">
        <ele>35</ele>
        <time>2020-09-30T14:29:51Z</time>
      </trkpt>
      <trkpt lat="47.44685" lon="-0.58193">
        <ele>35.2</ele>
        <time>2020-09-30T14:29:52Z</time>
      </trkpt>
      <trkpt lat="47.44678" lon="-0.58177">
        <ele>36.2</ele>
        <time>2020-09-30T14:29:55Z</time>
      </trkpt>
      <trkpt lat="47.44664" lon="-0.58143">
        <ele>36.4</ele>
        <time>2020-09-30T14:30:01Z</time>
      </trkpt>
      <trkpt lat="47.44656" lon="-0.58122">
        <ele>37.2</ele>
        <time>2020-09-30T14:30:05Z</time>
      </trkpt>
      <trkpt lat="47.44651" lon="-0.5811">
        <ele>37.6</ele>
        <time>2020-09-30T14:30:08Z</time>
      </trkpt>
      <trkpt lat="47.44649" lon="-0.58103">
        <ele>38</ele>
        <time>2020-09-30T14:30:34Z</time>
      </trkpt>
      <trkpt lat="47.44648" lon="-0.581">
        <ele>38.2</ele>
        <time>2020-09-30T14:30:35Z</time>
      </trkpt>
      <trkpt lat="47.44639" lon="-0.58075">
        <ele>37.4</ele>
        <time>2020-09-30T14:30:41Z</time>
      </trkpt>
      <trkpt lat="47.44636" lon="-0.58064">
        <ele>37</ele>
        <time>2020-09-30T14:30:43Z</time>
      </trkpt>
      <trkpt lat="47.44629" lon="-0.58048">
        <ele>36</ele>
        <time>2020-09-30T14:30:46Z</time>
      </trkpt>
      <trkpt lat="47.44623" lon="-0.58032">
        <ele>35</ele>
        <time>2020-09-30T14:30:49Z</time>
      </trkpt>
      <trkpt lat="47.44609" lon="-0.57991">
        <ele>34.6</ele>
        <time>2020-09-30T14:30:56Z</time>
      </trkpt>
      <trkpt lat="47.44592" lon="-0.57948">
        <ele>35</ele>
        <time>2020-09-30T14:31:04Z</time>
      </trkpt>
      <trkpt lat="47.44581" lon="-0.57933">
        <ele>34.8</ele>
        <time>2020-09-30T14:31:08Z</time>
      </trkpt>
      <trkpt lat="47.44578" lon="-0.57928">
        <ele>34.8</ele>
        <time>2020-09-30T14:31:09Z</time>
      </trkpt>
      <trkpt lat="47.44553" lon="-0.57878">
        <ele>34.2</ele>
        <time>2020-09-30T14:31:18Z</time>
      </trkpt>
      <trkpt lat="47.44535" lon="-0.5782">
        <ele>35.4</ele>
        <time>2020-09-30T14:31:27Z</time>
      </trkpt>
      <trkpt lat="47.44528" lon="-0.57802">
        <ele>36.2</ele>
        <time>2020-09-30T14:31:30Z</time>
      </trkpt>
      <trkpt lat="47.44515" lon="-0.57772">
        <ele>37</ele>
        <time>2020-09-30T14:31:35Z</time>
      </trkpt>
      <trkpt lat="47.44512" lon="-0.57766">
        <ele>37.2</ele>
        <time>2020-09-30T14:31:36Z</time>
      </trkpt>
      <trkpt lat="47.44491" lon="-0.5772">
        <ele>37.8</ele>
        <time>2020-09-30T14:31:44Z</time>
      </trkpt>
      <trkpt lat="47.44478" lon="-0.57693">
        <ele>38</ele>
        <time>2020-09-30T14:31:49Z</time>
      </trkpt>
      <trkpt lat="47.44473" lon="-0.57684">
        <ele>38.2</ele>
        <time>2020-09-30T14:31:51Z</time>
      </trkpt>
      <trkpt lat="47.4447" lon="-0.5768">
        <ele>38.4</ele>
        <time>2020-09-30T14:31:52Z</time>
      </trkpt>
      <trkpt lat="47.44468" lon="-0.57669">
        <ele>38.8</ele>
        <time>2020-09-30T14:31:54Z</time>
      </trkpt>
      <trkpt lat="47.44478" lon="-0.57658">
        <ele>38.8</ele>
        <time>2020-09-30T14:31:57Z</time>
      </trkpt>
      <trkpt lat="47.44482" lon="-0.57656">
        <ele>38.8</ele>
        <time>2020-09-30T14:31:58Z</time>
      </trkpt>
      <trkpt lat="47.44509" lon="-0.57634">
        <ele>38.6</ele>
        <time>2020-09-30T14:32:04Z</time>
      </trkpt>
      <trkpt lat="47.44551" lon="-0.576">
        <ele>38.2</ele>
        <time>2020-09-30T14:32:13Z</time>
      </trkpt>
      <trkpt lat="47.44594" lon="-0.57562">
        <ele>37.8</ele>
        <time>2020-09-30T14:32:22Z</time>
      </trkpt>
      <trkpt lat="47.44643" lon="-0.5752">
        <ele>37.6</ele>
        <time>2020-09-30T14:32:31Z</time>
      </trkpt>
      <trkpt lat="47.44649" lon="-0.57515">
        <ele>37.6</ele>
        <time>2020-09-30T14:32:32Z</time>
      </trkpt>
      <trkpt lat="47.44672" lon="-0.57496">
        <ele>37.2</ele>
        <time>2020-09-30T14:32:36Z</time>
      </trkpt>
      <trkpt lat="47.44706" lon="-0.57467">
        <ele>37.2</ele>
        <time>2020-09-30T14:32:42Z</time>
      </trkpt>
      <trkpt lat="47.44752" lon="-0.5743">
        <ele>38.2</ele>
        <time>2020-09-30T14:32:50Z</time>
      </trkpt>
      <trkpt lat="47.44763" lon="-0.57421">
        <ele>38.4</ele>
        <time>2020-09-30T14:32:52Z</time>
      </trkpt>
      <trkpt lat="47.44804" lon="-0.57385">
        <ele>39</ele>
        <time>2020-09-30T14:33:00Z</time>
      </trkpt>
      <trkpt lat="47.44814" lon="-0.57376">
        <ele>39.2</ele>
        <time>2020-09-30T14:33:02Z</time>
      </trkpt>
      <trkpt lat="47.44853" lon="-0.5734">
        <ele>39.8</ele>
        <time>2020-09-30T14:33:10Z</time>
      </trkpt>
      <trkpt lat="47.44866" lon="-0.57323">
        <ele>39.8</ele>
        <time>2020-09-30T14:33:13Z</time>
      </trkpt>
      <trkpt lat="47.44872" lon="-0.57308">
        <ele>39.8</ele>
        <time>2020-09-30T14:33:15Z</time>
      </trkpt>
      <trkpt lat="47.44878" lon="-0.57292">
        <ele>40</ele>
        <time>2020-09-30T14:33:17Z</time>
      </trkpt>
      <trkpt lat="47.44886" lon="-0.57282">
        <ele>40</ele>
        <time>2020-09-30T14:33:19Z</time>
      </trkpt>
      <trkpt lat="47.44903" lon="-0.57277">
        <ele>40</ele>
        <time>2020-09-30T14:33:22Z</time>
      </trkpt>
      <trkpt lat="47.44936" lon="-0.57268">
        <ele>40.2</ele>
        <time>2020-09-30T14:33:28Z</time>
      </trkpt>
      <trkpt lat="47.44975" lon="-0.57254">
        <ele>40.2</ele>
        <time>2020-09-30T14:33:35Z</time>
      </trkpt>
      <trkpt lat="47.45015" lon="-0.57235">
        <ele>39.8</ele>
        <time>2020-09-30T14:33:42Z</time>
      </trkpt>
      <trkpt lat="47.45064" lon="-0.57205">
        <ele>39.4</ele>
        <time>2020-09-30T14:33:50Z</time>
      </trkpt>
      <trkpt lat="47.45111" lon="-0.57169">
        <ele>38.6</ele>
        <time>2020-09-30T14:33:58Z</time>
      </trkpt>
      <trkpt lat="47.45124" lon="-0.5716">
        <ele>38.2</ele>
        <time>2020-09-30T14:34:00Z</time>
      </trkpt>
      <trkpt lat="47.45167" lon="-0.57127">
        <ele>37.8</ele>
        <time>2020-09-30T14:34:07Z</time>
      </trkpt>
      <trkpt lat="47.45178" lon="-0.57116">
        <ele>37.4</ele>
        <time>2020-09-30T14:34:09Z</time>
      </trkpt>
      <trkpt lat="47.45183" lon="-0.57099">
        <ele>37.2</ele>
        <time>2020-09-30T14:34:11Z</time>
      </trkpt>
      <trkpt lat="47.45178" lon="-0.57071">
        <ele>36.6</ele>
        <time>2020-09-30T14:34:14Z</time>
      </trkpt>
      <trkpt lat="47.45166" lon="-0.57046">
        <ele>36.4</ele>
        <time>2020-09-30T14:34:17Z</time>
      </trkpt>
      <trkpt lat="47.45162" lon="-0.57038">
        <ele>36.2</ele>
        <time>2020-09-30T14:34:18Z</time>
      </trkpt>
      <trkpt lat="47.45154" lon="-0.57022">
        <ele>36</ele>
        <time>2020-09-30T14:34:20Z</time>
      </trkpt>
      <trkpt lat="47.45118" lon="-0.5695">
        <ele>35.8</ele>
        <time>2020-09-30T14:34:29Z</time>
      </trkpt>
      <trkpt lat="47.45107" lon="-0.56928">
        <ele>35</ele>
        <time>2020-09-30T14:34:32Z</time>
      </trkpt>
      <trkpt lat="47.45091" lon="-0.56893">
        <ele>34</ele>
        <time>2020-09-30T14:34:37Z</time>
      </trkpt>
      <trkpt lat="47.45088" lon="-0.56885">
        <ele>33.8</ele>
        <time>2020-09-30T14:34:38Z</time>
      </trkpt>
      <trkpt lat="47.45078" lon="-0.56855">
        <ele>32.6</ele>
        <time>2020-09-30T14:34:42Z</time>
      </trkpt>
      <trkpt lat="47.45074" lon="-0.56848">
        <ele>32.4</ele>
        <time>2020-09-30T14:34:43Z</time>
      </trkpt>
      <trkpt lat="47.45065" lon="-0.56829">
        <ele>31.6</ele>
        <time>2020-09-30T14:34:46Z</time>
      </trkpt>
      <trkpt lat="47.45053" lon="-0.56807">
        <ele>31.2</ele>
        <time>2020-09-30T14:34:50Z</time>
      </trkpt>
      <trkpt lat="47.45045" lon="-0.56791">
        <ele>30.4</ele>
        <time>2020-09-30T14:34:54Z</time>
      </trkpt>
      <trkpt lat="47.45043" lon="-0.56781">
        <ele>30</ele>
        <time>2020-09-30T14:35:07Z</time>
      </trkpt>
      <trkpt lat="47.45047" lon="-0.56765">
        <ele>30.2</ele>
        <time>2020-09-30T14:35:10Z</time>
      </trkpt>
      <trkpt lat="47.4505" lon="-0.5676">
        <ele>30.4</ele>
        <time>2020-09-30T14:35:11Z</time>
      </trkpt>
      <trkpt lat="47.45067" lon="-0.56746">
        <ele>30.6</ele>
        <time>2020-09-30T14:35:15Z</time>
      </trkpt>
      <trkpt lat="47.451" lon="-0.56727">
        <ele>31</ele>
        <time>2020-09-30T14:35:22Z</time>
      </trkpt>
      <trkpt lat="47.45149" lon="-0.567">
        <ele>31.2</ele>
        <time>2020-09-30T14:35:31Z</time>
      </trkpt>
      <trkpt lat="47.45169" lon="-0.56685">
        <ele>31.4</ele>
        <time>2020-09-30T14:35:35Z</time>
      </trkpt>
      <trkpt lat="47.4519" lon="-0.56668">
        <ele>31.8</ele>
        <time>2020-09-30T14:35:39Z</time>
      </trkpt>
      <trkpt lat="47.45219" lon="-0.56637">
        <ele>32.6</ele>
        <time>2020-09-30T14:35:45Z</time>
      </trkpt>
      <trkpt lat="47.4523" lon="-0.56627">
        <ele>33.4</ele>
        <time>2020-09-30T14:35:47Z</time>
      </trkpt>
      <trkpt lat="47.45245" lon="-0.5661">
        <ele>33.6</ele>
        <time>2020-09-30T14:35:50Z</time>
      </trkpt>
      <trkpt lat="47.45267" lon="-0.56585">
        <ele>33.2</ele>
        <time>2020-09-30T14:35:55Z</time>
      </trkpt>
      <trkpt lat="47.45282" lon="-0.56565">
        <ele>33.2</ele>
        <time>2020-09-30T14:36:01Z</time>
      </trkpt>
      <trkpt lat="47.45286" lon="-0.56563">
        <ele>33.2</ele>
        <time>2020-09-30T14:36:32Z</time>
      </trkpt>
      <trkpt lat="47.45288" lon="-0.56561">
        <ele>33.6</ele>
        <time>2020-09-30T14:36:33Z</time>
      </trkpt>
      <trkpt lat="47.453" lon="-0.56544">
        <ele>33.4</ele>
        <time>2020-09-30T14:36:38Z</time>
      </trkpt>
      <trkpt lat="47.45311" lon="-0.56533">
        <ele>34</ele>
        <time>2020-09-30T14:36:41Z</time>
      </trkpt>
      <trkpt lat="47.4532" lon="-0.56523">
        <ele>34.2</ele>
        <time>2020-09-30T14:36:43Z</time>
      </trkpt>
      <trkpt lat="47.45348" lon="-0.5648">
        <ele>33.8</ele>
        <time>2020-09-30T14:36:50Z</time>
      </trkpt>
      <trkpt lat="47.45379" lon="-0.56429">
        <ele>33.2</ele>
        <time>2020-09-30T14:36:58Z</time>
      </trkpt>
      <trkpt lat="47.45404" lon="-0.56395">
        <ele>33</ele>
        <time>2020-09-30T14:37:04Z</time>
      </trkpt>
      <trkpt lat="47.45408" lon="-0.56391">
        <ele>33</ele>
        <time>2020-09-30T14:37:05Z</time>
      </trkpt>
      <trkpt lat="47.45433" lon="-0.56372">
        <ele>33.4</ele>
        <time>2020-09-30T14:37:10Z</time>
      </trkpt>
      <trkpt lat="47.45459" lon="-0.56353">
        <ele>33.2</ele>
        <time>2020-09-30T14:37:16Z</time>
      </trkpt>
      <trkpt lat="47.4547" lon="-0.56342">
        <ele>32.8</ele>
        <time>2020-09-30T14:37:19Z</time>
      </trkpt>
      <trkpt lat="47.45471" lon="-0.56336">
        <ele>32.6</ele>
        <time>2020-09-30T14:37:20Z</time>
      </trkpt>
      <trkpt lat="47.4547" lon="-0.56331">
        <ele>32.2</ele>
        <time>2020-09-30T14:37:21Z</time>
      </trkpt>
      <trkpt lat="47.45466" lon="-0.56322">
        <ele>31.6</ele>
        <time>2020-09-30T14:37:23Z</time>
      </trkpt>
      <trkpt lat="47.45459" lon="-0.56312">
        <ele>30.8</ele>
        <time>2020-09-30T14:37:25Z</time>
      </trkpt>
      <trkpt lat="47.45447" lon="-0.5629">
        <ele>29.6</ele>
        <time>2020-09-30T14:37:29Z</time>
      </trkpt>
      <trkpt lat="47.45441" lon="-0.56278">
        <ele>29</ele>
        <time>2020-09-30T14:37:31Z</time>
      </trkpt>
      <trkpt lat="47.45435" lon="-0.56265">
        <ele>28.4</ele>
        <time>2020-09-30T14:37:33Z</time>
      </trkpt>
      <trkpt lat="47.45421" lon="-0.56239">
        <ele>27.4</ele>
        <time>2020-09-30T14:37:37Z</time>
      </trkpt>
      <trkpt lat="47.45411" lon="-0.5622">
        <ele>26.6</ele>
        <time>2020-09-30T14:37:40Z</time>
      </trkpt>
      <trkpt lat="47.45407" lon="-0.56213">
        <ele>26.2</ele>
        <time>2020-09-30T14:37:41Z</time>
      </trkpt>
      <trkpt lat="47.45389" lon="-0.56179">
        <ele>25.2</ele>
        <time>2020-09-30T14:37:46Z</time>
      </trkpt>
      <trkpt lat="47.45382" lon="-0.56165">
        <ele>24.8</ele>
        <time>2020-09-30T14:37:48Z</time>
      </trkpt>
      <trkpt lat="47.4537" lon="-0.56144">
        <ele>24.2</ele>
        <time>2020-09-30T14:37:51Z</time>
      </trkpt>
      <trkpt lat="47.45347" lon="-0.56101">
        <ele>23.4</ele>
        <time>2020-09-30T14:37:57Z</time>
      </trkpt>
      <trkpt lat="47.45328" lon="-0.56065">
        <ele>23.2</ele>
        <time>2020-09-30T14:38:02Z</time>
      </trkpt>
      <trkpt lat="47.45321" lon="-0.56051">
        <ele>22.8</ele>
        <time>2020-09-30T14:38:04Z</time>
      </trkpt>
      <trkpt lat="47.453" lon="-0.56006">
        <ele>23.8</ele>
        <time>2020-09-30T14:38:10Z</time>
      </trkpt>
      <trkpt lat="47.45272" lon="-0.55951">
        <ele>24.2</ele>
        <time>2020-09-30T14:38:18Z</time>
      </trkpt>
      <trkpt lat="47.45257" lon="-0.55922">
        <ele>25.2</ele>
        <time>2020-09-30T14:38:23Z</time>
      </trkpt>
      <trkpt lat="47.45248" lon="-0.55905">
        <ele>25</ele>
        <time>2020-09-30T14:38:26Z</time>
      </trkpt>
      <trkpt lat="47.45239" lon="-0.55892">
        <ele>25</ele>
        <time>2020-09-30T14:38:30Z</time>
      </trkpt>
      <trkpt lat="47.45232" lon="-0.55875">
        <ele>25.4</ele>
        <time>2020-09-30T14:38:35Z</time>
      </trkpt>
      <trkpt lat="47.45216" lon="-0.55845">
        <ele>25.2</ele>
        <time>2020-09-30T14:38:40Z</time>
      </trkpt>
      <trkpt lat="47.45198" lon="-0.55808">
        <ele>26.2</ele>
        <time>2020-09-30T14:38:46Z</time>
      </trkpt>
      <trkpt lat="47.45191" lon="-0.55797">
        <ele>26.2</ele>
        <time>2020-09-30T14:38:48Z</time>
      </trkpt>
      <trkpt lat="47.45183" lon="-0.55792">
        <ele>26.2</ele>
        <time>2020-09-30T14:38:50Z</time>
      </trkpt>
      <trkpt lat="47.4518" lon="-0.55791">
        <ele>26.4</ele>
        <time>2020-09-30T14:38:51Z</time>
      </trkpt>
      <trkpt lat="47.45176" lon="-0.55789">
        <ele>26.6</ele>
        <time>2020-09-30T14:38:53Z</time>
      </trkpt>
      <trkpt lat="47.45175" lon="-0.55786">
        <ele>26.6</ele>
        <time>2020-09-30T14:38:54Z</time>
      </trkpt>
      <trkpt lat="47.45176" lon="-0.55768">
        <ele>26.4</ele>
        <time>2020-09-30T14:38:58Z</time>
      </trkpt>
      <trkpt lat="47.45171" lon="-0.55763">
        <ele>26</ele>
        <time>2020-09-30T14:39:01Z</time>
      </trkpt>
      <trkpt lat="47.45164" lon="-0.55752">
        <ele>25.2</ele>
        <time>2020-09-30T14:39:06Z</time>
      </trkpt>
    </trkseg>
  </trk>
</gpx>